Site Date LOGGERID PROGID AIRTEMP_MEAN_150_0_04 AIRTEMP_MEAN_250_0_03 AIRTEMP_MEAN_350_0_02 AIRTEMP_MEAN_450_0_01 AIRTEMP_MEAN_350_0_08 RELHUM_MEAN_150_0_04 RELHUM_MEAN_450_0_01 DEWPT_MEAN_150_0_04 DEWPT_MEAN_450_0_01 SW_IN_MEAN_600_0_01 SW_OUT_MEAN_600_0_01 SOILTEMP_MEAN_0_10_01 SOILTEMP_MEAN_0_20_02 SOILTEMP_MEAN_0_50_03 SOILTEMP_MEAN_0_100_04 BATTERY_INST_0_0_01 AIRTEMP_MAX_150_0_04 AIRTEMP_MAX_250_0_03 AIRTEMP_MAX_350_0_02 AIRTEMP_MAX_450_0_01 AIRTEMP_MAX_350_0_08 DEWPT_MAX_150_0_04 DEWPT_MAX_450_0_01 SW_IN_MAX_600_0_01 SW_OUT_MAX_600_0_01 WSPD_PRO_MAX_1000_0_01 WSPD_SNC_MAX_1000_0_02 AIRTEMP_MIN_150_0_04 AIRTEMP_MIN_250_0_03 AIRTEMP_MIN_350_0_02 AIRTEMP_MIN_450_0_01 AIRTEMP_MIN_350_0_08 DEWPT_MIN_150_0_04 DEWPT_MIN_450_0_01 SNOWDEP_INST_0_0_01 SNOWDEP_MED_0_0_01 SNOWDEP_QUAL SWE_INST_0_0_01 SWE_MED_0_0_01 WSPD_PRO_MEAN_1000_0_01 WDIR_PRO_MEAN_1000_0_01 WDIR_PRO_STDDEV_1000_0_01 WSPD_SNC_MEAN_1000_0_02 WDIR_SNC_MEAN_1000_0_02 WDIR_SNC_STDDEV_1000_0_02 SATVP_MEAN_150_0_04 VAP_MEAN_150_0_04 VPD_MEAN_150_0_04 SATVP_MEAN_450_0_01 VAP_MEAN_450_0_01 VPD_MEAN_450_0_01
WS7MET_125 2017-10-01 00:00:00 125 30483.0 6.099 6.341 6.405 6.314 6.323 100.000 100.000 6.104 6.319 0.00 0.00 12.960 13.330 13.340 12.600 12.800 6.205 6.367 6.435 6.444 6.377 6.209 6.449 0.00 0.00 1.0060 1.4000 6.000 6.309 6.377 6.239 6.280 6.005 6.244 0.00000 0.00 318 0.00 0.00 0.4660 266.20 20.89 0.6150 270.100 39.180 9.415 9.418 0.000 9.556 9.559 0.000
WS7MET_125 2017-09-30 23:55:00 125 30483.0 6.121 6.366 6.431 6.353 6.350 100.000 100.000 6.126 6.359 0.00 0.00 12.960 13.330 13.340 12.600 12.800 6.239 6.406 6.455 6.410 6.416 6.244 6.415 0.00 0.00 1.1240 1.1000 6.035 6.348 6.416 6.307 6.309 6.039 6.312 0.00000 0.00 318 0.00 0.00 0.3460 289.60 35.42 0.4900 299.500 39.260 9.429 9.432 0.000 9.582 9.586 0.000
WS7MET_125 2017-09-30 23:50:00 125 30483.0 6.088 6.360 6.427 6.313 6.377 100.000 100.000 6.093 6.318 0.00 0.00 12.960 13.330 13.340 12.600 12.800 6.204 6.406 6.474 6.375 6.484 6.209 6.380 0.00 0.00 0.9930 1.2000 5.999 6.348 6.416 6.238 6.319 6.004 6.243 0.00000 0.00 318 0.00 0.00 0.2780 218.00 62.50 0.5150 206.800 66.410 9.408 9.411 0.000 9.555 9.558 0.000
WS7MET_125 2017-09-30 23:45:00 125 30483.0 6.080 6.346 6.415 6.310 6.364 100.000 100.000 6.085 6.315 0.00 0.00 12.970 13.330 13.340 12.590 12.810 6.170 6.348 6.426 6.375 6.416 6.175 6.380 0.00 0.00 0.1500 0.4000 5.965 6.328 6.397 6.238 6.319 5.970 6.243 0.00000 0.00 318 0.00 0.00 0.0080 334.10 1.41 0.2350 265.000 23.290 9.402 9.406 0.000 9.553 9.556 0.000
WS7MET_125 2017-09-30 23:40:00 125 30483.0 6.068 6.341 6.412 6.324 6.338 100.000 100.000 6.073 6.329 0.00 0.00 12.980 13.330 13.340 12.600 12.810 6.171 6.367 6.435 6.376 6.367 6.176 6.381 0.00 0.00 0.0980 0.4000 6.000 6.328 6.397 6.273 6.328 6.005 6.278 0.00000 0.00 318 0.00 0.00 0.0100 281.30 6.55 0.1950 220.900 71.480 9.395 9.398 0.000 9.562 9.566 0.000
WS7MET_125 2017-09-30 23:35:00 125 30483.0 6.080 6.331 6.413 6.317 6.366 100.000 100.000 6.085 6.322 0.00 0.00 12.990 13.330 13.340 12.600 12.820 6.204 6.367 6.455 6.409 6.455 6.209 6.414 0.00 0.00 0.3460 0.6000 5.966 6.309 6.397 6.239 6.309 5.970 6.244 0.00000 0.00 318 0.00 0.00 0.0820 305.30 59.15 0.2850 335.900 69.390 9.402 9.406 0.000 9.558 9.561 0.000
WS7MET_125 2017-09-30 23:30:00 125 30483.0 6.090 6.333 6.406 6.325 6.329 100.000 100.000 6.095 6.330 0.00 0.00 12.990 13.330 13.330 12.600 12.820 6.170 6.348 6.416 6.375 6.348 6.175 6.380 0.00 0.00 0.9080 1.3000 5.965 6.319 6.397 6.204 6.309 5.970 6.209 0.00000 0.00 318 0.00 0.00 0.1430 267.00 57.93 0.3950 45.940 48.060 9.409 9.412 0.000 9.563 9.566 0.000
WS7MET_125 2017-09-30 23:25:00 125 30483.0 6.134 6.358 6.434 6.346 6.357 100.000 100.000 6.139 6.351 0.00 0.00 13.000 13.330 13.330 12.600 12.820 6.205 6.367 6.455 6.409 6.445 6.210 6.414 0.00 0.00 0.6080 1.4000 6.000 6.348 6.416 6.273 6.328 6.005 6.278 0.00000 0.00 318 0.00 0.00 0.2080 256.20 14.61 0.4950 269.600 55.030 9.438 9.441 0.000 9.577 9.580 0.000
WS7MET_125 2017-09-30 23:20:00 125 30483.0 6.110 6.365 6.426 6.326 6.354 100.000 100.000 6.114 6.331 0.00 0.00 13.000 13.330 13.330 12.600 12.820 6.205 6.387 6.435 6.410 6.397 6.210 6.415 0.00 0.00 0.9470 1.3000 6.001 6.348 6.406 6.273 6.319 6.005 6.278 0.00000 0.00 318 0.00 0.00 0.1620 301.70 23.74 0.4500 332.600 67.770 9.422 9.425 0.000 9.564 9.567 0.000
WS7MET_125 2017-09-30 23:15:00 125 30483.0 6.147 6.365 6.434 6.360 6.337 100.000 100.000 6.152 6.365 0.00 0.00 13.000 13.340 13.330 12.600 12.810 6.241 6.387 6.455 6.445 6.397 6.246 6.451 0.00 0.00 1.0260 1.3000 6.070 6.348 6.406 6.274 6.299 6.075 6.279 0.00000 0.00 318 0.00 0.00 0.2960 241.80 35.01 0.5600 283.100 58.410 9.446 9.449 0.000 9.586 9.589 0.000
WS7MET_125 2017-09-30 23:10:00 125 30483.0 6.156 6.398 6.462 6.358 6.392 100.000 100.000 6.161 6.363 0.00 0.00 13.000 13.340 13.330 12.600 12.820 6.241 6.406 6.474 6.411 6.445 6.246 6.416 0.00 0.00 0.6990 0.8000 6.036 6.387 6.445 6.274 6.348 6.040 6.279 0.00000 0.00 318 0.00 0.00 0.1320 317.20 43.41 0.3450 14.920 27.660 9.452 9.455 0.000 9.585 9.588 0.000
WS7MET_125 2017-09-30 23:05:00 125 30483.0 6.139 6.366 6.453 6.371 6.370 100.000 100.000 6.144 6.376 0.00 0.00 13.010 13.340 13.330 12.610 12.830 6.240 6.387 6.474 6.512 6.416 6.245 6.518 0.00 0.00 0.5880 1.0000 6.036 6.348 6.445 6.308 6.328 6.040 6.313 0.00000 0.00 318 0.00 0.00 0.2000 335.70 43.97 0.4050 13.360 45.770 9.441 9.444 0.000 9.593 9.597 0.000
WS7MET_125 2017-09-30 23:00:00 125 30483.0 6.161 6.401 6.482 6.397 6.401 100.000 100.000 6.166 6.402 0.00 0.00 13.010 13.340 13.330 12.600 12.830 6.274 6.406 6.494 6.445 6.455 6.279 6.450 0.00 0.00 0.0000 0.4000 6.035 6.387 6.465 6.308 6.367 6.040 6.313 0.00000 0.00 318 0.00 0.00 0.0000 0.00 0.00 0.1850 30.840 65.260 9.455 9.459 0.000 9.611 9.614 0.000
WS7MET_125 2017-09-30 22:55:00 125 30483.0 6.146 6.407 6.470 6.363 6.370 100.000 100.000 6.151 6.368 0.00 0.00 13.020 13.340 13.330 12.600 12.830 6.240 6.426 6.484 6.410 6.445 6.245 6.416 0.00 0.00 0.0000 0.5000 6.035 6.387 6.455 6.274 6.309 6.040 6.279 0.00000 0.00 318 0.00 0.00 0.0000 0.00 0.00 0.2100 317.600 37.160 9.445 9.449 0.000 9.588 9.591 0.000
WS7MET_125 2017-09-30 22:50:00 125 30483.0 6.103 6.383 6.453 6.352 6.422 100.000 100.000 6.107 6.357 0.00 0.00 13.030 13.340 13.330 12.600 12.840 6.239 6.426 6.484 6.444 6.484 6.244 6.449 0.00 0.00 0.5360 0.9000 6.000 6.338 6.416 6.273 6.348 6.005 6.278 0.00000 0.00 318 0.00 0.00 0.0980 47.61 7.42 0.3100 61.320 42.030 9.417 9.420 0.000 9.581 9.584 0.000
WS7MET_125 2017-09-30 22:45:00 125 30483.0 6.087 6.340 6.408 6.319 6.352 100.000 100.000 6.092 6.324 0.00 0.00 13.030 13.340 13.340 12.600 12.840 6.205 6.348 6.416 6.409 6.435 6.209 6.414 0.00 0.00 0.0000 0.4000 6.000 6.328 6.387 6.205 6.280 6.005 6.210 0.00000 0.00 318 0.00 0.00 0.0000 0.00 0.00 0.1200 55.870 22.490 9.407 9.410 0.000 9.559 9.562 0.000
WS7MET_125 2017-09-30 22:40:00 125 30483.0 6.123 6.314 6.379 6.295 6.275 100.000 100.000 6.128 6.300 0.00 0.00 13.040 13.350 13.340 12.600 12.850 6.205 6.328 6.397 6.376 6.338 6.210 6.381 0.00 0.00 0.7190 1.0000 6.034 6.309 6.367 6.239 6.241 6.039 6.244 0.00000 0.00 318 0.00 0.00 0.2150 51.69 8.73 0.3450 70.060 32.020 9.430 9.434 0.000 9.543 9.547 0.000
WS7MET_125 2017-09-30 22:35:00 125 30483.0 6.171 6.383 6.454 6.359 6.337 100.000 100.000 6.176 6.364 0.00 0.00 13.040 13.350 13.340 12.600 12.860 6.342 6.426 6.504 6.411 6.426 6.347 6.416 0.00 0.00 0.7910 1.0000 6.068 6.328 6.397 6.274 6.270 6.073 6.279 0.00000 0.00 318 0.00 0.00 0.2240 107.20 44.62 0.3600 159.500 31.340 9.462 9.465 0.000 9.586 9.589 0.000
WS7MET_125 2017-09-30 22:30:00 125 30483.0 6.170 6.420 6.494 6.395 6.418 100.000 100.000 6.175 6.400 0.00 0.00 13.040 13.350 13.340 12.600 12.860 6.274 6.426 6.504 6.479 6.484 6.279 6.484 0.00 0.00 0.0000 0.3000 6.069 6.406 6.474 6.274 6.377 6.074 6.279 0.00000 0.00 318 0.00 0.00 0.0000 0.00 0.00 0.1700 107.400 18.920 9.461 9.464 0.000 9.609 9.613 0.000
WS7MET_125 2017-09-30 22:25:00 125 30483.0 6.111 6.390 6.464 6.367 6.383 100.000 100.000 6.116 6.372 0.00 0.00 13.050 13.350 13.340 12.600 12.870 6.309 6.435 6.494 6.446 6.504 6.314 6.451 0.00 0.00 0.0000 0.3000 5.934 6.377 6.445 6.309 6.289 5.939 6.314 0.00000 0.00 318 0.00 0.00 0.0000 0.00 0.00 0.0600 94.200 6.180 9.423 9.426 0.000 9.591 9.594 0.000
WS7MET_125 2017-09-30 22:20:00 125 30483.0 6.097 6.347 6.429 6.363 6.402 100.000 100.000 6.102 6.368 0.00 0.00 13.050 13.350 13.340 12.600 12.870 6.275 6.387 6.465 6.445 6.465 6.280 6.450 0.00 0.00 0.0000 0.2000 6.001 6.299 6.397 6.308 6.328 6.006 6.313 0.00000 0.00 318 0.00 0.00 0.0000 0.00 0.00 0.1500 78.180 26.360 9.414 9.417 0.000 9.588 9.591 0.000
WS7MET_125 2017-09-30 22:15:00 125 30483.0 6.121 6.316 6.405 6.340 6.323 100.000 100.000 6.126 6.345 0.00 0.00 13.060 13.350 13.340 12.600 12.870 6.241 6.328 6.426 6.480 6.416 6.246 6.485 0.00 0.00 0.0000 0.5000 6.002 6.289 6.387 6.241 6.260 6.007 6.246 0.00000 0.00 318 0.00 0.00 0.0000 0.00 0.00 0.2500 18.730 79.830 9.429 9.432 0.000 9.573 9.576 0.000
WS7MET_125 2017-09-30 22:10:00 125 30483.0 6.123 6.326 6.408 6.331 6.332 100.000 100.000 6.128 6.336 0.00 0.00 13.070 13.350 13.340 12.600 12.880 6.275 6.328 6.416 6.411 6.358 6.280 6.416 0.00 0.00 0.0980 0.4000 5.933 6.319 6.406 6.308 6.289 5.938 6.313 0.00000 0.00 318 0.00 0.00 0.0050 57.71 0.00 0.1250 28.530 30.390 9.430 9.434 0.000 9.567 9.570 0.000
WS7MET_125 2017-09-30 22:05:00 125 30483.0 6.144 6.366 6.443 6.366 6.313 100.000 100.000 6.149 6.371 0.00 0.00 13.070 13.350 13.340 12.610 12.880 6.341 6.387 6.465 6.444 6.406 6.346 6.449 0.00 0.00 0.1570 0.6000 6.000 6.328 6.406 6.274 6.260 6.005 6.279 0.00000 0.00 318 0.00 0.00 0.0090 58.94 0.01 0.1950 55.400 40.300 9.444 9.447 0.000 9.590 9.593 0.000
WS7MET_125 2017-09-30 22:00:00 125 30483.0 6.209 6.400 6.473 6.403 6.367 100.000 100.000 6.214 6.408 0.00 0.00 13.070 13.350 13.340 12.590 12.890 6.342 6.435 6.504 6.478 6.426 6.347 6.483 0.00 0.00 0.0000 0.3000 6.068 6.387 6.455 6.342 6.328 6.073 6.347 0.00000 0.00 318 0.00 0.00 0.0000 0.00 0.00 0.1950 219.800 43.130 9.487 9.490 0.000 9.615 9.618 0.000
WS7MET_125 2017-09-30 21:55:00 125 30483.0 6.213 6.469 6.533 6.442 6.428 100.000 100.000 6.218 6.447 0.00 0.00 13.080 13.350 13.340 12.590 12.890 6.376 6.494 6.552 6.512 6.523 6.381 6.517 0.00 0.00 0.0000 0.4000 6.136 6.435 6.504 6.341 6.367 6.141 6.346 0.00000 0.00 318 0.00 0.00 0.0000 0.00 0.00 0.1400 186.500 42.870 9.489 9.493 0.000 9.641 9.644 0.000
WS7MET_125 2017-09-30 21:50:00 125 30483.0 6.184 6.448 6.520 6.416 6.492 100.000 100.000 6.189 6.421 0.00 0.00 13.090 13.350 13.330 12.600 12.900 6.342 6.474 6.533 6.478 6.523 6.347 6.483 0.00 0.00 0.3400 0.6000 6.068 6.426 6.484 6.342 6.445 6.073 6.347 0.00000 0.00 318 0.00 0.00 0.0330 201.40 2.35 0.2850 204.700 40.950 9.470 9.474 0.000 9.623 9.627 0.000
WS7MET_125 2017-09-30 21:45:00 125 30483.0 6.113 6.389 6.455 6.347 6.401 100.000 100.000 6.118 6.352 0.00 0.00 13.090 13.360 13.320 12.600 12.900 6.240 6.416 6.484 6.444 6.445 6.245 6.449 0.00 0.00 0.4510 0.6000 5.965 6.348 6.416 6.272 6.328 5.970 6.278 0.00000 0.00 318 0.00 0.00 0.2050 50.13 16.23 0.3300 79.080 44.040 9.424 9.427 0.000 9.578 9.581 0.000
WS7MET_125 2017-09-30 21:40:00 125 30483.0 6.114 6.350 6.426 6.319 6.319 100.000 100.000 6.119 6.324 0.00 0.00 13.090 13.350 13.340 12.600 12.900 6.341 6.358 6.435 6.375 6.348 6.346 6.380 0.00 0.00 0.2810 0.5000 5.966 6.348 6.416 6.273 6.289 5.970 6.278 0.00000 0.00 318 0.00 0.00 0.0140 31.64 0.00 0.1800 345.800 58.210 9.425 9.428 0.000 9.559 9.562 0.000
WS7MET_125 2017-09-30 21:35:00 125 30483.0 6.114 6.343 6.422 6.344 6.345 100.000 100.000 6.119 6.349 0.00 0.00 13.090 13.340 13.340 12.600 12.910 6.272 6.358 6.435 6.409 6.426 6.277 6.414 0.00 0.00 0.0000 0.6000 5.965 6.328 6.406 6.272 6.270 5.970 6.277 0.00000 0.00 318 0.00 0.00 0.0000 0.00 0.00 0.2500 238.400 49.410 9.425 9.428 0.000 9.576 9.579 0.000
WS7MET_125 2017-09-30 21:30:00 125 30483.0 6.129 6.378 6.453 6.337 6.350 100.000 100.000 6.134 6.343 0.00 0.00 13.080 13.350 13.340 12.600 12.910 6.273 6.406 6.474 6.477 6.426 6.278 6.483 0.00 0.00 0.0000 0.3000 5.965 6.348 6.435 6.239 6.299 5.970 6.244 0.00000 0.00 318 0.00 0.00 0.0000 0.00 0.00 0.0700 84.200 12.080 9.434 9.438 0.000 9.571 9.575 0.000
WS7MET_125 2017-09-30 21:25:00 125 30483.0 6.126 6.368 6.445 6.353 6.387 100.000 100.000 6.131 6.359 0.00 0.00 13.090 13.350 13.340 12.600 12.920 6.205 6.387 6.465 6.444 6.455 6.210 6.449 0.00 0.00 0.0000 0.3000 6.068 6.348 6.426 6.307 6.309 6.073 6.312 0.00000 0.00 318 0.00 0.00 0.0000 0.00 0.00 0.1150 327.500 29.350 9.432 9.436 0.000 9.582 9.586 0.000
WS7MET_125 2017-09-30 21:20:00 125 30483.0 6.142 6.361 6.430 6.338 6.345 100.000 100.000 6.147 6.343 0.00 0.00 13.100 13.350 13.340 12.600 12.920 6.273 6.387 6.445 6.410 6.416 6.278 6.415 0.00 0.00 0.0000 0.2000 6.034 6.348 6.416 6.239 6.270 6.039 6.244 0.00000 0.00 318 0.00 0.00 0.0000 0.00 0.00 0.1350 128.700 22.100 9.443 9.446 0.000 9.572 9.575 0.000
WS7MET_125 2017-09-30 21:15:00 125 30483.0 6.125 6.362 6.404 6.314 6.320 100.000 100.000 6.130 6.319 0.00 0.00 13.110 13.350 13.340 12.600 12.920 6.205 6.387 6.416 6.376 6.387 6.210 6.381 0.00 0.00 0.0000 0.4000 6.034 6.348 6.387 6.205 6.270 6.039 6.210 0.00000 0.00 318 0.00 0.00 0.0000 0.00 0.00 0.1500 97.400 21.950 9.432 9.435 0.000 9.556 9.559 0.000
WS7MET_125 2017-09-30 21:10:00 125 30483.0 6.107 6.370 6.436 6.337 6.362 100.000 100.000 6.112 6.343 0.00 0.00 13.110 13.360 13.340 12.600 12.930 6.240 6.387 6.445 6.445 6.416 6.245 6.451 0.00 0.00 0.2350 0.6000 6.035 6.358 6.406 6.240 6.289 6.040 6.245 0.00000 0.00 318 0.00 0.00 0.0270 35.32 5.08 0.2350 112.000 43.140 9.420 9.423 0.000 9.571 9.575 0.000
WS7MET_125 2017-09-30 21:05:00 125 30483.0 6.080 6.330 6.391 6.302 6.325 100.000 100.000 6.085 6.307 0.00 0.00 13.110 13.360 13.340 12.600 12.940 6.207 6.367 6.406 6.377 6.406 6.212 6.383 0.00 0.00 0.3460 0.6000 5.966 6.309 6.377 6.207 6.270 5.971 6.212 0.00000 0.00 318 0.00 0.00 0.0650 60.21 6.72 0.3100 35.140 23.960 9.402 9.406 0.000 9.548 9.551 0.000
WS7MET_125 2017-09-30 21:00:00 125 30483.0 6.068 6.313 6.380 6.299 6.317 100.000 100.000 6.073 6.304 0.00 0.00 13.110 13.360 13.340 12.600 12.940 6.205 6.328 6.387 6.375 6.377 6.210 6.380 0.00 0.00 0.0000 0.4000 5.932 6.309 6.377 6.239 6.289 5.936 6.244 0.00000 0.00 318 0.00 0.00 0.0000 0.00 0.00 0.1700 260.900 50.440 9.395 9.398 0.000 9.546 9.549 0.000
WS7MET_125 2017-09-30 20:55:00 125 30483.0 6.137 6.337 6.402 6.321 6.369 100.000 100.000 6.142 6.327 0.00 0.00 13.120 13.360 13.340 12.600 12.950 6.205 6.358 6.426 6.377 6.426 6.210 6.382 0.00 0.00 0.7970 1.0000 6.068 6.319 6.387 6.273 6.319 6.073 6.278 0.00000 0.00 318 0.00 0.00 0.1220 255.60 22.07 0.3000 280.900 68.080 9.440 9.443 0.000 9.560 9.564 0.000
WS7MET_125 2017-09-30 20:50:00 125 30483.0 6.064 6.345 6.409 6.332 6.349 100.000 100.000 6.069 6.337 0.00 0.00 13.130 13.360 13.340 12.600 12.950 6.137 6.348 6.416 6.410 6.406 6.142 6.415 0.00 0.00 0.2350 0.5000 5.933 6.328 6.406 6.240 6.309 5.937 6.245 0.00000 0.00 318 0.00 0.00 0.0170 48.88 9.98 0.2150 69.110 62.480 9.392 9.395 0.000 9.568 9.571 0.000
WS7MET_125 2017-09-30 20:45:00 125 30483.0 6.069 6.317 6.380 6.291 6.339 100.000 100.000 6.074 6.296 0.00 0.00 13.130 13.360 13.340 12.600 12.960 6.170 6.338 6.406 6.377 6.387 6.175 6.382 0.00 0.00 0.6600 0.7000 6.034 6.309 6.367 6.170 6.299 6.039 6.175 0.00000 0.00 318 0.00 0.00 0.0730 69.14 39.97 0.3200 226.700 80.800 9.395 9.399 0.000 9.541 9.544 0.000
WS7MET_125 2017-09-30 20:40:00 125 30483.0 6.113 6.340 6.407 6.326 6.349 100.000 100.000 6.118 6.331 0.00 0.00 13.130 13.360 13.340 12.600 12.960 6.239 6.367 6.435 6.444 6.426 6.244 6.449 0.00 0.00 0.4700 0.7000 6.000 6.309 6.377 6.239 6.309 6.005 6.244 0.00000 0.00 318 0.00 0.00 0.1220 254.30 11.25 0.3450 276.200 18.840 9.424 9.427 0.000 9.564 9.567 0.000
WS7MET_125 2017-09-30 20:35:00 125 30483.0 6.125 6.368 6.435 6.393 6.327 100.000 100.000 6.130 6.398 0.00 0.00 13.130 13.360 13.340 12.600 12.970 6.239 6.387 6.455 6.478 6.377 6.244 6.483 0.00 0.00 0.0000 0.6000 6.034 6.348 6.416 6.341 6.289 6.039 6.346 0.00000 0.00 318 0.00 0.00 0.0000 0.00 0.00 0.2550 316.900 65.690 9.432 9.435 0.000 9.608 9.611 0.000
WS7MET_125 2017-09-30 20:30:00 125 30483.0 6.130 6.405 6.479 6.395 6.368 100.000 100.000 6.135 6.400 0.00 0.00 13.130 13.360 13.340 12.600 12.970 6.240 6.426 6.494 6.478 6.445 6.245 6.484 0.00 0.00 0.0000 0.3000 6.069 6.387 6.455 6.342 6.309 6.073 6.347 0.00000 0.00 318 0.00 0.00 0.0000 0.00 0.00 0.1650 289.700 22.000 9.435 9.438 0.000 9.609 9.613 0.000
WS7MET_125 2017-09-30 20:25:00 125 30483.0 6.122 6.374 6.442 6.346 6.388 100.000 100.000 6.127 6.351 0.00 0.00 13.130 13.370 13.340 12.600 12.970 6.308 6.406 6.484 6.445 6.484 6.313 6.450 0.00 0.00 0.2870 0.4000 6.002 6.358 6.416 6.240 6.270 6.006 6.245 0.00000 0.00 318 0.00 0.00 0.1060 357.40 37.75 0.2250 30.920 43.780 9.430 9.433 0.000 9.577 9.580 0.000
WS7MET_125 2017-09-30 20:20:00 125 30483.0 6.088 6.352 6.407 6.318 6.363 100.000 100.000 6.093 6.323 0.00 0.00 13.130 13.360 13.340 12.600 12.970 6.171 6.367 6.426 6.445 6.387 6.176 6.450 0.00 0.00 0.6930 0.8000 6.001 6.328 6.377 6.240 6.328 6.006 6.245 0.00000 0.00 318 0.00 0.00 0.2130 248.10 6.15 0.4150 223.600 34.180 9.408 9.411 0.000 9.558 9.562 0.000
WS7MET_125 2017-09-30 20:15:00 125 30483.0 6.037 6.296 6.359 6.262 6.321 100.000 100.000 6.042 6.267 0.00 0.00 13.140 13.370 13.340 12.600 12.980 6.104 6.328 6.377 6.343 6.367 6.109 6.348 0.00 0.00 0.4970 0.6000 5.967 6.280 6.348 6.172 6.289 5.972 6.177 0.00000 0.00 318 0.00 0.00 0.1250 8.29 10.13 0.2250 19.470 45.430 9.375 9.378 0.000 9.522 9.525 0.000
WS7MET_125 2017-09-30 20:10:00 125 30483.0 6.035 6.252 6.321 6.236 6.318 100.000 100.000 6.040 6.238 0.00 0.00 13.150 13.370 13.340 12.600 12.990 6.137 6.280 6.348 6.308 6.445 6.142 6.313 0.00 0.00 0.4120 0.8000 5.932 6.221 6.289 6.172 6.211 5.937 6.170 0.00000 0.00 318 0.00 0.00 0.0830 258.70 37.17 0.3750 320.500 54.290 9.373 9.376 0.000 9.504 9.506 0.000
WS7MET_125 2017-09-30 20:05:00 125 30483.0 6.028 6.235 6.296 6.234 6.215 100.000 100.000 6.033 6.237 0.00 0.00 13.150 13.370 13.340 12.600 13.000 6.172 6.250 6.299 6.307 6.289 6.177 6.310 0.00 0.00 0.5360 1.0000 5.932 6.231 6.289 6.171 6.192 5.937 6.169 0.00000 0.00 318 0.00 0.00 0.1400 4.35 35.91 0.3350 0.563 28.150 9.369 9.372 0.000 9.503 9.505 0.000
WS7MET_125 2017-09-30 20:00:00 125 30483.0 6.019 6.244 6.321 6.232 6.221 100.000 100.000 6.024 6.235 0.00 0.00 13.150 13.370 13.340 12.600 13.000 6.102 6.250 6.338 6.307 6.270 6.107 6.312 0.00 0.00 0.5290 0.7000 5.932 6.231 6.309 6.137 6.173 5.937 6.142 0.00000 0.00 318 0.00 0.00 0.1450 32.68 11.01 0.3250 54.070 22.980 9.363 9.366 0.000 9.502 9.504 0.000
WS7MET_125 2017-09-30 19:55:00 125 30483.0 6.042 6.309 6.377 6.269 6.263 100.000 100.000 6.047 6.274 0.00 0.00 13.150 13.370 13.340 12.600 13.010 6.136 6.348 6.406 6.341 6.358 6.141 6.346 0.00 0.00 0.8100 0.9000 5.932 6.260 6.338 6.204 6.173 5.936 6.207 0.00000 0.00 318 0.00 0.00 0.1840 278.30 11.24 0.3150 300.200 63.990 9.378 9.381 0.000 9.526 9.529 0.000
WS7MET_125 2017-09-30 19:50:00 125 30483.0 6.098 6.336 6.397 6.271 6.345 100.000 100.000 6.103 6.276 0.00 0.00 13.150 13.370 13.340 12.600 13.010 6.204 6.358 6.416 6.341 6.484 6.209 6.346 0.00 0.00 1.1300 1.4000 5.999 6.299 6.367 6.204 6.231 6.004 6.209 0.00000 0.00 318 0.00 0.00 0.3500 213.00 23.62 0.5550 216.500 54.030 9.414 9.417 0.000 9.527 9.531 0.000
WS7MET_125 2017-09-30 19:45:00 125 30483.0 6.179 6.379 6.435 6.326 6.344 100.000 100.000 6.184 6.331 0.00 0.00 13.150 13.370 13.340 12.600 13.020 6.273 6.406 6.445 6.410 6.397 6.278 6.415 0.00 0.00 1.1300 1.7000 6.034 6.358 6.416 6.205 6.270 6.039 6.210 0.00000 0.00 318 0.00 0.00 0.3450 123.80 67.02 0.6000 129.700 75.710 9.467 9.470 0.000 9.564 9.567 0.000
WS7MET_125 2017-09-30 19:40:00 125 30483.0 6.242 6.440 6.487 6.391 6.386 100.000 100.000 6.247 6.396 0.00 0.00 13.150 13.370 13.340 12.600 13.020 6.341 6.474 6.513 6.444 6.455 6.346 6.449 0.00 0.00 0.6990 0.8000 6.170 6.397 6.445 6.273 6.299 6.175 6.278 0.00000 0.00 318 0.00 0.00 0.2230 8.16 36.57 0.3850 18.550 48.140 9.508 9.512 0.000 9.607 9.610 0.000
WS7MET_125 2017-09-30 19:35:00 125 30483.0 6.222 6.449 6.496 6.410 6.473 100.000 100.000 6.227 6.415 0.00 0.00 13.160 13.370 13.340 12.600 13.030 6.341 6.494 6.523 6.479 6.543 6.347 6.484 0.00 0.00 0.6400 0.7000 6.137 6.397 6.455 6.341 6.387 6.142 6.347 0.00000 0.00 318 0.00 0.00 0.2950 344.20 14.13 0.3750 355.700 14.320 9.495 9.499 0.000 9.619 9.623 0.000
WS7MET_125 2017-09-30 19:30:00 125 30483.0 6.226 6.441 6.512 6.429 6.445 100.000 100.000 6.231 6.434 0.00 0.00 13.170 13.370 13.340 12.600 13.030 6.308 6.465 6.533 6.513 6.523 6.313 6.518 0.00 0.00 0.0000 0.5000 6.103 6.397 6.474 6.375 6.338 6.108 6.380 0.00000 0.00 318 0.00 0.00 0.0000 0.00 0.00 0.2600 0.646 29.950 9.498 9.501 0.000 9.632 9.635 0.000
WS7MET_125 2017-09-30 19:25:00 125 30483.0 6.136 6.395 6.451 6.363 6.431 100.000 100.000 6.141 6.368 0.00 0.00 13.170 13.370 13.340 12.600 13.040 6.273 6.426 6.494 6.443 6.494 6.278 6.448 0.00 0.00 0.3270 0.7000 6.034 6.348 6.387 6.307 6.270 6.039 6.312 0.00000 0.00 318 0.00 0.00 0.0360 281.00 3.89 0.2650 313.200 22.380 9.439 9.442 0.000 9.588 9.591 0.000
WS7MET_125 2017-09-30 19:20:00 125 30483.0 6.148 6.365 6.421 6.360 6.307 100.000 100.000 6.153 6.365 0.00 0.00 13.170 13.370 13.340 12.600 13.050 6.205 6.387 6.455 6.444 6.367 6.210 6.449 0.00 0.00 0.1960 0.4000 6.068 6.348 6.397 6.307 6.241 6.073 6.312 0.00000 0.00 318 0.00 0.00 0.0190 1.81 0.88 0.2600 22.050 27.760 9.447 9.450 0.000 9.586 9.589 0.000
WS7MET_125 2017-09-30 19:15:00 125 30483.0 6.167 6.387 6.459 6.368 6.367 100.000 100.000 6.172 6.374 0.00 0.00 13.170 13.370 13.340 12.600 13.050 6.306 6.397 6.474 6.444 6.455 6.311 6.449 0.00 0.00 0.1500 0.3000 5.965 6.377 6.445 6.272 6.280 5.970 6.277 0.00000 0.00 318 0.00 0.00 0.0080 10.42 0.00 0.1900 18.140 17.600 9.459 9.462 0.000 9.591 9.595 0.000
WS7MET_125 2017-09-30 19:10:00 125 30483.0 6.156 6.390 6.461 6.371 6.386 100.000 100.000 6.161 6.376 0.00 0.00 13.170 13.370 13.340 12.590 13.060 6.238 6.406 6.474 6.477 6.445 6.243 6.482 0.00 0.00 0.2810 0.6000 6.067 6.367 6.455 6.306 6.348 6.072 6.311 0.00000 0.00 318 0.00 0.00 0.0420 23.34 4.31 0.2450 342.500 27.480 9.452 9.455 0.000 9.593 9.597 0.000
WS7MET_125 2017-09-30 19:05:00 125 30483.0 6.173 6.386 6.457 6.352 6.410 100.000 100.000 6.178 6.357 0.00 0.00 13.170 13.370 13.340 12.600 13.070 6.374 6.406 6.474 6.443 6.445 6.379 6.448 0.00 0.00 0.0130 0.4000 6.067 6.367 6.435 6.272 6.367 6.072 6.277 0.00000 0.00 318 0.00 0.00 0.0010 341.80 0.00 0.1600 7.542 36.730 9.463 9.466 0.000 9.581 9.584 0.000
WS7MET_125 2017-09-30 19:00:00 125 30483.0 6.154 6.359 6.419 6.345 6.376 100.000 100.000 6.159 6.350 0.00 0.00 13.170 13.370 13.340 12.600 13.070 6.238 6.367 6.435 6.408 6.426 6.243 6.414 0.00 0.00 0.4310 0.6000 6.101 6.348 6.397 6.272 6.338 6.106 6.275 0.00000 0.00 318 0.00 0.00 0.1000 18.10 16.95 0.2950 51.070 64.980 9.451 9.454 0.000 9.576 9.580 0.000
WS7MET_125 2017-09-30 18:55:00 125 30483.0 6.166 6.357 6.407 6.339 6.300 100.000 100.000 6.171 6.343 0.00 0.00 13.170 13.370 13.340 12.600 13.080 6.272 6.397 6.455 6.443 6.377 6.277 6.448 0.00 0.00 0.3400 0.5000 6.067 6.328 6.377 6.238 6.260 6.072 6.243 0.00000 0.00 318 0.00 0.00 0.1060 257.10 19.95 0.3100 273.100 27.180 9.459 9.462 0.000 9.572 9.575 0.000
WS7MET_125 2017-09-30 18:50:00 125 30483.0 6.209 6.412 6.468 6.376 6.364 100.000 100.000 6.214 6.381 0.00 0.00 13.170 13.370 13.340 12.600 13.090 6.272 6.435 6.494 6.477 6.416 6.277 6.482 0.00 0.00 0.3590 0.6000 6.135 6.387 6.455 6.272 6.328 6.140 6.277 0.00000 0.00 318 0.00 0.00 0.1060 14.33 2.14 0.2750 33.800 21.220 9.487 9.490 0.000 9.597 9.600 0.000
WS7MET_125 2017-09-30 18:45:00 125 30483.0 6.265 6.446 6.506 6.432 6.397 100.000 100.000 6.270 6.437 0.00 0.00 13.170 13.370 13.340 12.600 13.090 6.408 6.474 6.533 6.511 6.445 6.414 6.516 0.00 0.00 0.2420 0.6000 6.170 6.426 6.494 6.340 6.348 6.175 6.345 0.00000 0.00 318 0.00 0.00 0.0390 253.50 4.86 0.2400 281.500 37.710 9.523 9.527 0.000 9.634 9.637 0.000
WS7MET_125 2017-09-30 18:40:00 125 30483.0 6.257 6.481 6.531 6.451 6.439 100.000 100.000 6.262 6.454 0.00 0.00 13.170 13.380 13.340 12.600 13.090 6.340 6.504 6.552 6.511 6.504 6.345 6.516 0.00 0.00 0.5620 0.6000 6.170 6.445 6.513 6.340 6.348 6.175 6.345 0.00000 0.00 318 0.00 0.00 0.1690 41.48 12.25 0.3050 52.500 41.460 9.518 9.522 0.000 9.647 9.649 0.000
WS7MET_125 2017-09-30 18:35:00 125 30483.0 6.240 6.466 6.514 6.420 6.464 100.000 99.900 6.245 6.418 0.00 0.00 13.170 13.380 13.340 12.610 13.090 6.306 6.513 6.552 6.511 6.572 6.311 6.514 0.00 0.00 0.5420 0.8000 6.170 6.445 6.494 6.340 6.416 6.175 6.343 0.00000 0.00 318 0.00 0.00 0.2770 32.03 12.00 0.4200 47.110 15.530 9.507 9.510 0.000 9.626 9.625 0.010
WS7MET_125 2017-09-30 18:30:00 125 30483.0 6.228 6.448 6.503 6.426 6.412 100.000 99.900 6.233 6.414 0.00 0.00 13.170 13.380 13.340 12.610 13.100 6.306 6.465 6.523 6.477 6.504 6.311 6.470 0.00 0.00 0.2680 0.4000 6.067 6.426 6.494 6.374 6.328 6.072 6.357 0.00000 0.00 318 0.00 0.00 0.0390 349.90 0.11 0.2400 348.600 15.920 9.499 9.502 0.000 9.630 9.622 0.010
WS7MET_125 2017-09-30 18:25:00 125 30483.0 6.197 6.433 6.495 6.407 6.410 100.000 99.800 6.202 6.385 0.00 0.00 13.170 13.390 13.340 12.600 13.110 6.306 6.445 6.513 6.477 6.523 6.311 6.445 0.00 0.00 0.0000 0.3000 6.135 6.426 6.484 6.340 6.348 6.140 6.318 0.00000 0.00 318 0.00 0.00 0.0000 0.00 0.00 0.1900 341.900 25.120 9.479 9.482 0.000 9.617 9.603 0.019
WS7MET_125 2017-09-30 18:20:00 125 30483.0 6.257 6.452 6.499 6.422 6.399 100.000 99.800 6.262 6.398 0.00 0.00 13.170 13.390 13.340 12.600 13.120 6.340 6.465 6.513 6.511 6.465 6.345 6.494 0.00 0.00 0.0000 0.4000 6.170 6.435 6.494 6.340 6.348 6.175 6.318 0.00000 0.00 318 0.00 0.00 0.0000 0.00 0.00 0.1950 318.800 37.220 9.518 9.522 0.000 9.627 9.611 0.019
WS7MET_125 2017-09-30 18:15:00 125 30483.0 6.282 6.485 6.544 6.473 6.465 100.000 99.800 6.287 6.448 0.00 0.00 13.170 13.390 13.340 12.600 13.120 6.374 6.513 6.572 6.545 6.581 6.379 6.523 0.00 0.00 0.2290 0.4000 6.204 6.464 6.513 6.374 6.328 6.209 6.347 0.00000 0.00 318 0.00 0.00 0.0390 327.40 1.10 0.2700 334.600 16.520 9.535 9.538 0.000 9.661 9.645 0.019
WS7MET_125 2017-09-30 18:10:00 125 30483.0 6.301 6.471 6.535 6.504 6.405 100.000 99.700 6.306 6.471 0.00 0.00 13.170 13.390 13.340 12.600 13.130 6.374 6.503 6.562 6.545 6.445 6.379 6.513 0.00 0.00 0.0000 0.3000 6.238 6.454 6.513 6.477 6.367 6.243 6.435 0.00000 0.00 318 0.00 0.00 0.0000 0.00 0.00 0.1500 320.300 40.100 9.547 9.550 0.000 9.682 9.660 0.029
WS7MET_125 2017-09-30 18:05:00 125 30483.0 6.350 6.512 6.584 6.524 6.433 100.000 99.700 6.355 6.489 0.00 0.00 13.170 13.390 13.340 12.600 13.140 6.511 6.522 6.600 6.613 6.493 6.516 6.591 0.00 0.00 0.0000 0.4000 6.135 6.503 6.571 6.477 6.357 6.140 6.430 0.00000 0.00 318 0.00 0.00 0.0000 0.00 0.00 0.1950 286.700 77.020 9.580 9.583 0.000 9.695 9.672 0.029
WS7MET_125 2017-09-30 18:00:00 125 30483.0 6.412 6.594 6.675 6.647 6.505 100.000 99.800 6.417 6.618 0.00 0.00 13.170 13.390 13.340 12.600 13.160 6.545 6.629 6.717 6.716 6.659 6.550 6.694 0.00 0.00 0.4380 0.6000 6.238 6.532 6.610 6.545 6.386 6.243 6.518 0.00000 0.00 318 0.00 0.00 0.0700 280.20 4.26 0.2700 322.900 71.690 9.621 9.624 0.000 9.778 9.758 0.020
WS7MET_125 2017-09-30 17:55:00 125 30483.0 6.478 6.674 6.746 6.673 6.624 100.000 99.700 6.484 6.641 0.00 0.00 13.170 13.390 13.340 12.600 13.160 6.647 6.688 6.766 6.750 6.697 6.653 6.728 0.00 0.00 0.0000 0.4000 6.340 6.629 6.698 6.613 6.502 6.345 6.576 0.00000 0.00 318 0.00 0.00 0.0000 0.00 0.00 0.1500 22.180 36.410 9.665 9.669 0.000 9.795 9.774 0.029
WS7MET_125 2017-09-30 17:50:00 125 30483.0 6.513 6.677 6.747 6.661 6.619 99.800 99.600 6.489 6.610 0.00 0.00 13.170 13.390 13.340 12.600 13.170 6.681 6.697 6.766 6.750 6.678 6.640 6.693 0.00 0.00 0.0000 0.3000 6.408 6.668 6.726 6.613 6.560 6.396 6.556 0.00000 0.00 318 0.00 0.00 0.0000 0.00 0.00 0.1600 228.700 23.930 9.688 9.672 0.019 9.787 9.753 0.039
WS7MET_125 2017-09-30 17:45:00 125 30483.0 6.634 6.736 6.812 6.756 6.604 99.700 99.600 6.596 6.697 0.00 0.00 13.170 13.390 13.340 12.600 13.180 6.784 6.784 6.842 6.818 6.677 6.757 6.766 0.00 0.00 0.0000 0.3000 6.511 6.677 6.765 6.715 6.540 6.469 6.639 0.00000 0.00 318 0.00 0.00 0.0000 0.00 0.00 0.0900 93.300 31.220 9.769 9.743 0.029 9.851 9.811 0.039
WS7MET_125 2017-09-30 17:40:00 125 30483.0 6.765 6.867 6.927 6.884 6.744 99.800 99.600 6.746 6.827 0.00 0.00 13.160 13.390 13.340 12.600 13.190 6.954 6.929 6.998 6.988 6.871 6.947 6.927 0.00 0.00 0.4640 0.7000 6.613 6.794 6.852 6.784 6.618 6.576 6.722 0.00000 0.00 318 0.00 0.00 0.0880 37.66 18.85 0.2500 59.920 22.500 9.857 9.845 0.020 9.938 9.900 0.040
WS7MET_125 2017-09-30 17:35:00 125 30483.0 6.853 7.016 7.084 7.016 6.958 99.900 99.600 6.841 6.960 0.00 0.00 13.150 13.380 13.340 12.600 13.200 6.954 7.056 7.124 7.125 7.056 6.942 7.063 0.00 0.00 0.4830 0.5000 6.715 6.919 6.997 6.954 6.734 6.708 6.887 0.00000 0.00 318 0.00 0.00 0.1060 107.70 23.22 0.2950 131.900 44.600 9.917 9.909 0.010 10.029 9.990 0.040
WS7MET_125 2017-09-30 17:30:00 125 30483.0 6.894 7.015 7.079 7.031 6.947 99.600 99.400 6.844 6.942 1.61 0.00 13.140 13.380 13.340 12.600 13.210 7.056 7.055 7.104 7.124 7.084 6.994 7.022 2.68 0.00 0.0000 0.5000 6.749 6.996 7.065 6.920 6.869 6.687 6.823 0.00000 0.00 318 0.00 0.00 0.0000 0.00 0.00 0.1700 169.500 59.070 9.945 9.911 0.040 10.039 9.978 0.060
WS7MET_125 2017-09-30 17:25:00 125 30483.0 6.952 7.074 7.134 7.074 6.983 99.400 99.200 6.867 6.960 3.62 0.00 13.140 13.380 13.340 12.590 13.220 7.157 7.093 7.162 7.157 7.064 7.050 7.022 4.03 0.00 0.6990 0.8000 6.817 7.045 7.094 6.988 6.908 6.765 6.876 0.00000 0.00 318 0.00 0.00 0.1360 50.47 25.48 0.3000 72.020 67.160 9.985 9.927 0.060 10.069 9.990 0.081
WS7MET_125 2017-09-30 17:20:00 125 30483.0 7.087 7.195 7.261 7.218 7.054 99.500 99.300 7.015 7.116 4.09 0.00 13.140 13.380 13.350 12.600 13.230 7.259 7.250 7.309 7.361 7.221 7.171 7.264 5.37 0.00 0.4770 0.6000 6.987 7.093 7.152 7.055 6.869 6.895 6.923 0.00000 0.00 318 0.00 0.00 0.0580 87.10 1.10 0.2800 133.900 32.920 10.078 10.028 0.050 10.169 10.098 0.071
WS7MET_125 2017-09-30 17:15:00 125 30483.0 7.135 7.234 7.296 7.258 7.181 99.000 99.100 6.993 7.126 5.03 0.13 13.140 13.390 13.330 12.600 13.230 7.258 7.260 7.329 7.327 7.299 7.151 7.229 6.71 1.34 0.3460 0.7000 6.985 7.201 7.260 7.156 7.045 6.892 6.998 0.00000 0.00 318 0.00 0.00 0.1030 233.90 37.38 0.3400 230.300 63.350 10.111 10.013 0.101 10.197 10.105 0.092
WS7MET_125 2017-09-30 17:10:00 125 30483.0 7.265 7.343 7.406 7.399 7.162 99.000 98.900 7.123 7.247 7.99 1.34 13.140 13.400 13.330 12.600 13.250 7.428 7.427 7.496 7.530 7.319 7.290 7.397 9.40 1.34 0.7250 0.9000 7.155 7.260 7.309 7.258 7.006 6.977 7.079 0.00000 0.00 318 0.00 0.00 0.0840 114.70 22.60 0.3750 238.300 60.950 10.202 10.103 0.102 10.296 10.189 0.113
WS7MET_125 2017-09-30 17:05:00 125 30483.0 7.370 7.449 7.514 7.480 7.353 98.900 98.800 7.214 7.305 8.19 1.34 13.140 13.390 13.340 12.600 13.270 7.462 7.476 7.535 7.530 7.437 7.324 7.353 9.40 1.34 0.1500 0.5000 7.291 7.427 7.496 7.427 7.280 7.138 7.217 0.00000 0.00 318 0.00 0.00 0.0080 23.21 0.00 0.3050 123.700 67.780 10.275 10.166 0.113 10.353 10.230 0.124
WS7MET_125 2017-09-30 17:00:00 125 30483.0 7.406 7.493 7.561 7.560 7.387 98.700 98.400 7.221 7.336 5.84 0.40 13.140 13.380 13.340 12.600 13.280 7.528 7.545 7.613 7.664 7.496 7.352 7.418 6.71 1.34 0.3850 0.6000 7.289 7.456 7.535 7.494 7.319 7.110 7.277 0.00000 0.00 318 0.00 0.00 0.0780 160.50 6.96 0.2700 192.600 48.300 10.301 10.171 0.134 10.410 10.251 0.167
WS7MET_125 2017-09-30 16:55:00 125 30483.0 7.498 7.561 7.620 7.638 7.486 98.200 97.900 7.242 7.327 5.97 0.47 13.140 13.390 13.340 12.600 13.300 7.595 7.584 7.643 7.731 7.515 7.352 7.424 8.05 1.34 0.0000 0.5000 7.356 7.545 7.604 7.527 7.447 7.105 7.246 0.00000 0.00 318 0.00 0.00 0.0000 0.00 0.00 0.3500 231.400 16.890 10.366 10.186 0.187 10.465 10.245 0.220
WS7MET_125 2017-09-30 16:50:00 125 30483.0 7.608 7.653 7.709 7.781 7.507 97.300 96.700 7.211 7.294 7.25 1.07 13.130 13.390 13.340 12.600 13.310 7.731 7.731 7.780 7.902 7.574 7.342 7.359 8.05 1.34 0.7190 0.7000 7.492 7.594 7.643 7.663 7.437 7.104 7.197 0.00000 0.00 318 0.00 0.00 0.1870 351.40 36.92 0.3650 44.940 54.850 10.444 10.164 0.282 10.568 10.222 0.349
WS7MET_125 2017-09-30 16:45:00 125 30483.0 7.772 7.945 8.010 8.020 7.785 94.700 93.700 6.976 7.081 2.62 0.00 13.120 13.400 13.340 12.600 13.330 7.868 8.070 8.120 8.140 7.977 7.164 7.267 4.03 0.00 1.0780 1.6000 7.663 7.751 7.820 7.834 7.574 6.668 6.845 0.00000 0.00 318 0.00 0.00 0.4420 50.99 75.71 0.7450 330.000 74.950 10.562 10.001 0.560 10.742 10.074 0.677
WS7MET_125 2017-09-30 16:40:00 125 30483.0 7.885 8.110 8.190 8.140 8.050 92.400 91.200 6.730 6.793 8.52 1.01 13.120 13.400 13.340 12.600 13.350 8.000 8.150 8.240 8.240 8.100 6.949 6.927 17.45 2.68 1.1300 1.8000 7.799 8.070 8.130 8.070 8.010 6.580 6.671 0.00000 0.00 318 0.00 0.00 0.4340 282.30 36.98 0.5850 294.100 32.070 10.643 9.834 0.809 10.830 9.876 0.953
WS7MET_125 2017-09-30 16:35:00 125 30483.0 7.936 8.160 8.240 8.190 8.110 92.300 90.800 6.770 6.774 28.19 3.96 13.120 13.400 13.340 12.600 13.380 8.070 8.170 8.250 8.280 8.140 6.996 6.863 33.56 4.03 0.8430 0.9000 7.800 8.140 8.220 8.110 8.080 6.522 6.678 0.00000 0.00 318 0.00 0.00 0.2690 87.80 19.21 0.4300 109.900 60.020 10.680 9.861 0.822 10.867 9.864 1.000
WS7MET_125 2017-09-30 16:30:00 125 30483.0 7.976 8.200 8.270 8.210 8.140 90.400 89.500 6.503 6.586 21.74 3.49 13.120 13.400 13.340 12.600 13.380 8.110 8.220 8.290 8.240 8.140 6.700 6.648 28.19 4.03 0.9600 1.4000 7.902 8.180 8.250 8.140 8.120 6.372 6.519 0.00000 0.00 318 0.00 0.00 0.3180 241.40 61.39 0.4500 261.800 66.970 10.709 9.681 1.028 10.881 9.737 1.143
WS7MET_125 2017-09-30 16:25:00 125 30483.0 8.060 8.290 8.360 8.320 8.170 90.100 89.200 6.543 6.655 18.66 2.82 13.120 13.400 13.340 12.600 13.400 8.140 8.310 8.400 8.380 8.220 6.748 6.754 20.13 4.03 0.6730 0.8000 7.970 8.230 8.310 8.240 8.120 6.350 6.508 0.00000 0.00 318 0.00 0.00 0.1730 64.83 33.95 0.3600 44.800 50.740 10.771 9.708 1.066 10.963 9.783 1.184
WS7MET_125 2017-09-30 16:20:00 125 30483.0 8.160 8.380 8.470 8.420 8.260 89.700 88.800 6.578 6.687 17.18 2.95 13.120 13.400 13.340 12.600 13.430 8.280 8.460 8.560 8.550 8.380 7.073 7.138 20.13 4.03 1.0710 1.8000 8.040 8.310 8.400 8.310 8.200 6.312 6.475 0.00000 0.00 318 0.00 0.00 0.3330 149.70 75.25 0.5400 160.600 55.270 10.844 9.731 1.117 11.038 9.805 1.236
WS7MET_125 2017-09-30 16:15:00 125 30483.0 8.240 8.480 8.580 8.530 8.370 89.800 89.000 6.667 6.839 19.80 3.15 13.120 13.400 13.340 12.600 13.540 8.380 8.530 8.640 8.650 8.400 6.912 7.127 32.21 4.03 1.1560 1.5000 8.140 8.450 8.560 8.450 8.320 6.424 6.613 0.00000 0.00 318 0.00 0.00 0.4560 236.80 60.07 0.5850 226.800 79.870 10.904 9.791 1.112 11.120 9.908 1.223
WS7MET_125 2017-09-30 16:10:00 125 30483.0 8.340 8.580 8.710 8.620 8.420 89.300 88.200 6.688 6.781 46.17 7.11 13.110 13.400 13.340 12.600 13.840 8.450 8.600 8.730 8.720 8.480 6.942 7.024 56.37 9.40 0.9540 1.8000 8.280 8.550 8.670 8.550 8.380 6.413 6.603 0.00000 0.00 318 0.00 0.00 0.3150 248.90 36.04 0.5700 255.900 50.740 10.978 9.805 1.175 11.188 9.868 1.320
WS7MET_125 2017-09-30 16:05:00 125 30483.0 8.430 8.650 8.760 8.730 8.470 88.300 87.100 6.618 6.705 74.56 12.68 13.100 13.400 13.340 12.600 14.040 8.550 8.690 8.800 8.820 8.540 6.933 6.855 85.90 14.76 0.9080 1.5000 8.310 8.620 8.740 8.620 8.420 6.462 6.571 0.00000 0.00 318 0.00 0.00 0.2100 211.50 35.77 0.5000 230.500 70.320 11.045 9.758 1.292 11.272 9.817 1.454
WS7MET_125 2017-09-30 16:00:00 125 30483.0 8.590 8.810 8.930 8.820 8.660 90.800 88.100 7.188 6.957 54.49 8.39 13.100 13.400 13.330 12.600 13.990 8.650 8.850 8.960 8.960 8.710 7.466 7.254 68.45 10.74 1.0260 1.0000 8.480 8.720 8.820 8.720 8.540 6.581 6.611 0.00000 0.00 318 0.00 0.00 0.2820 158.60 71.39 0.3750 162.000 71.080 11.166 10.148 1.027 11.341 9.988 1.350
WS7MET_125 2017-09-30 15:55:00 125 30483.0 8.620 8.840 8.950 8.890 8.670 89.300 87.000 6.966 6.856 89.20 15.03 13.100 13.400 13.330 12.600 14.260 8.690 8.880 8.990 8.990 8.690 7.363 7.029 102.00 17.45 0.8490 1.2000 8.550 8.790 8.890 8.820 8.640 6.614 6.648 0.00000 0.00 318 0.00 0.00 0.4480 103.00 44.84 0.5200 119.400 52.250 11.188 9.995 1.197 11.395 9.919 1.481
WS7MET_125 2017-09-30 15:50:00 125 30483.0 8.720 8.920 9.040 9.010 8.720 87.700 86.200 6.803 6.829 92.70 15.84 13.100 13.410 13.330 12.610 14.210 8.860 9.040 9.190 9.160 8.830 6.945 6.944 106.00 18.79 1.2410 1.6000 8.580 8.890 8.990 8.890 8.680 6.613 6.766 0.00000 0.00 318 0.00 0.00 0.5430 193.30 72.44 0.7450 189.800 71.880 11.264 9.883 1.386 11.488 9.901 1.585
WS7MET_125 2017-09-30 15:45:00 125 30483.0 8.830 9.080 9.230 9.110 8.850 90.000 86.900 7.286 7.055 87.40 14.97 13.100 13.420 13.330 12.610 14.210 8.930 9.110 9.250 9.160 8.880 7.545 7.310 99.30 17.45 1.5220 1.2000 8.750 9.050 9.180 9.030 8.800 6.833 6.910 0.00000 0.00 318 0.00 0.00 0.3190 185.70 41.05 0.4750 218.000 36.710 11.349 10.216 1.135 11.565 10.056 1.515
WS7MET_125 2017-09-30 15:40:00 125 30483.0 8.860 9.100 9.220 9.180 8.870 88.800 86.000 7.113 6.967 120.80 21.07 13.100 13.420 13.330 12.610 14.450 8.990 9.150 9.250 9.230 8.930 7.437 7.156 132.90 22.82 0.7910 1.1000 8.790 9.050 9.180 9.060 8.820 6.655 6.849 0.00000 0.00 318 0.00 0.00 0.4370 89.10 21.56 0.5550 114.400 32.530 11.372 10.096 1.274 11.620 9.995 1.627
WS7MET_125 2017-09-30 15:35:00 125 30483.0 8.870 9.130 9.220 9.180 8.910 88.500 86.300 7.087 7.027 177.00 30.54 13.090 13.420 13.330 12.610 14.630 8.960 9.180 9.270 9.270 9.000 7.547 7.356 277.80 44.29 1.6010 1.8000 8.720 9.030 9.120 9.060 8.810 6.539 6.715 0.00000 0.00 318 0.00 0.00 0.4680 201.50 51.30 0.6350 195.300 35.960 11.379 10.078 1.309 11.620 10.037 1.592
WS7MET_125 2017-09-30 15:30:00 125 30483.0 8.860 9.010 9.120 9.090 8.820 88.300 86.500 7.032 6.966 102.60 16.78 13.080 13.420 13.330 12.610 14.460 8.930 9.110 9.250 9.200 8.880 7.365 7.293 175.80 28.19 1.3130 2.2000 8.790 8.970 9.070 8.960 8.780 6.784 6.801 0.00000 0.00 318 0.00 0.00 0.5750 169.70 84.10 0.7100 186.800 82.100 11.372 10.040 1.330 11.550 9.995 1.559
WS7MET_125 2017-09-30 15:25:00 125 30483.0 9.110 9.170 9.300 9.250 8.910 87.200 85.800 7.105 7.000 108.10 18.46 13.080 13.420 13.330 12.610 14.510 9.330 9.250 9.390 9.330 9.020 7.580 7.184 119.50 20.13 1.2540 1.6000 8.930 9.090 9.210 9.130 8.860 6.668 6.842 0.00000 0.00 318 0.00 0.00 0.3770 209.10 66.19 0.6150 220.300 63.950 11.565 10.090 1.480 11.675 10.018 1.658
WS7MET_125 2017-09-30 15:20:00 125 30483.0 9.410 9.420 9.590 9.430 9.010 87.200 85.600 7.405 7.141 103.80 17.38 13.080 13.420 13.340 12.610 14.470 9.610 9.630 9.790 9.570 9.090 7.895 7.359 130.20 21.48 2.6000 2.6000 9.130 9.230 9.350 9.300 8.920 6.876 6.819 0.00000 0.00 318 0.00 0.00 0.6020 161.60 65.82 0.7850 177.700 71.660 11.802 10.300 1.511 11.818 10.115 1.702
WS7MET_125 2017-09-30 15:15:00 125 30483.0 9.650 9.770 9.940 9.690 9.230 88.200 85.300 7.794 7.361 80.70 13.42 13.080 13.420 13.340 12.610 14.460 9.740 9.840 9.990 9.810 9.420 8.050 7.739 106.00 18.79 0.9150 1.1000 9.540 9.650 9.810 9.540 9.070 7.165 6.854 0.00000 0.00 318 0.00 0.00 0.2350 187.40 28.38 0.3800 193.600 25.890 11.994 10.577 1.415 12.026 10.269 1.768
WS7MET_125 2017-09-30 15:10:00 125 30483.0 9.740 10.010 10.170 10.010 9.460 87.500 82.600 7.763 7.189 133.80 23.29 13.080 13.420 13.330 12.610 14.580 9.850 10.210 10.400 10.220 9.730 8.350 7.642 202.70 36.24 1.6860 2.1000 9.610 9.850 9.980 9.780 9.260 7.052 6.728 0.00000 0.00 318 0.00 0.00 0.7350 150.20 71.29 0.8550 166.300 63.770 12.066 10.555 1.508 12.287 10.149 2.138
WS7MET_125 2017-09-30 15:05:00 125 30483.0 9.500 9.950 10.160 9.960 9.380 87.800 84.200 7.579 7.425 325.40 52.15 13.080 13.420 13.330 12.610 14.650 9.740 10.220 10.420 10.220 9.890 8.340 7.886 704.70 110.10 0.9670 1.1000 9.400 9.800 9.990 9.810 9.180 6.862 6.816 0.00000 0.00 318 0.00 0.00 0.3100 223.30 30.21 0.5500 226.000 33.520 11.873 10.423 1.449 12.246 10.314 1.935
WS7MET_125 2017-09-30 15:00:00 125 30483.0 9.260 9.890 10.050 9.840 9.300 90.000 85.400 7.710 7.511 334.60 51.34 13.080 13.420 13.330 12.610 14.650 9.510 10.110 10.270 10.050 9.490 8.330 7.774 594.60 89.90 0.7580 1.0000 8.960 9.580 9.710 9.540 9.120 7.210 7.202 0.00000 0.00 318 0.00 0.00 0.2160 94.90 21.58 0.4150 128.700 38.290 11.683 10.517 1.168 12.148 10.375 1.774
WS7MET_125 2017-09-30 14:55:00 125 30483.0 8.820 9.220 9.370 9.220 9.020 90.100 86.500 7.298 7.088 251.90 42.68 13.080 13.420 13.330 12.610 14.620 8.930 9.550 9.680 9.540 9.420 7.541 7.373 460.40 75.17 0.0720 0.7000 8.720 9.020 9.150 9.060 8.790 6.934 6.829 0.00000 0.00 318 0.00 0.00 0.0080 200.40 30.03 0.3050 116.500 86.000 11.341 10.225 1.123 11.652 10.079 1.573
WS7MET_125 2017-09-30 14:50:00 125 30483.0 8.760 8.980 9.120 9.020 8.650 90.000 87.400 7.220 7.040 128.00 22.08 13.080 13.420 13.330 12.610 14.310 8.930 9.010 9.140 9.100 8.780 7.504 7.327 155.70 26.85 0.7640 1.2000 8.620 8.960 9.100 8.930 8.570 6.929 6.824 0.00000 0.00 318 0.00 0.00 0.0750 287.20 22.04 0.2250 109.100 62.160 11.295 10.170 1.130 11.495 10.046 1.448
WS7MET_125 2017-09-30 14:45:00 125 30483.0 8.740 8.980 9.150 9.010 8.670 87.200 85.400 6.743 6.707 78.86 12.95 13.080 13.430 13.330 12.610 14.030 8.790 9.000 9.180 9.100 8.740 7.092 6.845 95.30 16.11 0.4120 0.5000 8.690 8.960 9.100 8.930 8.570 6.432 6.571 0.00000 0.00 318 0.00 0.00 0.0480 196.70 6.72 0.1900 105.800 46.340 11.280 9.843 1.444 11.488 9.818 1.677
WS7MET_125 2017-09-30 14:40:00 125 30483.0 8.890 9.160 9.390 9.150 8.700 88.000 85.900 7.018 6.924 64.90 10.34 13.080 13.430 13.330 12.610 14.100 8.990 9.230 9.470 9.270 8.770 7.327 7.309 75.17 12.08 0.4380 0.9000 8.750 9.010 9.200 9.030 8.660 6.517 6.536 0.00000 0.00 318 0.00 0.00 0.1110 178.40 32.33 0.3350 188.800 58.650 11.395 10.030 1.367 11.597 9.966 1.635
WS7MET_125 2017-09-30 14:35:00 125 30483.0 8.910 9.230 9.480 9.190 8.820 89.300 85.900 7.255 6.955 131.00 22.68 13.080 13.430 13.330 12.610 14.580 8.990 9.270 9.520 9.270 8.950 7.621 7.167 157.00 26.85 0.2550 0.7000 8.790 9.150 9.440 9.100 8.710 6.609 6.571 0.00000 0.00 318 0.00 0.00 0.0630 127.20 47.15 0.2450 139.400 44.640 11.410 10.195 1.221 11.628 9.987 1.640
WS7MET_125 2017-09-30 14:30:00 125 30483.0 8.980 9.160 9.430 9.160 8.620 89.400 85.700 7.339 6.886 177.80 31.75 13.070 13.440 13.330 12.600 14.660 9.100 9.250 9.520 9.230 8.690 7.529 7.046 209.40 38.93 0.5950 1.1000 8.860 9.110 9.380 9.100 8.550 7.018 6.696 0.00000 0.00 318 0.00 0.00 0.1860 104.60 9.67 0.3550 127.700 38.990 11.464 10.254 1.215 11.604 9.940 1.659
WS7MET_125 2017-09-30 14:25:00 125 30483.0 9.170 9.440 9.760 9.430 8.680 88.900 84.400 7.433 6.945 119.20 20.00 13.070 13.440 13.330 12.600 14.560 9.300 9.520 9.870 9.540 8.840 7.698 7.173 146.30 25.50 0.3720 0.5000 9.030 9.280 9.570 9.200 8.550 7.157 6.709 0.00000 0.00 318 0.00 0.00 0.0930 140.30 50.68 0.3000 141.200 51.120 11.612 10.320 1.289 11.818 9.980 1.844
WS7MET_125 2017-09-30 14:20:00 125 30483.0 9.230 9.460 9.770 9.420 8.850 87.600 84.900 7.284 7.023 205.80 35.91 13.070 13.440 13.330 12.610 14.680 9.340 9.510 9.840 9.570 9.000 7.764 7.297 400.00 68.46 0.2420 0.4000 9.130 9.390 9.690 9.340 8.700 6.749 6.729 0.00000 0.00 318 0.00 0.00 0.0420 85.50 27.45 0.1900 102.300 53.870 11.659 10.215 1.446 11.810 10.034 1.783
WS7MET_125 2017-09-30 14:15:00 125 30483.0 9.260 9.490 9.810 9.280 8.860 91.100 85.200 7.879 6.928 208.50 37.18 13.070 13.440 13.330 12.610 14.690 9.370 9.590 9.870 9.370 9.040 8.330 7.308 233.60 41.61 0.7320 0.8000 9.130 9.410 9.760 9.200 8.720 7.097 6.585 0.00000 0.00 318 0.00 0.00 0.3810 199.50 49.66 0.4900 216.300 31.140 11.683 10.639 1.040 11.699 9.969 1.731
WS7MET_125 2017-09-30 14:10:00 125 30483.0 9.100 9.760 10.030 9.440 8.730 91.900 85.400 7.866 7.116 159.40 26.85 13.060 13.440 13.330 12.610 14.680 9.200 9.890 10.090 9.580 8.910 8.250 7.391 326.20 53.69 0.5360 0.8000 8.960 9.610 9.890 9.270 8.590 7.386 6.951 0.00000 0.00 318 0.00 0.00 0.2600 131.70 22.60 0.4350 154.900 26.050 11.558 10.629 0.936 11.826 10.098 1.727
WS7MET_125 2017-09-30 14:05:00 125 30483.0 8.800 9.430 9.570 9.220 8.650 89.300 85.500 7.148 6.921 357.40 63.22 13.060 13.440 13.330 12.610 14.690 8.990 9.670 9.830 9.510 8.760 7.437 7.329 727.50 134.20 1.1560 1.3000 8.690 9.270 9.430 9.100 8.520 6.721 6.584 0.00000 0.00 318 0.00 0.00 0.3210 118.20 29.01 0.6150 137.200 32.050 11.326 10.120 1.212 11.652 9.964 1.689
WS7MET_125 2017-09-30 14:00:00 125 30483.0 8.660 9.150 9.300 9.010 8.680 90.100 88.500 7.135 7.223 243.20 42.35 13.060 13.440 13.330 12.610 14.720 8.820 9.250 9.410 9.170 8.850 7.429 7.429 303.40 52.35 0.5030 0.7000 8.480 9.040 9.170 8.860 8.450 6.773 6.804 0.00000 0.00 318 0.00 0.00 0.1380 92.60 16.66 0.2850 115.100 25.550 11.219 10.111 1.111 11.488 10.172 1.321
WS7MET_125 2017-09-30 13:55:00 125 30483.0 8.600 8.950 9.080 8.790 8.510 90.000 88.500 7.058 7.007 207.40 36.51 13.060 13.450 13.330 12.610 14.680 8.690 9.040 9.170 8.860 8.690 7.411 7.261 256.40 45.64 0.7120 1.1000 8.520 8.890 9.030 8.690 8.380 6.609 6.571 0.00000 0.00 318 0.00 0.00 0.2940 126.40 24.13 0.5100 141.600 35.790 11.173 10.058 1.117 11.318 10.023 1.302
WS7MET_125 2017-09-30 13:50:00 125 30483.0 8.620 8.920 9.060 8.780 8.410 89.800 88.200 7.044 6.947 150.40 25.84 13.060 13.450 13.330 12.610 14.550 8.790 8.960 9.090 8.860 8.640 7.818 7.422 161.10 28.19 0.3850 0.6000 8.520 8.870 9.000 8.720 8.300 6.622 6.584 0.00000 0.00 318 0.00 0.00 0.1220 64.20 10.96 0.2600 88.200 38.260 11.188 10.048 1.141 11.310 9.982 1.335
WS7MET_125 2017-09-30 13:45:00 125 30483.0 8.720 8.950 9.100 8.790 8.430 93.400 90.000 7.721 7.256 189.70 32.89 13.060 13.450 13.330 12.610 14.610 8.830 8.990 9.160 8.860 8.520 7.964 7.423 230.90 40.27 0.5550 0.7000 8.620 8.920 9.050 8.720 8.340 7.393 7.018 0.00000 0.00 318 0.00 0.00 0.2010 62.68 46.52 0.3500 100.500 64.320 11.264 10.525 0.743 11.318 10.195 1.132
WS7MET_125 2017-09-30 13:40:00 125 30483.0 8.730 8.930 9.070 8.770 8.440 95.000 91.900 7.985 7.531 244.90 43.42 13.060 13.450 13.330 12.610 14.700 8.860 8.980 9.130 8.860 8.640 8.130 7.734 263.10 46.98 0.5230 0.7000 8.660 8.860 8.990 8.720 8.330 7.825 7.257 0.00000 0.00 318 0.00 0.00 0.1590 89.20 17.10 0.3550 118.800 40.250 11.272 10.716 0.564 11.303 10.389 0.916
WS7MET_125 2017-09-30 13:35:00 125 30483.0 8.730 8.870 9.080 8.790 8.400 95.500 92.800 8.050 7.697 197.10 34.43 13.060 13.460 13.330 12.600 14.620 8.790 8.920 9.130 8.860 8.490 8.170 7.869 217.40 37.58 0.6210 0.7000 8.660 8.840 8.980 8.720 8.340 7.883 7.469 0.00000 0.00 318 0.00 0.00 0.1880 90.90 16.46 0.3200 102.500 27.460 11.272 10.764 0.507 11.318 10.508 0.815
WS7MET_125 2017-09-30 13:30:00 125 30483.0 8.650 8.890 9.120 8.800 8.400 96.700 92.300 8.150 7.634 202.20 35.44 13.060 13.460 13.330 12.600 14.610 8.830 8.940 9.150 8.830 8.520 8.320 7.819 213.40 37.58 0.6530 0.9000 8.480 8.820 9.030 8.760 8.310 7.955 7.432 0.00000 0.00 318 0.00 0.00 0.1810 181.80 32.04 0.4200 198.100 28.340 11.211 10.837 0.370 11.326 10.463 0.872
WS7MET_125 2017-09-30 13:25:00 125 30483.0 8.410 8.710 8.900 8.690 8.300 93.000 91.200 7.344 7.348 212.60 36.98 13.060 13.470 13.330 12.600 14.670 8.520 8.820 9.010 8.790 8.460 7.905 7.774 226.80 40.27 0.3920 0.7000 8.350 8.640 8.800 8.620 8.140 6.940 7.067 0.00000 0.00 318 0.00 0.00 0.1140 242.20 9.93 0.3450 240.800 18.240 11.030 10.257 0.772 11.242 10.260 0.989
WS7MET_125 2017-09-30 13:20:00 125 30483.0 8.550 8.740 8.950 8.610 8.210 96.000 92.700 7.956 7.498 185.20 31.68 13.060 13.470 13.330 12.600 14.630 8.620 8.820 9.020 8.690 8.330 8.260 7.766 190.60 32.21 0.5420 0.8000 8.490 8.660 8.860 8.520 8.140 7.170 7.089 0.00000 0.00 318 0.00 0.00 0.0610 199.00 23.02 0.2300 215.700 36.380 11.135 10.695 0.445 11.181 10.366 0.816
WS7MET_125 2017-09-30 13:15:00 125 30483.0 8.460 8.590 8.770 8.460 8.180 97.700 95.000 8.120 7.709 181.50 31.07 13.050 13.470 13.320 12.600 14.570 8.550 8.680 8.860 8.590 8.410 8.260 7.849 187.90 32.21 0.1180 0.5000 8.320 8.540 8.720 8.350 8.040 7.979 7.602 0.00000 0.00 318 0.00 0.00 0.0070 214.00 0.26 0.2400 162.200 28.460 11.068 10.815 0.255 11.068 10.516 0.553
WS7MET_125 2017-09-30 13:10:00 125 30483.0 8.380 8.550 8.700 8.420 8.100 97.500 95.300 8.010 7.723 177.40 30.20 13.060 13.470 13.330 12.600 14.550 8.490 8.580 8.730 8.520 8.180 8.170 7.856 181.20 30.87 0.3660 0.5000 8.250 8.520 8.670 8.350 8.010 7.888 7.620 0.00000 0.00 318 0.00 0.00 0.1260 134.00 4.57 0.2950 149.500 18.390 11.008 10.734 0.275 11.038 10.526 0.519
WS7MET_125 2017-09-30 13:05:00 125 30483.0 8.270 8.540 8.620 8.390 8.190 98.100 95.400 7.994 7.700 153.80 25.84 13.060 13.470 13.330 12.600 14.510 8.380 8.560 8.700 8.490 8.270 8.140 7.791 162.40 28.19 0.2810 0.4000 8.150 8.460 8.520 8.320 8.090 7.865 7.576 0.00000 0.00 318 0.00 0.00 0.0230 163.30 26.81 0.1750 201.500 20.180 10.926 10.723 0.208 11.015 10.510 0.507
WS7MET_125 2017-09-30 13:00:00 125 30483.0 8.100 8.380 8.460 8.280 8.170 96.900 95.600 7.644 7.632 147.70 24.63 13.060 13.470 13.330 12.600 14.490 8.320 8.460 8.540 8.380 8.300 7.943 7.830 151.70 25.50 0.6010 0.7000 7.940 8.260 8.340 8.180 8.060 7.227 7.270 0.00000 0.00 318 0.00 0.00 0.1290 91.40 27.45 0.3200 111.400 29.140 10.800 10.470 0.335 10.933 10.461 0.481
WS7MET_125 2017-09-30 12:55:00 125 30483.0 8.040 8.230 8.320 8.140 7.929 95.200 93.700 7.321 7.196 148.90 25.03 13.060 13.470 13.330 12.600 14.480 8.140 8.260 8.360 8.210 8.060 7.724 7.516 151.70 25.50 0.9080 1.4000 7.904 8.210 8.280 8.040 7.858 7.076 6.934 0.00000 0.00 318 0.00 0.00 0.1750 88.50 36.60 0.4700 115.900 64.480 10.756 10.241 0.516 10.830 10.154 0.682
WS7MET_125 2017-09-30 12:50:00 125 30483.0 8.130 8.220 8.320 8.180 7.997 96.900 95.900 7.664 7.564 135.70 22.75 13.060 13.480 13.330 12.600 14.410 8.280 8.260 8.370 8.280 8.200 7.770 7.753 146.30 25.50 0.6080 0.9000 8.040 8.180 8.280 8.080 7.907 7.482 7.439 0.00000 0.00 318 0.00 0.00 0.1850 147.80 37.17 0.4300 165.800 35.870 10.822 10.484 0.335 10.859 10.413 0.445
WS7MET_125 2017-09-30 12:45:00 125 30483.0 8.190 8.220 8.340 8.180 8.040 96.800 95.300 7.716 7.487 95.00 15.30 13.060 13.490 13.330 12.600 14.240 8.310 8.300 8.420 8.310 8.120 7.860 7.595 108.70 17.45 1.0320 1.2000 8.110 8.160 8.290 8.070 7.996 7.587 7.359 0.00000 0.00 318 0.00 0.00 0.5270 121.50 23.21 0.5950 139.500 16.590 10.867 10.521 0.348 10.859 10.358 0.510
WS7MET_125 2017-09-30 12:40:00 125 30483.0 8.310 8.410 8.530 8.370 8.120 96.600 94.600 7.804 7.558 72.01 11.48 13.060 13.490 13.330 12.610 14.110 8.420 8.480 8.600 8.490 8.160 7.919 7.673 94.00 16.11 0.8170 0.9000 8.180 8.310 8.430 8.250 8.060 7.629 7.435 0.00000 0.00 318 0.00 0.00 0.2630 111.40 9.38 0.4100 135.000 30.040 10.956 10.585 0.372 11.000 10.408 0.594
WS7MET_125 2017-09-30 12:35:00 125 30483.0 8.340 8.530 8.660 8.490 8.200 95.900 93.800 7.736 7.557 136.20 23.36 13.060 13.490 13.330 12.610 14.460 8.450 8.640 8.770 8.590 8.310 7.872 7.703 147.60 25.50 0.8300 1.1000 8.250 8.460 8.600 8.380 8.100 7.653 7.406 0.00000 0.00 318 0.00 0.00 0.3590 110.30 16.82 0.5150 125.400 26.020 10.978 10.536 0.450 11.090 10.408 0.688
WS7MET_125 2017-09-30 12:30:00 125 30483.0 8.280 8.620 8.740 8.550 8.290 95.600 93.800 7.625 7.607 127.60 21.34 13.060 13.490 13.330 12.590 14.480 8.450 8.660 8.780 8.660 8.420 8.050 7.770 154.40 25.50 0.7190 1.0000 8.180 8.540 8.660 8.450 8.140 7.301 7.327 0.00000 0.00 318 0.00 0.00 0.2000 139.10 36.90 0.3900 136.000 39.290 10.933 10.456 0.481 11.135 10.443 0.690
WS7MET_125 2017-09-30 12:25:00 125 30483.0 8.190 8.460 8.560 8.390 8.160 95.800 93.500 7.564 7.407 171.70 29.46 13.060 13.490 13.330 12.600 14.550 8.280 8.520 8.640 8.490 8.220 7.726 7.523 179.90 30.87 0.5420 0.6000 8.140 8.380 8.480 8.250 8.100 7.451 7.245 0.00000 0.00 318 0.00 0.00 0.1870 119.60 44.18 0.3950 137.800 37.150 10.867 10.413 0.456 11.015 10.301 0.716
WS7MET_125 2017-09-30 12:20:00 125 30483.0 8.090 8.300 8.400 8.280 8.070 95.900 92.900 7.481 7.209 126.20 21.34 13.060 13.500 13.310 12.600 14.320 8.210 8.380 8.460 8.350 8.180 7.669 7.318 159.70 26.85 0.7190 1.1000 7.972 8.240 8.360 8.210 8.020 7.149 7.082 0.00000 0.00 318 0.00 0.00 0.1600 229.10 10.08 0.3850 218.300 54.980 10.793 10.354 0.443 10.933 10.163 0.776
WS7MET_125 2017-09-30 12:15:00 125 30483.0 8.040 8.250 8.380 8.290 7.969 94.000 91.700 7.141 7.026 94.40 15.77 13.060 13.510 13.320 12.610 14.080 8.140 8.280 8.440 8.380 8.030 7.322 7.121 102.00 17.45 0.4830 0.6000 7.972 8.230 8.350 8.210 7.908 7.041 6.895 0.00000 0.00 318 0.00 0.00 0.1170 78.75 33.80 0.3200 78.020 59.230 10.756 10.115 0.645 10.941 10.036 0.908
WS7MET_125 2017-09-30 12:10:00 125 30483.0 8.060 8.300 8.430 8.360 8.030 92.200 90.700 6.868 6.940 91.40 14.83 13.060 13.490 13.330 12.610 14.120 8.250 8.320 8.440 8.450 8.120 7.230 7.072 98.00 16.11 0.0260 0.4000 7.940 8.280 8.420 8.310 7.937 6.572 6.604 0.00000 0.00 318 0.00 0.00 0.0010 224.90 0.00 0.1950 159.700 54.950 10.771 9.928 0.840 10.993 9.977 1.022
WS7MET_125 2017-09-30 12:05:00 125 30483.0 8.200 8.380 8.510 8.390 8.070 90.600 88.500 6.764 6.611 77.79 12.62 13.060 13.500 13.320 12.610 14.130 8.280 8.440 8.580 8.450 8.170 7.026 6.838 83.20 13.42 1.0390 1.1000 8.040 8.320 8.460 8.320 7.986 6.362 6.199 0.00000 0.00 318 0.00 0.00 0.2100 150.30 62.05 0.3150 233.400 16.360 10.874 9.857 1.022 11.015 9.754 1.267
WS7MET_125 2017-09-30 12:00:00 125 30483.0 8.300 8.540 8.650 8.550 8.220 88.000 85.400 6.434 6.242 86.90 14.23 13.060 13.510 13.330 12.610 14.180 8.420 8.590 8.680 8.620 8.280 6.985 6.464 91.30 14.77 0.8690 1.4000 8.180 8.460 8.600 8.450 8.130 6.004 5.898 0.00000 0.00 318 0.00 0.00 0.2410 235.10 69.07 0.4000 245.400 79.520 10.948 9.635 1.314 11.135 9.508 1.626
WS7MET_125 2017-09-30 11:55:00 125 30483.0 8.400 8.670 8.800 8.650 8.350 87.800 85.200 6.501 6.314 90.40 15.03 13.050 13.510 13.320 12.600 14.230 8.450 8.700 8.840 8.720 8.430 6.826 6.569 94.00 16.11 0.8430 1.7000 8.250 8.620 8.700 8.550 8.270 6.029 5.892 0.00000 0.00 318 0.00 0.00 0.3470 254.60 40.03 0.5500 274.500 29.920 11.023 9.680 1.345 11.211 9.556 1.659
WS7MET_125 2017-09-30 11:50:00 125 30483.0 8.430 8.700 8.880 8.690 8.370 90.600 86.100 6.994 6.503 85.60 14.23 13.060 13.510 13.320 12.610 14.300 8.520 8.760 8.920 8.790 8.450 7.223 6.637 91.30 14.77 0.2810 0.6000 8.350 8.660 8.820 8.620 8.320 6.631 6.330 0.00000 0.00 318 0.00 0.00 0.0740 145.00 35.75 0.3650 183.100 47.670 11.045 10.014 1.038 11.242 9.681 1.563
WS7MET_125 2017-09-30 11:45:00 125 30483.0 8.540 8.830 8.970 8.810 8.460 90.100 87.400 7.016 6.830 104.60 18.05 13.060 13.510 13.320 12.610 14.360 8.620 8.900 9.040 8.890 8.610 7.582 7.204 111.40 18.79 0.3790 0.6000 8.450 8.760 8.890 8.760 8.350 6.626 6.518 0.00000 0.00 318 0.00 0.00 0.0760 85.50 10.78 0.2750 128.300 43.500 11.128 10.029 1.102 11.333 9.902 1.428
WS7MET_125 2017-09-30 11:40:00 125 30483.0 8.480 8.860 8.970 8.830 8.510 88.400 85.900 6.675 6.613 119.10 20.67 13.060 13.510 13.320 12.600 14.370 8.620 8.920 9.000 8.900 8.740 7.139 7.121 122.10 21.48 0.0460 0.5000 8.350 8.820 8.920 8.760 8.400 6.241 6.228 0.00000 0.00 318 0.00 0.00 0.0020 258.90 0.00 0.1700 184.800 72.890 11.083 9.797 1.286 11.349 9.755 1.600
WS7MET_125 2017-09-30 11:35:00 125 30483.0 8.400 8.790 8.900 8.770 8.550 89.300 85.900 6.747 6.557 132.60 23.09 13.070 13.510 13.320 12.600 14.480 8.520 8.900 8.970 8.860 8.620 7.193 6.884 147.70 25.50 0.8430 1.5000 8.280 8.670 8.800 8.660 8.420 6.074 6.237 0.00000 0.00 318 0.00 0.00 0.3740 235.00 19.52 0.5400 244.700 25.200 11.023 9.845 1.179 11.303 9.717 1.594
WS7MET_125 2017-09-30 11:30:00 125 30483.0 8.330 8.640 8.740 8.640 8.360 86.400 84.300 6.193 6.154 155.10 27.32 13.070 13.520 13.310 12.600 14.520 8.420 8.670 8.790 8.730 8.450 6.991 6.680 159.70 28.19 0.9600 1.4000 8.180 8.600 8.720 8.550 8.290 5.689 5.835 0.00000 0.00 318 0.00 0.00 0.4420 210.80 34.26 0.5300 226.200 39.650 10.970 9.476 1.492 11.204 9.451 1.759
WS7MET_125 2017-09-30 11:25:00 125 30483.0 8.320 8.640 8.770 8.600 8.310 87.700 84.400 6.401 6.120 148.90 26.04 13.080 13.530 13.310 12.600 14.510 8.380 8.680 8.830 8.690 8.540 7.159 7.030 154.40 26.85 0.9870 1.4000 8.250 8.620 8.720 8.520 8.220 5.738 5.546 0.00000 0.00 318 0.00 0.00 0.3740 215.80 60.57 0.5500 226.600 47.850 10.963 9.613 1.348 11.173 9.429 1.743
WS7MET_125 2017-09-30 11:20:00 125 30483.0 8.260 8.640 8.750 8.560 8.270 89.500 86.400 6.639 6.423 150.70 26.31 13.080 13.530 13.310 12.610 14.490 8.350 8.680 8.810 8.660 8.340 6.973 6.705 154.40 26.85 0.8170 1.0000 8.150 8.600 8.700 8.520 8.210 6.470 6.249 0.00000 0.00 318 0.00 0.00 0.1170 290.00 8.22 0.2800 134.200 63.250 10.918 9.772 1.146 11.143 9.628 1.515
WS7MET_125 2017-09-30 11:15:00 125 30483.0 8.220 8.520 8.640 8.500 8.240 94.100 90.000 7.330 6.960 163.10 28.39 13.080 13.530 13.310 12.610 14.530 8.320 8.640 8.760 8.590 8.440 7.557 7.135 183.90 32.21 0.8360 1.0000 8.080 8.420 8.580 8.420 8.140 7.045 6.564 0.00000 0.00 318 0.00 0.00 0.1560 176.20 63.01 0.4000 163.600 30.630 10.889 10.247 0.642 11.098 9.990 1.110
WS7MET_125 2017-09-30 11:10:00 125 30483.0 8.170 8.380 8.580 8.410 7.980 92.000 88.300 6.957 6.603 142.70 24.77 13.080 13.530 13.310 12.610 14.480 8.320 8.440 8.640 8.490 8.180 7.171 6.846 183.90 32.21 0.6210 0.7000 8.040 8.310 8.520 8.320 7.909 6.742 6.437 0.00000 0.00 318 0.00 0.00 0.1100 68.45 4.52 0.3250 124.300 44.990 10.852 9.988 0.868 11.030 9.748 1.291
WS7MET_125 2017-09-30 11:05:00 125 30483.0 8.270 8.510 8.700 8.560 8.040 93.000 88.600 7.216 6.799 92.80 15.70 13.080 13.530 13.310 12.610 14.240 8.390 8.560 8.730 8.660 8.180 7.430 7.076 103.40 17.45 0.0650 0.6000 8.180 8.440 8.650 8.420 7.909 6.917 6.426 0.00000 0.00 318 0.00 0.00 0.0040 147.70 0.01 0.2050 179.700 36.010 10.926 10.168 0.765 11.143 9.881 1.270
WS7MET_125 2017-09-30 11:00:00 125 30483.0 8.330 8.640 8.800 8.700 8.040 91.200 87.300 6.982 6.727 94.20 15.77 13.080 13.540 13.310 12.610 14.290 8.420 8.740 8.860 8.760 8.080 7.166 6.847 96.60 16.11 0.0720 0.5000 8.220 8.530 8.720 8.590 7.988 6.778 6.603 0.00000 0.00 318 0.00 0.00 0.0040 116.20 0.00 0.1700 123.100 44.330 10.970 10.006 0.965 11.249 9.832 1.429
WS7MET_125 2017-09-30 10:55:00 125 30483.0 8.370 8.790 8.880 8.770 8.170 89.000 85.900 6.666 6.545 96.80 16.44 13.080 13.540 13.310 12.610 14.350 8.450 8.820 8.900 8.830 8.270 6.900 6.817 108.70 18.79 0.0000 0.8000 8.280 8.740 8.860 8.690 8.090 6.285 6.180 0.00000 0.00 318 0.00 0.00 0.0000 0.00 0.00 0.1050 122.000 30.940 11.000 9.791 1.210 11.303 9.709 1.594
WS7MET_125 2017-09-30 10:50:00 125 30483.0 8.310 8.760 8.840 8.770 8.270 84.900 81.100 5.926 5.705 124.40 21.34 13.080 13.550 13.310 12.610 14.420 8.450 8.800 8.880 8.900 8.370 6.505 6.245 131.60 22.82 0.1440 0.4000 8.150 8.720 8.820 8.690 8.200 5.521 5.242 0.00000 0.00 318 0.00 0.00 0.0090 337.20 1.38 0.1750 200.000 68.510 10.956 9.303 1.654 11.303 9.161 2.136
WS7MET_125 2017-09-30 10:45:00 125 30483.0 8.290 8.720 8.800 8.760 8.150 87.500 83.900 6.346 6.206 153.80 26.85 13.090 13.550 13.310 12.600 14.470 8.390 8.740 8.840 8.830 8.230 6.577 6.577 162.40 28.19 0.0000 0.4000 8.210 8.680 8.770 8.690 8.020 6.199 5.764 0.00000 0.00 318 0.00 0.00 0.0000 0.00 0.00 0.1500 218.200 72.910 10.941 9.577 1.368 11.295 9.485 1.818
WS7MET_125 2017-09-30 10:40:00 125 30483.0 8.250 8.670 8.800 8.730 8.090 83.500 80.700 5.618 5.606 153.80 27.32 13.100 13.550 13.310 12.610 14.460 8.320 8.680 8.800 8.800 8.140 6.051 6.020 158.40 28.19 0.0000 0.2000 8.150 8.640 8.780 8.630 8.030 4.983 5.261 0.00000 0.00 318 0.00 0.00 0.0000 0.00 0.00 0.0450 350.100 10.670 10.911 9.106 1.800 11.272 9.099 2.176
WS7MET_125 2017-09-30 10:35:00 125 30483.0 8.260 8.650 8.770 8.600 8.140 78.850 77.300 4.808 4.857 126.20 22.08 13.110 13.560 13.310 12.610 14.400 8.350 8.680 8.800 8.660 8.220 5.290 5.230 138.30 24.16 0.3400 0.5000 8.180 8.620 8.740 8.520 8.080 4.270 4.303 0.00000 0.00 318 0.00 0.00 0.0610 284.80 22.39 0.1750 286.300 37.170 10.918 8.606 2.309 11.173 8.636 2.536
WS7MET_125 2017-09-30 10:30:00 125 30483.0 8.310 8.680 8.810 8.580 8.280 79.770 75.380 5.027 4.476 115.40 20.07 13.110 13.560 13.310 12.610 14.400 8.390 8.700 8.860 8.660 8.340 5.777 5.342 116.80 20.14 1.0450 1.2000 8.250 8.620 8.730 8.520 8.180 4.564 4.060 0.00000 0.00 318 0.00 0.00 0.4400 225.70 32.82 0.6000 221.600 40.760 10.956 8.739 2.216 11.158 8.409 2.747
WS7MET_125 2017-09-30 10:25:00 125 30483.0 8.380 8.730 8.860 8.700 8.360 83.400 79.430 5.729 5.345 132.40 23.22 13.110 13.560 13.320 12.610 14.510 8.490 8.800 8.960 8.800 8.540 6.619 6.516 163.80 29.53 1.0060 1.1000 8.280 8.680 8.800 8.630 8.280 4.778 4.610 0.00000 0.00 318 0.00 0.00 0.4030 225.20 18.18 0.5500 235.300 23.700 11.008 9.177 1.827 11.249 8.935 2.314
WS7MET_125 2017-09-30 10:20:00 125 30483.0 8.290 8.640 8.830 8.710 8.260 82.900 79.370 5.546 5.339 174.90 30.88 13.120 13.560 13.320 12.610 14.630 8.390 8.760 8.940 8.830 8.440 6.741 6.310 179.90 32.22 0.8750 1.0000 8.150 8.580 8.770 8.660 8.180 4.480 4.611 0.00000 0.00 318 0.00 0.00 0.1610 196.80 19.69 0.3450 188.700 30.620 10.941 9.061 1.871 11.257 8.931 2.322
WS7MET_125 2017-09-30 10:15:00 125 30483.0 8.300 8.650 8.900 8.720 8.150 81.200 76.490 5.263 4.821 155.70 27.45 13.130 13.570 13.320 12.610 14.580 8.390 8.760 9.020 8.800 8.220 6.670 5.751 174.50 30.88 0.5550 0.8000 8.180 8.580 8.770 8.630 8.060 4.562 4.251 0.00000 0.00 318 0.00 0.00 0.2020 209.70 14.28 0.3700 208.000 35.460 10.948 8.884 2.058 11.264 8.614 2.648
WS7MET_125 2017-09-30 10:10:00 125 30483.0 8.400 8.770 9.010 8.800 8.160 86.200 80.700 6.236 5.676 128.70 22.55 13.130 13.570 13.320 12.610 14.500 8.490 8.800 9.040 8.870 8.220 6.670 6.130 155.70 28.19 0.7640 1.1000 8.290 8.740 8.970 8.690 8.090 5.873 5.218 0.00000 0.00 318 0.00 0.00 0.1400 151.10 54.02 0.2800 156.200 23.920 11.023 9.504 1.521 11.326 9.143 2.186
WS7MET_125 2017-09-30 10:05:00 125 30483.0 8.570 8.870 9.130 8.860 8.200 86.000 80.300 6.360 5.662 181.00 32.09 13.130 13.580 13.320 12.610 14.640 8.690 9.010 9.290 9.000 8.360 6.625 6.023 204.10 34.90 0.4830 0.7000 8.420 8.780 9.020 8.730 8.130 4.917 4.837 0.00000 0.00 318 0.00 0.00 0.1980 76.68 3.94 0.3550 100.600 13.660 11.151 9.586 1.561 11.372 9.134 2.240
WS7MET_125 2017-09-30 10:00:00 125 30483.0 8.500 8.910 9.240 8.850 8.140 90.800 82.000 7.089 5.945 261.80 45.51 13.140 13.580 13.320 12.610 14.710 8.630 9.000 9.320 8.970 8.350 7.483 6.574 316.80 53.70 0.2550 0.3000 8.350 8.820 9.100 8.760 8.020 5.030 4.469 0.00000 0.00 318 0.00 0.00 0.0230 163.90 23.47 0.2000 156.900 43.730 11.098 10.079 1.021 11.364 9.315 2.046
WS7MET_125 2017-09-30 09:55:00 125 30483.0 8.330 8.800 9.070 8.740 8.120 87.600 82.300 6.403 5.895 241.90 41.89 13.140 13.580 13.320 12.610 14.720 8.460 8.820 9.090 8.830 8.220 6.781 6.204 284.60 51.01 0.5750 0.7000 8.150 8.730 9.020 8.660 8.020 5.890 5.621 0.00000 0.00 318 0.00 0.00 0.1720 120.90 53.00 0.3700 131.200 45.730 10.970 9.615 1.360 11.280 9.283 1.997
WS7MET_125 2017-09-30 09:50:00 125 30483.0 8.140 8.550 8.840 8.500 7.929 91.200 83.400 6.790 5.854 245.70 41.95 13.150 13.580 13.320 12.610 14.730 8.290 8.710 9.000 8.730 8.180 7.062 6.184 287.30 48.33 0.5490 0.9000 7.978 8.430 8.680 8.390 7.767 6.094 5.433 0.00000 0.00 318 0.00 0.00 0.1460 197.20 34.96 0.2900 171.500 38.700 10.830 9.874 0.953 11.098 9.256 1.842
WS7MET_125 2017-09-30 09:45:00 125 30483.0 7.943 8.350 8.510 8.330 7.925 92.200 85.400 6.761 6.032 220.70 37.86 13.150 13.590 13.320 12.610 14.760 8.080 8.450 8.680 8.490 8.020 7.007 6.301 233.60 41.62 0.4440 0.5000 7.705 8.160 8.310 8.220 7.786 6.508 5.852 0.00000 0.00 318 0.00 0.00 0.0280 208.60 4.10 0.1400 141.500 54.870 10.685 9.855 0.833 10.970 9.371 1.602
WS7MET_125 2017-09-30 09:40:00 125 30483.0 7.702 8.040 8.170 8.040 7.647 89.100 85.200 6.010 5.707 199.50 35.11 13.160 13.590 13.320 12.610 14.640 7.876 8.150 8.290 8.180 7.786 6.809 6.250 237.60 41.62 0.4120 0.7000 7.603 7.993 8.110 7.978 7.531 5.005 5.066 0.00000 0.00 318 0.00 0.00 0.1380 48.40 37.76 0.3400 67.250 49.340 10.511 9.357 1.146 10.756 9.163 1.592
WS7MET_125 2017-09-30 09:35:00 125 30483.0 7.704 8.070 8.200 8.050 7.692 90.300 87.500 6.211 6.112 170.50 29.60 13.170 13.590 13.320 12.600 14.550 7.774 8.090 8.250 8.150 7.816 6.793 6.607 208.10 36.25 1.3130 1.6000 7.570 8.020 8.150 7.945 7.609 5.267 5.474 0.00000 0.00 318 0.00 0.00 0.5870 218.20 19.74 0.7100 231.100 39.600 10.513 9.488 1.020 10.764 9.423 1.345
WS7MET_125 2017-09-30 09:30:00 125 30483.0 7.696 8.030 8.210 7.981 7.684 92.700 89.100 6.594 6.307 218.00 36.11 13.170 13.590 13.320 12.600 14.670 7.775 8.060 8.240 8.120 7.786 6.912 6.533 357.10 49.67 1.0780 1.2000 7.604 7.983 8.180 7.876 7.629 6.085 6.061 0.00000 0.00 318 0.00 0.00 0.5870 219.80 17.98 0.7450 230.300 18.370 10.507 9.742 0.767 10.713 9.551 1.168
WS7MET_125 2017-09-30 09:25:00 125 30483.0 7.627 7.938 8.170 7.835 7.578 94.600 89.600 6.824 6.234 149.90 25.24 13.170 13.590 13.320 12.610 14.230 7.842 7.953 8.200 7.876 7.688 7.066 6.375 174.50 29.53 0.8820 1.0000 7.501 7.894 8.120 7.739 7.491 6.421 6.131 0.00000 0.00 318 0.00 0.00 0.1120 209.70 6.52 0.3050 225.900 19.900 10.458 9.898 0.565 10.607 9.503 1.103
WS7MET_125 2017-09-30 09:20:00 125 30483.0 7.516 7.802 8.040 7.702 7.425 94.100 89.400 6.631 6.072 148.70 25.44 13.180 13.600 13.320 12.610 14.000 7.569 7.875 8.100 7.774 7.580 6.784 6.305 158.40 26.85 0.3790 0.6000 7.433 7.747 8.010 7.603 7.295 6.198 5.857 0.00000 0.00 318 0.00 0.00 0.0710 158.40 17.91 0.2750 197.500 37.390 10.378 9.767 0.612 10.511 9.397 1.114
WS7MET_125 2017-09-30 09:15:00 125 30483.0 7.469 7.756 7.973 7.672 7.313 91.300 87.900 6.153 5.800 146.10 25.31 13.190 13.600 13.310 12.610 13.790 7.569 7.796 8.010 7.740 7.384 6.654 6.152 149.00 25.51 0.1700 0.6000 7.365 7.727 7.944 7.603 7.256 5.716 5.492 0.00000 0.00 318 0.00 0.00 0.0120 71.38 0.29 0.1950 103.200 43.710 10.345 9.450 0.900 10.490 9.222 1.269
WS7MET_125 2017-09-30 09:10:00 125 30483.0 7.464 7.742 7.950 7.635 7.272 96.500 90.200 6.952 6.138 130.80 22.35 13.190 13.600 13.310 12.600 13.660 7.570 7.796 7.973 7.707 7.364 7.146 6.673 142.30 24.16 0.4380 0.9000 7.365 7.708 7.934 7.536 7.217 6.686 5.679 0.00000 0.00 318 0.00 0.00 0.1090 144.50 5.64 0.3100 177.600 47.050 10.342 9.985 0.362 10.463 9.440 1.025
WS7MET_125 2017-09-30 09:05:00 125 30483.0 7.282 7.767 7.892 7.621 7.358 95.400 92.400 6.596 6.468 135.10 23.23 13.210 13.600 13.310 12.610 13.620 7.468 7.826 7.973 7.775 7.482 6.928 6.768 145.00 25.51 0.1890 0.7000 7.160 7.717 7.806 7.467 7.256 6.166 6.120 0.00000 0.00 318 0.00 0.00 0.0310 64.78 32.06 0.1900 114.700 44.410 10.214 9.743 0.470 10.453 9.658 0.794
WS7MET_125 2017-09-30 09:00:00 125 30483.0 7.134 7.632 7.722 7.460 7.313 94.800 92.100 6.369 6.271 141.00 24.03 13.210 13.600 13.310 12.600 13.590 7.331 7.717 7.806 7.570 7.423 6.690 6.585 143.60 24.16 0.3990 0.6000 6.955 7.560 7.629 7.296 7.217 5.985 6.067 0.00000 0.00 318 0.00 0.00 0.0810 63.15 7.00 0.2300 87.600 26.130 10.111 9.592 0.526 10.339 9.527 0.817
WS7MET_125 2017-09-30 08:55:00 125 30483.0 6.977 7.452 7.525 7.279 7.142 93.300 90.800 5.972 5.876 117.60 20.07 13.210 13.600 13.310 12.600 13.490 7.092 7.560 7.629 7.365 7.335 6.252 6.225 131.60 22.82 0.0650 0.4000 6.887 7.403 7.452 7.194 7.021 5.726 5.642 0.00000 0.00 318 0.00 0.00 0.0050 81.90 0.04 0.1550 106.900 29.600 10.002 9.332 0.670 10.212 9.271 0.939
WS7MET_125 2017-09-30 08:50:00 125 30483.0 7.036 7.417 7.456 7.287 7.080 96.800 93.100 6.568 6.248 91.30 15.04 13.220 13.600 13.310 12.610 13.440 7.127 7.442 7.472 7.366 7.158 6.814 6.451 100.70 16.11 0.3530 0.6000 6.922 7.374 7.423 7.228 6.933 6.409 5.855 0.00000 0.00 318 0.00 0.00 0.0900 71.20 11.24 0.3150 85.900 21.810 10.043 9.725 0.321 10.217 9.512 0.705
WS7MET_125 2017-09-30 08:45:00 125 30483.0 6.981 7.377 7.464 7.336 6.944 97.100 93.300 6.562 6.332 116.90 19.60 13.230 13.610 13.310 12.610 13.450 7.092 7.403 7.501 7.399 7.031 6.702 6.431 128.90 21.48 0.5810 0.8000 6.819 7.364 7.423 7.229 6.875 6.389 6.028 0.00000 0.00 318 0.00 0.00 0.2810 62.06 11.18 0.4400 81.000 22.010 10.005 9.721 0.290 10.251 9.568 0.687
WS7MET_125 2017-09-30 08:40:00 125 30483.0 6.951 7.322 7.443 7.355 7.010 99.100 95.900 6.820 6.753 159.60 29.47 13.240 13.620 13.300 12.610 13.680 7.058 7.393 7.501 7.433 7.051 6.928 6.894 218.80 51.01 0.7120 0.9000 6.853 7.207 7.325 7.195 6.894 6.632 6.408 0.00000 0.00 318 0.00 0.00 0.3780 83.60 32.51 0.5250 95.900 30.720 9.984 9.895 0.090 10.265 9.849 0.421
WS7MET_125 2017-09-30 08:35:00 125 30483.0 6.840 7.136 7.236 7.052 6.847 99.300 97.200 6.744 6.637 183.70 34.37 13.240 13.620 13.300 12.610 13.450 6.957 7.207 7.305 7.195 6.894 6.856 6.780 232.30 52.36 0.3140 0.5000 6.718 7.109 7.197 6.956 6.806 6.607 6.541 0.00000 0.00 318 0.00 0.00 0.0760 84.90 0.82 0.2750 105.200 15.170 9.908 9.843 0.069 10.054 9.771 0.282
WS7MET_125 2017-09-30 08:30:00 125 30483.0 6.808 7.089 7.201 6.989 6.897 99.900 97.700 6.804 6.661 121.30 20.27 13.250 13.620 13.310 12.610 13.080 6.922 7.109 7.227 7.059 6.933 6.928 6.746 138.30 22.82 0.3200 0.6000 6.717 7.051 7.158 6.888 6.845 6.682 6.525 0.00000 0.00 318 0.00 0.00 0.1000 106.30 9.47 0.2750 122.000 14.140 9.887 9.884 0.010 10.010 9.787 0.230
WS7MET_125 2017-09-30 08:25:00 125 30483.0 6.645 6.961 7.063 6.885 6.734 99.400 97.600 6.568 6.542 108.50 17.86 13.250 13.620 13.310 12.600 13.030 6.786 7.031 7.148 6.990 6.875 6.720 6.667 128.90 21.48 0.2550 0.5000 6.513 6.904 7.002 6.786 6.640 6.402 6.454 0.00000 0.00 318 0.00 0.00 0.0400 101.40 0.16 0.2700 128.200 19.410 9.776 9.725 0.059 9.939 9.707 0.239
WS7MET_125 2017-09-30 08:20:00 125 30483.0 6.656 6.874 6.957 6.792 6.613 99.600 97.800 6.596 6.475 113.20 18.86 13.260 13.620 13.310 12.600 12.960 6.855 6.904 7.002 6.923 6.660 6.784 6.591 127.50 21.48 0.0000 0.3000 6.514 6.845 6.933 6.685 6.562 6.458 6.378 0.00000 0.00 318 0.00 0.00 0.0000 0.00 0.00 0.1550 102.700 14.240 9.784 9.743 0.039 9.876 9.663 0.217
WS7MET_125 2017-09-30 08:15:00 125 30483.0 6.712 6.882 6.996 6.816 6.693 99.900 98.000 6.706 6.531 68.27 10.87 13.270 13.620 13.300 12.600 12.880 6.854 6.914 7.051 6.923 6.796 6.853 6.676 95.30 16.11 0.4440 0.6000 6.615 6.855 6.953 6.752 6.591 6.576 6.465 0.00000 0.00 318 0.00 0.00 0.1770 86.30 21.38 0.3400 109.900 23.450 9.822 9.818 0.010 9.892 9.700 0.198
WS7MET_125 2017-09-30 08:10:00 125 30483.0 6.715 7.019 7.117 6.891 6.729 100.000 98.100 6.721 6.620 55.38 8.86 13.280 13.620 13.300 12.600 12.850 6.822 7.070 7.158 6.958 6.757 6.827 6.707 92.60 14.77 0.5880 0.6000 6.650 6.933 7.051 6.786 6.699 6.655 6.480 0.00000 0.00 318 0.00 0.00 0.2280 113.50 1.02 0.3900 131.100 12.810 9.824 9.828 0.000 9.943 9.760 0.189
WS7MET_125 2017-09-30 08:05:00 125 30483.0 6.735 7.025 7.117 6.887 6.754 100.000 99.000 6.740 6.739 138.20 23.96 13.290 13.620 13.300 12.600 12.870 6.924 7.080 7.168 6.993 6.816 6.930 6.817 157.10 28.19 0.4250 0.7000 6.617 6.953 7.031 6.754 6.699 6.622 6.618 0.00000 0.00 318 0.00 0.00 0.0870 122.30 1.57 0.3100 126.400 23.750 9.837 9.841 0.000 9.941 9.840 0.099
WS7MET_125 2017-09-30 08:00:00 125 30483.0 6.555 6.832 6.889 6.676 6.668 100.000 99.100 6.560 6.557 122.00 20.67 13.300 13.630 13.300 12.600 12.810 6.788 6.943 7.021 6.788 6.816 6.793 6.667 134.20 22.82 0.0000 0.4000 6.241 6.728 6.796 6.582 6.572 6.246 6.462 0.00000 0.00 318 0.00 0.00 0.0000 0.00 0.00 0.2100 171.800 38.140 9.716 9.719 0.000 9.797 9.717 0.088
WS7MET_125 2017-09-30 07:55:00 125 30483.0 6.308 6.632 6.713 6.516 6.495 100.000 99.100 6.313 6.386 74.98 12.15 13.300 13.640 13.300 12.610 12.730 6.549 6.699 6.787 6.617 6.601 6.554 6.481 116.80 20.14 0.0000 0.4000 6.174 6.582 6.670 6.378 6.387 6.179 6.243 0.00000 0.00 318 0.00 0.00 0.0000 0.00 0.00 0.1750 197.700 49.940 9.552 9.555 0.000 9.690 9.603 0.087
WS7MET_125 2017-09-30 07:50:00 125 30483.0 6.214 6.584 6.665 6.472 6.429 100.000 99.200 6.219 6.355 32.42 4.43 13.310 13.640 13.300 12.610 12.680 6.447 6.591 6.679 6.548 6.533 6.452 6.433 42.96 6.71 0.0000 0.2000 6.037 6.552 6.640 6.412 6.367 6.042 6.287 0.00000 0.00 318 0.00 0.00 0.0000 0.00 0.00 0.1150 128.800 39.140 9.490 9.493 0.000 9.661 9.583 0.077
WS7MET_125 2017-09-30 07:45:00 125 30483.0 6.215 6.563 6.655 6.450 6.467 100.000 99.300 6.220 6.359 29.80 4.09 13.320 13.640 13.300 12.600 12.670 6.344 6.582 6.679 6.516 6.582 6.349 6.435 34.90 5.37 0.0000 0.3000 6.139 6.543 6.631 6.345 6.377 6.143 6.268 0.00000 0.00 318 0.00 0.00 0.0000 0.00 0.00 0.1650 78.420 17.430 9.491 9.494 0.000 9.646 9.586 0.068
WS7MET_125 2017-09-30 07:40:00 125 30483.0 6.115 6.485 6.581 6.407 6.408 100.000 99.300 6.120 6.314 37.93 5.50 13.320 13.640 13.300 12.590 12.670 6.209 6.543 6.640 6.482 6.533 6.214 6.402 45.64 6.71 0.5950 1.1000 6.038 6.426 6.533 6.311 6.270 6.043 6.216 0.00000 0.00 318 0.00 0.00 0.2130 227.10 36.56 0.4050 200.300 39.460 9.425 9.429 0.000 9.617 9.556 0.067
WS7MET_125 2017-09-30 07:35:00 125 30483.0 6.087 6.408 6.493 6.331 6.279 100.000 99.400 6.092 6.256 72.49 12.22 13.340 13.640 13.300 12.600 12.680 6.209 6.426 6.523 6.415 6.406 6.214 6.354 85.90 14.77 0.3720 0.5000 6.005 6.358 6.435 6.210 6.173 6.009 6.135 0.00000 0.00 318 0.00 0.00 0.0380 179.80 6.76 0.3100 206.400 26.050 9.407 9.410 0.000 9.567 9.518 0.057
WS7MET_125 2017-09-30 07:30:00 125 30483.0 6.024 6.346 6.423 6.283 6.201 100.000 99.400 6.029 6.206 39.47 5.77 13.340 13.650 13.290 12.600 12.640 6.141 6.367 6.445 6.347 6.328 6.146 6.271 61.75 10.74 0.2160 0.7000 5.868 6.319 6.406 6.176 6.114 5.873 6.111 0.00000 0.00 318 0.00 0.00 0.0300 186.40 16.85 0.2200 196.800 49.620 9.366 9.369 0.000 9.535 9.485 0.057
WS7MET_125 2017-09-30 07:25:00 125 30483.0 6.040 6.334 6.400 6.272 6.250 100.000 99.600 6.044 6.216 41.08 6.18 13.340 13.650 13.290 12.600 12.630 6.142 6.377 6.435 6.381 6.328 6.147 6.321 49.67 8.05 0.2420 0.6000 5.937 6.309 6.377 6.176 6.173 5.942 6.141 0.00000 0.00 318 0.00 0.00 0.0450 239.80 2.31 0.2550 238.500 19.340 9.376 9.379 0.000 9.528 9.491 0.038
WS7MET_125 2017-09-30 07:20:00 125 30483.0 6.055 6.322 6.388 6.254 6.270 100.000 99.800 6.060 6.231 28.80 4.43 13.360 13.640 13.290 12.600 12.610 6.176 6.348 6.406 6.346 6.328 6.181 6.326 41.62 6.71 0.6340 0.7000 5.937 6.309 6.367 6.210 6.211 5.942 6.175 0.00000 0.00 318 0.00 0.00 0.2920 244.80 22.00 0.3850 241.100 48.830 9.386 9.389 0.000 9.516 9.501 0.019
WS7MET_125 2017-09-30 07:15:00 125 30483.0 6.005 6.318 6.393 6.225 6.312 100.000 100.000 6.010 6.229 25.37 4.03 13.360 13.650 13.290 12.600 12.590 6.210 6.348 6.426 6.278 6.367 6.215 6.283 29.53 4.03 0.6530 0.8000 5.869 6.280 6.367 6.108 6.250 5.873 6.112 0.00000 0.00 318 0.00 0.00 0.4250 255.40 1.79 0.6300 268.900 5.007 9.354 9.357 0.000 9.497 9.500 0.000
WS7MET_125 2017-09-30 07:10:00 125 30483.0 5.935 6.251 6.334 6.180 6.262 100.000 100.000 5.939 6.185 25.10 4.03 13.370 13.650 13.290 12.600 12.600 6.073 6.280 6.358 6.244 6.299 6.078 6.249 28.19 4.03 0.0000 0.3000 5.834 6.221 6.299 6.107 6.211 5.838 6.111 0.00000 0.00 318 0.00 0.00 0.0000 0.00 0.00 0.1700 135.200 54.240 9.309 9.311 0.000 9.468 9.471 0.000
WS7MET_125 2017-09-30 07:05:00 125 30483.0 5.869 6.214 6.293 6.186 6.203 100.000 100.000 5.873 6.191 23.43 4.03 13.380 13.660 13.290 12.600 12.590 5.971 6.231 6.309 6.278 6.231 5.976 6.283 24.16 4.03 0.0000 0.2000 5.698 6.192 6.270 6.073 6.173 5.702 6.078 0.00000 0.00 318 0.00 0.00 0.0000 0.00 0.00 0.1350 306.000 13.760 9.266 9.269 0.000 9.472 9.475 0.000
WS7MET_125 2017-09-30 07:00:00 125 30483.0 5.789 6.144 6.226 6.125 6.178 100.000 100.000 5.793 6.130 21.48 4.03 13.380 13.660 13.290 12.600 12.590 5.869 6.192 6.270 6.210 6.231 5.874 6.215 22.82 4.03 0.3200 0.6000 5.698 6.114 6.192 6.039 6.114 5.703 6.044 0.00000 0.00 318 0.00 0.00 0.0510 279.00 3.42 0.2000 319.200 38.770 9.215 9.217 0.000 9.432 9.435 0.000
WS7MET_125 2017-09-30 06:55:00 125 30483.0 5.737 6.081 6.158 6.037 6.132 100.000 100.000 5.741 6.042 19.73 3.56 13.400 13.660 13.290 12.600 12.580 5.938 6.114 6.192 6.177 6.202 5.943 6.182 21.48 4.03 0.0000 0.4000 5.597 6.056 6.134 5.972 6.066 5.601 5.977 0.00000 0.00 318 0.00 0.00 0.0000 0.00 0.00 0.1800 260.000 17.610 9.182 9.184 0.000 9.375 9.378 0.000
WS7MET_125 2017-09-30 06:50:00 125 30483.0 5.703 6.027 6.107 5.977 6.044 100.000 100.000 5.707 5.982 16.18 2.68 13.400 13.660 13.290 12.600 12.580 5.802 6.056 6.134 6.075 6.095 5.806 6.080 17.45 2.68 0.0000 0.4000 5.597 6.017 6.095 5.836 6.017 5.601 5.840 0.00000 0.00 318 0.00 0.00 0.0000 0.00 0.00 0.1700 218.100 39.950 9.160 9.163 0.000 9.336 9.339 0.000
WS7MET_125 2017-09-30 06:45:00 125 30483.0 5.668 5.999 6.069 5.943 6.016 100.000 100.000 5.673 5.948 12.42 2.55 13.410 13.660 13.290 12.600 12.580 5.801 6.017 6.085 5.972 6.075 5.806 5.977 13.42 2.68 0.2740 0.6000 5.562 5.978 6.056 5.869 5.968 5.567 5.874 0.00000 0.00 318 0.00 0.00 0.0280 63.73 0.00 0.2300 50.290 37.450 9.138 9.141 0.000 9.314 9.317 0.000
WS7MET_125 2017-09-30 06:40:00 125 30483.0 5.663 5.954 6.017 5.890 6.007 100.000 100.000 5.668 5.895 11.21 1.81 13.420 13.660 13.290 12.600 12.580 5.733 5.988 6.056 5.938 6.075 5.738 5.943 12.08 2.68 0.3720 0.6000 5.596 5.930 5.988 5.835 5.959 5.601 5.840 0.00000 0.00 318 0.00 0.00 0.0420 341.20 6.78 0.2350 348.600 28.290 9.135 9.138 0.000 9.280 9.283 0.000
WS7MET_125 2017-09-30 06:35:00 125 30483.0 5.644 5.908 5.968 5.863 5.913 100.000 100.000 5.649 5.867 7.05 0.94 13.420 13.660 13.290 12.600 12.580 5.802 5.930 5.978 5.904 5.959 5.806 5.909 9.40 1.34 0.0000 0.4000 5.562 5.881 5.949 5.801 5.881 5.567 5.806 0.00000 0.00 318 0.00 0.00 0.0000 0.00 0.00 0.1900 239.000 40.470 9.123 9.126 0.000 9.262 9.265 0.000
WS7MET_125 2017-09-30 06:30:00 125 30483.0 5.571 5.866 5.939 5.849 5.901 100.000 100.000 5.575 5.854 4.03 0.00 13.430 13.660 13.290 12.600 12.580 5.665 5.881 5.949 5.938 5.949 5.669 5.943 4.03 0.00 0.0000 0.3000 5.426 5.842 5.920 5.801 5.862 5.430 5.806 0.00000 0.00 318 0.00 0.00 0.0000 0.00 0.00 0.1550 118.500 29.390 9.076 9.079 0.000 9.253 9.256 0.000
WS7MET_125 2017-09-30 06:25:00 125 30483.0 5.556 5.826 5.899 5.830 5.882 100.000 100.000 5.560 5.835 3.09 0.00 13.440 13.670 13.290 12.600 12.580 5.699 5.842 5.910 5.904 5.900 5.704 5.909 4.03 0.00 0.0000 0.3000 5.426 5.803 5.871 5.767 5.862 5.430 5.771 0.00000 0.00 318 0.00 0.00 0.0000 0.00 0.00 0.1800 126.000 11.190 9.067 9.070 0.000 9.241 9.244 0.000
WS7MET_125 2017-09-30 06:20:00 125 30483.0 5.496 5.774 5.848 5.749 5.820 100.000 100.000 5.500 5.753 2.08 0.00 13.440 13.670 13.290 12.600 12.590 5.597 5.794 5.871 5.802 5.862 5.602 5.806 2.68 0.00 0.1700 0.4000 5.392 5.764 5.832 5.699 5.784 5.396 5.703 0.00000 0.00 318 0.00 0.00 0.0390 40.31 0.36 0.2150 96.400 18.510 9.029 9.032 0.000 9.189 9.192 0.000
WS7MET_125 2017-09-30 06:15:00 125 30483.0 5.488 5.760 5.834 5.739 5.789 100.000 100.000 5.492 5.743 1.34 0.00 13.460 13.670 13.290 12.600 12.580 5.597 5.764 5.852 5.836 5.803 5.602 5.841 1.34 0.00 0.0000 0.5000 5.392 5.735 5.813 5.665 5.764 5.397 5.670 0.00000 0.00 318 0.00 0.00 0.0000 0.00 0.00 0.1900 198.000 66.200 9.024 9.027 0.000 9.183 9.185 0.000
WS7MET_125 2017-09-30 06:10:00 125 30483.0 5.497 5.729 5.805 5.712 5.750 100.000 100.000 5.501 5.716 0.81 0.00 13.460 13.680 13.290 12.600 12.590 5.597 5.745 5.813 5.768 5.784 5.602 5.772 1.34 0.00 0.0460 0.5000 5.427 5.726 5.794 5.631 5.726 5.431 5.636 0.00000 0.00 318 0.00 0.00 0.0020 231.30 0.00 0.2850 193.600 20.520 9.030 9.032 0.000 9.166 9.168 0.000
WS7MET_125 2017-09-30 06:05:00 125 30483.0 5.435 5.729 5.791 5.693 5.789 100.000 100.000 5.439 5.697 0.00 0.00 13.460 13.680 13.290 12.600 12.590 5.563 5.755 5.813 5.768 5.842 5.567 5.772 0.00 0.00 0.0000 0.3000 5.290 5.696 5.774 5.631 5.745 5.294 5.636 0.00000 0.00 318 0.00 0.00 0.0000 0.00 0.00 0.1800 215.500 36.580 8.991 8.994 0.000 9.154 9.156 0.000
WS7MET_125 2017-09-30 06:00:00 125 30483.0 5.375 5.677 5.739 5.653 5.742 100.000 100.000 5.379 5.658 0.00 0.00 13.480 13.680 13.290 12.600 12.590 5.461 5.706 5.774 5.699 5.784 5.465 5.704 0.00 0.00 0.0000 0.3000 5.290 5.658 5.716 5.597 5.687 5.294 5.601 0.00000 0.00 318 0.00 0.00 0.0000 0.00 0.00 0.1900 198.200 64.270 8.954 8.956 0.000 9.128 9.131 0.000
WS7MET_125 2017-09-30 05:55:00 125 30483.0 5.281 5.590 5.670 5.575 5.677 100.000 100.000 5.285 5.579 0.00 0.00 13.480 13.680 13.290 12.600 12.590 5.426 5.658 5.716 5.665 5.745 5.431 5.670 0.00 0.00 0.4310 0.7000 5.153 5.531 5.629 5.528 5.609 5.157 5.533 0.00000 0.00 318 0.00 0.00 0.1470 80.70 1.20 0.3800 96.000 22.920 8.895 8.898 0.000 9.079 9.082 0.000
WS7MET_125 2017-09-30 05:50:00 125 30483.0 5.221 5.521 5.622 5.542 5.612 100.000 100.000 5.225 5.547 0.00 0.00 13.490 13.680 13.290 12.600 12.590 5.289 5.531 5.629 5.665 5.638 5.294 5.670 0.00 0.00 0.0000 0.2000 5.119 5.502 5.599 5.460 5.590 5.123 5.464 0.00000 0.00 318 0.00 0.00 0.0000 0.00 0.00 0.1200 167.900 47.730 8.858 8.861 0.000 9.058 9.061 0.000
WS7MET_125 2017-09-30 05:45:00 125 30483.0 5.121 5.455 5.560 5.476 5.607 100.000 100.000 5.125 5.479 0.00 0.00 13.500 13.680 13.290 12.600 12.590 5.222 5.502 5.599 5.529 5.629 5.226 5.533 0.00 0.00 0.0000 0.3000 5.017 5.405 5.512 5.392 5.590 5.021 5.396 0.00000 0.00 318 0.00 0.00 0.0000 0.00 0.00 0.1150 50.100 19.870 8.797 8.799 0.000 9.017 9.019 0.000
WS7MET_125 2017-09-30 05:40:00 125 30483.0 5.034 5.360 5.450 5.365 5.530 100.000 100.000 5.037 5.363 0.00 0.00 13.500 13.680 13.290 12.600 12.600 5.153 5.396 5.502 5.494 5.590 5.157 5.499 0.00 0.00 0.0000 0.4000 4.948 5.347 5.425 5.255 5.473 4.952 5.249 0.00000 0.00 318 0.00 0.00 0.0000 0.00 0.00 0.1650 31.940 34.500 8.743 8.745 0.000 8.947 8.946 0.000
WS7MET_125 2017-09-30 05:35:00 125 30483.0 4.883 5.244 5.339 5.265 5.445 100.000 99.800 4.887 5.247 0.00 0.00 13.510 13.680 13.290 12.600 12.600 5.016 5.338 5.405 5.323 5.580 5.020 5.313 0.00 0.00 0.0000 0.3000 4.811 5.163 5.260 5.186 5.328 4.815 5.156 0.00000 0.00 318 0.00 0.00 0.0000 0.00 0.00 0.1750 350.100 19.780 8.652 8.654 0.000 8.885 8.874 0.018
WS7MET_125 2017-09-30 05:30:00 125 30483.0 4.777 5.072 5.173 5.156 5.222 100.000 99.600 4.781 5.109 0.00 0.00 13.520 13.680 13.290 12.600 12.600 4.948 5.163 5.260 5.255 5.376 4.952 5.220 0.00 0.00 0.1760 0.5000 4.606 5.008 5.115 5.050 5.096 4.610 4.990 0.00000 0.00 318 0.00 0.00 0.0200 20.89 0.11 0.2000 50.990 20.270 8.588 8.590 0.000 8.818 8.789 0.035
WS7MET_125 2017-09-30 05:25:00 125 30483.0 4.760 5.011 5.112 5.142 5.096 100.000 99.500 4.763 5.074 0.00 0.00 13.530 13.690 13.290 12.600 12.600 4.913 5.018 5.115 5.255 5.115 4.917 5.170 0.00 0.00 0.0000 0.2000 4.674 4.999 5.105 5.050 5.076 4.678 4.965 0.00000 0.00 318 0.00 0.00 0.0000 0.00 0.00 0.1200 240.000 29.530 8.578 8.579 0.000 8.809 8.768 0.044
WS7MET_125 2017-09-30 05:20:00 125 30483.0 4.740 5.024 5.128 5.148 5.089 100.000 99.400 4.744 5.065 0.00 0.00 13.530 13.690 13.290 12.600 12.600 4.811 5.037 5.144 5.219 5.105 4.814 5.129 0.00 0.00 0.0000 0.4000 4.571 5.008 5.115 5.083 5.066 4.575 5.003 0.00000 0.00 318 0.00 0.00 0.0000 0.00 0.00 0.1850 277.700 33.360 8.566 8.568 0.000 8.813 8.762 0.053
WS7MET_125 2017-09-30 05:15:00 125 30483.0 4.797 5.049 5.161 5.191 5.092 100.000 99.300 4.801 5.090 0.00 0.00 13.550 13.690 13.290 12.600 12.600 4.913 5.066 5.183 5.323 5.125 4.917 5.213 0.00 0.00 0.1570 0.6000 4.674 5.037 5.144 5.084 5.057 4.678 4.974 0.00000 0.00 318 0.00 0.00 0.0250 287.20 5.50 0.2750 302.000 22.440 8.600 8.602 0.000 8.840 8.778 0.062
WS7MET_125 2017-09-30 05:10:00 125 30483.0 4.845 5.098 5.223 5.258 5.208 100.000 99.200 4.849 5.153 0.00 0.00 13.550 13.700 13.290 12.600 12.610 4.948 5.115 5.250 5.323 5.279 4.952 5.214 0.00 0.00 0.0000 0.5000 4.743 5.076 5.192 5.186 5.144 4.746 5.077 0.00000 0.00 318 0.00 0.00 0.0000 0.00 0.00 0.2000 306.300 18.440 8.629 8.631 0.000 8.881 8.816 0.071
WS7MET_125 2017-09-30 05:05:00 125 30483.0 4.884 5.126 5.250 5.272 5.282 100.000 99.100 4.888 5.152 0.00 0.00 13.550 13.690 13.280 12.600 12.610 4.982 5.144 5.250 5.357 5.309 4.985 5.222 0.00 0.00 0.0000 0.4000 4.777 5.115 5.241 5.186 5.241 4.781 5.067 0.00000 0.00 318 0.00 0.00 0.0000 0.00 0.00 0.2450 326.900 17.010 8.652 8.655 0.000 8.890 8.816 0.080
WS7MET_125 2017-09-30 05:00:00 125 30483.0 4.922 5.122 5.233 5.267 5.232 99.900 98.900 4.918 5.119 0.00 0.00 13.560 13.700 13.280 12.600 12.610 5.085 5.134 5.241 5.324 5.289 5.069 5.189 0.00 0.00 0.0000 0.4000 4.845 5.105 5.221 5.187 5.183 4.835 5.033 0.00000 0.00 318 0.00 0.00 0.0000 0.00 0.00 0.1950 307.000 18.760 8.675 8.673 0.009 8.887 8.795 0.098
WS7MET_125 2017-09-30 04:55:00 125 30483.0 4.958 5.172 5.270 5.317 5.251 99.900 98.800 4.941 5.148 0.00 0.00 13.570 13.700 13.280 12.600 12.610 5.084 5.202 5.289 5.392 5.289 5.073 5.232 0.00 0.00 0.0520 0.4000 4.845 5.144 5.250 5.221 5.183 4.824 5.047 0.00000 0.00 318 0.00 0.00 0.0030 329.30 0.00 0.2150 341.300 25.640 8.697 8.687 0.009 8.918 8.813 0.107
WS7MET_125 2017-09-30 04:50:00 125 30483.0 5.043 5.258 5.355 5.382 5.352 99.900 98.800 5.031 5.219 0.00 0.00 13.580 13.700 13.280 12.600 12.610 5.152 5.289 5.386 5.459 5.376 5.145 5.294 0.00 0.00 0.2550 0.4000 4.948 5.202 5.299 5.322 5.241 4.936 5.153 0.00000 0.00 318 0.00 0.00 0.0720 330.50 1.85 0.2250 344.700 34.870 8.749 8.742 0.009 8.958 8.857 0.107
WS7MET_125 2017-09-30 04:45:00 125 30483.0 5.053 5.299 5.400 5.435 5.416 99.800 98.800 5.031 5.259 0.00 0.00 13.590 13.700 13.290 12.600 12.610 5.150 5.309 5.405 5.492 5.454 5.123 5.321 0.00 0.00 0.3270 0.5000 4.946 5.289 5.386 5.355 5.376 4.929 5.196 0.00000 0.00 318 0.00 0.00 0.2510 336.70 5.90 0.3350 352.200 10.840 8.755 8.742 0.018 8.991 8.882 0.108
WS7MET_125 2017-09-30 04:40:00 125 30483.0 5.116 5.333 5.444 5.488 5.439 99.700 98.700 5.073 5.306 0.00 0.00 13.590 13.700 13.290 12.600 12.610 5.252 5.357 5.483 5.559 5.493 5.206 5.385 0.00 0.00 0.3070 0.5000 4.979 5.299 5.405 5.389 5.357 4.948 5.214 0.00000 0.00 318 0.00 0.00 0.1640 333.90 3.46 0.3500 353.800 20.850 8.794 8.767 0.026 9.024 8.911 0.117
WS7MET_125 2017-09-30 04:35:00 125 30483.0 5.223 5.398 5.507 5.540 5.445 99.500 98.500 5.160 5.331 0.00 0.00 13.590 13.700 13.290 12.600 12.610 5.320 5.473 5.580 5.661 5.512 5.269 5.446 0.00 0.00 0.1830 0.4000 5.116 5.357 5.473 5.456 5.376 5.045 5.237 0.00000 0.00 318 0.00 0.00 0.0240 335.70 2.06 0.3050 330.800 16.720 8.859 8.821 0.044 9.057 8.926 0.136
WS7MET_125 2017-09-30 04:30:00 125 30483.0 5.337 5.533 5.636 5.680 5.637 99.700 98.600 5.291 5.476 0.00 0.00 13.600 13.700 13.290 12.600 12.610 5.456 5.561 5.677 5.763 5.677 5.405 5.573 0.00 0.00 0.0000 0.4000 5.217 5.493 5.580 5.627 5.531 5.171 5.422 0.00000 0.00 318 0.00 0.00 0.0000 0.00 0.00 0.2200 354.800 28.820 8.930 8.901 0.027 9.145 9.017 0.128
WS7MET_125 2017-09-30 04:25:00 125 30483.0 5.417 5.611 5.726 5.787 5.681 99.500 98.500 5.349 5.576 0.00 0.00 13.610 13.700 13.290 12.610 12.610 5.559 5.677 5.784 5.934 5.745 5.497 5.724 0.00 0.00 0.1760 0.5000 5.319 5.570 5.677 5.695 5.590 5.253 5.469 0.00000 0.00 318 0.00 0.00 0.0520 346.20 6.67 0.2850 1.032 26.200 8.980 8.937 0.045 9.214 9.080 0.138
WS7MET_125 2017-09-30 04:20:00 125 30483.0 5.563 5.748 5.852 5.896 5.760 99.600 98.500 5.511 5.689 0.00 0.00 13.610 13.710 13.280 12.610 12.610 5.660 5.823 5.920 6.001 5.832 5.614 5.811 0.00 0.00 0.1960 0.4000 5.422 5.677 5.794 5.763 5.667 5.361 5.557 0.00000 0.00 318 0.00 0.00 0.0250 356.90 4.55 0.2200 349.600 35.580 9.071 9.039 0.036 9.283 9.151 0.139
WS7MET_125 2017-09-30 04:15:00 125 30483.0 5.673 5.883 5.992 6.016 5.933 99.700 98.700 5.634 5.832 0.00 0.00 13.630 13.710 13.280 12.610 12.610 5.762 5.939 6.046 6.102 6.017 5.734 5.908 0.00 0.00 0.4180 0.5000 5.556 5.823 5.930 5.966 5.832 5.504 5.760 0.00000 0.00 318 0.00 0.00 0.1540 331.20 0.65 0.3050 334.000 7.229 9.141 9.116 0.027 9.361 9.242 0.122
WS7MET_125 2017-09-30 04:10:00 125 30483.0 5.763 5.988 6.087 6.105 6.046 99.800 98.800 5.741 5.941 0.00 0.00 13.630 13.720 13.280 12.610 12.610 5.865 6.036 6.134 6.171 6.134 5.833 6.000 0.00 0.00 0.3660 0.5000 5.693 5.949 6.056 6.035 5.978 5.671 5.849 0.00000 0.00 318 0.00 0.00 0.2920 330.70 0.98 0.3800 350.400 7.925 9.198 9.184 0.018 9.419 9.312 0.113
WS7MET_125 2017-09-30 04:05:00 125 30483.0 5.852 6.064 6.158 6.183 6.136 99.900 99.000 5.836 6.042 0.00 0.00 13.630 13.720 13.280 12.610 12.620 5.967 6.114 6.202 6.308 6.192 5.945 6.172 0.00 0.00 0.3790 0.6000 5.796 6.036 6.134 6.069 6.095 5.774 5.923 0.00000 0.00 318 0.00 0.00 0.1420 327.60 5.16 0.3300 342.500 15.650 9.255 9.245 0.009 9.470 9.378 0.095
WS7MET_125 2017-09-30 04:00:00 125 30483.0 5.923 6.130 6.227 6.240 6.278 99.900 99.100 5.908 6.116 0.00 0.00 13.640 13.720 13.280 12.610 12.620 6.035 6.143 6.241 6.309 6.319 6.023 6.188 0.00 0.00 0.3590 0.4000 5.831 6.124 6.211 6.138 6.231 5.824 6.018 0.00000 0.00 318 0.00 0.00 0.2300 351.20 1.57 0.2950 3.267 12.780 9.301 9.291 0.009 9.507 9.426 0.086
WS7MET_125 2017-09-30 03:55:00 125 30483.0 6.025 6.150 6.254 6.264 6.274 99.600 99.000 5.970 6.124 0.00 0.00 13.650 13.720 13.280 12.610 12.620 6.103 6.163 6.260 6.308 6.348 6.047 6.182 0.00 0.00 0.2030 0.3000 5.899 6.143 6.241 6.205 6.202 5.861 6.069 0.00000 0.00 318 0.00 0.00 0.0480 351.10 0.21 0.2250 9.570 21.100 9.367 9.331 0.037 9.523 9.431 0.095
WS7MET_125 2017-09-30 03:50:00 125 30483.0 6.132 6.247 6.338 6.337 6.187 99.500 98.800 6.067 6.164 0.00 0.00 13.660 13.720 13.280 12.610 12.620 6.309 6.348 6.465 6.513 6.299 6.267 6.368 0.00 0.00 0.2550 0.4000 5.932 6.163 6.260 6.206 6.124 5.851 6.040 0.00000 0.00 318 0.00 0.00 0.1010 347.00 6.59 0.2600 355.600 15.390 9.436 9.394 0.047 9.571 9.457 0.115
WS7MET_125 2017-09-30 03:45:00 125 30483.0 6.315 6.460 6.556 6.543 6.386 99.900 99.100 6.299 6.420 0.00 0.00 13.670 13.730 13.280 12.610 12.630 6.444 6.562 6.660 6.683 6.445 6.442 6.592 0.00 0.00 0.2030 0.5000 6.172 6.367 6.465 6.411 6.309 6.150 6.275 0.00000 0.00 318 0.00 0.00 0.0540 340.40 15.92 0.3150 354.200 24.040 9.556 9.546 0.010 9.708 9.626 0.087
WS7MET_125 2017-09-30 03:40:00 125 30483.0 6.474 6.659 6.744 6.752 6.640 100.000 99.400 6.480 6.672 0.00 0.00 13.670 13.730 13.280 12.610 12.630 6.682 6.738 6.826 6.887 6.796 6.687 6.825 0.00 0.00 0.0000 0.3000 6.308 6.572 6.670 6.615 6.465 6.313 6.528 0.00000 0.00 318 0.00 0.00 0.0000 0.00 0.00 0.1500 29.260 36.150 9.662 9.666 0.000 9.849 9.795 0.059
WS7MET_125 2017-09-30 03:35:00 125 30483.0 6.552 6.778 6.853 6.861 6.743 100.000 99.600 6.558 6.802 0.00 0.00 13.670 13.730 13.280 12.610 12.630 6.682 6.826 6.904 6.955 6.796 6.688 6.914 0.00 0.00 0.1440 0.3000 6.341 6.738 6.816 6.784 6.660 6.346 6.713 0.00000 0.00 318 0.00 0.00 0.0090 341.50 0.03 0.2000 352.900 35.560 9.714 9.718 0.000 9.923 9.883 0.040
WS7MET_125 2017-09-30 03:30:00 125 30483.0 6.625 6.896 6.985 6.971 6.814 100.000 99.700 6.630 6.932 0.00 0.00 13.670 13.730 13.280 12.610 12.630 6.819 6.953 7.060 7.093 6.894 6.824 7.072 0.00 0.00 0.0000 0.5000 6.443 6.836 6.904 6.819 6.718 6.449 6.757 0.00000 0.00 318 0.00 0.00 0.0000 0.00 0.00 0.1600 27.940 36.570 9.763 9.766 0.000 9.998 9.971 0.030
WS7MET_125 2017-09-30 03:25:00 125 30483.0 6.712 6.995 7.099 7.029 7.066 100.000 99.800 6.717 7.000 0.00 0.00 13.690 13.730 13.280 12.610 12.630 6.854 7.021 7.119 7.160 7.168 6.859 7.144 0.00 0.00 0.0000 0.4000 6.615 6.972 7.060 6.956 6.933 6.620 6.910 0.00000 0.00 318 0.00 0.00 0.0000 0.00 0.00 0.1900 182.800 15.120 9.822 9.825 0.000 10.038 10.018 0.020
WS7MET_125 2017-09-30 03:20:00 125 30483.0 6.724 6.979 7.073 7.018 6.999 100.000 99.600 6.730 6.969 0.00 0.00 13.690 13.730 13.270 12.610 12.630 6.888 6.992 7.080 7.093 7.031 6.893 7.047 0.00 0.00 0.0000 0.4000 6.581 6.963 7.051 6.956 6.972 6.586 6.895 0.00000 0.00 318 0.00 0.00 0.0000 0.00 0.00 0.1250 106.000 18.970 9.830 9.834 0.000 10.030 9.997 0.040
WS7MET_125 2017-09-30 03:15:00 125 30483.0 6.735 6.997 7.089 7.013 7.022 100.000 99.600 6.741 6.956 0.00 0.00 13.700 13.730 13.280 12.610 12.630 6.921 7.002 7.099 7.092 7.041 6.927 7.035 0.00 0.00 0.2550 0.5000 6.580 6.982 7.080 6.921 6.992 6.585 6.870 0.00000 0.00 318 0.00 0.00 0.0300 255.70 0.04 0.2350 303.200 40.150 9.837 9.841 0.000 10.027 9.988 0.040
WS7MET_125 2017-09-30 03:10:00 125 30483.0 6.765 7.029 7.125 7.063 7.025 100.000 99.500 6.770 7.003 0.00 0.00 13.710 13.730 13.280 12.600 12.640 7.024 7.060 7.158 7.161 7.080 7.029 7.110 0.00 0.00 0.5810 0.8000 6.580 7.002 7.099 6.990 6.992 6.585 6.923 0.00000 0.00 318 0.00 0.00 0.2090 235.60 33.20 0.4050 240.200 27.010 9.857 9.861 0.000 10.061 10.020 0.050
WS7MET_125 2017-09-30 03:05:00 125 30483.0 6.776 7.060 7.157 7.080 7.038 100.000 99.600 6.781 7.021 0.00 0.00 13.720 13.730 13.280 12.600 12.650 6.922 7.060 7.158 7.159 7.090 6.928 7.103 0.00 0.00 0.0070 0.4000 6.682 7.060 7.148 6.990 6.992 6.687 6.944 0.00000 0.00 318 0.00 0.00 0.0000 12.55 0.00 0.1650 13.160 47.650 9.865 9.868 0.000 10.073 10.032 0.040
WS7MET_125 2017-09-30 03:00:00 125 30483.0 6.817 7.074 7.169 7.114 7.062 100.000 99.500 6.822 7.045 0.00 0.00 13.720 13.730 13.260 12.600 12.650 6.921 7.090 7.178 7.194 7.129 6.927 7.123 0.00 0.00 0.8750 1.3000 6.648 7.060 7.158 7.023 7.011 6.653 6.952 0.00000 0.00 318 0.00 0.00 0.1540 247.90 6.96 0.3350 296.600 30.700 9.893 9.896 0.000 10.097 10.049 0.050
WS7MET_125 2017-09-30 02:55:00 125 30483.0 6.769 7.062 7.152 7.093 7.127 100.000 99.300 6.775 6.996 0.00 0.00 13.720 13.730 13.270 12.610 12.650 6.921 7.099 7.197 7.194 7.246 6.927 7.123 0.00 0.00 0.6600 0.9000 6.648 7.051 7.139 6.989 7.090 6.654 6.877 0.00000 0.00 318 0.00 0.00 0.2920 257.40 6.97 0.4800 271.300 11.580 9.860 9.864 0.000 10.082 10.015 0.071
WS7MET_125 2017-09-30 02:50:00 125 30483.0 6.752 7.055 7.137 7.061 7.133 100.000 99.300 6.757 6.965 0.00 0.00 13.730 13.720 13.270 12.610 12.650 6.818 7.060 7.148 7.160 7.207 6.824 7.073 0.00 0.00 0.0200 0.4000 6.648 7.041 7.119 6.955 7.090 6.653 6.858 0.00000 0.00 318 0.00 0.00 0.0010 354.50 0.00 0.2050 330.900 39.530 9.849 9.852 0.000 10.060 9.994 0.070
WS7MET_125 2017-09-30 02:45:00 125 30483.0 6.721 7.027 7.111 7.061 7.090 100.000 99.400 6.727 6.974 0.00 0.00 13.750 13.730 13.270 12.610 12.650 6.853 7.041 7.119 7.126 7.139 6.858 7.044 0.00 0.00 0.0000 0.4000 6.580 7.021 7.099 6.989 7.051 6.585 6.903 0.00000 0.00 318 0.00 0.00 0.0000 0.00 0.00 0.2150 330.000 18.720 9.828 9.832 0.000 10.060 10.000 0.060
WS7MET_125 2017-09-30 02:40:00 125 30483.0 6.671 7.003 7.095 7.038 7.090 100.000 99.400 6.676 6.962 0.00 0.00 13.740 13.730 13.270 12.600 12.660 6.853 7.021 7.119 7.126 7.139 6.859 7.045 0.00 0.00 0.0000 0.4000 6.513 6.982 7.080 6.956 7.031 6.518 6.870 0.00000 0.00 318 0.00 0.00 0.0000 0.00 0.00 0.2200 340.000 26.530 9.794 9.797 0.000 10.044 9.992 0.060
WS7MET_125 2017-09-30 02:35:00 125 30483.0 6.706 6.984 7.085 7.041 7.050 100.000 99.500 6.712 6.974 0.00 0.00 13.750 13.730 13.270 12.600 12.660 6.819 6.992 7.099 7.161 7.070 6.824 7.080 0.00 0.00 0.0000 0.3000 6.546 6.982 7.080 6.990 7.031 6.552 6.904 0.00000 0.00 318 0.00 0.00 0.0000 0.00 0.00 0.1500 284.100 12.550 9.818 9.822 0.000 10.046 10.000 0.050
WS7MET_125 2017-09-30 02:30:00 125 30483.0 6.652 7.000 7.105 7.037 7.072 100.000 99.500 6.657 6.977 0.00 0.00 13.760 13.740 13.270 12.610 12.660 6.785 7.002 7.109 7.092 7.109 6.791 7.036 0.00 0.00 0.0000 0.2000 6.512 6.992 7.099 6.922 7.031 6.517 6.851 0.00000 0.00 318 0.00 0.00 0.0000 0.00 0.00 0.1100 319.200 9.720 9.781 9.784 0.000 10.043 10.002 0.050
WS7MET_125 2017-09-30 02:25:00 125 30483.0 6.643 6.980 7.080 7.015 7.096 100.000 99.600 6.649 6.957 0.00 0.00 13.760 13.740 13.270 12.610 12.660 6.751 7.002 7.099 7.092 7.129 6.757 7.031 0.00 0.00 0.0000 0.2000 6.512 6.963 7.060 6.956 7.060 6.517 6.900 0.00000 0.00 318 0.00 0.00 0.0000 0.00 0.00 0.1400 303.400 22.110 9.775 9.779 0.000 10.028 9.988 0.040
WS7MET_125 2017-09-30 02:20:00 125 30483.0 6.636 6.941 7.042 6.983 7.065 100.000 99.600 6.642 6.925 0.00 0.00 13.760 13.740 13.270 12.610 12.670 6.785 6.963 7.070 7.092 7.119 6.790 7.030 0.00 0.00 0.0000 0.3000 6.546 6.923 7.021 6.921 7.031 6.551 6.850 0.00000 0.00 318 0.00 0.00 0.0000 0.00 0.00 0.2150 356.100 38.820 9.770 9.774 0.000 10.006 9.966 0.040
WS7MET_125 2017-09-30 02:15:00 125 30483.0 6.596 6.900 6.999 6.888 7.052 100.000 99.600 6.601 6.830 0.00 0.00 13.770 13.740 13.270 12.610 12.660 6.683 6.923 7.021 6.956 7.090 6.689 6.909 0.00 0.00 0.0000 0.3000 6.478 6.865 6.963 6.820 7.031 6.484 6.754 0.00000 0.00 318 0.00 0.00 0.0000 0.00 0.00 0.2150 304.300 16.610 9.743 9.747 0.000 9.941 9.902 0.040
WS7MET_125 2017-09-30 02:10:00 125 30483.0 6.494 6.833 6.920 6.840 7.020 100.000 99.500 6.499 6.773 0.00 0.00 13.770 13.740 13.270 12.610 12.670 6.616 6.865 6.963 6.923 7.070 6.621 6.857 0.00 0.00 0.2030 0.4000 6.376 6.787 6.865 6.751 6.963 6.381 6.685 0.00000 0.00 318 0.00 0.00 0.0510 344.60 0.08 0.2150 330.500 33.540 9.675 9.679 0.000 9.908 9.863 0.050
WS7MET_125 2017-09-30 02:05:00 125 30483.0 6.401 6.709 6.805 6.732 6.920 100.000 99.400 6.406 6.653 0.00 0.00 13.780 13.740 13.270 12.610 12.680 6.580 6.777 6.855 6.785 6.972 6.586 6.723 0.00 0.00 0.1180 0.4000 6.341 6.640 6.728 6.649 6.875 6.346 6.543 0.00000 0.00 318 0.00 0.00 0.0080 339.30 1.35 0.2450 347.500 18.640 9.613 9.617 0.000 9.835 9.782 0.059
WS7MET_125 2017-09-30 02:00:00 125 30483.0 6.282 6.553 6.648 6.610 6.744 100.000 99.200 6.286 6.495 0.00 0.00 13.790 13.740 13.260 12.610 12.680 6.410 6.631 6.728 6.718 6.894 6.416 6.622 0.00 0.00 0.3330 0.4000 6.171 6.494 6.591 6.512 6.640 6.175 6.400 0.00000 0.00 318 0.00 0.00 0.1280 336.90 0.06 0.2800 357.100 8.460 9.535 9.537 0.000 9.753 9.676 0.078
WS7MET_125 2017-09-30 01:55:00 125 30483.0 6.235 6.446 6.564 6.597 6.564 99.800 99.000 6.208 6.450 0.00 0.00 13.790 13.740 13.260 12.610 12.680 6.307 6.494 6.591 6.649 6.640 6.285 6.527 0.00 0.00 0.2870 0.5000 6.068 6.416 6.552 6.545 6.494 6.026 6.384 0.00000 0.00 318 0.00 0.00 0.0520 333.50 2.10 0.2700 336.100 29.950 9.504 9.486 0.019 9.744 9.646 0.097
WS7MET_125 2017-09-30 01:50:00 125 30483.0 6.282 6.484 6.606 6.654 6.588 99.600 98.900 6.235 6.503 0.00 0.00 13.800 13.740 13.260 12.610 12.680 6.376 6.513 6.631 6.683 6.621 6.324 6.551 0.00 0.00 0.0000 0.4000 6.136 6.445 6.572 6.580 6.543 6.089 6.424 0.00000 0.00 318 0.00 0.00 0.0000 0.00 0.00 0.2150 333.200 20.040 9.535 9.504 0.038 9.782 9.681 0.108
WS7MET_125 2017-09-30 01:45:00 125 30483.0 6.395 6.567 6.677 6.743 6.636 99.600 98.900 6.341 6.582 0.00 0.00 13.800 13.740 13.260 12.610 12.690 6.546 6.611 6.709 6.854 6.689 6.495 6.692 0.00 0.00 0.2030 0.4000 6.273 6.523 6.640 6.615 6.582 6.227 6.449 0.00000 0.00 318 0.00 0.00 0.0520 336.80 0.02 0.2300 341.100 20.910 9.609 9.574 0.038 9.843 9.734 0.108
WS7MET_125 2017-09-30 01:40:00 125 30483.0 6.478 6.672 6.763 6.817 6.723 99.600 98.900 6.431 6.662 0.00 0.00 13.800 13.740 13.260 12.610 12.690 6.546 6.718 6.816 6.888 6.816 6.499 6.745 0.00 0.00 0.0780 0.5000 6.409 6.621 6.718 6.752 6.660 6.344 6.586 0.00000 0.00 318 0.00 0.00 0.0060 332.30 1.44 0.2350 334.500 21.900 9.665 9.633 0.039 9.893 9.788 0.109
WS7MET_125 2017-09-30 01:35:00 125 30483.0 6.602 6.759 6.858 6.911 6.839 99.700 98.900 6.560 6.762 0.00 0.00 13.810 13.740 13.260 12.610 12.690 6.683 6.787 6.884 6.990 6.894 6.651 6.843 0.00 0.00 0.3270 0.4000 6.546 6.718 6.826 6.819 6.796 6.499 6.682 0.00000 0.00 318 0.00 0.00 0.1470 337.60 1.05 0.2650 347.100 21.150 9.747 9.719 0.029 9.957 9.855 0.110
WS7MET_125 2017-09-30 01:30:00 125 30483.0 6.666 6.851 6.954 7.002 6.943 99.700 98.900 6.624 6.853 0.00 0.00 13.810 13.740 13.260 12.610 12.690 6.751 6.894 7.002 7.092 7.011 6.710 6.956 0.00 0.00 0.4120 0.5000 6.581 6.806 6.904 6.922 6.865 6.548 6.766 0.00000 0.00 318 0.00 0.00 0.0900 26.16 2.30 0.2250 36.770 29.770 9.791 9.762 0.029 10.019 9.917 0.110
WS7MET_125 2017-09-30 01:25:00 125 30483.0 6.744 6.917 7.023 7.058 6.982 99.400 98.700 6.665 6.875 0.00 0.00 13.820 13.740 13.260 12.610 12.700 6.921 6.963 7.060 7.160 7.051 6.824 6.958 0.00 0.00 0.2350 0.5000 6.648 6.894 7.002 6.990 6.933 6.582 6.809 0.00000 0.00 318 0.00 0.00 0.0660 6.11 1.15 0.2700 35.580 14.430 9.843 9.790 0.059 10.058 9.932 0.131
WS7MET_125 2017-09-30 01:20:00 125 30483.0 6.855 7.035 7.128 7.160 7.034 99.400 98.600 6.775 6.960 0.00 0.00 13.820 13.740 13.260 12.610 12.700 6.990 7.109 7.197 7.228 7.129 6.918 7.041 0.00 0.00 0.1440 0.3000 6.716 6.963 7.060 7.092 6.972 6.650 6.884 0.00000 0.00 318 0.00 0.00 0.0090 349.00 0.00 0.1900 356.500 35.700 9.919 9.864 0.060 10.129 9.990 0.142
WS7MET_125 2017-09-30 01:15:00 125 30483.0 6.955 7.164 7.264 7.276 7.206 99.500 98.700 6.888 7.095 0.00 0.00 13.830 13.750 13.260 12.610 12.690 7.058 7.207 7.315 7.365 7.256 6.996 7.193 0.00 0.00 0.0000 0.2000 6.887 7.119 7.207 7.194 7.139 6.806 6.992 0.00000 0.00 318 0.00 0.00 0.0000 0.00 0.00 0.1800 42.850 30.570 9.987 9.941 0.050 10.209 10.084 0.133
WS7MET_125 2017-09-30 01:10:00 125 30483.0 7.020 7.239 7.340 7.324 7.305 99.600 98.800 6.972 7.159 0.00 0.00 13.840 13.740 13.260 12.610 12.700 7.126 7.256 7.364 7.399 7.344 7.079 7.242 0.00 0.00 0.0000 0.4000 6.921 7.207 7.315 7.194 7.266 6.875 7.033 0.00000 0.00 318 0.00 0.00 0.0000 0.00 0.00 0.1800 331.500 17.420 10.032 9.999 0.040 10.243 10.128 0.123
WS7MET_125 2017-09-30 01:05:00 125 30483.0 7.028 7.260 7.363 7.353 7.349 99.500 98.700 6.965 7.174 0.00 0.00 13.840 13.740 13.260 12.610 12.710 7.126 7.266 7.374 7.433 7.384 7.074 7.256 0.00 0.00 0.0000 0.2000 6.921 7.256 7.354 7.296 7.305 6.859 7.114 0.00000 0.00 318 0.00 0.00 0.0000 0.00 0.00 0.1300 320.300 23.990 10.037 9.994 0.050 10.263 10.138 0.133
WS7MET_125 2017-09-30 01:00:00 125 30483.0 7.049 7.276 7.360 7.351 7.344 99.400 98.600 6.970 7.147 0.00 0.00 13.840 13.750 13.260 12.610 12.710 7.160 7.286 7.374 7.399 7.403 7.084 7.207 0.00 0.00 0.0000 0.4000 6.955 7.266 7.335 7.262 7.266 6.879 7.044 0.00000 0.00 318 0.00 0.00 0.0000 0.00 0.00 0.1850 330.800 42.240 10.052 9.997 0.060 10.262 10.120 0.144
WS7MET_125 2017-09-30 00:55:00 125 30483.0 7.081 7.309 7.393 7.412 7.390 99.400 98.600 6.999 7.209 0.00 0.00 13.840 13.750 13.260 12.610 12.710 7.193 7.315 7.413 7.466 7.462 7.132 7.269 0.00 0.00 0.1440 0.3000 6.886 7.286 7.354 7.330 7.286 6.790 7.153 0.00000 0.00 318 0.00 0.00 0.0370 355.40 1.43 0.2050 15.190 32.420 10.074 10.017 0.060 10.305 10.163 0.144
WS7MET_125 2017-09-30 00:50:00 125 30483.0 7.148 7.344 7.440 7.444 7.371 99.200 98.400 7.043 7.211 0.00 0.00 13.850 13.750 13.260 12.610 12.720 7.228 7.393 7.491 7.535 7.462 7.131 7.312 0.00 0.00 0.3920 0.5000 7.057 7.315 7.403 7.330 7.325 6.955 7.092 0.00000 0.00 318 0.00 0.00 0.0700 32.72 1.68 0.2500 45.340 20.550 10.120 10.048 0.081 10.328 10.164 0.165
WS7MET_125 2017-09-30 00:45:00 125 30483.0 7.204 7.419 7.521 7.511 7.461 99.100 98.300 7.085 7.264 0.00 0.00 13.850 13.750 13.260 12.610 12.720 7.296 7.452 7.560 7.604 7.491 7.160 7.345 0.00 0.00 0.2420 0.5000 7.125 7.393 7.491 7.433 7.433 7.029 7.199 0.00000 0.00 318 0.00 0.00 0.0720 18.84 5.29 0.2900 17.350 18.150 10.159 10.077 0.091 10.375 10.201 0.176
WS7MET_125 2017-09-30 00:40:00 125 30483.0 7.322 7.508 7.617 7.619 7.517 99.000 98.200 7.183 7.359 0.00 0.00 13.860 13.750 13.260 12.610 12.720 7.501 7.550 7.658 7.705 7.580 7.359 7.442 0.00 0.00 0.0000 0.4000 7.194 7.452 7.560 7.501 7.452 7.078 7.238 0.00000 0.00 318 0.00 0.00 0.0000 0.00 0.00 0.1650 31.980 46.230 10.242 10.145 0.102 10.452 10.268 0.188
WS7MET_125 2017-09-30 00:35:00 125 30483.0 7.383 7.589 7.696 7.700 7.615 99.000 98.300 7.246 7.455 0.00 0.00 13.860 13.750 13.260 12.610 12.720 7.467 7.629 7.727 7.774 7.727 7.340 7.546 0.00 0.00 0.0000 0.3000 7.262 7.560 7.658 7.637 7.560 7.110 7.379 0.00000 0.00 318 0.00 0.00 0.0000 0.00 0.00 0.1800 357.900 22.830 10.284 10.188 0.103 10.510 10.335 0.179
WS7MET_125 2017-09-30 00:30:00 125 30483.0 7.452 7.641 7.742 7.730 7.727 99.000 98.400 7.312 7.502 0.00 0.00 13.870 13.750 13.260 12.610 12.730 7.535 7.658 7.757 7.808 7.757 7.404 7.591 0.00 0.00 0.0000 0.4000 7.330 7.629 7.727 7.637 7.708 7.194 7.410 0.00000 0.00 318 0.00 0.00 0.0000 0.00 0.00 0.1750 337.500 10.390 10.333 10.235 0.103 10.531 10.369 0.169
WS7MET_125 2017-09-30 00:25:00 125 30483.0 7.480 7.679 7.766 7.744 7.714 99.000 98.400 7.339 7.510 0.00 0.00 13.880 13.750 13.260 12.610 12.730 7.569 7.717 7.796 7.842 7.757 7.447 7.608 0.00 0.00 0.1180 0.5000 7.364 7.658 7.747 7.705 7.678 7.227 7.462 0.00000 0.00 318 0.00 0.00 0.0080 339.00 0.01 0.2200 320.900 22.080 10.353 10.254 0.104 10.541 10.374 0.169
WS7MET_125 2017-09-30 00:20:00 125 30483.0 7.567 7.750 7.832 7.831 7.737 98.900 98.300 7.418 7.580 0.00 0.00 13.880 13.750 13.260 12.610 12.730 7.637 7.796 7.875 7.910 7.776 7.490 7.656 0.00 0.00 0.0000 0.4000 7.500 7.717 7.796 7.671 7.708 7.343 7.428 0.00000 0.00 318 0.00 0.00 0.0000 0.00 0.00 0.1950 40.630 20.210 10.415 10.309 0.115 10.604 10.424 0.180
WS7MET_125 2017-09-30 00:15:00 125 30483.0 7.639 7.839 7.919 7.883 7.843 99.000 98.200 7.491 7.618 0.00 0.00 13.880 13.750 13.260 12.620 12.730 7.739 7.875 7.944 7.978 7.894 7.602 7.719 0.00 0.00 0.0000 0.2000 7.535 7.796 7.885 7.773 7.757 7.393 7.505 0.00000 0.00 318 0.00 0.00 0.0000 0.00 0.00 0.1350 31.380 40.310 10.466 10.361 0.105 10.642 10.451 0.192
WS7MET_125 2017-09-30 00:10:00 125 30483.0 7.637 7.892 7.975 7.954 7.917 99.000 98.200 7.497 7.688 0.00 0.00 13.880 13.750 13.260 12.620 12.740 7.773 7.914 8.000 8.010 7.973 7.637 7.743 0.00 0.00 0.0000 0.3000 7.466 7.875 7.944 7.876 7.894 7.340 7.602 0.00000 0.00 318 0.00 0.00 0.0000 0.00 0.00 0.1600 22.630 30.010 10.465 10.365 0.105 10.693 10.501 0.192
WS7MET_125 2017-09-30 00:05:00 125 30483.0 7.656 7.908 8.000 7.973 7.927 99.000 98.100 7.507 7.696 0.00 0.00 13.890 13.750 13.260 12.620 12.740 7.773 7.924 8.020 8.050 7.973 7.621 7.788 0.00 0.00 0.1960 0.5000 7.569 7.894 7.983 7.876 7.875 7.417 7.612 0.00000 0.00 318 0.00 0.00 0.0430 331.60 9.34 0.2500 355.000 21.980 10.478 10.372 0.105 10.707 10.507 0.203
WS7MET_125 2017-09-30 00:00:00 125 30483.0 7.705 7.962 8.060 8.040 7.969 98.900 98.100 7.547 7.772 0.00 0.00 13.890 13.750 13.260 12.620 12.740 7.808 7.993 8.090 8.150 8.070 7.661 7.869 0.00 0.00 0.0000 0.4000 7.637 7.934 8.020 7.978 7.894 7.470 7.699 0.00000 0.00 318 0.00 0.00 0.0000 0.00 0.00 0.1200 85.700 26.130 10.513 10.401 0.116 10.756 10.562 0.204
WS7MET_125 2017-09-29 23:55:00 125 30483.0 7.744 8.000 8.090 8.040 8.050 98.800 98.000 7.575 7.751 0.00 0.00 13.900 13.750 13.250 12.620 12.740 7.842 8.000 8.100 8.110 8.100 7.659 7.861 0.00 0.00 0.0000 0.4000 7.671 7.993 8.080 7.944 7.993 7.499 7.644 0.00000 0.00 318 0.00 0.00 0.0000 0.00 0.00 0.1650 44.130 17.760 10.541 10.420 0.126 10.756 10.546 0.215
WS7MET_125 2017-09-29 23:50:00 125 30483.0 7.750 8.010 8.100 8.060 8.050 98.700 97.900 7.567 7.746 0.00 0.00 13.900 13.750 13.250 12.620 12.740 7.842 8.030 8.100 8.110 8.090 7.654 7.815 0.00 0.00 0.0000 0.4000 7.603 8.000 8.080 7.978 8.010 7.421 7.653 0.00000 0.00 318 0.00 0.00 0.0000 0.00 0.00 0.2100 335.200 25.050 10.546 10.415 0.137 10.771 10.543 0.226
WS7MET_125 2017-09-29 23:45:00 125 30483.0 7.794 8.050 8.130 8.100 8.030 98.900 97.900 7.638 7.798 0.00 0.00 13.900 13.750 13.250 12.620 12.740 7.910 8.080 8.170 8.220 8.110 7.758 7.933 0.00 0.00 0.2420 0.5000 7.705 8.020 8.100 8.010 7.953 7.523 7.687 0.00000 0.00 318 0.00 0.00 0.0620 322.60 1.20 0.3050 331.800 14.340 10.577 10.465 0.116 10.800 10.580 0.227
WS7MET_125 2017-09-29 23:40:00 125 30483.0 7.810 8.080 8.170 8.150 8.170 99.000 98.100 7.663 7.871 0.00 0.00 13.910 13.750 13.250 12.620 12.750 7.910 8.080 8.180 8.220 8.210 7.773 7.963 0.00 0.00 0.0000 0.4000 7.740 8.050 8.160 8.080 8.110 7.573 7.802 0.00000 0.00 318 0.00 0.00 0.0000 0.00 0.00 0.2400 339.900 30.360 10.589 10.483 0.106 10.837 10.633 0.206
WS7MET_125 2017-09-29 23:35:00 125 30483.0 7.803 8.050 8.140 8.110 8.090 98.700 97.800 7.617 7.792 0.00 0.00 13.920 13.750 13.250 12.620 12.750 7.910 8.060 8.150 8.180 8.170 7.707 7.874 0.00 0.00 0.0000 0.3000 7.706 8.040 8.120 8.010 8.060 7.519 7.719 0.00000 0.00 318 0.00 0.00 0.0000 0.00 0.00 0.1400 277.200 30.640 10.584 10.450 0.138 10.808 10.576 0.238
WS7MET_125 2017-09-29 23:30:00 125 30483.0 7.859 8.090 8.160 8.140 8.090 98.400 97.500 7.627 7.771 0.00 0.00 13.920 13.750 13.260 12.620 12.760 7.978 8.110 8.180 8.250 8.120 7.740 7.884 0.00 0.00 0.0000 0.3000 7.773 8.060 8.140 8.050 8.070 7.525 7.675 0.00000 0.00 318 0.00 0.00 0.0000 0.00 0.00 0.1800 249.500 16.930 10.624 10.458 0.170 10.830 10.561 0.271
WS7MET_125 2017-09-29 23:25:00 125 30483.0 7.877 8.130 8.200 8.150 8.110 98.200 97.300 7.611 7.755 0.00 0.00 13.930 13.750 13.260 12.620 12.760 7.978 8.150 8.220 8.220 8.170 7.719 7.819 0.00 0.00 0.0000 0.2000 7.739 8.110 8.180 8.080 8.070 7.476 7.683 0.00000 0.00 318 0.00 0.00 0.0000 0.00 0.00 0.0600 255.500 9.500 10.637 10.446 0.191 10.837 10.549 0.293
WS7MET_125 2017-09-29 23:20:00 125 30483.0 7.877 8.140 8.220 8.160 8.130 98.000 97.000 7.587 7.716 0.00 0.00 13.930 13.750 13.250 12.620 12.760 8.010 8.150 8.230 8.250 8.170 7.707 7.789 0.00 0.00 0.0000 0.5000 7.705 8.140 8.200 8.080 8.080 7.421 7.637 0.00000 0.00 318 0.00 0.00 0.0000 0.00 0.00 0.1850 70.670 12.710 10.637 10.429 0.213 10.844 10.521 0.325
WS7MET_125 2017-09-29 23:15:00 125 30483.0 7.934 8.170 8.250 8.180 8.140 97.800 96.800 7.620 7.709 0.00 0.00 13.930 13.750 13.250 12.620 12.770 8.050 8.190 8.280 8.250 8.210 7.726 7.771 0.00 0.00 0.0650 0.4000 7.773 8.150 8.230 8.110 8.100 7.474 7.630 0.00000 0.00 318 0.00 0.00 0.0070 14.83 2.15 0.2200 13.290 29.830 10.679 10.453 0.235 10.859 10.516 0.347
WS7MET_125 2017-09-29 23:10:00 125 30483.0 7.896 8.200 8.280 8.200 8.190 97.600 96.400 7.543 7.678 0.00 0.00 13.930 13.750 13.250 12.620 12.780 8.010 8.210 8.290 8.320 8.230 7.651 7.740 0.00 0.00 0.0000 0.4000 7.807 8.190 8.270 8.150 8.150 7.442 7.601 0.00000 0.00 318 0.00 0.00 0.0000 0.00 0.00 0.1150 317.100 10.120 10.651 10.398 0.256 10.874 10.494 0.391
WS7MET_125 2017-09-29 23:05:00 125 30483.0 7.905 8.210 8.280 8.200 8.250 97.700 96.400 7.569 7.680 0.00 0.00 13.940 13.750 13.250 12.620 12.780 8.150 8.220 8.300 8.320 8.290 7.854 7.870 0.00 0.00 0.4970 0.9000 7.773 8.200 8.270 8.110 8.210 7.416 7.502 0.00000 0.00 318 0.00 0.00 0.2960 257.30 23.27 0.5100 268.900 28.620 10.658 10.416 0.245 10.874 10.495 0.391
WS7MET_125 2017-09-29 23:00:00 125 30483.0 7.949 8.220 8.310 8.230 8.220 98.500 97.300 7.730 7.839 0.00 0.00 13.940 13.750 13.240 12.620 12.790 8.110 8.250 8.320 8.350 8.250 7.911 7.986 0.00 0.00 1.0520 1.5000 7.773 8.210 8.290 8.150 8.190 7.509 7.694 0.00000 0.00 318 0.00 0.00 0.2610 278.60 31.04 0.5200 285.200 27.080 10.690 10.531 0.160 10.896 10.610 0.294
WS7MET_125 2017-09-29 22:55:00 125 30483.0 7.971 8.230 8.320 8.230 8.240 98.500 97.300 7.761 7.828 0.00 0.00 13.930 13.740 13.240 12.620 12.790 8.080 8.250 8.340 8.320 8.270 7.857 7.942 0.00 0.00 0.0520 0.4000 7.773 8.230 8.320 8.150 8.210 7.560 7.746 0.00000 0.00 318 0.00 0.00 0.0060 42.91 5.17 0.1500 38.100 41.570 10.706 10.554 0.161 10.896 10.602 0.294
WS7MET_125 2017-09-29 22:50:00 125 30483.0 7.989 8.260 8.340 8.260 8.300 98.700 97.500 7.802 7.901 0.00 0.00 13.940 13.740 13.240 12.620 12.790 8.150 8.270 8.360 8.320 8.350 7.975 7.997 0.00 0.00 0.5550 1.3000 7.841 8.240 8.340 8.180 8.260 7.658 7.790 0.00000 0.00 318 0.00 0.00 0.2370 268.60 21.01 0.4600 284.800 22.600 10.719 10.583 0.139 10.918 10.655 0.273
WS7MET_125 2017-09-29 22:45:00 125 30483.0 8.090 8.280 8.360 8.300 8.290 98.900 98.000 7.926 8.010 0.00 0.00 13.940 13.740 13.240 12.620 12.800 8.220 8.290 8.370 8.350 8.330 8.060 8.070 0.00 0.00 0.5360 0.9000 7.944 8.270 8.350 8.250 8.270 7.786 7.956 0.00000 0.00 318 0.00 0.00 0.0930 269.20 1.75 0.3250 294.800 43.410 10.793 10.673 0.119 10.948 10.734 0.219
WS7MET_125 2017-09-29 22:40:00 125 30483.0 8.070 8.300 8.380 8.340 8.280 98.800 97.900 7.907 8.030 0.00 0.00 13.940 13.740 13.250 12.600 12.800 8.220 8.320 8.390 8.420 8.300 8.060 8.130 0.00 0.00 0.0000 0.2000 7.909 8.290 8.360 8.250 8.270 7.727 7.945 0.00000 0.00 318 0.00 0.00 0.0000 0.00 0.00 0.1600 326.400 41.140 10.778 10.659 0.129 10.978 10.749 0.231
WS7MET_125 2017-09-29 22:35:00 125 30483.0 8.110 8.360 8.440 8.400 8.320 98.900 98.000 7.959 8.120 0.00 0.00 13.950 13.740 13.260 12.610 12.800 8.250 8.390 8.470 8.520 8.350 8.100 8.240 0.00 0.00 0.0000 0.2000 7.977 8.320 8.390 8.320 8.270 7.809 8.010 0.00000 0.00 318 0.00 0.00 0.0000 0.00 0.00 0.2000 347.200 41.890 10.808 10.697 0.119 11.023 10.815 0.220
WS7MET_125 2017-09-29 22:30:00 125 30483.0 8.190 8.430 8.510 8.470 8.420 99.200 98.200 8.080 8.220 0.00 0.00 13.960 13.740 13.240 12.610 12.810 8.250 8.450 8.530 8.520 8.470 8.150 8.280 0.00 0.00 0.0000 0.3000 8.080 8.390 8.480 8.390 8.360 7.974 8.130 0.00000 0.00 318 0.00 0.00 0.0000 0.00 0.00 0.1750 283.400 44.090 10.867 10.786 0.087 11.075 10.889 0.199
WS7MET_125 2017-09-29 22:25:00 125 30483.0 8.200 8.460 8.550 8.510 8.470 99.200 98.200 8.090 8.250 0.00 0.00 13.960 13.740 13.240 12.610 12.810 8.350 8.470 8.570 8.590 8.500 8.240 8.350 0.00 0.00 0.0000 0.3000 8.050 8.450 8.530 8.420 8.460 7.935 8.150 0.00000 0.00 318 0.00 0.00 0.0000 0.00 0.00 0.1500 10.210 36.750 10.874 10.793 0.087 11.105 10.911 0.200
WS7MET_125 2017-09-29 22:20:00 125 30483.0 8.200 8.490 8.580 8.540 8.560 99.100 98.200 8.070 8.280 0.00 0.00 13.960 13.730 13.240 12.610 12.810 8.290 8.500 8.600 8.630 8.610 8.170 8.380 0.00 0.00 0.0000 0.4000 8.110 8.480 8.570 8.420 8.500 7.972 8.130 0.00000 0.00 318 0.00 0.00 0.0000 0.00 0.00 0.1550 80.300 15.430 10.874 10.778 0.098 11.128 10.933 0.200
WS7MET_125 2017-09-29 22:15:00 125 30483.0 8.250 8.490 8.590 8.560 8.500 98.800 98.000 8.070 8.270 0.00 0.00 13.970 13.730 13.240 12.610 12.820 8.390 8.520 8.630 8.630 8.560 8.220 8.330 0.00 0.00 0.0000 0.4000 8.150 8.470 8.570 8.490 8.460 7.976 8.190 0.00000 0.00 318 0.00 0.00 0.0000 0.00 0.00 0.1250 46.550 28.410 10.911 10.778 0.131 11.143 10.926 0.223
WS7MET_125 2017-09-29 22:10:00 125 30483.0 8.310 8.550 8.640 8.590 8.550 98.600 97.700 8.110 8.260 0.00 0.00 13.970 13.730 13.240 12.610 12.830 8.520 8.600 8.690 8.690 8.600 8.320 8.360 0.00 0.00 0.0130 0.3000 8.220 8.520 8.630 8.460 8.520 7.998 8.130 0.00000 0.00 318 0.00 0.00 0.0010 43.13 0.01 0.1950 68.480 15.230 10.956 10.808 0.153 11.166 10.918 0.257
WS7MET_125 2017-09-29 22:05:00 125 30483.0 8.400 8.620 8.710 8.660 8.630 98.800 97.900 8.240 8.350 0.00 0.00 13.960 13.730 13.240 12.610 12.830 8.520 8.650 8.730 8.800 8.640 8.350 8.500 0.00 0.00 0.0000 0.4000 8.280 8.600 8.690 8.520 8.600 8.120 8.210 0.00000 0.00 318 0.00 0.00 0.0000 0.00 0.00 0.1250 75.000 46.560 11.023 10.904 0.132 11.219 10.985 0.236
WS7MET_125 2017-09-29 22:00:00 125 30483.0 8.430 8.660 8.750 8.720 8.670 98.800 97.900 8.260 8.410 0.00 0.00 13.960 13.730 13.240 12.610 12.830 8.560 8.690 8.780 8.800 8.700 8.420 8.510 0.00 0.00 0.2740 0.5000 8.320 8.650 8.740 8.630 8.650 8.150 8.310 0.00000 0.00 318 0.00 0.00 0.0330 265.00 0.29 0.2350 246.300 74.740 11.045 10.918 0.133 11.264 11.030 0.237
WS7MET_125 2017-09-29 21:55:00 125 30483.0 8.520 8.710 8.810 8.770 8.700 98.900 98.100 8.370 8.490 0.00 0.00 13.970 13.730 13.240 12.610 12.840 8.630 8.730 8.830 8.830 8.740 8.490 8.560 0.00 0.00 0.1830 1.1000 8.350 8.690 8.780 8.690 8.680 8.180 8.410 0.00000 0.00 318 0.00 0.00 0.0210 6.45 25.83 0.1850 79.060 47.990 11.113 11.000 0.122 11.303 11.090 0.215
WS7MET_125 2017-09-29 21:50:00 125 30483.0 8.560 8.760 8.870 8.820 8.730 98.600 97.800 8.360 8.510 0.00 0.00 13.970 13.730 13.240 12.610 12.840 8.690 8.790 8.910 8.900 8.760 8.490 8.570 0.00 0.00 0.3140 0.4000 8.420 8.730 8.830 8.760 8.700 8.240 8.460 0.00000 0.00 318 0.00 0.00 0.0480 44.63 0.00 0.1900 115.800 43.080 11.143 10.993 0.156 11.341 11.105 0.250
WS7MET_125 2017-09-29 21:45:00 125 30483.0 8.600 8.860 8.960 8.870 8.840 98.300 97.400 8.360 8.480 0.00 0.00 13.970 13.730 13.240 12.610 12.850 8.690 8.910 8.990 8.930 8.940 8.450 8.590 0.00 0.00 0.0000 0.4000 8.450 8.810 8.910 8.800 8.720 8.240 8.370 0.00000 0.00 318 0.00 0.00 0.0000 0.00 0.00 0.2350 144.800 35.510 11.173 10.993 0.190 11.379 11.083 0.296
WS7MET_125 2017-09-29 21:40:00 125 30483.0 8.680 8.930 9.010 8.920 8.940 98.300 97.000 8.430 8.480 0.00 0.00 13.970 13.730 13.240 12.610 12.850 8.790 8.980 9.060 9.030 8.990 8.610 8.630 0.00 0.00 0.5490 0.8000 8.560 8.910 8.990 8.860 8.920 8.270 8.400 0.00000 0.00 318 0.00 0.00 0.1380 321.70 57.03 0.3400 351.200 73.010 11.234 11.045 0.191 11.418 11.083 0.343
WS7MET_125 2017-09-29 21:35:00 125 30483.0 8.820 9.040 9.110 9.030 9.000 98.800 97.300 8.650 8.630 0.00 0.00 13.980 13.730 13.240 12.610 12.850 8.900 9.100 9.180 9.200 9.090 8.750 8.820 0.00 0.00 1.6730 2.1000 8.760 8.980 9.050 8.930 8.940 8.570 8.540 0.00000 0.00 318 0.00 0.00 0.4280 131.20 41.04 0.7600 170.800 48.520 11.341 11.211 0.136 11.503 11.196 0.311
WS7MET_125 2017-09-29 21:30:00 125 30483.0 8.900 9.160 9.230 9.150 9.130 98.800 97.500 8.720 8.780 0.00 0.00 13.980 13.730 13.240 12.610 12.860 9.030 9.200 9.280 9.270 9.170 8.860 8.920 0.00 0.00 0.4830 0.9000 8.790 9.100 9.180 9.030 9.070 8.600 8.660 0.00000 0.00 318 0.00 0.00 0.1720 135.60 28.07 0.3700 134.800 58.580 11.402 11.264 0.137 11.597 11.310 0.290
WS7MET_125 2017-09-29 21:25:00 125 30483.0 8.990 9.250 9.330 9.230 9.220 99.000 97.800 8.860 8.900 0.00 0.00 13.980 13.730 13.240 12.610 12.860 9.100 9.290 9.360 9.340 9.250 8.980 9.040 0.00 0.00 0.6140 1.0000 8.860 9.210 9.280 9.170 9.180 8.710 8.810 0.00000 0.00 318 0.00 0.00 0.1920 53.59 35.22 0.4250 96.100 52.520 11.472 11.372 0.115 11.659 11.402 0.257
WS7MET_125 2017-09-29 21:20:00 125 30483.0 9.050 9.320 9.390 9.260 9.310 98.700 97.500 8.860 8.900 0.00 0.00 13.980 13.730 13.240 12.610 12.870 9.170 9.340 9.400 9.410 9.330 8.960 9.030 0.00 0.00 0.0000 0.4000 8.930 9.290 9.360 9.170 9.250 8.710 8.790 0.00000 0.00 318 0.00 0.00 0.0000 0.00 0.00 0.1950 153.100 42.220 11.519 11.372 0.150 11.683 11.402 0.292
WS7MET_125 2017-09-29 21:15:00 125 30483.0 9.060 9.380 9.440 9.340 9.360 98.700 97.400 8.880 8.960 0.00 0.00 13.980 13.730 13.240 12.610 12.870 9.170 9.420 9.500 9.440 9.480 9.060 9.040 0.00 0.00 0.6990 1.0000 8.960 9.340 9.400 9.270 9.270 8.760 8.870 0.00000 0.00 318 0.00 0.00 0.2800 7.15 62.53 0.4200 27.950 47.720 11.526 11.387 0.150 11.746 11.449 0.305
WS7MET_125 2017-09-29 21:10:00 125 30483.0 9.140 9.420 9.490 9.390 9.470 98.900 97.500 8.970 9.020 0.00 0.00 13.980 13.730 13.240 12.610 12.880 9.270 9.430 9.500 9.480 9.530 9.120 9.110 0.00 0.00 0.8560 0.9000 9.030 9.410 9.480 9.310 9.390 8.830 8.930 0.00000 0.00 318 0.00 0.00 0.3190 80.80 37.12 0.4900 104.200 44.230 11.589 11.457 0.127 11.786 11.495 0.295
WS7MET_125 2017-09-29 21:05:00 125 30483.0 9.170 9.460 9.530 9.420 9.440 98.900 97.800 9.020 9.090 0.00 0.00 13.990 13.730 13.240 12.610 12.880 9.310 9.500 9.580 9.510 9.510 9.180 9.240 0.00 0.00 0.4050 0.7000 9.070 9.420 9.500 9.340 9.380 8.890 8.980 0.00000 0.00 318 0.00 0.00 0.0800 25.57 16.37 0.2200 42.160 22.290 11.612 11.495 0.128 11.810 11.550 0.260
WS7MET_125 2017-09-29 21:00:00 125 30483.0 9.310 9.560 9.630 9.520 9.510 99.800 98.900 9.290 9.370 0.00 0.00 13.990 13.730 13.230 12.610 12.890 9.440 9.620 9.700 9.650 9.630 9.450 9.560 0.00 0.00 1.2280 2.4000 9.140 9.500 9.580 9.410 9.410 9.070 9.170 0.00000 0.00 318 0.00 0.00 0.2420 33.73 56.05 0.4900 47.290 60.060 11.722 11.707 0.023 11.889 11.770 0.131
WS7MET_125 2017-09-29 20:55:00 125 30483.0 9.390 9.660 9.740 9.670 9.670 100.000 99.600 9.400 9.620 0.00 0.00 14.000 13.730 13.240 12.620 12.890 9.510 9.690 9.790 9.780 9.750 9.520 9.770 0.00 0.00 0.8040 1.0000 9.310 9.620 9.700 9.480 9.610 9.310 9.400 0.00000 0.00 318 0.00 0.00 0.3060 41.33 21.27 0.5000 64.680 24.720 11.786 11.794 0.000 12.010 11.970 0.048
WS7MET_125 2017-09-29 20:50:00 125 30483.0 9.430 9.690 9.780 9.690 9.740 100.000 99.700 9.440 9.650 0.00 0.00 14.000 13.730 13.230 12.610 12.900 9.540 9.690 9.780 9.780 9.770 9.550 9.750 0.00 0.00 0.5880 0.7000 9.370 9.680 9.760 9.610 9.710 9.380 9.570 0.00000 0.00 318 0.00 0.00 0.1600 66.10 46.90 0.3400 129.300 79.130 11.818 11.826 0.000 12.026 11.994 0.036
WS7MET_125 2017-09-29 20:45:00 125 30483.0 9.390 9.680 9.770 9.700 9.720 100.000 99.600 9.400 9.650 0.00 0.00 14.000 13.720 13.230 12.620 12.900 9.510 9.690 9.780 9.750 9.790 9.520 9.710 0.00 0.00 0.3330 0.6000 9.270 9.660 9.750 9.610 9.670 9.280 9.560 0.00000 0.00 318 0.00 0.00 0.1120 273.50 53.69 0.3550 270.400 40.300 11.786 11.794 0.000 12.034 11.994 0.048
WS7MET_125 2017-09-29 20:40:00 125 30483.0 9.430 9.680 9.760 9.680 9.710 100.000 99.500 9.440 9.620 0.00 0.00 14.000 13.720 13.240 12.620 12.910 9.510 9.690 9.780 9.750 9.780 9.520 9.690 0.00 0.00 0.4770 0.6000 9.370 9.670 9.750 9.610 9.660 9.380 9.550 0.00000 0.00 318 0.00 0.00 0.0800 317.90 43.32 0.2800 353.400 45.630 11.818 11.826 0.000 12.018 11.970 0.060
WS7MET_125 2017-09-29 20:35:00 125 30483.0 9.480 9.710 9.790 9.720 9.710 100.000 99.500 9.480 9.650 0.00 0.00 14.000 13.720 13.230 12.620 12.910 9.580 9.730 9.810 9.780 9.750 9.580 9.720 0.00 0.00 0.0000 0.5000 9.410 9.680 9.760 9.640 9.670 9.410 9.570 0.00000 0.00 318 0.00 0.00 0.0000 0.00 0.00 0.2350 257.500 66.230 11.857 11.857 0.000 12.050 11.994 0.060
WS7MET_125 2017-09-29 20:30:00 125 30483.0 9.560 9.760 9.840 9.780 9.760 100.000 99.500 9.570 9.710 0.00 0.00 14.000 13.720 13.230 12.620 12.920 9.680 9.780 9.860 9.850 9.810 9.690 9.790 0.00 0.00 0.4050 0.5000 9.440 9.730 9.810 9.640 9.730 9.450 9.590 0.00000 0.00 318 0.00 0.00 0.0820 32.06 5.92 0.2750 59.950 18.430 11.921 11.929 -0.000 12.099 12.042 0.060
WS7MET_125 2017-09-29 20:25:00 125 30483.0 9.590 9.830 9.920 9.850 9.810 100.000 99.600 9.600 9.790 0.00 0.00 14.000 13.720 13.230 12.620 12.920 9.680 9.880 9.970 9.950 9.920 9.690 9.910 0.00 0.00 0.6400 0.7000 9.510 9.780 9.860 9.780 9.720 9.520 9.720 0.00000 0.00 318 0.00 0.00 0.1060 46.21 20.29 0.3200 106.100 32.480 11.945 11.953 0.000 12.156 12.107 0.049
WS7MET_125 2017-09-29 20:20:00 125 30483.0 9.650 9.900 9.990 9.910 9.900 100.000 99.500 9.650 9.850 0.00 0.00 14.000 13.720 13.230 12.620 12.920 9.750 9.930 10.010 9.990 9.960 9.760 9.930 0.00 0.00 0.3460 0.9000 9.510 9.870 9.960 9.850 9.850 9.520 9.790 0.00000 0.00 318 0.00 0.00 0.0260 72.68 5.65 0.2600 132.700 61.690 11.994 11.994 0.000 12.205 12.156 0.061
WS7MET_125 2017-09-29 20:15:00 125 30483.0 9.660 9.950 10.030 9.960 9.950 100.000 99.400 9.670 9.880 0.00 0.00 14.000 13.720 13.230 12.620 12.930 9.750 9.960 10.040 10.020 10.010 9.750 9.950 0.00 0.00 0.4830 0.6000 9.580 9.930 10.000 9.850 9.910 9.580 9.770 0.00000 0.00 318 0.00 0.00 0.1860 105.10 27.79 0.4000 126.100 28.120 12.002 12.010 0.000 12.246 12.180 0.073
WS7MET_125 2017-09-29 20:10:00 125 30483.0 9.670 9.950 10.030 9.950 9.990 100.000 99.300 9.680 9.850 0.00 0.00 14.000 13.720 13.230 12.620 12.940 9.810 9.970 10.050 9.990 10.030 9.820 9.890 0.00 0.00 0.0000 0.6000 9.580 9.940 10.010 9.880 9.950 9.580 9.780 0.00000 0.00 318 0.00 0.00 0.0000 0.00 0.00 0.2300 138.500 58.470 12.010 12.018 0.000 12.238 12.156 0.086
WS7MET_125 2017-09-29 20:05:00 125 30483.0 9.730 9.980 10.050 9.990 10.000 100.000 99.300 9.740 9.900 0.00 0.00 14.000 13.720 13.230 12.620 12.940 9.820 10.000 10.080 10.050 10.050 9.820 9.980 0.00 0.00 0.6400 0.8000 9.610 9.960 10.040 9.920 9.960 9.620 9.820 0.00000 0.00 318 0.00 0.00 0.1450 67.60 27.21 0.2400 70.680 29.150 12.058 12.066 0.000 12.271 12.197 0.086
WS7MET_125 2017-09-29 20:00:00 125 30483.0 9.720 10.010 10.090 10.000 10.090 100.000 99.400 9.730 9.920 0.00 0.00 14.000 13.720 13.230 12.620 12.950 9.780 10.020 10.100 10.050 10.150 9.790 9.980 0.00 0.00 0.0260 0.2000 9.640 9.990 10.070 9.950 10.040 9.650 9.860 0.00000 0.00 318 0.00 0.00 0.0010 108.80 0.00 0.1650 276.200 60.980 12.050 12.058 0.000 12.279 12.213 0.074
WS7MET_125 2017-09-29 19:55:00 125 30483.0 9.760 10.020 10.100 10.040 10.030 100.000 99.500 9.770 9.970 0.00 0.00 14.000 13.720 13.230 12.620 12.950 9.850 10.020 10.110 10.120 10.050 9.860 10.060 0.00 0.00 0.5880 1.1000 9.710 9.990 10.060 9.950 10.000 9.720 9.890 0.00000 0.00 318 0.00 0.00 0.0770 102.50 3.47 0.2800 74.170 44.060 12.083 12.091 0.000 12.312 12.254 0.062
WS7MET_125 2017-09-29 19:50:00 125 30483.0 9.780 10.040 10.120 10.030 10.070 100.000 99.500 9.790 9.960 0.00 0.00 14.000 13.710 13.230 12.620 12.960 9.880 10.050 10.130 10.090 10.090 9.890 10.020 0.00 0.00 0.3990 0.5000 9.680 10.020 10.110 9.980 10.010 9.690 9.910 0.00000 0.00 318 0.00 0.00 0.0850 225.60 3.60 0.2500 228.600 55.030 12.099 12.107 -0.000 12.303 12.246 0.062
WS7MET_125 2017-09-29 19:45:00 125 30483.0 9.800 10.050 10.130 10.050 10.060 100.000 99.400 9.810 9.960 0.00 0.00 14.000 13.710 13.230 12.610 12.970 9.920 10.050 10.130 10.120 10.070 9.920 10.050 0.00 0.00 0.0000 0.6000 9.710 10.040 10.130 9.980 10.040 9.720 9.900 0.00000 0.00 318 0.00 0.00 0.0000 0.00 0.00 0.2000 296.300 24.870 12.115 12.123 0.000 12.320 12.246 0.074
WS7MET_125 2017-09-29 19:40:00 125 30483.0 9.860 10.070 10.160 10.070 10.040 100.000 99.300 9.870 9.970 0.00 0.00 14.000 13.710 13.220 12.620 12.970 10.050 10.100 10.170 10.150 10.060 10.060 10.060 0.00 0.00 0.2680 0.5000 9.780 10.050 10.130 10.020 10.010 9.790 9.920 0.00000 0.00 318 0.00 0.00 0.0390 58.19 0.00 0.2300 58.060 40.500 12.164 12.172 0.000 12.336 12.254 0.086
WS7MET_125 2017-09-29 19:35:00 125 30483.0 9.930 10.140 10.230 10.140 10.110 100.000 99.300 9.940 10.040 0.00 0.00 14.000 13.710 13.230 12.620 12.980 10.020 10.170 10.260 10.220 10.170 10.030 10.120 0.00 0.00 0.0000 0.4000 9.850 10.100 10.180 10.050 10.030 9.860 9.960 0.00000 0.00 318 0.00 0.00 0.0000 0.00 0.00 0.2200 93.900 50.760 12.221 12.229 0.000 12.394 12.312 0.087
WS7MET_125 2017-09-29 19:30:00 125 30483.0 9.960 10.180 10.260 10.150 10.160 100.000 99.100 9.960 10.030 0.00 0.00 14.000 13.710 13.230 12.620 12.990 10.050 10.180 10.270 10.220 10.190 10.060 10.120 0.00 0.00 0.4120 0.6000 9.850 10.170 10.260 10.090 10.130 9.860 9.960 0.00000 0.00 318 0.00 0.00 0.0500 74.71 2.55 0.2600 86.400 69.100 12.246 12.246 0.000 12.403 12.303 0.112
WS7MET_125 2017-09-29 19:25:00 125 30483.0 10.010 10.220 10.300 10.200 10.190 99.900 99.100 10.010 10.070 0.00 0.00 14.000 13.710 13.220 12.620 12.990 10.050 10.250 10.330 10.290 10.260 10.060 10.170 0.00 0.00 0.3070 0.6000 9.920 10.180 10.270 10.120 10.120 9.920 10.000 0.00000 0.00 318 0.00 0.00 0.0460 114.60 2.34 0.2150 129.600 53.520 12.287 12.287 0.012 12.444 12.336 0.112
WS7MET_125 2017-09-29 19:20:00 125 30483.0 10.050 10.290 10.370 10.270 10.260 99.900 99.000 10.050 10.120 0.00 0.00 14.000 13.710 13.220 12.620 13.000 10.150 10.340 10.420 10.360 10.340 10.160 10.250 0.00 0.00 0.7060 0.8000 9.980 10.250 10.330 10.190 10.220 9.970 10.040 0.00000 0.00 318 0.00 0.00 0.2720 88.70 20.08 0.4100 107.500 30.490 12.320 12.320 0.012 12.503 12.378 0.125
WS7MET_125 2017-09-29 19:15:00 125 30483.0 10.040 10.330 10.410 10.330 10.370 99.900 99.100 10.040 10.200 0.00 0.00 14.000 13.710 13.220 12.620 12.990 10.150 10.350 10.430 10.390 10.400 10.160 10.270 0.00 0.00 0.3070 0.6000 9.920 10.300 10.400 10.260 10.350 9.910 10.110 0.00000 0.00 318 0.00 0.00 0.0710 29.12 32.49 0.3100 84.500 30.450 12.312 12.312 0.012 12.553 12.444 0.113
WS7MET_125 2017-09-29 19:10:00 125 30483.0 10.000 10.300 10.380 10.320 10.330 99.700 98.800 9.960 10.160 0.00 0.00 14.000 13.710 13.220 12.620 13.000 10.050 10.310 10.390 10.430 10.340 10.000 10.260 0.00 0.00 0.3400 0.6000 9.880 10.290 10.380 10.220 10.300 9.830 10.060 0.00000 0.00 318 0.00 0.00 0.0400 79.96 0.08 0.2000 143.400 33.560 12.279 12.246 0.037 12.545 12.411 0.151
WS7MET_125 2017-09-29 19:05:00 125 30483.0 10.040 10.310 10.390 10.300 10.340 99.600 98.800 9.990 10.120 0.00 0.00 14.000 13.710 13.220 12.620 13.010 10.120 10.330 10.410 10.390 10.400 10.100 10.230 0.00 0.00 0.0000 0.3000 9.950 10.310 10.390 10.220 10.270 9.890 10.050 0.00000 0.00 318 0.00 0.00 0.0000 0.00 0.00 0.2150 331.300 45.600 12.312 12.271 0.049 12.528 12.378 0.150
WS7MET_125 2017-09-29 19:00:00 125 30483.0 10.040 10.310 10.380 10.320 10.370 99.700 98.800 10.000 10.140 0.00 0.00 14.000 13.710 13.220 12.620 13.010 10.220 10.320 10.390 10.430 10.400 10.200 10.260 0.00 0.00 0.2480 0.5000 9.980 10.290 10.360 10.220 10.320 9.940 10.040 0.00000 0.00 318 0.00 0.00 0.0490 0.82 1.98 0.2450 20.670 38.660 12.312 12.279 0.037 12.545 12.394 0.151
WS7MET_125 2017-09-29 18:55:00 125 30483.0 10.030 10.290 10.370 10.320 10.360 99.500 98.700 9.960 10.130 0.00 0.00 13.990 13.700 13.220 12.630 13.020 10.120 10.300 10.390 10.390 10.390 10.070 10.190 0.00 0.00 0.4050 0.5000 9.950 10.270 10.360 10.260 10.320 9.900 10.070 0.00000 0.00 318 0.00 0.00 0.0510 38.35 3.30 0.2200 23.590 42.540 12.303 12.246 0.062 12.545 12.386 0.163
WS7MET_125 2017-09-29 18:50:00 125 30483.0 10.060 10.280 10.360 10.330 10.270 99.100 98.400 9.940 10.090 0.00 0.00 13.990 13.700 13.210 12.620 13.030 10.150 10.300 10.390 10.430 10.330 10.030 10.200 0.00 0.00 0.0000 0.4000 9.950 10.250 10.340 10.260 10.230 9.820 10.020 0.00000 0.00 318 0.00 0.00 0.0000 0.00 0.00 0.1250 50.060 21.510 12.328 12.229 0.111 12.553 12.353 0.201
WS7MET_125 2017-09-29 18:45:00 125 30483.0 10.150 10.350 10.440 10.420 10.320 99.000 98.300 10.000 10.170 0.00 0.00 13.980 13.700 13.210 12.620 13.030 10.220 10.430 10.510 10.600 10.380 10.090 10.350 0.00 0.00 0.4570 0.6000 9.980 10.300 10.400 10.290 10.250 9.820 10.050 0.00000 0.00 318 0.00 0.00 0.1150 55.53 7.51 0.2700 71.500 45.190 12.403 12.279 0.124 12.629 12.419 0.215
WS7MET_125 2017-09-29 18:40:00 125 30483.0 10.270 10.490 10.570 10.540 10.500 99.200 98.500 10.170 10.330 0.00 0.00 13.980 13.700 13.210 12.620 13.040 10.390 10.540 10.630 10.630 10.570 10.310 10.420 0.00 0.00 0.5490 0.9000 10.190 10.430 10.510 10.430 10.400 10.050 10.220 0.00000 0.00 318 0.00 0.00 0.0870 252.70 56.51 0.3200 254.300 31.840 12.503 12.419 0.100 12.730 12.553 0.191
WS7MET_125 2017-09-29 18:35:00 125 30483.0 10.350 10.570 10.660 10.590 10.540 99.400 98.600 10.270 10.380 0.00 0.00 13.980 13.700 13.210 12.620 13.050 10.430 10.610 10.690 10.700 10.600 10.360 10.490 0.00 0.00 0.0000 0.4000 10.260 10.550 10.620 10.490 10.520 10.180 10.300 0.00000 0.00 318 0.00 0.00 0.0000 0.00 0.00 0.2050 263.900 47.460 12.570 12.503 0.075 12.773 12.595 0.179
WS7MET_125 2017-09-29 18:30:00 125 30483.0 10.370 10.620 10.710 10.630 10.620 99.500 98.600 10.300 10.430 0.00 0.00 13.980 13.690 13.210 12.620 13.060 10.460 10.630 10.730 10.770 10.650 10.400 10.570 0.00 0.00 0.0460 0.2000 10.290 10.620 10.690 10.530 10.590 10.210 10.330 0.00000 0.00 318 0.00 0.00 0.0020 250.60 0.00 0.1300 60.000 49.280 12.586 12.528 0.063 12.807 12.637 0.179
WS7MET_125 2017-09-29 18:25:00 125 30483.0 10.440 10.640 10.740 10.660 10.660 99.400 98.600 10.360 10.460 0.00 0.00 13.980 13.690 13.210 12.630 13.070 10.600 10.650 10.750 10.730 10.700 10.510 10.550 0.00 0.00 0.3590 0.6000 10.320 10.630 10.710 10.560 10.650 10.250 10.370 0.00000 0.00 318 0.00 0.00 0.0960 307.80 56.57 0.2950 246.900 82.200 12.645 12.578 0.076 12.832 12.662 0.180
WS7MET_125 2017-09-29 18:20:00 125 30483.0 10.430 10.660 10.740 10.670 10.640 99.300 98.500 10.340 10.450 0.00 0.00 13.970 13.690 13.210 12.620 13.080 10.560 10.700 10.760 10.770 10.680 10.470 10.540 0.00 0.00 0.7190 0.9000 10.290 10.640 10.700 10.600 10.610 10.210 10.380 0.00000 0.00 318 0.00 0.00 0.1480 77.50 25.47 0.3750 75.460 45.570 12.637 12.561 0.088 12.841 12.654 0.193
WS7MET_125 2017-09-29 18:15:00 125 30483.0 10.510 10.730 10.790 10.730 10.710 99.200 98.400 10.400 10.510 0.00 0.00 13.970 13.690 13.210 12.620 13.090 10.630 10.750 10.810 10.800 10.750 10.520 10.570 0.00 0.00 0.3920 0.6000 10.360 10.700 10.770 10.600 10.680 10.260 10.370 0.00000 0.00 318 0.00 0.00 0.0620 117.20 15.82 0.2600 147.700 37.150 12.705 12.612 0.102 12.892 12.705 0.206
WS7MET_125 2017-09-29 18:10:00 125 30483.0 10.490 10.760 10.830 10.770 10.750 99.200 98.400 10.370 10.540 0.00 0.00 13.970 13.680 13.210 12.620 13.100 10.630 10.780 10.850 10.870 10.780 10.490 10.630 0.00 0.00 0.7250 1.0000 10.390 10.740 10.810 10.700 10.700 10.270 10.460 0.00000 0.00 318 0.00 0.00 0.1850 17.96 49.99 0.4250 59.150 58.390 12.688 12.586 0.102 12.927 12.730 0.207
WS7MET_125 2017-09-29 18:05:00 125 30483.0 10.560 10.770 10.860 10.800 10.760 99.100 98.300 10.420 10.550 0.00 0.00 13.970 13.680 13.210 12.630 13.110 10.670 10.780 10.870 10.870 10.800 10.540 10.640 0.00 0.00 0.2810 0.5000 10.460 10.760 10.850 10.700 10.730 10.320 10.430 0.00000 0.00 318 0.00 0.00 0.0380 7.99 18.90 0.2550 349.000 45.370 12.747 12.629 0.115 12.953 12.739 0.220
WS7MET_125 2017-09-29 18:00:00 125 30483.0 10.550 10.780 10.870 10.810 10.800 99.000 98.300 10.420 10.550 0.00 0.00 13.960 13.680 13.210 12.630 13.120 10.670 10.790 10.880 10.970 10.840 10.540 10.730 0.00 0.00 0.0000 0.3000 10.460 10.770 10.870 10.730 10.750 10.340 10.470 0.00000 0.00 318 0.00 0.00 0.0000 0.00 0.00 0.2000 6.206 42.600 12.739 12.629 0.127 12.961 12.739 0.220
WS7MET_125 2017-09-29 17:55:00 125 30483.0 10.530 10.780 10.880 10.830 10.820 98.900 98.300 10.370 10.580 0.00 0.00 13.950 13.680 13.210 12.630 13.140 10.730 10.780 10.890 10.900 10.880 10.570 10.670 0.00 0.00 0.0000 0.3000 10.460 10.760 10.870 10.700 10.770 10.290 10.450 0.00000 0.00 318 0.00 0.00 0.0000 0.00 0.00 0.1700 323.000 38.490 12.722 12.586 0.140 12.979 12.764 0.221
WS7MET_125 2017-09-29 17:50:00 125 30483.0 10.560 10.760 10.850 10.810 10.760 98.500 98.000 10.340 10.520 1.41 0.00 13.950 13.680 13.210 12.620 13.150 10.730 10.770 10.870 10.870 10.810 10.540 10.600 2.68 0.00 0.0000 0.3000 10.430 10.740 10.840 10.770 10.730 10.200 10.470 0.00000 0.00 318 0.00 0.00 0.0000 0.00 0.00 0.2100 351.200 29.120 12.747 12.561 0.191 12.961 12.713 0.259
WS7MET_125 2017-09-29 17:45:00 125 30483.0 10.610 10.810 10.890 10.870 10.800 98.500 97.900 10.400 10.560 3.42 0.00 13.950 13.680 13.210 12.610 13.160 10.770 10.840 10.920 10.970 10.860 10.550 10.670 4.03 0.00 0.4770 0.6000 10.530 10.770 10.860 10.800 10.750 10.310 10.480 0.00000 0.00 318 0.00 0.00 0.0780 49.64 40.52 0.2750 30.620 60.920 12.790 12.612 0.192 13.013 12.747 0.273
WS7MET_125 2017-09-29 17:40:00 125 30483.0 10.640 10.840 10.920 10.920 10.820 98.400 97.700 10.410 10.580 4.36 0.00 13.950 13.680 13.210 12.620 13.170 10.730 10.860 10.940 11.010 10.850 10.530 10.660 5.37 0.00 0.1630 0.4000 10.560 10.820 10.910 10.800 10.770 10.330 10.450 0.00000 0.00 318 0.00 0.00 0.0160 334.60 17.94 0.2450 350.000 42.980 12.815 12.620 0.205 13.056 12.764 0.300
WS7MET_125 2017-09-29 17:35:00 125 30483.0 10.680 10.860 10.960 10.960 10.860 98.200 97.500 10.410 10.600 4.76 0.00 13.940 13.680 13.200 12.620 13.190 10.800 10.860 10.960 11.010 10.880 10.530 10.660 6.71 0.00 0.0000 0.4000 10.560 10.860 10.940 10.900 10.810 10.270 10.520 0.00000 0.00 318 0.00 0.00 0.0000 0.00 0.00 0.2200 327.800 19.510 12.850 12.620 0.231 13.091 12.781 0.327
WS7MET_125 2017-09-29 17:30:00 125 30483.0 10.760 10.930 11.040 11.050 10.780 97.900 97.000 10.440 10.600 7.18 0.67 13.940 13.690 13.200 12.610 13.210 10.870 10.980 11.130 11.140 10.800 10.540 10.720 9.39 1.34 0.0780 0.4000 10.630 10.860 10.960 10.970 10.770 10.340 10.520 0.00000 0.00 318 0.00 0.00 0.0040 302.80 0.00 0.2400 311.000 25.100 12.918 12.645 0.271 13.170 12.781 0.395
WS7MET_125 2017-09-29 17:25:00 125 30483.0 10.880 11.110 11.240 11.180 10.890 97.700 96.600 10.540 10.670 11.54 1.34 13.940 13.680 13.210 12.620 13.260 11.010 11.210 11.330 11.250 10.970 10.680 10.730 13.42 1.34 0.0000 0.2000 10.730 11.010 11.140 11.070 10.810 10.400 10.580 0.00000 0.00 318 0.00 0.00 0.0000 0.00 0.00 0.0500 260.100 0.000 13.022 12.730 0.300 13.284 12.841 0.452
WS7MET_125 2017-09-29 17:20:00 125 30483.0 11.030 11.300 11.430 11.330 11.040 98.200 96.800 10.770 10.840 20.67 3.02 13.940 13.680 13.210 12.620 13.350 11.210 11.340 11.470 11.420 11.090 10.940 10.960 26.84 4.03 0.0000 0.3000 10.970 11.220 11.330 11.210 10.970 10.660 10.690 0.00000 0.00 318 0.00 0.00 0.0000 0.00 0.00 0.1650 258.500 16.410 13.152 12.927 0.237 13.417 12.987 0.429
WS7MET_125 2017-09-29 17:15:00 125 30483.0 11.040 11.370 11.490 11.360 11.140 98.500 97.200 10.830 10.940 41.07 5.84 13.930 13.680 13.200 12.620 13.510 11.140 11.380 11.500 11.420 11.220 10.920 11.000 56.37 9.39 0.0000 0.2000 10.870 11.350 11.450 11.310 11.090 10.660 10.880 0.00000 0.00 318 0.00 0.00 0.0000 0.00 0.00 0.1400 236.100 28.400 13.161 12.979 0.197 13.444 13.074 0.376
WS7MET_125 2017-09-29 17:10:00 125 30483.0 10.990 11.310 11.410 11.300 11.130 98.500 97.300 10.770 10.890 65.76 11.14 13.920 13.680 13.210 12.620 13.640 11.070 11.350 11.450 11.380 11.200 10.880 11.010 69.79 12.08 0.0000 0.2000 10.870 11.250 11.340 11.180 11.040 10.630 10.720 0.00000 0.00 318 0.00 0.00 0.0000 0.00 0.00 0.1300 225.000 35.080 13.117 12.927 0.197 13.390 13.030 0.362
WS7MET_125 2017-09-29 17:05:00 125 30483.0 10.920 11.210 11.320 11.200 11.040 98.300 97.100 10.670 10.760 60.12 10.67 13.920 13.680 13.210 12.620 13.540 11.010 11.250 11.330 11.280 11.080 10.760 10.810 64.42 12.08 0.4570 0.9000 10.800 11.190 11.300 11.140 10.990 10.560 10.690 0.00000 0.00 318 0.00 0.00 0.0850 56.87 15.70 0.2400 68.410 41.140 13.056 12.841 0.222 13.302 12.918 0.386
WS7MET_125 2017-09-29 17:00:00 125 30483.0 10.940 11.170 11.300 11.170 11.030 98.400 97.300 10.700 10.780 48.45 7.78 13.920 13.680 13.210 12.610 13.410 11.040 11.200 11.340 11.250 11.120 10.810 10.860 59.05 10.74 0.0000 0.3000 10.840 11.150 11.270 11.070 10.970 10.600 10.680 0.00000 0.00 318 0.00 0.00 0.0000 0.00 0.00 0.1000 85.600 32.390 13.074 12.867 0.209 13.275 12.935 0.358
WS7MET_125 2017-09-29 16:55:00 125 30483.0 10.930 11.170 11.290 11.150 11.070 98.400 97.400 10.690 10.760 40.33 5.91 13.920 13.680 13.200 12.620 13.310 11.010 11.190 11.310 11.210 11.140 10.780 10.830 42.95 6.71 0.2680 0.5000 10.840 11.150 11.280 11.040 11.000 10.570 10.660 0.00000 0.00 318 0.00 0.00 0.0550 42.65 0.40 0.2950 81.600 19.600 13.065 12.858 0.209 13.258 12.918 0.345
WS7MET_125 2017-09-29 16:50:00 125 30483.0 10.950 11.180 11.270 11.140 11.070 98.300 97.000 10.700 10.690 35.63 5.37 13.910 13.680 13.200 12.620 13.290 11.070 11.190 11.290 11.210 11.110 10.860 10.780 37.58 5.37 0.0000 0.3000 10.870 11.170 11.230 11.070 11.040 10.590 10.590 0.00000 0.00 318 0.00 0.00 0.0000 0.00 0.00 0.1700 178.700 44.770 13.083 12.867 0.222 13.249 12.858 0.397
WS7MET_125 2017-09-29 16:45:00 125 30483.0 10.860 11.130 11.190 11.070 11.040 97.800 96.500 10.530 10.540 40.13 5.97 13.900 13.680 13.200 12.620 13.290 10.970 11.170 11.230 11.180 11.090 10.680 10.690 44.29 6.71 0.0000 0.3000 10.770 11.070 11.130 10.970 10.940 10.410 10.380 0.00000 0.00 318 0.00 0.00 0.0000 0.00 0.00 0.1800 23.700 26.230 13.004 12.722 0.286 13.187 12.730 0.462
WS7MET_125 2017-09-29 16:40:00 125 30483.0 10.870 11.080 11.140 11.020 10.910 97.100 96.000 10.440 10.430 45.63 7.11 13.900 13.680 13.200 12.620 13.290 10.970 11.100 11.160 11.070 10.950 10.540 10.500 48.31 8.05 0.5100 0.7000 10.730 11.070 11.130 10.970 10.840 10.300 10.340 0.00000 0.00 318 0.00 0.00 0.1180 54.61 11.87 0.2950 49.530 45.670 13.013 12.645 0.377 13.144 12.637 0.526
WS7MET_125 2017-09-29 16:35:00 125 30483.0 10.890 11.080 11.160 11.070 10.880 97.200 95.900 10.470 10.460 47.31 7.11 13.900 13.680 13.200 12.620 13.290 10.970 11.110 11.210 11.140 10.960 10.580 10.530 49.66 8.05 0.5750 0.8000 10.800 11.070 11.150 11.010 10.820 10.390 10.380 0.00000 0.00 318 0.00 0.00 0.1570 74.56 17.80 0.3700 79.170 26.770 13.030 12.671 0.365 13.187 12.662 0.541
WS7MET_125 2017-09-29 16:30:00 125 30483.0 10.990 11.160 11.240 11.140 10.950 96.400 95.600 10.450 10.470 48.78 7.85 13.890 13.680 13.200 12.620 13.280 11.070 11.190 11.270 11.280 10.990 10.550 10.590 51.00 8.05 0.1960 0.4000 10.800 11.130 11.220 11.070 10.880 10.310 10.390 0.00000 0.00 318 0.00 0.00 0.0180 110.00 0.00 0.2300 132.900 34.700 13.117 12.654 0.472 13.249 12.671 0.583
WS7MET_125 2017-09-29 16:25:00 125 30483.0 11.060 11.230 11.320 11.230 11.030 96.300 95.500 10.510 10.560 35.43 4.90 13.890 13.680 13.190 12.620 13.260 11.140 11.270 11.380 11.350 11.090 10.640 10.700 42.95 6.71 0.6340 0.8000 10.940 11.190 11.270 11.140 10.970 10.370 10.410 0.00000 0.00 318 0.00 0.00 0.1410 45.59 36.97 0.3300 27.380 75.850 13.179 12.705 0.488 13.328 12.747 0.600
WS7MET_125 2017-09-29 16:20:00 125 30483.0 11.150 11.300 11.430 11.320 11.130 96.100 95.200 10.560 10.590 27.98 4.03 13.880 13.680 13.190 12.620 13.260 11.250 11.330 11.460 11.380 11.220 10.710 10.700 29.52 4.03 0.4640 0.7000 11.040 11.270 11.390 11.250 11.080 10.470 10.450 0.00000 0.00 318 0.00 0.00 0.1440 115.10 13.97 0.2650 154.300 47.980 13.258 12.747 0.517 13.408 12.773 0.644
WS7MET_125 2017-09-29 16:15:00 125 30483.0 11.250 11.390 11.510 11.390 11.200 95.900 94.300 10.630 10.520 30.20 4.30 13.880 13.680 13.190 12.620 13.280 11.350 11.420 11.530 11.480 11.240 10.740 10.640 34.89 5.37 0.0590 0.7000 11.140 11.330 11.470 11.280 11.140 10.500 10.420 0.00000 0.00 318 0.00 0.00 0.0060 106.00 13.11 0.2550 121.800 47.650 13.346 12.807 0.547 13.470 12.713 0.768
WS7MET_125 2017-09-29 16:10:00 125 30483.0 11.360 11.490 11.600 11.510 11.270 94.500 93.200 10.520 10.470 35.83 5.23 13.880 13.680 13.190 12.620 13.310 11.520 11.600 11.700 11.590 11.330 10.750 10.550 37.58 5.37 0.7120 0.9000 11.250 11.430 11.550 11.420 11.240 10.370 10.300 0.00000 0.00 318 0.00 0.00 0.2670 98.00 33.29 0.5050 121.100 20.800 13.444 12.713 0.739 13.578 12.671 0.923
WS7MET_125 2017-09-29 16:05:00 125 30483.0 11.590 11.640 11.750 11.660 11.450 95.400 94.100 10.880 10.750 37.24 5.37 13.870 13.680 13.190 12.620 13.320 11.720 11.720 11.820 11.790 11.530 11.100 10.870 38.92 5.37 0.5160 0.6000 11.480 11.600 11.700 11.590 11.360 10.650 10.590 0.00000 0.00 318 0.00 0.00 0.1290 82.90 30.18 0.3050 90.400 32.290 13.650 13.022 0.628 13.713 12.910 0.809
WS7MET_125 2017-09-29 16:00:00 125 30483.0 11.730 11.820 11.890 11.810 11.590 94.100 93.200 10.830 10.760 29.46 4.09 13.860 13.680 13.190 12.620 13.330 11.860 11.920 11.980 11.960 11.640 11.070 10.960 33.55 5.37 0.6270 0.9000 11.650 11.740 11.820 11.690 11.540 10.520 10.560 0.00000 0.00 318 0.00 0.00 0.2090 122.70 7.49 0.4300 128.500 58.890 13.777 12.979 0.813 13.850 12.918 0.942
WS7MET_125 2017-09-29 15:55:00 125 30483.0 11.930 12.030 12.120 12.010 11.830 95.800 93.600 11.280 11.020 28.92 4.03 13.860 13.680 13.190 12.620 13.360 12.030 12.130 12.210 12.170 12.030 11.490 11.340 30.87 4.03 0.6600 1.0000 11.830 11.940 12.000 11.860 11.650 10.900 10.770 0.00000 0.00 318 0.00 0.00 0.2880 181.50 59.18 0.4900 192.500 44.400 13.960 13.372 0.586 14.034 13.144 0.898
WS7MET_125 2017-09-29 15:50:00 125 30483.0 11.980 12.170 12.260 12.190 11.980 94.400 93.500 11.120 11.180 34.29 4.63 13.860 13.680 13.190 12.620 13.410 12.060 12.210 12.310 12.270 12.020 11.390 11.390 38.92 5.37 0.4830 0.8000 11.890 12.130 12.210 12.100 11.940 10.980 11.050 0.00000 0.00 318 0.00 0.00 0.2440 324.30 59.52 0.4100 26.530 35.410 14.006 13.231 0.784 14.201 13.284 0.923
WS7MET_125 2017-09-29 15:45:00 125 30483.0 12.160 12.340 12.450 12.350 12.090 93.400 92.700 11.140 11.220 25.57 4.23 13.850 13.680 13.190 12.620 13.500 12.300 12.460 12.600 12.470 12.170 11.240 11.380 42.95 6.71 1.1560 1.4000 12.060 12.210 12.320 12.270 12.000 11.010 11.130 0.00000 0.00 318 0.00 0.00 0.3750 232.50 32.00 0.5600 236.800 50.950 14.173 13.249 0.935 14.351 13.319 1.048
WS7MET_125 2017-09-29 15:40:00 125 30483.0 12.350 12.550 12.680 12.460 12.210 95.400 93.700 11.650 11.480 71.26 11.74 13.840 13.680 13.190 12.620 13.830 12.440 12.590 12.730 12.540 12.320 11.780 11.580 107.40 18.79 0.2610 1.5000 12.230 12.500 12.630 12.410 12.160 11.280 11.380 0.00000 0.00 318 0.00 0.00 0.0850 106.50 27.00 0.3600 146.700 52.140 14.351 13.704 0.660 14.456 13.551 0.911
WS7MET_125 2017-09-29 15:35:00 125 30483.0 12.270 12.540 12.670 12.470 12.300 96.400 93.700 11.720 11.490 111.50 19.59 13.840 13.680 13.190 12.620 14.100 12.340 12.600 12.730 12.540 12.390 11.930 11.650 132.90 24.16 0.5880 0.7000 12.170 12.480 12.620 12.370 12.200 11.510 11.360 0.00000 0.00 318 0.00 0.00 0.1530 205.90 26.00 0.4300 191.500 47.850 14.276 13.768 0.514 14.465 13.560 0.911
WS7MET_125 2017-09-29 15:30:00 125 30483.0 12.130 12.420 12.540 12.430 12.230 95.200 93.100 11.400 11.350 115.80 20.00 13.830 13.680 13.190 12.620 14.090 12.230 12.480 12.620 12.510 12.340 11.780 11.540 139.60 24.16 0.4970 0.7000 12.100 12.340 12.480 12.340 12.110 11.160 11.220 0.00000 0.00 318 0.00 0.00 0.1310 229.10 30.88 0.3350 197.500 50.550 14.145 13.479 0.679 14.427 13.435 0.995
WS7MET_125 2017-09-29 15:25:00 125 30483.0 12.110 12.330 12.480 12.370 12.130 95.900 94.500 11.480 11.530 99.20 16.57 13.830 13.680 13.190 12.620 13.860 12.230 12.370 12.510 12.440 12.160 11.630 11.630 138.20 24.16 0.3720 0.8000 12.000 12.300 12.460 12.270 12.100 11.360 11.440 0.00000 0.00 318 0.00 0.00 0.1010 95.50 39.39 0.3250 126.000 69.210 14.127 13.551 0.579 14.370 13.596 0.790
WS7MET_125 2017-09-29 15:20:00 125 30483.0 12.220 12.420 12.570 12.430 12.220 95.600 94.000 11.540 11.500 41.20 6.04 13.820 13.680 13.190 12.620 13.500 12.340 12.470 12.600 12.510 12.280 11.630 11.630 53.68 8.05 0.4510 0.6000 12.130 12.370 12.520 12.340 12.180 11.410 11.380 0.00000 0.00 318 0.00 0.00 0.1760 98.20 25.40 0.3350 123.900 47.380 14.229 13.605 0.626 14.427 13.569 0.866
WS7MET_125 2017-09-29 15:15:00 125 30483.0 12.330 12.520 12.690 12.490 12.250 95.300 93.800 11.610 11.530 76.30 12.75 13.820 13.680 13.190 12.620 13.750 12.440 12.580 12.730 12.580 12.320 11.840 11.680 103.30 17.45 0.4310 0.8000 12.170 12.480 12.620 12.410 12.190 11.340 11.420 0.00000 0.00 318 0.00 0.00 0.2130 103.30 22.27 0.4100 124.400 44.520 14.333 13.668 0.674 14.484 13.596 0.898
WS7MET_125 2017-09-29 15:10:00 125 30483.0 12.330 12.620 12.740 12.540 12.310 95.900 94.100 11.710 11.640 82.60 13.69 13.810 13.680 13.190 12.620 13.720 12.410 12.640 12.770 12.610 12.490 11.860 11.820 106.00 18.79 0.0260 0.4000 12.200 12.580 12.730 12.410 12.190 11.420 11.470 0.00000 0.00 318 0.00 0.00 0.0020 187.50 3.12 0.2150 128.600 34.500 14.333 13.759 0.588 14.532 13.695 0.857
WS7MET_125 2017-09-29 15:05:00 125 30483.0 12.240 12.580 12.710 12.480 12.360 94.600 92.400 11.420 11.300 80.40 13.02 13.810 13.680 13.190 12.620 13.850 12.340 12.610 12.730 12.540 12.470 11.750 11.510 106.00 17.45 1.1960 1.7000 12.130 12.540 12.690 12.410 12.230 11.150 11.070 0.00000 0.00 318 0.00 0.00 0.3970 225.50 43.33 0.5950 219.500 52.870 14.248 13.497 0.769 14.475 13.390 1.100
WS7MET_125 2017-09-29 15:00:00 125 30483.0 12.110 12.490 12.610 12.400 12.260 96.200 93.700 11.530 11.410 136.10 23.96 13.800 13.680 13.190 12.620 14.100 12.230 12.540 12.700 12.510 12.410 11.790 11.560 162.40 29.52 1.6590 2.3000 12.000 12.420 12.530 12.270 12.140 11.280 11.290 0.00000 0.00 318 0.00 0.00 0.6990 198.60 62.12 0.8300 213.600 41.960 14.127 13.596 0.537 14.399 13.488 0.907
WS7MET_125 2017-09-29 14:55:00 125 30483.0 12.050 12.340 12.440 12.300 12.040 97.200 94.500 11.630 11.450 137.70 24.49 13.800 13.680 13.190 12.620 14.020 12.100 12.420 12.530 12.410 12.210 11.710 11.590 159.70 29.52 0.4250 0.7000 11.930 12.280 12.370 12.200 11.990 11.510 11.380 0.00000 0.00 318 0.00 0.00 0.1310 117.00 3.20 0.3300 147.100 30.420 14.071 13.686 0.394 14.304 13.524 0.787
WS7MET_125 2017-09-29 14:50:00 125 30483.0 11.920 12.200 12.280 12.240 12.030 96.700 94.800 11.430 11.440 123.60 21.81 13.790 13.680 13.190 12.620 13.510 12.060 12.270 12.350 12.370 12.080 11.610 11.560 139.60 25.50 0.2220 0.6000 11.830 12.130 12.210 12.130 11.990 11.240 11.350 0.00000 0.00 318 0.00 0.00 0.0190 91.10 9.78 0.2400 143.100 55.490 13.951 13.506 0.460 14.248 13.515 0.741
WS7MET_125 2017-09-29 14:45:00 125 30483.0 11.850 12.100 12.190 12.110 11.940 95.300 94.100 11.130 11.200 38.92 5.97 13.790 13.680 13.190 12.620 13.360 11.960 12.130 12.200 12.170 11.990 11.290 11.340 76.50 13.42 0.1960 0.4000 11.720 12.090 12.170 12.030 11.890 10.970 11.050 0.00000 0.00 318 0.00 0.00 0.0150 0.19 0.00 0.2150 346.400 33.730 13.886 13.240 0.653 14.127 13.302 0.833
WS7MET_125 2017-09-29 14:40:00 125 30483.0 11.920 12.130 12.210 12.160 11.940 94.800 93.200 11.120 11.110 38.05 5.64 13.780 13.680 13.190 12.620 13.390 12.030 12.170 12.260 12.230 11.990 11.230 11.200 52.34 8.05 0.4640 0.6000 11.790 12.110 12.190 12.030 11.910 10.960 11.010 0.00000 0.00 318 0.00 0.00 0.2070 30.29 35.25 0.3700 35.390 34.560 13.951 13.231 0.725 14.173 13.222 0.964
WS7MET_125 2017-09-29 14:35:00 125 30483.0 11.950 12.210 12.290 12.220 12.090 92.800 91.800 10.840 10.930 35.90 5.23 13.780 13.680 13.190 12.620 13.430 12.060 12.230 12.310 12.270 12.130 11.100 11.160 51.00 8.05 0.3010 0.7000 11.860 12.180 12.270 12.130 11.990 10.710 10.850 0.00000 0.00 318 0.00 0.00 0.0830 232.60 42.92 0.3200 156.500 62.610 13.978 12.987 1.006 14.229 13.065 1.167
WS7MET_125 2017-09-29 14:30:00 125 30483.0 12.050 12.300 12.380 12.280 12.120 93.100 91.800 10.980 11.000 19.80 3.29 13.780 13.680 13.190 12.620 13.550 12.130 12.390 12.460 12.370 12.260 11.200 11.170 26.84 4.03 0.8690 1.0000 11.890 12.230 12.310 12.170 12.080 10.730 10.800 0.00000 0.00 318 0.00 0.00 0.1100 101.20 53.38 0.3300 139.600 62.150 14.071 13.109 0.971 14.286 13.126 1.171
WS7MET_125 2017-09-29 14:25:00 125 30483.0 12.100 12.400 12.490 12.410 12.250 93.000 91.300 11.010 11.040 37.11 5.30 13.770 13.680 13.190 12.610 13.860 12.200 12.430 12.540 12.470 12.320 11.360 11.180 61.73 9.39 1.2810 1.9000 12.030 12.380 12.460 12.340 12.180 10.860 10.930 0.00000 0.00 318 0.00 0.00 0.2840 11.70 80.10 0.5900 354.000 37.560 14.117 13.135 0.988 14.408 13.161 1.254
WS7MET_125 2017-09-29 14:20:00 125 30483.0 12.130 12.410 12.530 12.430 12.140 94.800 92.100 11.330 11.200 93.80 15.97 13.760 13.680 13.190 12.620 14.320 12.200 12.450 12.580 12.510 12.240 11.420 11.330 108.70 18.79 0.7450 1.0000 12.030 12.390 12.500 12.340 12.080 11.230 11.070 0.00000 0.00 318 0.00 0.00 0.4030 67.93 18.43 0.5200 89.500 28.320 14.145 13.417 0.736 14.427 13.302 1.140
WS7MET_125 2017-09-29 14:15:00 125 30483.0 12.170 12.480 12.620 12.480 12.160 94.600 92.100 11.330 11.240 98.40 16.57 13.760 13.680 13.180 12.620 14.260 12.230 12.550 12.670 12.610 12.430 11.560 11.490 106.00 17.45 0.5490 0.7000 12.100 12.450 12.580 12.410 12.060 11.030 11.030 0.00000 0.00 318 0.00 0.00 0.1050 82.50 29.92 0.3700 114.100 43.940 14.182 13.417 0.766 14.475 13.337 1.143
WS7MET_125 2017-09-29 14:10:00 125 30483.0 12.200 12.520 12.650 12.550 12.290 95.400 93.200 11.490 11.490 127.70 21.81 13.750 13.680 13.190 12.620 14.300 12.270 12.580 12.710 12.610 12.340 11.590 11.610 150.30 26.84 0.8170 1.2000 12.130 12.490 12.600 12.440 12.220 11.420 11.390 0.00000 0.00 318 0.00 0.00 0.3670 78.48 16.19 0.5400 96.300 10.190 14.211 13.560 0.654 14.541 13.560 0.989
WS7MET_125 2017-09-29 14:05:00 125 30483.0 12.160 12.550 12.680 12.490 12.290 96.100 93.900 11.580 11.540 177.30 31.61 13.750 13.680 13.190 12.620 14.390 12.300 12.610 12.740 12.610 12.410 11.720 11.800 261.70 46.97 0.6270 0.7000 12.060 12.440 12.560 12.340 12.160 11.390 11.350 0.00000 0.00 318 0.00 0.00 0.1330 114.80 55.53 0.3700 134.000 61.070 14.173 13.641 0.553 14.484 13.605 0.884
WS7MET_125 2017-09-29 14:00:00 125 30483.0 11.970 12.300 12.440 12.280 12.120 96.700 94.300 11.480 11.410 149.40 26.44 13.740 13.690 13.180 12.620 14.210 12.100 12.440 12.560 12.440 12.320 11.680 11.630 221.40 40.26 0.1960 0.5000 11.890 12.190 12.300 12.170 11.990 11.330 11.260 0.00000 0.00 318 0.00 0.00 0.0230 112.50 31.28 0.2700 164.600 60.130 13.997 13.551 0.462 14.286 13.488 0.814
WS7MET_125 2017-09-29 13:55:00 125 30483.0 11.910 12.120 12.250 12.130 11.920 95.500 93.500 11.210 11.130 94.70 16.17 13.740 13.690 13.180 12.630 13.830 12.000 12.170 12.290 12.170 11.980 11.420 11.280 143.60 25.50 0.2480 0.8000 11.790 12.110 12.210 12.060 11.870 11.110 10.970 0.00000 0.00 318 0.00 0.00 0.0170 280.50 26.86 0.2850 159.900 68.910 13.941 13.310 0.627 14.145 13.240 0.919
WS7MET_125 2017-09-29 13:50:00 125 30483.0 12.010 12.190 12.310 12.210 12.010 94.800 93.300 11.210 11.170 51.74 7.85 13.740 13.680 13.170 12.620 13.560 12.100 12.250 12.380 12.340 12.160 11.350 11.350 55.02 8.05 1.1240 1.7000 11.890 12.120 12.230 12.060 11.910 11.050 10.930 0.00000 0.00 318 0.00 0.00 0.2240 96.70 60.34 0.4400 124.600 49.760 14.034 13.310 0.730 14.220 13.275 0.953
WS7MET_125 2017-09-29 13:45:00 125 30483.0 12.100 12.290 12.420 12.300 12.050 95.100 93.300 11.340 11.260 46.64 6.58 13.740 13.690 13.170 12.620 13.610 12.230 12.340 12.480 12.370 12.170 11.520 11.410 49.66 6.71 0.4570 0.5000 12.000 12.230 12.380 12.230 11.930 11.190 11.110 0.00000 0.00 318 0.00 0.00 0.1310 13.40 46.47 0.2750 45.200 67.280 14.117 13.426 0.692 14.304 13.355 0.958
WS7MET_125 2017-09-29 13:40:00 125 30483.0 12.200 12.340 12.440 12.360 12.110 94.500 92.400 11.360 11.160 65.69 10.40 13.740 13.690 13.170 12.620 13.860 12.300 12.400 12.480 12.440 12.180 11.490 11.330 83.20 13.42 0.7770 0.8000 12.100 12.290 12.420 12.270 12.080 11.250 11.020 0.00000 0.00 318 0.00 0.00 0.2570 61.89 7.06 0.4550 102.900 36.590 14.211 13.444 0.782 14.361 13.266 1.091
WS7MET_125 2017-09-29 13:35:00 125 30483.0 12.270 12.400 12.490 12.430 12.160 93.700 91.200 11.280 11.040 101.20 17.04 13.740 13.690 13.170 12.620 14.090 12.440 12.450 12.540 12.510 12.220 11.470 11.170 111.40 18.79 0.7320 0.9000 12.130 12.380 12.480 12.340 12.110 11.050 10.820 0.00000 0.00 318 0.00 0.00 0.4620 68.91 16.04 0.5300 82.500 19.390 14.276 13.372 0.899 14.427 13.161 1.270
WS7MET_125 2017-09-29 13:30:00 125 30483.0 12.450 12.550 12.640 12.600 12.130 93.200 91.300 11.390 11.230 112.80 19.53 13.730 13.690 13.170 12.620 14.180 12.640 12.700 12.770 12.750 12.170 11.510 11.380 116.80 20.13 0.9340 1.1000 12.300 12.470 12.560 12.470 12.080 11.270 11.070 0.00000 0.00 318 0.00 0.00 0.3690 74.00 23.48 0.5150 87.400 26.360 14.446 13.470 0.982 14.589 13.328 1.269
WS7MET_125 2017-09-29 13:25:00 125 30483.0 12.620 12.840 12.900 12.790 12.320 92.200 89.900 11.390 11.180 111.10 19.06 13.720 13.690 13.170 12.620 14.170 12.710 12.950 13.020 12.880 12.450 11.720 11.440 130.20 22.81 0.6140 1.0000 12.470 12.710 12.780 12.640 12.150 10.970 10.930 0.00000 0.00 318 0.00 0.00 0.1780 77.96 16.36 0.3850 85.100 51.390 14.608 13.470 1.139 14.772 13.284 1.492
WS7MET_125 2017-09-29 13:20:00 125 30483.0 12.690 12.880 12.940 12.870 12.460 92.700 89.500 11.550 11.200 160.10 27.91 13.720 13.690 13.170 12.620 14.420 12.810 12.920 12.990 12.990 12.590 11.740 11.400 208.00 37.58 0.4900 0.7000 12.540 12.830 12.890 12.780 12.330 11.210 10.980 0.00000 0.00 318 0.00 0.00 0.2310 61.39 56.74 0.4350 89.200 74.180 14.675 13.614 1.071 14.850 13.302 1.559
WS7MET_125 2017-09-29 13:15:00 125 30483.0 12.800 13.030 13.100 13.050 12.460 92.200 89.200 11.580 11.330 209.90 37.24 13.720 13.690 13.170 12.620 14.480 12.950 13.230 13.280 13.190 12.740 11.950 11.540 226.80 40.26 0.8690 1.0000 12.640 12.800 12.880 12.880 12.310 11.210 11.060 0.00000 0.00 318 0.00 0.00 0.5130 77.20 20.24 0.6400 98.600 22.100 14.782 13.641 1.153 15.025 13.417 1.623
WS7MET_125 2017-09-29 13:10:00 125 30483.0 12.790 13.150 13.240 13.120 12.710 90.700 88.500 11.320 11.270 243.80 43.75 13.720 13.690 13.170 12.620 14.510 12.950 13.230 13.310 13.220 12.860 11.830 11.770 249.60 45.63 0.6140 1.2000 12.610 13.080 13.190 13.020 12.530 10.700 10.810 0.00000 0.00 318 0.00 0.00 0.2320 190.60 77.13 0.4900 175.200 58.030 14.772 13.408 1.374 15.094 13.364 1.736
WS7MET_125 2017-09-29 13:05:00 125 30483.0 12.680 12.990 13.100 12.990 12.510 91.800 89.400 11.400 11.300 225.10 39.99 13.720 13.690 13.170 12.620 14.480 12.810 13.060 13.160 13.120 12.760 11.730 11.500 232.20 41.60 0.6210 1.2000 12.580 12.900 13.040 12.880 12.410 10.900 10.980 0.00000 0.00 318 0.00 0.00 0.1530 125.70 54.19 0.3700 119.100 47.270 14.666 13.479 1.203 14.967 13.390 1.586
WS7MET_125 2017-09-29 13:00:00 125 30483.0 12.670 12.950 13.080 12.970 12.370 91.100 88.500 11.270 11.130 225.50 39.66 13.720 13.700 13.170 12.620 14.490 12.780 13.050 13.140 13.050 12.650 11.510 11.370 242.90 42.95 0.4700 0.6000 12.510 12.880 13.010 12.880 12.160 10.970 10.930 0.00000 0.00 318 0.00 0.00 0.0940 80.20 22.82 0.3100 95.400 73.050 14.656 13.364 1.304 14.947 13.240 1.719
WS7MET_125 2017-09-29 12:55:00 125 30483.0 12.760 13.060 13.210 13.010 12.290 88.400 86.400 10.890 10.810 214.80 37.51 13.720 13.700 13.170 12.630 14.500 12.850 13.100 13.260 13.160 12.390 11.550 11.230 234.90 41.60 0.2680 0.6000 12.610 13.000 13.160 12.950 12.200 10.240 10.290 0.00000 0.00 318 0.00 0.00 0.0220 82.50 30.01 0.2300 116.100 46.690 14.743 13.030 1.710 14.986 12.961 2.038
WS7MET_125 2017-09-29 12:50:00 125 30483.0 12.840 13.140 13.270 13.050 12.380 89.400 86.500 11.150 10.850 202.60 35.36 13.720 13.700 13.160 12.630 14.490 12.950 13.200 13.370 13.120 12.680 11.630 11.280 248.30 44.29 0.5810 1.1000 12.710 13.080 13.170 12.950 12.220 10.230 10.240 0.00000 0.00 318 0.00 0.00 0.1910 179.20 81.80 0.4750 186.000 50.560 14.820 13.258 1.571 15.025 12.996 2.028
WS7MET_125 2017-09-29 12:45:00 125 30483.0 12.800 13.100 13.300 13.050 12.560 91.500 87.900 11.470 11.100 258.10 46.30 13.720 13.700 13.160 12.630 14.540 12.990 13.170 13.370 13.160 12.740 11.860 11.440 263.00 46.97 0.6730 0.8000 12.680 13.030 13.240 12.950 12.370 10.880 10.660 0.00000 0.00 318 0.00 0.00 0.2160 202.00 64.65 0.3650 222.700 79.050 14.782 13.542 1.256 15.025 13.214 1.818
WS7MET_125 2017-09-29 12:40:00 125 30483.0 12.770 13.020 13.170 12.940 12.480 91.200 88.800 11.370 11.140 266.80 47.37 13.720 13.710 13.160 12.620 14.540 12.850 13.070 13.220 13.050 12.760 11.860 11.520 280.50 49.66 1.3390 1.7000 12.580 12.990 13.110 12.880 12.370 10.740 10.780 0.00000 0.00 318 0.00 0.00 0.5350 190.50 40.32 0.6700 209.500 49.570 14.753 13.452 1.298 14.918 13.249 1.671
WS7MET_125 2017-09-29 12:35:00 125 30483.0 12.680 12.890 13.030 12.810 12.450 92.400 90.300 11.480 11.260 352.30 62.61 13.710 13.710 13.170 12.620 14.520 12.850 12.970 13.100 12.920 12.590 12.150 11.800 417.40 73.81 1.3920 2.2000 12.580 12.800 12.950 12.680 12.240 10.860 10.620 0.00000 0.00 318 0.00 0.00 0.4270 213.40 41.11 0.6600 225.400 37.170 14.666 13.551 1.115 14.791 13.355 1.435
WS7MET_125 2017-09-29 12:30:00 125 30483.0 12.650 12.840 13.000 12.690 12.220 93.600 91.200 11.670 11.290 146.60 25.03 13.710 13.710 13.150 12.620 14.450 12.780 12.900 13.110 12.780 12.320 12.060 11.600 263.00 45.63 0.9540 1.2000 12.510 12.750 12.900 12.610 12.160 11.170 10.990 0.00000 0.00 318 0.00 0.00 0.1950 217.00 50.72 0.3350 129.300 53.030 14.637 13.722 0.937 14.675 13.381 1.291
WS7MET_125 2017-09-29 12:25:00 125 30483.0 12.700 12.940 13.220 12.780 12.380 95.000 91.400 11.940 11.430 197.70 34.56 13.710 13.710 13.150 12.620 14.390 12.850 12.990 13.300 12.880 12.510 12.330 11.790 326.10 57.71 1.3200 1.0000 12.610 12.900 13.120 12.710 12.280 11.490 11.140 0.00000 0.00 318 0.00 0.00 0.4100 134.90 91.90 0.5950 166.600 85.700 14.685 13.969 0.734 14.762 13.506 1.270
WS7MET_125 2017-09-29 12:20:00 125 30483.0 12.450 12.740 13.000 12.660 12.190 96.800 93.000 11.970 11.570 346.90 61.20 13.710 13.710 13.150 12.620 14.560 12.640 12.900 13.240 12.780 12.530 12.340 11.730 381.10 67.10 0.3660 0.6000 12.340 12.590 12.790 12.440 11.990 11.680 11.390 0.00000 0.00 318 0.00 0.00 0.1330 123.20 15.85 0.3000 141.400 36.060 14.446 13.997 0.462 14.647 13.632 1.025
WS7MET_125 2017-09-29 12:15:00 125 30483.0 12.280 12.480 12.670 12.500 12.000 97.000 94.200 11.820 11.600 243.80 42.61 13.710 13.700 13.160 12.620 14.540 12.440 12.590 12.800 12.580 12.140 12.160 11.660 259.00 45.63 0.6790 1.0000 12.060 12.320 12.510 12.370 11.890 11.400 11.540 0.00000 0.00 318 0.00 0.00 0.1480 138.70 38.13 0.4300 163.100 41.110 14.286 13.859 0.429 14.494 13.659 0.841
WS7MET_125 2017-09-29 12:10:00 125 30483.0 12.160 12.270 12.430 12.320 11.850 94.500 93.400 11.320 11.290 209.60 36.84 13.720 13.700 13.150 12.620 14.500 12.270 12.320 12.510 12.440 12.140 11.580 11.540 293.90 51.00 0.2090 0.6000 12.060 12.200 12.360 12.230 11.750 11.080 11.120 0.00000 0.00 318 0.00 0.00 0.0160 268.10 6.69 0.2500 185.100 70.800 14.173 13.408 0.780 14.323 13.381 0.945
WS7MET_125 2017-09-29 12:05:00 125 30483.0 12.220 12.370 12.520 12.280 11.800 94.500 92.800 11.370 11.160 85.40 14.43 13.710 13.710 13.150 12.620 14.110 12.340 12.430 12.560 12.370 11.890 11.530 11.290 118.10 20.13 0.2220 0.5000 12.130 12.320 12.470 12.200 11.730 11.160 11.010 0.00000 0.00 318 0.00 0.00 0.0340 293.10 44.91 0.1850 107.900 44.690 14.229 13.452 0.783 14.286 13.266 1.029
WS7MET_125 2017-09-29 12:00:00 125 30483.0 12.290 12.490 12.610 12.420 11.960 93.300 91.600 11.250 11.110 109.30 18.72 13.710 13.710 13.150 12.620 14.010 12.410 12.530 12.660 12.580 12.080 11.490 11.340 138.20 24.16 0.9020 1.1000 12.200 12.450 12.570 12.270 11.890 11.020 10.900 0.00000 0.00 318 0.00 0.00 0.2430 218.80 39.33 0.3950 219.600 44.510 14.295 13.346 0.958 14.418 13.222 1.211
WS7MET_125 2017-09-29 11:55:00 125 30483.0 12.430 12.750 12.900 12.690 12.140 92.400 90.100 11.240 11.120 158.60 27.65 13.710 13.710 13.150 12.620 14.300 12.580 12.900 13.090 12.810 12.460 11.820 11.750 187.90 33.55 1.2810 1.5000 12.230 12.500 12.630 12.470 11.890 10.660 10.680 0.00000 0.00 318 0.00 0.00 0.6400 255.80 25.15 0.8100 259.500 29.740 14.427 13.337 1.096 14.675 13.231 1.453
WS7MET_125 2017-09-29 11:50:00 125 30483.0 12.360 12.700 13.040 12.670 12.050 93.600 90.800 11.370 11.220 177.40 31.40 13.710 13.710 13.160 12.630 14.460 12.470 12.800 13.090 12.750 12.360 11.630 11.610 202.70 36.24 1.0000 1.6000 12.270 12.640 12.990 12.540 11.780 11.160 10.780 0.00000 0.00 318 0.00 0.00 0.2530 247.60 71.90 0.4500 251.900 59.150 14.361 13.452 0.919 14.656 13.319 1.348
WS7MET_125 2017-09-29 11:45:00 125 30483.0 12.260 12.680 12.960 12.670 11.920 89.900 86.400 10.660 10.480 390.10 67.98 13.720 13.710 13.160 12.630 14.590 12.340 12.740 13.010 12.780 12.060 11.110 10.770 775.70 130.20 0.9080 1.1000 12.130 12.630 12.900 12.580 11.790 10.200 10.190 0.00000 0.00 318 0.00 0.00 0.4020 128.50 58.29 0.5850 147.000 64.200 14.267 12.832 1.441 14.656 12.679 1.993
WS7MET_125 2017-09-29 11:40:00 125 30483.0 12.350 12.680 12.980 12.610 11.860 89.700 86.900 10.720 10.490 312.20 55.23 13.720 13.710 13.150 12.630 14.590 12.510 12.780 13.120 12.680 11.970 11.000 10.940 385.20 68.45 1.3850 1.7000 12.270 12.590 12.850 12.540 11.750 10.430 9.960 0.00000 0.00 318 0.00 0.00 0.4340 235.50 37.64 0.7300 225.800 42.480 14.351 12.884 1.478 14.599 12.688 1.912
WS7MET_125 2017-09-29 11:35:00 125 30483.0 12.620 12.920 13.290 12.660 12.000 93.100 90.000 11.540 11.070 348.30 61.60 13.720 13.710 13.150 12.630 14.570 12.810 12.980 13.410 12.750 12.230 12.550 11.930 399.90 71.13 1.1300 1.6000 12.470 12.800 13.130 12.580 11.750 10.510 10.340 0.00000 0.00 318 0.00 0.00 0.5980 231.60 29.56 0.8500 236.700 19.830 14.608 13.605 1.008 14.647 13.187 1.465
WS7MET_125 2017-09-29 11:30:00 125 30483.0 12.600 12.950 13.280 12.670 12.010 98.600 94.100 12.390 11.760 325.70 56.17 13.720 13.710 13.150 12.630 14.590 12.750 13.020 13.340 12.750 12.260 12.610 12.020 406.70 69.79 0.3720 0.7000 12.470 12.870 13.190 12.610 11.890 12.240 11.560 0.00000 0.00 318 0.00 0.00 0.0570 91.90 7.38 0.3200 160.100 23.050 14.589 14.389 0.204 14.656 13.804 0.865
WS7MET_125 2017-09-29 11:25:00 125 30483.0 12.120 12.460 12.690 12.250 11.840 99.600 96.300 12.070 11.700 510.20 87.20 13.720 13.710 13.150 12.630 14.600 12.540 12.840 13.130 12.680 12.140 12.550 12.130 1095.00 186.60 0.6660 1.0000 11.830 12.250 12.430 12.030 11.640 11.650 11.370 0.00000 0.00 318 0.00 0.00 0.2180 117.90 17.58 0.4750 138.800 35.930 14.136 14.089 0.057 14.257 13.749 0.528
WS7MET_125 2017-09-29 11:20:00 125 30483.0 11.660 12.000 12.150 11.820 11.430 98.300 95.400 11.410 11.120 349.00 60.06 13.720 13.710 13.140 12.630 14.630 11.830 12.220 12.390 12.030 11.690 11.630 11.350 421.40 72.47 0.5100 0.8000 11.550 11.830 11.960 11.620 11.260 11.240 11.010 0.00000 0.00 318 0.00 0.00 0.1210 224.90 8.11 0.3250 231.800 30.040 13.713 13.488 0.233 13.859 13.231 0.638
WS7MET_125 2017-09-29 11:15:00 125 30483.0 11.410 11.740 11.840 11.560 11.230 97.900 95.000 11.100 10.790 199.70 33.62 13.720 13.720 13.140 12.630 14.350 11.550 11.790 11.940 11.650 11.380 11.280 11.030 253.70 42.95 0.8360 1.2000 11.310 11.700 11.770 11.420 11.120 10.990 10.560 0.00000 0.00 318 0.00 0.00 0.2090 204.50 10.88 0.4450 186.100 19.050 13.488 13.214 0.283 13.623 12.944 0.681
WS7MET_125 2017-09-29 11:10:00 125 30483.0 11.210 11.580 11.650 11.400 11.250 97.800 94.400 10.900 10.540 169.00 28.65 13.720 13.720 13.150 12.630 14.050 11.380 11.680 11.740 11.550 11.340 11.070 10.800 183.90 30.87 1.0320 1.2000 11.070 11.480 11.570 11.280 11.140 10.730 10.310 0.00000 0.00 318 0.00 0.00 0.2380 230.50 10.15 0.3550 256.200 36.120 13.310 13.039 0.293 13.479 12.730 0.755
WS7MET_125 2017-09-29 11:05:00 125 30483.0 11.020 11.350 11.470 11.290 11.070 98.000 96.000 10.720 10.680 201.80 34.49 13.720 13.720 13.150 12.630 14.020 11.140 11.470 11.570 11.420 11.230 10.860 10.840 208.00 36.24 1.0520 1.4000 10.900 11.250 11.370 11.180 11.020 10.530 10.600 0.00000 0.00 318 0.00 0.00 0.3230 227.90 25.51 0.5100 247.000 18.420 13.144 12.884 0.263 13.381 12.850 0.535
WS7MET_125 2017-09-29 11:00:00 125 30483.0 10.930 11.220 11.320 11.170 10.920 97.600 96.300 10.580 10.620 186.20 31.47 13.720 13.720 13.140 12.630 13.940 11.040 11.260 11.360 11.280 11.020 10.730 10.760 198.60 33.55 0.4570 0.7000 10.800 11.150 11.270 11.070 10.820 10.480 10.510 0.00000 0.00 318 0.00 0.00 0.1020 56.38 63.00 0.3400 64.700 69.910 13.065 12.764 0.314 13.275 12.798 0.491
WS7MET_125 2017-09-29 10:55:00 125 30483.0 11.020 11.250 11.300 11.150 10.870 97.000 96.300 10.580 10.590 138.20 23.08 13.730 13.720 13.140 12.630 13.830 11.210 11.390 11.390 11.250 10.980 10.840 10.700 157.00 26.84 0.8750 1.6000 10.840 11.150 11.250 11.070 10.800 10.400 10.470 0.00000 0.00 318 0.00 0.00 0.3610 245.30 28.61 0.6200 256.300 47.850 13.144 12.764 0.394 13.258 12.773 0.491
WS7MET_125 2017-09-29 10:50:00 125 30483.0 11.220 11.500 11.440 11.310 11.070 98.900 97.300 11.070 10.910 138.80 23.29 13.730 13.720 13.140 12.630 13.820 11.350 11.560 11.500 11.380 11.220 11.310 11.070 162.40 26.84 1.4960 1.8000 11.070 11.400 11.380 11.210 10.960 10.850 10.680 0.00000 0.00 318 0.00 0.00 0.5500 265.00 46.33 0.8200 280.600 44.510 13.319 13.187 0.147 13.399 13.048 0.362
WS7MET_125 2017-09-29 10:45:00 125 30483.0 11.110 11.390 11.350 11.210 11.080 99.500 97.900 11.040 10.900 192.70 32.82 13.730 13.730 13.140 12.630 13.890 11.250 11.520 11.480 11.310 11.360 11.190 11.030 217.40 36.24 0.9800 1.6000 11.010 11.320 11.290 11.110 10.960 10.930 10.770 0.00000 0.00 318 0.00 0.00 0.4410 275.80 21.21 0.7000 285.200 22.910 13.222 13.161 0.066 13.310 13.039 0.280
WS7MET_125 2017-09-29 10:40:00 125 30483.0 10.990 11.230 11.250 11.110 11.030 99.600 98.400 10.940 10.880 192.50 32.95 13.730 13.730 13.130 12.630 13.780 11.180 11.350 11.340 11.280 11.210 11.160 11.070 205.30 34.90 1.1240 1.6000 10.840 11.100 11.120 10.970 10.890 10.730 10.690 0.00000 0.00 318 0.00 0.00 0.3710 276.10 16.37 0.5850 281.800 19.410 13.117 13.074 0.052 13.222 13.022 0.212
WS7MET_125 2017-09-29 10:35:00 125 30483.0 10.820 11.050 11.080 10.990 10.880 99.200 97.900 10.710 10.680 146.80 24.83 13.730 13.730 13.140 12.630 13.550 10.970 11.130 11.140 11.070 10.930 10.910 10.800 167.80 28.18 0.7710 1.2000 10.670 10.940 10.980 10.870 10.730 10.500 10.500 0.00000 0.00 318 0.00 0.00 0.5030 274.20 15.12 0.7900 284.100 19.310 12.970 12.875 0.104 13.117 12.850 0.275
WS7MET_125 2017-09-29 10:30:00 125 30483.0 10.660 10.860 10.900 10.800 10.700 98.500 97.300 10.450 10.400 157.50 26.51 13.740 13.730 13.140 12.630 13.460 10.730 10.920 10.970 10.900 10.750 10.530 10.550 170.40 29.53 0.4180 0.6000 10.560 10.780 10.820 10.730 10.590 10.320 10.260 0.00000 0.00 318 0.00 0.00 0.2720 298.20 11.84 0.4400 311.600 15.870 12.832 12.654 0.192 12.953 12.612 0.350
WS7MET_125 2017-09-29 10:25:00 125 30483.0 10.630 10.780 10.830 10.730 10.680 98.700 97.900 10.450 10.410 101.30 16.44 13.740 13.730 13.130 12.630 13.350 10.730 10.810 10.860 10.770 10.770 10.550 10.510 130.20 21.47 1.2540 2.0000 10.490 10.740 10.800 10.670 10.590 10.300 10.250 0.00000 0.00 318 0.00 0.00 0.4790 317.60 44.50 0.6100 333.200 40.560 12.807 12.654 0.166 12.892 12.620 0.271
WS7MET_125 2017-09-29 10:20:00 125 30483.0 10.690 10.730 10.790 10.670 10.570 99.200 98.500 10.570 10.440 69.65 10.80 13.740 13.730 13.130 12.630 13.300 10.800 10.760 10.830 10.770 10.650 10.700 10.570 75.16 12.08 1.0710 1.5000 10.600 10.700 10.760 10.560 10.530 10.440 10.350 0.00000 0.00 318 0.00 0.00 0.3200 252.30 21.51 0.6250 248.200 39.610 12.858 12.756 0.103 12.841 12.645 0.193
WS7MET_125 2017-09-29 10:15:00 125 30483.0 10.680 10.710 10.800 10.690 10.600 99.200 98.500 10.580 10.470 87.00 13.82 13.740 13.730 13.130 12.630 13.290 10.800 10.740 10.800 10.730 10.650 10.680 10.520 100.70 16.11 0.6790 0.9000 10.600 10.690 10.790 10.600 10.550 10.450 10.370 0.00000 0.00 318 0.00 0.00 0.2350 188.10 12.51 0.5200 191.600 20.850 12.850 12.764 0.103 12.858 12.671 0.193
WS7MET_125 2017-09-29 10:10:00 125 30483.0 10.570 10.610 10.730 10.610 10.530 98.100 97.500 10.290 10.240 91.70 14.70 13.750 13.740 13.130 12.630 13.290 10.700 10.680 10.790 10.700 10.640 10.530 10.460 100.70 16.11 0.6990 1.0000 10.430 10.540 10.660 10.490 10.350 10.040 9.970 0.00000 0.00 318 0.00 0.00 0.2610 164.20 17.77 0.5450 177.600 19.260 12.756 12.519 0.242 12.790 12.478 0.320
WS7MET_125 2017-09-29 10:05:00 125 30483.0 10.580 10.600 10.690 10.640 10.330 96.100 95.500 9.990 9.970 68.72 10.47 13.750 13.740 13.130 12.630 13.260 10.730 10.700 10.760 10.730 10.410 10.070 10.050 76.50 12.08 0.9410 1.1000 10.460 10.530 10.660 10.530 10.290 9.870 9.920 0.00000 0.00 318 0.00 0.00 0.2020 104.10 17.20 0.4600 137.300 23.500 12.764 12.271 0.498 12.815 12.254 0.577
WS7MET_125 2017-09-29 10:00:00 125 30483.0 10.750 10.810 10.900 10.830 10.520 95.000 94.400 9.980 9.970 58.92 8.66 13.760 13.740 13.130 12.630 13.240 10.800 10.920 11.030 10.940 10.650 10.120 10.100 64.42 9.39 0.9800 1.3000 10.630 10.700 10.780 10.700 10.390 9.880 9.850 0.00000 0.00 318 0.00 0.00 0.4500 65.13 18.96 0.6700 93.400 25.970 12.910 12.262 0.645 12.979 12.254 0.727
WS7MET_125 2017-09-29 09:55:00 125 30483.0 10.930 11.000 11.110 10.970 10.710 93.500 93.900 9.940 10.030 55.03 8.32 13.760 13.750 13.130 12.630 13.230 11.040 11.070 11.180 11.040 10.960 10.080 10.140 60.40 9.40 0.5810 0.9000 10.840 10.910 11.030 10.840 10.550 9.750 9.860 0.00000 0.00 318 0.00 0.00 0.2050 138.10 44.98 0.3700 152.300 56.060 13.065 12.229 0.849 13.100 12.303 0.799
WS7MET_125 2017-09-29 09:50:00 125 30483.0 11.080 11.070 11.180 11.010 10.910 93.500 93.600 10.080 10.030 50.67 7.85 13.760 13.750 13.130 12.630 13.230 11.250 11.090 11.220 11.070 10.970 10.230 10.140 52.35 8.05 0.5550 0.7000 10.970 11.050 11.160 10.940 10.860 9.940 9.950 0.00000 0.00 318 0.00 0.00 0.1850 177.80 45.54 0.4350 206.000 32.950 13.196 12.345 0.858 13.135 12.303 0.841
WS7MET_125 2017-09-29 09:45:00 125 30483.0 11.200 11.130 11.280 11.070 10.950 93.100 93.300 10.140 10.040 42.08 6.11 13.770 13.750 13.130 12.630 13.230 11.310 11.140 11.310 11.140 10.990 10.250 10.120 45.63 6.71 0.4640 0.7000 11.110 11.100 11.220 11.010 10.890 10.000 9.950 0.00000 0.00 318 0.00 0.00 0.1330 109.00 23.56 0.3550 123.600 33.750 13.302 12.394 0.918 13.187 12.312 0.884
WS7MET_125 2017-09-29 09:40:00 125 30483.0 11.330 11.220 11.400 11.150 10.990 92.400 92.800 10.160 10.040 53.62 8.32 13.780 13.750 13.130 12.630 13.240 11.450 11.310 11.510 11.250 11.030 10.290 10.100 65.77 10.74 0.5230 0.6000 11.180 11.150 11.310 11.070 10.940 10.080 9.940 0.00000 0.00 318 0.00 0.00 0.3160 114.90 1.78 0.4900 137.900 12.130 13.417 12.411 1.020 13.258 12.312 0.955
WS7MET_125 2017-09-29 09:35:00 125 30483.0 11.440 11.390 11.560 11.260 11.060 92.000 92.100 10.200 10.030 82.80 13.89 13.780 13.750 13.130 12.630 13.250 11.520 11.420 11.580 11.310 11.120 10.350 10.100 92.60 16.11 0.5810 1.0000 11.350 11.320 11.520 11.180 10.980 9.970 9.960 0.00000 0.00 318 0.00 0.00 0.2360 119.70 12.87 0.4750 141.900 15.710 13.515 12.444 1.081 13.355 12.303 1.055
WS7MET_125 2017-09-29 09:30:00 125 30483.0 11.510 11.460 11.580 11.340 11.130 91.700 91.500 10.220 10.020 98.80 16.98 13.790 13.750 13.130 12.630 13.250 11.650 11.500 11.600 11.450 11.190 10.440 10.150 110.10 18.79 0.3920 0.5000 11.380 11.410 11.550 11.250 11.040 10.050 9.920 0.00000 0.00 318 0.00 0.00 0.1890 138.10 12.01 0.3500 163.500 18.830 13.578 12.461 1.127 13.426 12.295 1.141
WS7MET_125 2017-09-29 09:25:00 125 30483.0 11.590 11.500 11.620 11.410 11.180 91.500 91.200 10.270 10.030 146.70 26.04 13.790 13.750 13.130 12.630 13.260 11.650 11.520 11.670 11.520 11.230 10.500 10.110 187.90 34.90 0.6600 0.9000 11.520 11.470 11.550 11.350 11.130 9.990 9.960 0.00000 0.00 318 0.00 0.00 0.3380 100.40 20.25 0.5000 120.100 20.930 13.650 12.503 1.160 13.488 12.303 1.187
WS7MET_125 2017-09-29 09:20:00 125 30483.0 11.690 11.620 11.720 11.470 11.250 90.700 90.700 10.230 10.020 139.20 24.63 13.790 13.750 13.130 12.630 13.200 11.830 11.760 11.880 11.590 11.350 10.500 10.100 186.60 33.56 0.7120 0.9000 11.550 11.510 11.620 11.380 11.170 10.080 9.950 0.00000 0.00 318 0.00 0.00 0.4080 116.20 11.26 0.5100 132.300 19.760 13.740 12.469 1.278 13.542 12.295 1.259
WS7MET_125 2017-09-29 09:15:00 125 30483.0 11.720 11.850 12.010 11.590 11.480 92.800 90.900 10.610 10.170 123.50 21.41 13.800 13.760 13.130 12.630 13.140 11.860 11.890 12.040 11.650 11.510 10.690 10.240 142.30 25.50 0.5160 0.8000 11.590 11.780 11.910 11.520 11.370 10.500 10.040 0.00000 0.00 318 0.00 0.00 0.2380 156.00 7.34 0.4850 169.500 18.360 13.768 12.790 0.991 13.650 12.419 1.242
WS7MET_125 2017-09-29 09:10:00 125 30483.0 11.450 11.660 11.810 11.450 11.400 92.900 91.300 10.350 10.100 159.80 28.59 13.800 13.760 13.130 12.630 13.090 11.620 11.800 11.950 11.550 11.490 10.640 10.230 166.40 29.53 0.5360 0.9000 11.280 11.490 11.670 11.310 11.250 10.000 9.960 0.00000 0.00 318 0.00 0.00 0.0810 225.60 8.31 0.2800 190.900 20.290 13.524 12.570 0.960 13.524 12.361 1.177
WS7MET_125 2017-09-29 09:05:00 125 30483.0 11.280 11.370 11.570 11.250 11.170 93.100 91.600 10.210 9.940 142.90 25.50 13.810 13.760 13.120 12.630 13.020 11.450 11.490 11.670 11.350 11.350 10.420 10.070 154.40 28.19 0.5100 0.6000 11.110 11.280 11.480 11.140 11.020 10.010 9.820 0.00000 0.00 318 0.00 0.00 0.0480 182.30 11.78 0.3400 184.100 18.230 13.372 12.453 0.923 13.346 12.229 1.121
WS7MET_125 2017-09-29 09:00:00 125 30483.0 11.240 11.250 11.440 11.200 10.970 92.000 91.300 9.990 9.840 103.10 18.12 13.810 13.760 13.120 12.630 12.950 11.420 11.280 11.460 11.280 11.040 10.140 9.960 119.50 21.48 0.2550 0.5000 11.140 11.230 11.430 11.110 10.860 9.810 9.740 0.00000 0.00 318 0.00 0.00 0.0640 191.00 0.64 0.2650 183.800 30.180 13.337 12.271 1.067 13.302 12.148 1.157
WS7MET_125 2017-09-29 08:55:00 125 30483.0 11.380 11.370 11.540 11.340 10.960 91.400 90.500 10.040 9.850 79.94 13.83 13.810 13.760 13.120 12.630 12.920 11.520 11.530 11.670 11.480 11.190 10.430 10.000 89.90 16.11 0.4700 0.9000 11.250 11.260 11.460 11.210 10.840 9.820 9.750 0.00000 0.00 318 0.00 0.00 0.1280 142.20 3.82 0.3750 173.000 31.210 13.461 12.312 1.158 13.426 12.156 1.275
WS7MET_125 2017-09-29 08:50:00 125 30483.0 11.480 11.590 11.740 11.570 11.280 92.100 90.300 10.250 10.050 67.85 11.34 13.830 13.760 13.120 12.640 12.890 11.550 11.660 11.810 11.690 11.450 10.450 10.190 76.51 13.42 0.3460 0.6000 11.380 11.540 11.690 11.450 11.190 10.100 9.950 0.00000 0.00 318 0.00 0.00 0.0780 137.10 4.29 0.2950 151.300 24.310 13.551 12.486 1.071 13.632 12.320 1.322
WS7MET_125 2017-09-29 08:45:00 125 30483.0 11.500 11.720 11.880 11.690 11.560 92.500 90.900 10.340 10.260 70.20 11.75 13.830 13.760 13.120 12.640 12.870 11.620 11.750 11.910 11.760 11.590 10.570 10.400 80.50 13.42 0.5360 0.8000 11.380 11.670 11.830 11.590 11.470 10.060 10.110 0.00000 0.00 318 0.00 0.00 0.2710 122.30 1.97 0.4750 143.900 8.730 13.569 12.561 1.018 13.740 12.494 1.250
WS7MET_125 2017-09-29 08:40:00 125 30483.0 11.490 11.760 11.890 11.690 11.590 91.700 90.800 10.190 10.240 98.30 17.18 13.830 13.770 13.120 12.630 12.860 11.590 11.810 11.910 11.760 11.680 10.420 10.420 106.00 18.79 0.7320 1.0000 11.420 11.730 11.850 11.590 11.520 9.970 10.070 0.00000 0.00 318 0.00 0.00 0.3880 201.20 40.84 0.5450 210.500 37.930 13.560 12.436 1.125 13.740 12.478 1.264
WS7MET_125 2017-09-29 08:35:00 125 30483.0 11.410 11.650 11.750 11.550 11.500 92.000 91.200 10.170 10.180 91.90 16.04 13.830 13.770 13.120 12.630 12.830 11.520 11.760 11.830 11.690 11.600 10.330 10.340 102.00 17.45 0.1370 0.5000 11.310 11.550 11.690 11.420 11.410 9.980 10.010 0.00000 0.00 318 0.00 0.00 0.0150 229.10 0.11 0.2750 244.100 14.610 13.488 12.419 1.079 13.614 12.428 1.198
WS7MET_125 2017-09-29 08:30:00 125 30483.0 11.380 11.500 11.650 11.460 11.320 92.000 90.800 10.140 10.010 64.16 10.67 13.840 13.770 13.120 12.630 12.800 11.520 11.540 11.690 11.550 11.470 10.350 10.130 79.20 13.42 0.0000 0.5000 11.250 11.480 11.630 11.380 11.250 9.900 9.890 0.00000 0.00 318 0.00 0.00 0.0000 0.00 0.00 0.2250 181.700 14.820 13.461 12.394 1.077 13.533 12.287 1.245
WS7MET_125 2017-09-29 08:25:00 125 30483.0 11.340 11.510 11.630 11.460 11.220 91.300 90.000 9.980 9.890 59.46 9.46 13.850 13.770 13.110 12.630 12.780 11.420 11.540 11.640 11.550 11.250 10.140 9.990 63.09 10.74 0.0000 0.3000 11.250 11.480 11.620 11.380 11.200 9.780 9.820 0.00000 0.00 318 0.00 0.00 0.0000 0.00 0.00 0.2150 135.300 13.740 13.426 12.262 1.168 13.533 12.189 1.353
WS7MET_125 2017-09-29 08:20:00 125 30483.0 11.280 11.500 11.610 11.480 11.220 91.000 90.100 9.880 9.920 78.66 13.29 13.850 13.770 13.110 12.630 12.780 11.480 11.540 11.640 11.590 11.350 10.130 10.030 89.90 16.11 0.0000 0.4000 11.080 11.440 11.560 11.380 11.030 9.550 9.770 0.00000 0.00 318 0.00 0.00 0.0000 0.00 0.00 0.1900 194.600 50.420 13.372 12.180 1.204 13.551 12.213 1.342
WS7MET_125 2017-09-29 08:15:00 125 30483.0 11.290 11.450 11.630 11.460 11.220 91.000 90.000 9.880 9.890 85.40 14.77 13.860 13.770 13.110 12.630 12.760 11.420 11.460 11.650 11.520 11.320 10.110 9.980 88.60 14.77 0.0070 0.5000 11.110 11.440 11.580 11.380 11.030 9.620 9.710 0.00000 0.00 318 0.00 0.00 0.0000 219.50 0.00 0.2250 230.400 38.230 13.381 12.180 1.204 13.533 12.189 1.353
WS7MET_125 2017-09-29 08:10:00 125 30483.0 11.350 11.450 11.640 11.470 11.270 91.900 89.500 10.090 9.820 79.33 13.42 13.870 13.770 13.110 12.630 12.750 11.550 11.510 11.690 11.550 11.310 10.350 9.880 87.20 14.77 0.2550 0.5000 11.210 11.430 11.600 11.380 11.230 9.920 9.700 0.00000 0.00 318 0.00 0.00 0.0630 161.10 2.85 0.2850 178.800 30.310 13.435 12.353 1.088 13.542 12.131 1.422
WS7MET_125 2017-09-29 08:05:00 125 30483.0 11.350 11.550 11.700 11.520 11.380 92.300 89.500 10.160 9.860 67.05 11.21 13.870 13.770 13.110 12.630 12.720 11.590 11.580 11.720 11.620 11.470 10.440 10.000 69.80 12.08 0.2940 0.6000 11.250 11.520 11.690 11.420 11.320 9.990 9.740 0.00000 0.00 318 0.00 0.00 0.1120 135.80 20.77 0.3500 136.100 20.110 13.435 12.411 1.034 13.587 12.164 1.427
WS7MET_125 2017-09-29 08:00:00 125 30483.0 11.220 11.540 11.650 11.560 11.470 90.600 88.700 9.750 9.780 66.71 11.21 13.880 13.770 13.110 12.630 12.700 11.350 11.560 11.700 11.690 11.530 10.050 9.990 71.14 12.08 0.1760 0.5000 11.080 11.490 11.610 11.490 11.410 9.570 9.620 0.00000 0.00 318 0.00 0.00 0.0180 199.70 0.37 0.2800 208.400 29.880 13.319 12.075 1.252 13.623 12.099 1.539
WS7MET_125 2017-09-29 07:55:00 125 30483.0 11.220 11.470 11.590 11.460 11.420 90.800 89.000 9.780 9.720 48.66 7.52 13.880 13.770 13.110 12.630 12.680 11.380 11.510 11.600 11.590 11.450 10.040 9.840 60.40 9.40 0.1110 0.5000 11.080 11.440 11.570 11.380 11.360 9.550 9.570 0.00000 0.00 318 0.00 0.00 0.0090 178.80 0.27 0.2100 93.200 24.510 13.319 12.099 1.225 13.533 12.050 1.489
WS7MET_125 2017-09-29 07:50:00 125 30483.0 11.170 11.450 11.560 11.440 11.380 90.100 89.000 9.620 9.700 47.52 7.45 13.890 13.770 13.110 12.630 12.670 11.320 11.470 11.560 11.550 11.410 9.750 9.820 51.01 8.05 0.3590 0.8000 11.080 11.430 11.540 11.350 11.350 9.470 9.520 0.00000 0.00 318 0.00 0.00 0.0520 152.00 49.72 0.2800 63.940 38.670 13.275 11.970 1.314 13.515 12.034 1.487
WS7MET_125 2017-09-29 07:45:00 125 30483.0 11.170 11.430 11.540 11.410 11.350 90.800 89.000 9.740 9.680 42.75 6.71 13.890 13.770 13.110 12.640 12.660 11.350 11.450 11.550 11.490 11.370 9.920 9.740 44.29 6.71 0.6530 1.0000 11.080 11.420 11.530 11.350 11.330 9.640 9.610 0.00000 0.00 318 0.00 0.00 0.2090 253.50 13.01 0.4400 251.900 17.840 13.275 12.066 1.221 13.488 12.018 1.484
WS7MET_125 2017-09-29 07:40:00 125 30483.0 11.040 11.430 11.550 11.420 11.350 91.000 88.600 9.640 9.620 43.15 6.71 13.900 13.770 13.110 12.640 12.650 11.320 11.440 11.560 11.490 11.410 9.900 9.700 45.64 6.71 0.4310 0.6000 10.910 11.420 11.530 11.350 11.310 9.480 9.530 0.00000 0.00 318 0.00 0.00 0.2640 226.80 15.60 0.4750 241.300 14.890 13.161 11.986 1.184 13.497 11.970 1.539
WS7MET_125 2017-09-29 07:35:00 125 30483.0 10.990 11.380 11.500 11.350 11.350 90.700 89.100 9.530 9.630 53.96 8.72 13.900 13.770 13.110 12.630 12.650 11.180 11.440 11.550 11.420 11.400 9.750 9.790 64.43 10.74 0.0000 0.4000 10.870 11.320 11.440 11.250 11.260 9.370 9.430 0.00000 0.00 318 0.00 0.00 0.0000 0.00 0.00 0.1600 271.000 31.410 13.117 11.897 1.220 13.435 11.978 1.464
WS7MET_125 2017-09-29 07:30:00 125 30483.0 10.900 11.260 11.370 11.250 11.230 90.600 88.500 9.430 9.420 68.66 11.81 13.910 13.770 13.110 12.630 12.650 10.980 11.310 11.420 11.350 11.250 9.540 9.550 72.48 12.08 0.0000 0.3000 10.740 11.200 11.300 11.150 11.210 9.280 9.320 0.00000 0.00 318 0.00 0.00 0.0000 0.00 0.00 0.1900 114.500 14.450 13.039 11.818 1.226 13.346 11.810 1.535
WS7MET_125 2017-09-29 07:25:00 125 30483.0 10.750 11.120 11.220 11.150 11.120 90.800 89.100 9.330 9.430 81.20 14.23 13.920 13.770 13.100 12.630 12.630 10.910 11.200 11.300 11.250 11.200 9.510 9.560 84.60 14.76 0.4310 0.8000 10.530 11.030 11.150 11.050 11.020 9.080 9.340 0.00000 0.00 318 0.00 0.00 0.1540 43.74 9.23 0.3700 63.500 23.950 12.910 11.738 1.188 13.258 11.818 1.445
WS7MET_125 2017-09-29 07:20:00 125 30483.0 10.620 10.980 11.090 11.050 11.000 90.700 89.000 9.170 9.310 69.73 11.68 13.920 13.780 13.100 12.630 12.610 10.770 11.030 11.130 11.150 11.040 9.310 9.390 79.19 13.42 0.0000 0.4000 10.570 10.930 11.040 11.010 10.970 9.120 9.230 0.00000 0.00 318 0.00 0.00 0.0000 0.00 0.00 0.2000 301.300 19.190 12.798 11.612 1.190 13.170 11.722 1.449
WS7MET_125 2017-09-29 07:15:00 125 30483.0 10.570 10.890 10.990 10.940 10.930 90.900 89.500 9.160 9.290 57.25 9.19 13.930 13.780 13.110 12.630 12.580 10.670 10.930 11.030 11.040 10.980 9.250 9.400 61.74 10.74 0.1570 0.4000 10.500 10.850 10.950 10.870 10.900 9.080 9.190 0.00000 0.00 318 0.00 0.00 0.0150 32.00 1.07 0.2250 34.510 44.820 12.756 11.604 1.161 13.074 11.707 1.373
WS7MET_125 2017-09-29 07:10:00 125 30483.0 10.520 10.810 10.910 10.860 10.930 90.900 89.500 9.110 9.210 38.19 5.30 13.940 13.770 13.110 12.630 12.560 10.630 10.850 10.950 10.980 10.980 9.250 9.350 48.32 6.71 0.0000 0.3000 10.390 10.770 10.880 10.800 10.880 8.940 9.120 0.00000 0.00 318 0.00 0.00 0.0000 0.00 0.00 0.1000 291.700 44.210 12.713 11.565 1.157 13.004 11.644 1.365
WS7MET_125 2017-09-29 07:05:00 125 30483.0 10.520 10.750 10.860 10.860 10.810 90.800 89.800 9.090 9.260 27.45 4.03 13.940 13.770 13.110 12.630 12.540 10.640 10.770 10.870 10.980 10.860 9.190 9.400 30.87 4.03 0.3010 0.5000 10.400 10.750 10.850 10.770 10.770 8.920 9.170 0.00000 0.00 318 0.00 0.00 0.1140 231.60 1.03 0.3150 251.100 16.710 12.713 11.550 1.170 13.004 11.683 1.326
WS7MET_125 2017-09-29 07:00:00 125 30483.0 10.540 10.750 10.860 10.850 10.860 90.500 89.500 9.070 9.200 20.60 3.42 13.940 13.770 13.110 12.630 12.530 10.640 10.770 10.870 10.940 10.900 9.190 9.290 24.16 4.03 0.3070 0.6000 10.400 10.730 10.850 10.740 10.820 8.950 9.050 0.00000 0.00 318 0.00 0.00 0.1080 359.60 1.27 0.2850 34.210 34.950 12.730 11.534 1.209 12.996 11.636 1.365
WS7MET_125 2017-09-29 06:55:00 125 30483.0 10.560 10.740 10.850 10.880 10.810 90.100 89.000 9.010 9.150 10.87 1.61 13.950 13.770 13.100 12.630 12.520 10.670 10.750 10.850 11.010 10.860 9.120 9.300 14.77 2.68 0.4380 0.6000 10.460 10.730 10.850 10.840 10.720 8.910 9.060 0.00000 0.00 318 0.00 0.00 0.1180 23.08 5.01 0.2750 44.170 9.040 12.747 11.488 1.262 13.022 11.597 1.432
WS7MET_125 2017-09-29 06:50:00 125 30483.0 10.590 10.800 10.910 10.950 10.780 89.200 88.300 8.900 9.090 4.76 0.00 13.960 13.770 13.100 12.630 12.520 10.670 10.850 10.970 11.080 10.850 8.990 9.200 6.71 0.00 0.3530 0.5000 10.500 10.750 10.870 10.870 10.720 8.830 9.010 0.00000 0.00 318 0.00 0.00 0.0310 43.61 2.32 0.1950 100.900 40.940 12.773 11.402 1.379 13.083 11.550 1.531
WS7MET_125 2017-09-29 06:45:00 125 30483.0 10.700 10.900 11.020 11.050 10.900 88.800 87.800 8.940 9.110 4.03 0.00 13.960 13.780 13.100 12.630 12.520 10.770 10.970 11.070 11.150 10.940 9.060 9.200 4.03 0.00 0.0000 0.4000 10.600 10.850 10.970 10.980 10.870 8.810 9.020 0.00000 0.00 318 0.00 0.00 0.0000 0.00 0.00 0.2100 147.800 36.940 12.867 11.433 1.441 13.170 11.565 1.607
WS7MET_125 2017-09-29 06:40:00 125 30483.0 10.800 11.020 11.140 11.170 10.980 88.300 87.000 8.950 9.100 4.03 0.00 13.970 13.780 13.100 12.630 12.520 10.970 11.070 11.200 11.250 11.040 9.170 9.180 4.03 0.00 0.0000 0.5000 10.700 10.970 11.070 11.080 10.940 8.880 8.970 0.00000 0.00 318 0.00 0.00 0.0000 0.00 0.00 0.2200 55.730 23.440 12.953 11.441 1.515 13.275 11.558 1.726
WS7MET_125 2017-09-29 06:35:00 125 30483.0 10.890 11.130 11.270 11.290 11.130 88.700 87.100 9.110 9.230 3.83 0.00 13.970 13.790 13.090 12.630 12.520 11.040 11.190 11.320 11.380 11.250 9.290 9.340 4.03 0.00 0.1830 0.4000 10.770 11.070 11.200 11.210 11.030 8.960 9.140 0.00000 0.00 318 0.00 0.00 0.0210 345.70 15.81 0.2900 339.000 68.810 13.030 11.565 1.472 13.381 11.659 1.726
WS7MET_125 2017-09-29 06:30:00 125 30483.0 10.960 11.230 11.360 11.370 11.280 88.000 86.100 9.060 9.140 2.68 0.00 13.980 13.790 13.090 12.630 12.520 11.140 11.280 11.400 11.420 11.350 9.360 9.310 2.68 0.00 0.4830 0.6000 10.870 11.190 11.330 11.280 11.250 8.740 9.000 0.00000 0.00 318 0.00 0.00 0.1520 116.80 2.72 0.3500 130.900 27.510 13.091 11.526 1.571 13.452 11.589 1.870
WS7MET_125 2017-09-29 06:25:00 125 30483.0 11.010 11.290 11.420 11.400 11.440 86.900 85.300 8.930 9.030 2.68 0.00 13.990 13.790 13.090 12.630 12.520 11.180 11.310 11.430 11.450 11.510 9.150 9.110 2.68 0.00 0.2350 0.4000 10.940 11.280 11.400 11.350 11.350 8.800 8.940 0.00000 0.00 318 0.00 0.00 0.0470 310.70 22.50 0.2150 295.300 20.060 13.135 11.426 1.721 13.479 11.503 1.981
WS7MET_125 2017-09-29 06:20:00 125 30483.0 10.990 11.250 11.370 11.370 11.440 87.200 85.400 8.950 9.010 2.68 0.00 14.000 13.790 13.090 12.640 12.520 11.040 11.280 11.400 11.420 11.470 9.100 9.090 2.68 0.00 0.4970 0.5000 10.910 11.220 11.320 11.310 11.330 8.840 8.930 0.00000 0.00 318 0.00 0.00 0.1730 340.00 13.12 0.2950 349.100 24.700 13.117 11.441 1.679 13.452 11.488 1.964
WS7MET_125 2017-09-29 06:15:00 125 30483.0 11.030 11.250 11.350 11.410 11.270 86.100 84.800 8.810 8.970 2.48 0.00 14.000 13.790 13.090 12.640 12.520 11.180 11.300 11.410 11.490 11.320 9.060 9.070 2.68 0.00 0.4900 0.6000 10.910 11.220 11.310 11.350 11.220 8.630 8.870 0.00000 0.00 318 0.00 0.00 0.0650 292.10 24.13 0.3000 322.600 56.850 13.152 11.333 1.828 13.488 11.457 2.050
WS7MET_125 2017-09-29 06:10:00 125 30483.0 11.070 11.350 11.470 11.480 11.350 85.600 84.100 8.750 8.890 0.81 0.00 14.010 13.790 13.090 12.640 12.530 11.210 11.410 11.540 11.520 11.430 8.850 9.040 1.34 0.00 0.0000 0.4000 10.940 11.300 11.420 11.390 11.320 8.620 8.750 0.00000 0.00 318 0.00 0.00 0.0000 0.00 0.00 0.1650 77.060 42.510 13.187 11.287 1.899 13.551 11.395 2.155
WS7MET_125 2017-09-29 06:05:00 125 30483.0 11.100 11.460 11.580 11.560 11.570 85.500 83.000 8.760 8.790 0.00 0.00 14.010 13.790 13.090 12.640 12.530 11.180 11.480 11.600 11.620 11.710 8.920 8.920 0.00 0.00 0.3070 0.4000 11.010 11.420 11.540 11.490 11.450 8.650 8.690 0.00000 0.00 318 0.00 0.00 0.0370 355.70 1.16 0.1650 263.700 63.990 13.214 11.295 1.916 13.623 11.318 2.316
WS7MET_125 2017-09-29 06:00:00 125 30483.0 11.090 11.440 11.560 11.520 11.610 85.700 83.000 8.790 8.740 0.00 0.00 14.010 13.790 13.090 12.640 12.530 11.180 11.480 11.590 11.590 11.710 8.970 8.820 0.00 0.00 0.4180 0.6000 10.970 11.400 11.520 11.450 11.510 8.660 8.610 0.00000 0.00 318 0.00 0.00 0.2590 327.30 36.22 0.4300 340.800 24.530 13.205 11.318 1.888 13.587 11.280 2.310
WS7MET_125 2017-09-29 05:55:00 125 30483.0 11.020 11.360 11.460 11.400 11.570 86.600 84.100 8.880 8.830 0.00 0.00 14.020 13.790 13.090 12.640 12.530 11.180 11.400 11.520 11.490 11.660 9.100 8.960 0.00 0.00 0.3460 0.5000 10.940 11.320 11.420 11.350 11.440 8.750 8.670 0.00000 0.00 318 0.00 0.00 0.1810 339.40 12.93 0.3100 358.700 27.970 13.144 11.387 1.761 13.479 11.349 2.143
WS7MET_125 2017-09-29 05:50:00 125 30483.0 10.940 11.290 11.370 11.340 11.380 86.100 84.300 8.710 8.790 0.00 0.00 14.030 13.790 13.090 12.640 12.530 11.040 11.320 11.410 11.380 11.440 8.890 8.850 0.00 0.00 0.5490 0.7000 10.840 11.260 11.340 11.210 11.360 8.580 8.610 0.00000 0.00 318 0.00 0.00 0.4100 324.90 11.14 0.5150 343.100 19.000 13.074 11.257 1.817 13.426 11.318 2.108
WS7MET_125 2017-09-29 05:45:00 125 30483.0 10.880 11.220 11.320 11.300 11.360 86.100 84.500 8.660 8.790 0.00 0.00 14.040 13.790 13.090 12.640 12.530 10.970 11.240 11.340 11.380 11.390 8.790 8.920 0.00 0.00 0.5100 0.6000 10.800 11.200 11.310 11.210 11.350 8.550 8.710 0.00000 0.00 318 0.00 0.00 0.1680 333.10 12.60 0.3550 345.400 15.670 13.022 11.219 1.810 13.390 11.318 2.075
WS7MET_125 2017-09-29 05:40:00 125 30483.0 10.820 11.170 11.270 11.230 11.340 86.600 84.400 8.680 8.700 0.00 0.00 14.050 13.790 13.090 12.640 12.530 10.910 11.200 11.300 11.310 11.370 8.840 8.770 0.00 0.00 0.5360 0.5000 10.700 11.140 11.230 11.140 11.290 8.530 8.590 0.00000 0.00 318 0.00 0.00 0.2920 348.60 0.50 0.3500 359.900 9.310 12.970 11.234 1.738 13.328 11.249 2.079
WS7MET_125 2017-09-29 05:35:00 125 30483.0 10.840 11.130 11.220 11.210 11.260 86.700 84.900 8.730 8.780 0.00 0.00 14.050 13.790 13.090 12.640 12.530 10.940 11.140 11.220 11.280 11.280 8.920 8.910 0.00 0.00 0.3590 0.5000 10.770 11.110 11.220 11.140 11.240 8.540 8.670 0.00000 0.00 318 0.00 0.00 0.1820 358.50 9.50 0.3750 20.040 10.240 12.987 11.272 1.727 13.310 11.310 2.010
WS7MET_125 2017-09-29 05:30:00 125 30483.0 10.870 11.160 11.250 11.230 11.260 87.200 85.400 8.840 8.880 0.00 0.00 14.060 13.790 13.090 12.640 12.530 10.940 11.180 11.280 11.310 11.310 8.980 8.970 0.00 0.00 0.5230 0.7000 10.770 11.140 11.220 11.140 11.220 8.640 8.790 0.00000 0.00 318 0.00 0.00 0.3390 13.53 11.98 0.4700 24.830 15.810 13.013 11.356 1.666 13.328 11.387 1.946
WS7MET_125 2017-09-29 05:25:00 125 30483.0 10.900 11.200 11.290 11.290 11.320 87.400 85.400 8.900 8.940 0.00 0.00 14.060 13.790 13.090 12.640 12.530 11.010 11.220 11.310 11.350 11.350 9.040 9.010 0.00 0.00 0.2680 0.4000 10.800 11.180 11.280 11.140 11.310 8.770 8.830 0.00000 0.00 318 0.00 0.00 0.0780 11.95 4.01 0.2650 33.960 15.680 13.039 11.402 1.643 13.381 11.433 1.954
WS7MET_125 2017-09-29 05:20:00 125 30483.0 10.900 11.230 11.320 11.320 11.350 87.800 86.300 8.970 9.120 0.00 0.00 14.070 13.790 13.090 12.640 12.540 11.010 11.240 11.340 11.380 11.390 9.130 9.250 0.00 0.00 0.3400 0.6000 10.840 11.220 11.320 11.250 11.300 8.800 9.000 0.00000 0.00 318 0.00 0.00 0.0910 8.52 12.77 0.2850 350.700 34.350 13.039 11.457 1.591 13.408 11.573 1.837
WS7MET_125 2017-09-29 05:15:00 125 30483.0 10.850 11.210 11.310 11.280 11.370 88.900 86.800 9.090 9.180 0.00 0.00 14.080 13.790 13.090 12.640 12.530 10.970 11.240 11.340 11.350 11.410 9.240 9.280 0.00 0.00 0.4640 0.7000 10.730 11.180 11.290 11.210 11.340 8.940 8.940 0.00000 0.00 318 0.00 0.00 0.2390 349.30 8.07 0.3600 13.400 17.490 12.996 11.550 1.443 13.372 11.620 1.765
WS7MET_125 2017-09-29 05:10:00 125 30483.0 10.780 11.160 11.280 11.260 11.340 89.000 86.800 9.050 9.150 0.00 0.00 14.080 13.790 13.090 12.640 12.540 10.840 11.180 11.300 11.350 11.390 9.230 9.280 0.00 0.00 0.6400 1.0000 10.730 11.130 11.260 11.210 11.290 8.870 8.920 0.00000 0.00 318 0.00 0.00 0.1300 290.90 36.67 0.3600 305.600 44.770 12.935 11.519 1.423 13.355 11.597 1.763
WS7MET_125 2017-09-29 05:05:00 125 30483.0 10.750 11.110 11.230 11.200 11.280 88.900 87.300 9.000 9.170 0.00 0.00 14.090 13.790 13.090 12.640 12.540 10.840 11.130 11.260 11.250 11.370 9.070 9.260 0.00 0.00 0.6010 0.7000 10.670 11.060 11.180 11.140 11.180 8.920 9.080 0.00000 0.00 318 0.00 0.00 0.2610 324.70 26.09 0.4250 344.600 29.370 12.910 11.480 1.433 13.302 11.612 1.689
WS7MET_125 2017-09-29 05:00:00 125 30483.0 10.790 11.090 11.200 11.190 11.210 88.500 86.900 8.970 9.110 0.00 0.00 14.100 13.790 13.090 12.640 12.540 10.940 11.110 11.230 11.250 11.310 9.120 9.160 0.00 0.00 0.2810 0.5000 10.700 11.060 11.180 11.140 11.120 8.840 9.040 0.00000 0.00 318 0.00 0.00 0.0510 290.20 25.23 0.3200 309.600 26.340 12.944 11.457 1.489 13.293 11.565 1.741
WS7MET_125 2017-09-29 04:55:00 125 30483.0 10.810 11.070 11.190 11.250 11.220 88.100 86.600 8.930 9.110 0.00 0.00 14.100 13.790 13.080 12.640 12.540 10.940 11.090 11.210 11.350 11.270 9.070 9.230 0.00 0.00 0.3790 0.5000 10.700 11.050 11.190 11.180 11.140 8.820 9.040 0.00000 0.00 318 0.00 0.00 0.1740 328.30 11.79 0.3800 337.800 14.090 12.961 11.426 1.542 13.346 11.565 1.788
WS7MET_125 2017-09-29 04:50:00 125 30483.0 10.910 11.120 11.230 11.300 11.190 87.400 86.300 8.910 9.110 0.00 0.00 14.100 13.790 13.080 12.640 12.540 11.070 11.170 11.270 11.380 11.280 9.100 9.180 0.00 0.00 0.0000 0.4000 10.840 11.070 11.190 11.210 11.140 8.820 9.060 0.00000 0.00 318 0.00 0.00 0.0000 0.00 0.00 0.2650 321.100 34.440 13.048 11.410 1.644 13.390 11.565 1.834
WS7MET_125 2017-09-29 04:45:00 125 30483.0 11.030 11.200 11.310 11.340 11.300 86.900 85.800 8.940 9.060 0.00 0.00 14.120 13.790 13.080 12.640 12.540 11.140 11.240 11.350 11.450 11.330 9.050 9.170 0.00 0.00 0.0000 0.4000 10.900 11.170 11.270 11.250 11.270 8.890 8.970 0.00000 0.00 318 0.00 0.00 0.0000 0.00 0.00 0.1700 32.790 32.820 13.152 11.433 1.723 13.426 11.526 1.906
WS7MET_125 2017-09-29 04:40:00 125 30483.0 11.150 11.310 11.400 11.440 11.320 86.500 85.500 8.990 9.100 0.00 0.00 14.120 13.790 13.080 12.640 12.540 11.280 11.390 11.480 11.550 11.390 9.140 9.160 0.00 0.00 0.1500 0.5000 11.040 11.250 11.350 11.310 11.280 8.830 8.980 0.00000 0.00 318 0.00 0.00 0.0210 234.80 0.47 0.1950 301.900 42.260 13.258 11.472 1.790 13.515 11.558 1.960
WS7MET_125 2017-09-29 04:35:00 125 30483.0 11.250 11.480 11.570 11.570 11.530 85.400 84.500 8.890 9.060 0.00 0.00 14.130 13.790 13.070 12.630 12.550 11.350 11.520 11.620 11.650 11.670 9.070 9.140 0.00 0.00 0.0390 0.6000 11.140 11.400 11.490 11.520 11.390 8.810 8.940 0.00000 0.00 318 0.00 0.00 0.0030 268.00 0.00 0.2550 298.200 34.020 13.346 11.395 1.948 13.632 11.526 2.113
WS7MET_125 2017-09-29 04:30:00 125 30483.0 11.270 11.530 11.620 11.590 11.710 85.300 84.300 8.900 9.050 0.00 0.00 14.130 13.790 13.070 12.630 12.550 11.350 11.540 11.630 11.720 11.740 9.030 9.150 0.00 0.00 0.3070 0.5000 11.210 11.510 11.590 11.480 11.670 8.780 8.930 0.00000 0.00 318 0.00 0.00 0.1390 17.01 5.34 0.3500 37.890 14.780 13.364 11.402 1.964 13.650 11.519 2.143
WS7MET_125 2017-09-29 04:25:00 125 30483.0 11.290 11.500 11.570 11.570 11.610 85.500 84.400 8.960 9.050 0.00 0.00 14.140 13.790 13.070 12.640 12.550 11.380 11.520 11.590 11.620 11.700 9.150 9.160 0.00 0.00 0.4380 0.6000 11.180 11.480 11.550 11.450 11.510 8.760 8.950 0.00000 0.00 318 0.00 0.00 0.3510 358.50 11.30 0.5150 15.230 6.170 13.381 11.449 1.940 13.632 11.519 2.127
WS7MET_125 2017-09-29 04:20:00 125 30483.0 11.370 11.570 11.660 11.710 11.640 85.100 83.900 8.960 9.090 0.00 0.00 14.140 13.790 13.080 12.640 12.540 11.520 11.610 11.690 11.790 11.730 9.080 9.180 0.00 0.00 0.4250 0.5000 11.280 11.520 11.600 11.590 11.530 8.850 8.990 0.00000 0.00 318 0.00 0.00 0.3350 339.20 3.47 0.4300 351.200 5.846 13.452 11.449 2.004 13.759 11.550 2.215
WS7MET_125 2017-09-29 04:15:00 125 30483.0 11.460 11.670 11.750 11.810 11.710 84.600 83.700 8.980 9.150 0.00 0.00 14.150 13.790 13.080 12.640 12.550 11.550 11.720 11.830 11.930 11.820 9.070 9.270 0.00 0.00 0.3330 0.5000 11.350 11.610 11.700 11.690 11.640 8.820 9.050 0.00000 0.00 318 0.00 0.00 0.1650 319.90 7.30 0.3700 335.700 18.410 13.533 11.464 2.084 13.850 11.597 2.258
WS7MET_125 2017-09-29 04:10:00 125 30483.0 11.570 11.780 11.880 11.920 11.870 84.300 83.300 9.010 9.190 0.00 0.00 14.160 13.790 13.080 12.640 12.550 11.690 11.850 11.930 12.000 11.920 9.120 9.320 0.00 0.00 0.4180 0.6000 11.480 11.720 11.830 11.830 11.840 8.870 9.080 0.00000 0.00 318 0.00 0.00 0.2250 340.40 4.29 0.3450 355.100 9.490 13.632 11.488 2.140 13.951 11.628 2.330
WS7MET_125 2017-09-29 04:05:00 125 30483.0 11.670 11.890 11.990 12.030 11.970 83.500 82.400 8.980 9.140 0.00 0.00 14.160 13.790 13.070 12.640 12.560 11.790 11.950 12.030 12.130 12.020 9.090 9.230 0.00 0.00 0.2220 0.5000 11.590 11.850 11.930 11.930 11.920 8.880 9.040 0.00000 0.00 318 0.00 0.00 0.1070 327.40 5.64 0.3150 346.900 15.570 13.722 11.464 2.264 14.052 11.589 2.473
WS7MET_125 2017-09-29 04:00:00 125 30483.0 11.760 12.000 12.100 12.140 12.070 83.300 81.900 9.030 9.160 0.00 0.00 14.170 13.790 13.070 12.640 12.550 11.890 12.050 12.150 12.230 12.170 9.140 9.260 0.00 0.00 0.3400 0.5000 11.690 11.950 12.040 12.000 12.040 8.950 9.060 0.00000 0.00 318 0.00 0.00 0.2100 331.50 11.75 0.3950 340.000 10.630 13.804 11.503 2.305 14.154 11.604 2.562
WS7MET_125 2017-09-29 03:55:00 125 30483.0 11.860 12.120 12.210 12.280 12.200 83.000 81.500 9.070 9.210 0.00 0.00 14.170 13.790 13.070 12.640 12.550 12.000 12.160 12.260 12.370 12.250 9.220 9.290 0.00 0.00 0.2610 0.4000 11.760 12.070 12.160 12.170 12.100 8.940 9.110 0.00000 0.00 318 0.00 0.00 0.0450 350.30 0.79 0.2900 9.450 18.310 13.896 11.534 2.362 14.286 11.644 2.643
WS7MET_125 2017-09-29 03:50:00 125 30483.0 11.940 12.220 12.330 12.380 12.340 82.800 81.300 9.120 9.270 0.00 0.00 14.180 13.790 13.070 12.640 12.550 12.030 12.260 12.380 12.440 12.410 9.250 9.370 0.00 0.00 0.2550 0.4000 11.830 12.180 12.280 12.300 12.260 8.940 9.160 0.00000 0.00 318 0.00 0.00 0.0240 18.91 0.37 0.1800 31.490 39.590 13.969 11.573 2.403 14.380 11.691 2.689
WS7MET_125 2017-09-29 03:45:00 125 30483.0 11.930 12.280 12.400 12.410 12.460 83.100 81.200 9.160 9.300 0.00 0.00 14.190 13.790 13.070 12.650 12.550 12.030 12.280 12.410 12.470 12.510 9.240 9.380 0.00 0.00 0.5030 0.6000 11.830 12.260 12.380 12.340 12.380 9.030 9.170 0.00000 0.00 318 0.00 0.00 0.2100 342.50 11.20 0.3600 358.000 18.210 13.960 11.604 2.359 14.408 11.715 2.709
WS7MET_125 2017-09-29 03:40:00 125 30483.0 11.910 12.250 12.360 12.350 12.470 84.200 82.200 9.340 9.420 0.00 0.00 14.190 13.790 13.070 12.640 12.550 12.000 12.280 12.400 12.410 12.490 9.540 9.590 0.00 0.00 0.5290 0.7000 11.830 12.200 12.300 12.270 12.410 9.120 9.250 0.00000 0.00 318 0.00 0.00 0.3770 345.80 7.55 0.4350 0.921 23.010 13.941 11.746 2.203 14.351 11.810 2.555
WS7MET_125 2017-09-29 03:35:00 125 30483.0 11.930 12.170 12.290 12.350 12.330 84.200 82.700 9.360 9.500 0.00 0.00 14.210 13.790 13.070 12.640 12.550 12.030 12.200 12.300 12.440 12.400 9.470 9.620 0.00 0.00 0.5620 0.7000 11.830 12.160 12.280 12.270 12.290 9.260 9.410 0.00000 0.00 318 0.00 0.00 0.3710 336.40 16.64 0.5050 355.300 11.400 13.960 11.762 2.206 14.351 11.873 2.483
WS7MET_125 2017-09-29 03:30:00 125 30483.0 12.060 12.210 12.340 12.500 12.270 83.300 82.100 9.330 9.540 0.00 0.00 14.210 13.790 13.070 12.640 12.550 12.230 12.290 12.420 12.640 12.340 9.470 9.640 0.00 0.00 0.2220 0.5000 11.890 12.160 12.290 12.370 12.230 9.210 9.460 0.00000 0.00 318 0.00 0.00 0.0440 303.30 1.87 0.3600 317.400 17.040 14.080 11.738 2.351 14.494 11.905 2.594
WS7MET_125 2017-09-29 03:25:00 125 30483.0 12.290 12.370 12.490 12.640 12.460 81.900 81.000 9.300 9.470 0.00 0.00 14.210 13.790 13.070 12.640 12.560 12.510 12.440 12.570 12.750 12.520 9.420 9.580 0.00 0.00 0.3590 0.5000 12.130 12.300 12.430 12.540 12.380 9.150 9.340 0.00000 0.00 318 0.00 0.00 0.0900 323.70 1.97 0.3250 327.000 16.260 14.295 11.715 2.587 14.627 11.849 2.779
WS7MET_125 2017-09-29 03:20:00 125 30483.0 12.470 12.560 12.690 12.780 12.490 80.000 79.140 9.140 9.270 0.00 0.00 14.220 13.790 13.070 12.640 12.560 12.610 12.670 12.810 12.850 12.640 9.240 9.390 0.00 0.00 0.0000 0.3000 12.300 12.440 12.570 12.680 12.390 8.970 9.190 0.00000 0.00 318 0.00 0.00 0.0000 0.00 0.00 0.1950 42.760 35.250 14.465 11.589 2.893 14.762 11.691 3.079
WS7MET_125 2017-09-29 03:15:00 125 30483.0 12.700 12.810 12.930 13.010 12.750 78.600 77.550 9.090 9.190 0.00 0.00 14.230 13.780 13.070 12.640 12.560 12.850 12.940 13.040 13.120 12.890 9.410 9.330 0.00 0.00 0.2680 0.5000 12.540 12.690 12.820 12.880 12.660 8.870 9.040 0.00000 0.00 318 0.00 0.00 0.0640 54.45 5.21 0.2750 95.600 20.920 14.685 11.550 3.143 14.986 11.628 3.364
WS7MET_125 2017-09-29 03:10:00 125 30483.0 12.810 13.070 13.160 13.270 13.060 77.350 75.780 8.960 9.100 0.00 0.00 14.230 13.780 13.070 12.640 12.570 13.020 13.170 13.250 13.390 13.210 9.200 9.200 0.00 0.00 0.2480 0.6000 12.680 12.950 13.040 13.160 12.910 8.800 9.010 0.00000 0.00 318 0.00 0.00 0.0290 359.60 36.42 0.2350 348.000 28.060 14.791 11.449 3.350 15.243 11.558 3.692
WS7MET_125 2017-09-29 03:05:00 125 30483.0 12.870 13.250 13.330 13.360 13.320 78.060 75.600 9.150 9.150 0.00 0.00 14.240 13.770 13.070 12.640 12.570 13.050 13.310 13.370 13.430 13.440 9.580 9.430 0.00 0.00 0.0000 0.4000 12.610 13.170 13.270 13.260 13.180 8.630 9.030 0.00000 0.00 318 0.00 0.00 0.0000 0.00 0.00 0.1950 314.500 38.100 14.850 11.597 3.258 15.333 11.597 3.741
WS7MET_125 2017-09-29 03:00:00 125 30483.0 12.830 13.290 13.360 13.320 13.440 77.690 75.140 9.040 9.020 0.00 0.00 14.250 13.770 13.070 12.640 12.570 13.050 13.320 13.380 13.430 13.470 9.400 9.210 0.00 0.00 0.4180 0.6000 12.640 13.260 13.340 13.220 13.410 8.850 8.840 0.00000 0.00 318 0.00 0.00 0.2120 316.50 2.87 0.3750 325.200 13.260 14.811 11.511 3.304 15.293 11.495 3.802
WS7MET_125 2017-09-29 02:55:00 125 30483.0 12.820 13.210 13.290 13.270 13.350 79.070 76.040 9.290 9.150 0.00 0.00 14.250 13.770 13.060 12.640 12.570 13.020 13.250 13.340 13.360 13.430 9.600 9.250 0.00 0.00 0.3790 0.6000 12.710 13.180 13.260 13.160 13.330 9.110 9.040 0.00000 0.00 318 0.00 0.00 0.1840 326.80 0.83 0.3650 343.200 11.990 14.801 11.707 3.098 15.243 11.597 3.652
WS7MET_125 2017-09-29 02:50:00 125 30483.0 12.770 13.120 13.220 13.190 13.270 78.670 76.500 9.170 9.160 0.00 0.00 14.260 13.770 13.060 12.640 12.570 12.920 13.160 13.250 13.260 13.340 9.380 9.230 0.00 0.00 0.3720 0.5000 12.580 13.100 13.190 13.120 13.220 8.930 9.090 0.00000 0.00 318 0.00 0.00 0.3010 329.40 2.41 0.4500 340.800 6.125 14.753 11.612 3.147 15.164 11.604 3.563
WS7MET_125 2017-09-29 02:45:00 125 30483.0 12.750 13.060 13.160 13.120 13.190 77.970 76.470 9.020 9.090 0.00 0.00 14.260 13.770 13.060 12.640 12.570 12.850 13.100 13.190 13.190 13.240 9.180 9.170 0.00 0.00 0.4310 0.6000 12.640 13.030 13.130 13.020 13.140 8.890 8.970 0.00000 0.00 318 0.00 0.00 0.3600 331.50 0.56 0.4650 347.400 2.127 14.733 11.495 3.246 15.094 11.550 3.552
WS7MET_125 2017-09-29 02:40:00 125 30483.0 12.630 12.990 13.100 13.080 13.140 78.450 76.730 9.000 9.100 0.00 0.00 14.270 13.770 13.060 12.650 12.570 12.750 13.030 13.130 13.160 13.160 9.320 9.380 0.00 0.00 0.5160 0.6000 12.470 12.940 13.060 13.020 13.110 8.850 9.020 0.00000 0.00 318 0.00 0.00 0.4160 335.70 3.24 0.5300 346.000 5.161 14.618 11.480 3.150 15.055 11.558 3.503
WS7MET_125 2017-09-29 02:35:00 125 30483.0 12.610 12.930 13.060 13.060 13.100 78.800 77.160 9.040 9.160 0.00 0.00 14.270 13.770 13.060 12.650 12.580 12.750 12.940 13.060 13.160 13.120 9.220 9.420 0.00 0.00 0.5100 0.7000 12.510 12.920 13.040 12.990 13.070 8.870 9.020 0.00000 0.00 318 0.00 0.00 0.4300 336.90 0.85 0.5500 352.000 5.905 14.599 11.511 3.095 15.035 11.604 3.434
WS7MET_125 2017-09-29 02:30:00 125 30483.0 12.660 12.950 13.050 13.060 13.070 78.220 76.600 8.980 9.050 0.00 0.00 14.280 13.770 13.050 12.630 12.580 12.780 12.960 13.060 13.160 13.070 9.100 9.170 0.00 0.00 0.5680 0.6000 12.540 12.940 13.040 12.990 13.030 8.850 8.980 0.00000 0.00 318 0.00 0.00 0.4020 336.90 6.30 0.5100 348.600 7.492 14.647 11.464 3.190 15.035 11.519 3.518
WS7MET_125 2017-09-29 02:25:00 125 30483.0 12.700 12.990 13.100 13.110 13.120 78.250 76.550 9.020 9.090 0.00 0.00 14.290 13.770 13.050 12.640 12.580 12.880 13.000 13.130 13.190 13.160 9.270 9.380 0.00 0.00 0.3990 0.6000 12.580 12.960 13.070 13.050 13.070 8.870 8.960 0.00000 0.00 318 0.00 0.00 0.3060 331.70 4.90 0.4550 343.300 8.090 14.685 11.495 3.194 15.085 11.550 3.537
WS7MET_125 2017-09-29 02:20:00 125 30483.0 12.650 12.990 13.110 13.090 13.180 78.670 76.520 9.050 9.070 0.00 0.00 14.290 13.770 13.040 12.640 12.580 12.850 13.000 13.130 13.160 13.220 9.330 9.150 0.00 0.00 0.4310 0.5000 12.540 12.980 13.090 13.020 13.130 8.850 8.950 0.00000 0.00 318 0.00 0.00 0.3540 343.40 7.24 0.4250 357.800 6.747 14.637 11.519 3.122 15.065 11.534 3.537
WS7MET_125 2017-09-29 02:15:00 125 30483.0 12.660 12.970 13.080 13.100 13.090 78.730 76.750 9.080 9.120 0.00 0.00 14.300 13.780 13.040 12.640 12.580 12.750 12.980 13.090 13.190 13.150 9.220 9.210 0.00 0.00 0.5230 0.6000 12.580 12.960 13.060 13.050 13.080 8.960 9.050 0.00000 0.00 318 0.00 0.00 0.4220 341.70 0.68 0.4600 356.100 5.214 14.647 11.542 3.115 15.075 11.573 3.505
WS7MET_125 2017-09-29 02:10:00 125 30483.0 12.710 13.000 13.120 13.180 13.090 79.000 76.810 9.170 9.210 0.00 0.00 14.310 13.760 13.050 12.640 12.590 12.850 13.040 13.180 13.260 13.140 9.420 9.390 0.00 0.00 0.4310 0.6000 12.610 12.970 13.090 13.090 13.050 9.000 9.070 0.00000 0.00 318 0.00 0.00 0.3340 334.30 1.52 0.4650 346.100 6.076 14.695 11.612 3.086 15.154 11.644 3.514
WS7MET_125 2017-09-29 02:05:00 125 30483.0 12.760 13.100 13.220 13.230 13.270 78.760 76.640 9.180 9.220 0.00 0.00 14.320 13.760 13.050 12.640 12.590 12.850 13.120 13.240 13.290 13.350 9.330 9.460 0.00 0.00 0.5100 0.6000 12.640 13.050 13.190 13.090 13.160 8.960 8.940 0.00000 0.00 318 0.00 0.00 0.3610 335.20 1.52 0.4550 347.100 5.075 14.743 11.620 3.131 15.203 11.652 3.551
WS7MET_125 2017-09-29 02:00:00 125 30483.0 12.780 13.090 13.210 13.200 13.310 77.420 75.410 8.950 8.960 0.00 0.00 14.320 13.760 13.040 12.640 12.590 12.920 13.100 13.230 13.290 13.320 9.050 9.050 0.00 0.00 0.3920 0.5000 12.680 13.070 13.190 13.160 13.280 8.840 8.870 0.00000 0.00 318 0.00 0.00 0.2680 340.10 4.27 0.3950 351.100 8.520 14.762 11.441 3.333 15.173 11.449 3.731
WS7MET_125 2017-09-29 01:55:00 125 30483.0 12.770 13.060 13.170 13.160 13.220 78.110 75.900 9.060 9.020 0.00 0.00 14.320 13.760 13.040 12.640 12.590 12.850 13.070 13.190 13.220 13.280 9.230 9.150 0.00 0.00 0.5880 0.6000 12.680 13.050 13.140 13.090 13.130 8.850 8.880 0.00000 0.00 318 0.00 0.00 0.4380 344.70 3.08 0.5000 358.300 5.904 14.753 11.526 3.229 15.134 11.495 3.647
WS7MET_125 2017-09-29 01:50:00 125 30483.0 12.790 13.070 13.160 13.190 13.130 77.170 75.700 8.900 9.010 0.00 0.00 14.330 13.760 13.040 12.640 12.590 12.880 13.100 13.210 13.290 13.200 9.070 9.110 0.00 0.00 0.5160 0.7000 12.710 13.060 13.140 13.090 13.070 8.800 8.910 0.00000 0.00 318 0.00 0.00 0.4430 327.10 4.11 0.5400 345.400 3.389 14.772 11.402 3.372 15.164 11.488 3.685
WS7MET_125 2017-09-29 01:45:00 125 30483.0 12.800 13.110 13.220 13.260 13.240 77.120 75.330 8.900 9.000 0.00 0.00 14.330 13.750 13.040 12.630 12.600 12.880 13.120 13.250 13.330 13.260 9.160 9.180 0.00 0.00 0.4570 0.7000 12.680 13.100 13.210 13.190 13.210 8.700 8.890 0.00000 0.00 318 0.00 0.00 0.3530 333.30 9.27 0.5000 346.800 7.281 14.782 11.402 3.382 15.233 11.480 3.758
WS7MET_125 2017-09-29 01:40:00 125 30483.0 12.850 13.160 13.290 13.320 13.320 77.450 75.010 9.010 9.000 0.00 0.00 14.340 13.750 13.040 12.630 12.600 12.990 13.190 13.310 13.430 13.350 9.220 9.240 0.00 0.00 0.3590 0.5000 12.750 13.130 13.250 13.190 13.240 8.800 8.860 0.00000 0.00 318 0.00 0.00 0.3020 339.10 0.20 0.3900 355.600 5.312 14.830 11.488 3.344 15.293 11.480 3.822
WS7MET_125 2017-09-29 01:35:00 125 30483.0 12.900 13.200 13.320 13.350 13.380 77.370 75.190 9.050 9.060 0.00 0.00 14.340 13.740 13.040 12.630 12.600 13.050 13.220 13.330 13.390 13.430 9.240 9.230 0.00 0.00 0.4700 0.6000 12.810 13.190 13.310 13.260 13.340 8.830 8.930 0.00000 0.00 318 0.00 0.00 0.3680 342.20 5.26 0.4250 356.900 6.349 14.879 11.519 3.367 15.323 11.526 3.802
WS7MET_125 2017-09-29 01:30:00 125 30483.0 12.900 13.230 13.340 13.380 13.350 77.420 75.450 9.060 9.140 0.00 0.00 14.350 13.740 13.040 12.630 12.600 13.020 13.250 13.350 13.460 13.370 9.370 9.290 0.00 0.00 0.4640 0.6000 12.780 13.210 13.310 13.330 13.320 8.770 9.030 0.00000 0.00 318 0.00 0.00 0.4000 341.40 0.36 0.5050 351.200 5.640 14.879 11.526 3.360 15.353 11.589 3.769
WS7MET_125 2017-09-29 01:25:00 125 30483.0 12.950 13.260 13.380 13.400 13.400 77.350 74.980 9.090 9.070 0.00 0.00 14.350 13.740 13.040 12.630 12.600 13.050 13.270 13.390 13.460 13.440 9.270 9.230 0.00 0.00 0.3920 0.6000 12.810 13.250 13.360 13.330 13.370 8.890 9.000 0.00000 0.00 318 0.00 0.00 0.3530 340.50 1.38 0.4350 350.800 4.556 14.928 11.550 3.381 15.373 11.534 3.846
WS7MET_125 2017-09-29 01:20:00 125 30483.0 12.990 13.290 13.400 13.440 13.420 76.850 74.780 9.040 9.070 0.00 0.00 14.360 13.740 13.040 12.630 12.600 13.120 13.310 13.420 13.500 13.470 9.230 9.190 0.00 0.00 0.5290 0.6000 12.810 13.260 13.390 13.360 13.390 8.840 8.990 0.00000 0.00 318 0.00 0.00 0.4660 344.20 0.92 0.4850 353.500 5.021 14.967 11.511 3.465 15.413 11.534 3.887
WS7MET_125 2017-09-29 01:15:00 125 30483.0 13.000 13.340 13.440 13.470 13.440 76.630 74.740 9.010 9.090 0.00 0.00 14.370 13.740 13.040 12.640 12.600 13.050 13.370 13.480 13.530 13.480 9.180 9.220 0.00 0.00 0.5030 0.7000 12.950 13.310 13.420 13.390 13.410 8.840 8.980 0.00000 0.00 318 0.00 0.00 0.4660 342.20 1.94 0.5250 353.700 7.338 14.976 11.488 3.500 15.443 11.550 3.901
WS7MET_125 2017-09-29 01:10:00 125 30483.0 13.010 13.370 13.480 13.470 13.490 76.410 74.660 8.970 9.070 0.00 0.00 14.370 13.740 13.040 12.630 12.610 13.090 13.370 13.500 13.530 13.530 9.230 9.130 0.00 0.00 0.5420 0.7000 12.920 13.350 13.480 13.430 13.440 8.790 8.990 0.00000 0.00 318 0.00 0.00 0.4370 331.90 6.22 0.5250 346.800 7.667 14.986 11.457 3.535 15.443 11.534 3.913
WS7MET_125 2017-09-29 01:05:00 125 30483.0 13.010 13.350 13.480 13.470 13.510 76.920 74.700 9.070 9.080 0.00 0.00 14.380 13.740 13.040 12.640 12.610 13.090 13.350 13.480 13.530 13.530 9.320 9.230 0.00 0.00 0.6140 0.6000 12.950 13.330 13.470 13.360 13.480 8.860 9.000 0.00000 0.00 318 0.00 0.00 0.4510 344.10 9.31 0.5250 358.300 8.780 14.986 11.534 3.459 15.443 11.542 3.907
WS7MET_125 2017-09-29 01:00:00 125 30483.0 13.050 13.370 13.480 13.490 13.500 76.940 74.720 9.110 9.110 0.00 0.00 14.390 13.740 13.040 12.630 12.610 13.120 13.370 13.500 13.530 13.520 9.380 9.210 0.00 0.00 0.5490 0.6000 12.950 13.350 13.480 13.430 13.470 8.910 9.000 0.00000 0.00 318 0.00 0.00 0.4240 337.70 5.07 0.5150 352.700 6.851 15.025 11.565 3.465 15.463 11.565 3.909
WS7MET_125 2017-09-29 00:55:00 125 30483.0 13.040 13.370 13.500 13.510 13.530 76.780 74.570 9.070 9.100 0.00 0.00 14.390 13.740 13.040 12.640 12.610 13.160 13.370 13.510 13.600 13.570 9.340 9.250 0.00 0.00 0.5160 0.6000 12.950 13.350 13.480 13.390 13.490 8.860 8.910 0.00000 0.00 318 0.00 0.00 0.4020 350.70 1.94 0.4750 4.629 7.624 15.016 11.534 3.487 15.483 11.558 3.937
WS7MET_125 2017-09-29 00:50:00 125 30483.0 13.090 13.410 13.520 13.500 13.540 76.980 74.500 9.160 9.070 0.00 0.00 14.390 13.730 13.040 12.640 12.610 13.220 13.420 13.520 13.570 13.550 9.330 9.220 0.00 0.00 0.4970 0.6000 13.020 13.370 13.500 13.390 13.500 8.960 8.940 0.00000 0.00 318 0.00 0.00 0.4240 337.20 3.45 0.5200 352.400 8.350 15.065 11.604 3.468 15.473 11.534 3.946
WS7MET_125 2017-09-29 00:45:00 125 30483.0 13.090 13.390 13.500 13.500 13.550 76.770 74.560 9.120 9.080 0.00 0.00 14.400 13.720 13.040 12.640 12.610 13.220 13.400 13.520 13.570 13.570 9.410 9.280 0.00 0.00 0.4970 0.6000 12.990 13.370 13.480 13.460 13.500 8.840 8.960 0.00000 0.00 318 0.00 0.00 0.4090 343.60 6.40 0.4950 354.000 7.691 15.065 11.573 3.500 15.473 11.542 3.936
WS7MET_125 2017-09-29 00:40:00 125 30483.0 13.070 13.380 13.500 13.510 13.540 76.560 74.800 9.060 9.140 0.00 0.00 14.410 13.720 13.030 12.640 12.620 13.160 13.390 13.520 13.570 13.560 9.220 9.230 0.00 0.00 0.5550 0.6000 12.990 13.370 13.500 13.460 13.500 8.890 9.050 0.00000 0.00 318 0.00 0.00 0.4410 345.00 2.90 0.5000 357.300 6.332 15.045 11.526 3.527 15.483 11.589 3.902
WS7MET_125 2017-09-29 00:35:00 125 30483.0 13.120 13.380 13.480 13.510 13.520 76.700 74.690 9.130 9.120 0.00 0.00 14.410 13.720 13.030 12.640 12.620 13.220 13.390 13.500 13.570 13.570 9.350 9.270 0.00 0.00 0.5880 0.6000 13.020 13.370 13.480 13.430 13.480 8.980 9.020 0.00000 0.00 318 0.00 0.00 0.4930 344.50 1.81 0.5000 356.300 5.107 15.094 11.581 3.517 15.483 11.573 3.919
WS7MET_125 2017-09-29 00:30:00 125 30483.0 13.180 13.430 13.530 13.580 13.480 75.480 74.120 8.950 9.070 0.00 0.00 14.410 13.720 13.030 12.640 12.620 13.260 13.490 13.580 13.700 13.570 9.160 9.160 0.00 0.00 0.5680 0.7000 13.090 13.390 13.500 13.500 13.440 8.810 9.010 0.00000 0.00 318 0.00 0.00 0.4750 333.20 1.98 0.5900 349.400 5.047 15.154 11.441 3.716 15.554 11.534 4.025
WS7MET_125 2017-09-29 00:25:00 125 30483.0 13.250 13.510 13.620 13.720 13.620 75.390 73.680 9.010 9.120 0.00 0.00 14.420 13.720 13.030 12.640 12.620 13.360 13.560 13.670 13.800 13.660 9.260 9.210 0.00 0.00 0.4900 0.7000 13.120 13.490 13.580 13.630 13.580 8.840 9.030 0.00000 0.00 318 0.00 0.00 0.3790 333.80 4.78 0.5200 347.000 8.120 15.223 11.488 3.746 15.697 11.573 4.131
WS7MET_125 2017-09-29 00:20:00 125 30483.0 13.360 13.630 13.750 13.810 13.730 74.810 73.210 9.000 9.110 0.00 0.00 14.420 13.720 13.030 12.640 12.610 13.460 13.700 13.810 13.910 13.800 9.170 9.210 0.00 0.00 0.4180 0.4000 13.290 13.560 13.690 13.740 13.650 8.850 9.000 0.00000 0.00 318 0.00 0.00 0.2730 350.40 2.23 0.3350 0.694 2.965 15.333 11.480 3.862 15.789 11.565 4.230
WS7MET_125 2017-09-29 00:15:00 125 30483.0 13.510 13.770 13.880 13.980 13.850 73.890 72.020 8.960 9.030 0.00 0.00 14.430 13.720 13.030 12.640 12.620 13.600 13.840 13.940 14.110 13.890 9.170 9.110 0.00 0.00 0.4510 0.5000 13.390 13.710 13.810 13.840 13.800 8.790 8.940 0.00000 0.00 318 0.00 0.00 0.2480 348.80 5.39 0.3400 352.600 16.560 15.483 11.449 4.043 15.964 11.503 4.467
WS7MET_125 2017-09-29 00:10:00 125 30483.0 13.680 13.960 14.070 14.190 13.960 72.670 70.920 8.880 9.010 0.00 0.00 14.430 13.720 13.030 12.640 12.630 13.800 14.070 14.190 14.320 14.120 9.070 9.140 0.00 0.00 0.4310 0.6000 13.570 13.840 13.950 14.040 13.820 8.680 8.930 0.00000 0.00 318 0.00 0.00 0.1560 326.30 7.23 0.3400 316.900 29.000 15.656 11.387 4.279 16.183 11.488 4.706
WS7MET_125 2017-09-29 00:05:00 125 30483.0 13.800 14.150 14.290 14.350 14.260 72.710 70.360 9.000 9.040 0.00 0.00 14.430 13.710 13.030 12.640 12.630 13.870 14.220 14.360 14.450 14.370 9.140 9.240 0.00 0.00 0.5100 0.6000 13.740 14.070 14.220 14.250 14.140 8.860 8.870 0.00000 0.00 318 0.00 0.00 0.3880 344.70 5.33 0.4700 355.900 9.720 15.778 11.480 4.306 16.351 11.511 4.847
WS7MET_125 2017-09-29 00:00:00 125 30483.0 13.810 14.200 14.340 14.350 14.430 73.000 70.090 9.070 8.990 0.00 0.00 14.440 13.700 13.030 12.640 12.630 13.970 14.240 14.360 14.420 14.460 9.520 9.160 0.00 0.00 0.4380 0.6000 13.700 14.150 14.300 14.250 14.390 8.780 8.870 0.00000 0.00 318 0.00 0.00 0.3510 331.30 5.55 0.4800 343.000 7.368 15.789 11.534 4.263 16.351 11.472 4.891
WS7MET_125 2017-09-28 23:55:00 125 30483.0 13.810 14.160 14.260 14.290 14.310 73.240 70.650 9.120 9.040 0.00 0.00 14.450 13.700 13.030 12.640 12.630 13.910 14.170 14.290 14.380 14.420 9.310 9.290 0.00 0.00 0.5030 0.6000 13.700 14.150 14.250 14.210 14.250 8.880 8.930 0.00000 0.00 318 0.00 0.00 0.3840 337.50 7.75 0.4850 354.400 7.905 15.789 11.573 4.225 16.288 11.511 4.781
WS7MET_125 2017-09-28 23:50:00 125 30483.0 13.810 14.150 14.250 14.310 14.240 72.180 70.340 8.900 8.990 0.00 0.00 14.450 13.700 13.030 12.640 12.630 13.910 14.150 14.270 14.420 14.270 9.090 9.100 0.00 0.00 0.7580 0.9000 13.770 14.130 14.240 14.180 14.210 8.780 8.880 0.00000 0.00 318 0.00 0.00 0.5950 327.90 0.68 0.6800 343.600 4.051 15.789 11.402 4.392 16.309 11.472 4.837
WS7MET_125 2017-09-28 23:45:00 125 30483.0 13.770 14.110 14.250 14.300 14.290 72.490 70.390 8.920 9.000 0.00 0.00 14.450 13.700 13.030 12.650 12.640 13.910 14.130 14.270 14.350 14.330 9.220 9.210 0.00 0.00 0.6010 0.8000 13.700 14.090 14.230 14.210 14.250 8.810 8.880 0.00000 0.00 318 0.00 0.00 0.5310 341.00 7.63 0.5950 353.900 5.537 15.748 11.418 4.332 16.298 11.480 4.826
WS7MET_125 2017-09-28 23:40:00 125 30483.0 13.740 14.080 14.240 14.260 14.300 73.150 70.690 9.030 9.020 0.00 0.00 14.450 13.700 13.030 12.640 12.640 13.840 14.100 14.250 14.320 14.350 9.270 9.200 0.00 0.00 0.6400 0.6000 13.700 14.070 14.210 14.180 14.270 8.880 8.900 0.00000 0.00 318 0.00 0.00 0.4620 344.20 1.14 0.5150 354.000 5.360 15.717 11.503 4.220 16.256 11.495 4.765
WS7MET_125 2017-09-28 23:35:00 125 30483.0 13.750 14.060 14.180 14.170 14.260 73.310 71.070 9.070 9.020 0.00 0.00 14.460 13.690 13.020 12.640 12.640 13.800 14.070 14.210 14.250 14.310 9.280 9.240 0.00 0.00 0.6600 0.8000 13.630 14.050 14.160 14.110 14.210 8.850 8.820 0.00000 0.00 318 0.00 0.00 0.5670 344.90 4.20 0.5950 0.298 5.089 15.727 11.534 4.198 16.162 11.495 4.676
WS7MET_125 2017-09-28 23:30:00 125 30483.0 13.790 14.080 14.160 14.170 14.150 72.180 70.600 8.880 8.920 0.00 0.00 14.470 13.680 13.020 12.640 12.640 13.840 14.090 14.170 14.250 14.210 9.150 9.140 0.00 0.00 0.6400 1.0000 13.740 14.070 14.140 14.110 14.090 8.680 8.780 0.00000 0.00 318 0.00 0.00 0.4710 317.20 7.11 0.6050 334.300 6.712 15.768 11.387 4.387 16.162 11.418 4.752
WS7MET_125 2017-09-28 23:25:00 125 30483.0 13.920 14.160 14.250 14.360 14.220 72.240 70.290 9.020 9.030 0.00 0.00 14.470 13.680 13.020 12.640 12.640 13.970 14.240 14.330 14.490 14.340 9.320 9.180 0.00 0.00 0.4380 0.7000 13.840 14.090 14.170 14.210 14.120 8.840 8.920 0.00000 0.00 318 0.00 0.00 0.2690 316.80 14.81 0.4500 330.600 10.330 15.902 11.495 4.414 16.362 11.503 4.861
WS7MET_125 2017-09-28 23:20:00 125 30483.0 14.040 14.290 14.410 14.510 14.420 71.380 70.170 8.950 9.150 0.00 0.00 14.470 13.680 13.020 12.650 12.650 14.180 14.340 14.460 14.550 14.460 9.070 9.250 0.00 0.00 0.3660 0.5000 13.940 14.240 14.350 14.420 14.350 8.810 9.000 0.00000 0.00 318 0.00 0.00 0.2260 1.80 2.53 0.3250 9.650 10.810 16.026 11.441 4.587 16.521 11.597 4.928
WS7MET_125 2017-09-28 23:15:00 125 30483.0 14.180 14.410 14.520 14.600 14.520 70.220 68.750 8.840 8.940 0.00 0.00 14.470 13.680 13.030 12.650 12.640 14.350 14.480 14.590 14.690 14.560 9.110 9.160 0.00 0.00 0.3990 0.6000 13.970 14.340 14.460 14.490 14.430 8.560 8.740 0.00000 0.00 318 0.00 0.00 0.2400 341.70 11.58 0.3750 355.200 14.610 16.172 11.356 4.816 16.618 11.433 5.193
WS7MET_125 2017-09-28 23:10:00 125 30483.0 14.330 14.580 14.690 14.780 14.650 69.740 67.660 8.890 8.870 0.00 0.00 14.470 13.680 13.030 12.650 12.650 14.490 14.670 14.780 14.900 14.740 9.100 9.010 0.00 0.00 0.4180 0.6000 14.180 14.490 14.590 14.660 14.570 8.640 8.750 0.00000 0.00 318 0.00 0.00 0.1820 25.12 5.36 0.3450 39.100 13.470 16.330 11.395 4.942 16.812 11.379 5.437
WS7MET_125 2017-09-28 23:05:00 125 30483.0 14.470 14.770 14.890 14.980 14.840 69.770 66.860 9.030 8.880 0.00 0.00 14.480 13.670 13.030 12.650 12.650 14.660 14.880 14.970 15.100 14.930 9.430 9.040 0.00 0.00 0.4570 0.6000 14.320 14.680 14.790 14.860 14.740 8.680 8.770 0.00000 0.00 318 0.00 0.00 0.2210 350.00 14.11 0.3500 2.976 23.330 16.479 11.503 4.982 17.030 11.387 5.644
WS7MET_125 2017-09-28 23:00:00 125 30483.0 14.600 14.950 15.050 15.120 15.050 68.220 65.660 8.820 8.750 0.00 0.00 14.490 13.670 13.030 12.650 12.650 14.660 14.980 15.110 15.240 15.140 9.090 8.870 0.00 0.00 0.3990 0.6000 14.490 14.890 14.980 15.070 14.940 8.560 8.680 0.00000 0.00 318 0.00 0.00 0.2800 317.90 4.99 0.4400 335.300 10.680 16.618 11.341 5.281 17.184 11.287 5.901
WS7MET_125 2017-09-28 22:55:00 125 30483.0 14.690 15.050 15.150 15.190 15.140 68.170 65.320 8.900 8.740 0.00 0.00 14.490 13.660 13.030 12.650 12.650 14.860 15.110 15.190 15.270 15.200 9.330 9.130 0.00 0.00 0.4640 0.6000 14.550 14.980 15.110 15.130 15.060 8.620 8.560 0.00000 0.00 318 0.00 0.00 0.3150 328.10 0.83 0.4550 341.200 9.080 16.715 11.402 5.320 17.262 11.280 5.986
WS7MET_125 2017-09-28 22:50:00 125 30483.0 14.760 15.100 15.200 15.190 15.220 66.980 64.530 8.700 8.560 0.00 0.00 14.490 13.660 13.030 12.650 12.650 14.830 15.110 15.210 15.270 15.270 9.140 8.690 0.00 0.00 0.5950 0.7000 14.660 15.070 15.180 15.100 15.190 8.440 8.460 0.00000 0.00 318 0.00 0.00 0.4570 327.10 1.04 0.5650 346.300 4.406 16.790 11.249 5.544 17.262 11.143 6.123
WS7MET_125 2017-09-28 22:45:00 125 30483.0 14.690 15.040 15.150 15.120 15.190 66.340 64.820 8.500 8.570 0.00 0.00 14.490 13.660 13.030 12.650 12.650 14.830 15.070 15.180 15.240 15.220 8.730 8.670 0.00 0.00 0.5230 0.7000 14.590 15.030 15.120 15.030 15.140 8.330 8.470 0.00000 0.00 318 0.00 0.00 0.4140 332.30 3.56 0.5350 346.000 5.070 16.715 11.098 5.626 17.184 11.151 6.045
WS7MET_125 2017-09-28 22:40:00 125 30483.0 14.620 14.990 15.110 15.130 15.120 67.350 65.170 8.650 8.650 0.00 0.00 14.500 13.660 13.030 12.660 12.650 14.730 15.030 15.120 15.200 15.140 8.940 8.760 0.00 0.00 0.5420 0.7000 14.550 14.940 15.090 15.070 15.100 8.550 8.540 0.00000 0.00 318 0.00 0.00 0.4970 332.90 0.81 0.6150 344.200 4.128 16.639 11.211 5.433 17.195 11.211 5.989
WS7MET_125 2017-09-28 22:35:00 125 30483.0 14.640 14.950 15.100 15.150 15.110 68.370 66.000 8.890 8.850 0.00 0.00 14.500 13.650 13.030 12.660 12.660 14.730 14.970 15.120 15.240 15.190 9.190 9.290 0.00 0.00 0.6010 0.8000 14.550 14.940 15.090 15.100 15.080 8.590 8.710 0.00000 0.00 318 0.00 0.00 0.5240 340.20 5.90 0.6400 353.100 5.371 16.661 11.395 5.270 17.217 11.364 5.854
WS7MET_125 2017-09-28 22:30:00 125 30483.0 14.650 14.980 15.100 15.140 15.120 68.160 66.080 8.860 8.870 0.00 0.00 14.500 13.640 13.020 12.650 12.660 14.760 14.980 15.120 15.240 15.180 9.190 9.340 0.00 0.00 0.5750 0.7000 14.520 14.960 15.090 15.100 15.050 8.470 8.690 0.00000 0.00 318 0.00 0.00 0.4870 340.80 2.31 0.5650 351.800 3.925 16.671 11.372 5.308 17.206 11.379 5.836
WS7MET_125 2017-09-28 22:25:00 125 30483.0 14.730 15.040 15.180 15.250 15.140 68.070 65.550 8.920 8.850 0.00 0.00 14.500 13.640 13.020 12.650 12.660 14.860 15.090 15.230 15.340 15.200 9.290 9.130 0.00 0.00 0.6530 0.7000 14.620 14.980 15.120 15.130 15.070 8.690 8.680 0.00000 0.00 318 0.00 0.00 0.4760 343.80 3.22 0.5050 353.800 4.787 16.758 11.418 5.351 17.328 11.364 5.970
WS7MET_125 2017-09-28 22:20:00 125 30483.0 14.800 15.190 15.310 15.400 15.310 67.390 64.880 8.840 8.840 0.00 0.00 14.500 13.640 13.020 12.650 12.660 14.860 15.240 15.350 15.480 15.410 9.010 9.050 0.00 0.00 0.6210 0.6000 14.730 15.100 15.240 15.310 15.200 8.720 8.720 0.00000 0.00 318 0.00 0.00 0.4570 351.40 7.24 0.4900 2.050 7.224 16.834 11.356 5.489 17.496 11.356 6.145
WS7MET_125 2017-09-28 22:15:00 125 30483.0 14.920 15.250 15.370 15.450 15.410 66.860 64.930 8.830 8.900 0.00 0.00 14.500 13.630 13.020 12.650 12.660 15.100 15.280 15.390 15.510 15.440 9.160 9.130 0.00 0.00 0.4900 0.7000 14.790 15.220 15.350 15.340 15.390 8.590 8.760 0.00000 0.00 318 0.00 0.00 0.4310 355.80 5.29 0.5400 9.370 6.339 16.964 11.349 5.622 17.552 11.402 6.156
WS7MET_125 2017-09-28 22:10:00 125 30483.0 15.020 15.310 15.420 15.490 15.390 65.900 64.320 8.710 8.800 0.00 0.00 14.510 13.630 13.020 12.650 12.670 15.270 15.370 15.490 15.610 15.430 8.950 8.900 0.00 0.00 0.5230 0.6000 14.830 15.280 15.390 15.410 15.360 8.530 8.730 0.00000 0.00 318 0.00 0.00 0.4590 346.40 1.77 0.5250 359.000 7.700 17.074 11.257 5.822 17.597 11.326 6.279
WS7MET_125 2017-09-28 22:05:00 125 30483.0 15.140 15.450 15.570 15.610 15.520 65.850 64.100 8.810 8.860 0.00 0.00 14.510 13.630 13.020 12.650 12.680 15.270 15.500 15.630 15.680 15.590 8.960 8.940 0.00 0.00 0.6660 0.8000 15.000 15.380 15.490 15.510 15.430 8.700 8.760 0.00000 0.00 318 0.00 0.00 0.5080 347.60 5.70 0.5750 1.964 6.908 17.206 11.333 5.876 17.733 11.372 6.366
WS7MET_125 2017-09-28 22:00:00 125 30483.0 15.240 15.570 15.700 15.770 15.690 65.650 63.440 8.860 8.860 0.00 0.00 14.510 13.610 13.020 12.650 12.680 15.410 15.630 15.760 15.850 15.780 9.140 8.970 0.00 0.00 0.5550 0.6000 15.030 15.500 15.630 15.650 15.600 8.630 8.740 0.00000 0.00 318 0.00 0.00 0.4650 342.60 2.19 0.5100 357.200 6.468 17.317 11.372 5.948 17.916 11.372 6.550
WS7MET_125 2017-09-28 21:55:00 125 30483.0 15.330 15.650 15.770 15.820 15.790 64.830 63.210 8.760 8.860 0.00 0.00 14.510 13.610 13.020 12.650 12.690 15.510 15.700 15.790 15.920 15.820 9.090 8.970 0.00 0.00 0.5620 0.6000 15.170 15.630 15.740 15.680 15.770 8.550 8.720 0.00000 0.00 318 0.00 0.00 0.4770 346.30 7.49 0.5200 357.200 5.007 17.418 11.295 6.126 17.973 11.372 6.612
WS7MET_125 2017-09-28 21:50:00 125 30483.0 15.370 15.710 15.860 15.960 15.870 65.270 62.860 8.900 8.900 0.00 0.00 14.510 13.610 13.020 12.650 12.690 15.510 15.730 15.910 16.090 15.940 9.190 9.100 0.00 0.00 0.6790 0.7000 15.270 15.690 15.790 15.890 15.780 8.690 8.720 0.00000 0.00 318 0.00 0.00 0.5040 339.20 7.76 0.5550 348.400 13.520 17.462 11.402 6.065 18.135 11.402 6.735
WS7MET_125 2017-09-28 21:45:00 125 30483.0 15.450 15.750 15.920 16.020 15.930 66.740 63.040 9.310 9.010 0.00 0.00 14.510 13.600 13.020 12.650 12.690 15.580 15.770 15.940 16.090 15.950 9.560 9.360 0.00 0.00 0.7510 0.9000 15.370 15.730 15.900 15.920 15.890 9.000 8.870 0.00000 0.00 318 0.00 0.00 0.5960 340.30 6.33 0.6600 353.300 6.686 17.552 11.722 5.838 18.204 11.488 6.728
WS7MET_125 2017-09-28 21:40:00 125 30483.0 15.520 15.810 15.960 16.050 15.970 66.010 63.010 9.210 9.030 0.00 0.00 14.510 13.600 13.020 12.650 12.700 15.710 15.840 15.970 16.120 16.010 9.610 9.260 0.00 0.00 0.8040 0.8000 15.370 15.780 15.940 15.950 15.950 8.880 8.890 0.00000 0.00 318 0.00 0.00 0.5680 342.10 3.26 0.6500 353.800 7.458 17.631 11.644 5.993 18.239 11.503 6.747
WS7MET_125 2017-09-28 21:35:00 125 30483.0 15.530 15.870 16.000 16.090 16.030 64.770 62.280 8.940 8.890 0.00 0.00 14.510 13.590 13.020 12.660 12.700 15.680 15.890 16.010 16.160 16.060 9.170 8.960 0.00 0.00 0.6010 0.7000 15.370 15.840 15.980 16.020 15.970 8.670 8.820 0.00000 0.00 318 0.00 0.00 0.4820 343.90 4.62 0.5000 357.000 7.717 17.642 11.433 6.215 18.286 11.395 6.897
WS7MET_125 2017-09-28 21:30:00 125 30483.0 15.550 15.890 16.020 16.140 16.070 65.910 62.830 9.220 9.070 0.00 0.00 14.510 13.590 13.020 12.660 12.700 15.750 15.910 16.020 16.230 16.100 9.640 9.530 0.00 0.00 0.5100 0.7000 15.370 15.870 16.000 16.060 16.060 8.740 8.810 0.00000 0.00 318 0.00 0.00 0.3880 342.40 0.39 0.4600 352.000 7.750 17.665 11.652 6.022 18.344 11.534 6.819
WS7MET_125 2017-09-28 21:25:00 125 30483.0 15.680 15.970 16.080 16.200 16.080 65.210 62.760 9.180 9.110 0.00 0.00 14.510 13.590 13.020 12.650 12.710 15.780 15.990 16.130 16.290 16.130 9.740 9.690 0.00 0.00 0.5030 0.6000 15.580 15.910 16.020 16.090 16.010 8.650 8.800 0.00000 0.00 318 0.00 0.00 0.4220 342.40 0.44 0.4650 351.400 5.159 17.813 11.620 6.197 18.415 11.565 6.858
WS7MET_125 2017-09-28 21:20:00 125 30483.0 15.760 16.060 16.190 16.300 16.200 64.920 62.150 9.200 9.060 0.00 0.00 14.510 13.590 13.020 12.650 12.710 15.890 16.110 16.250 16.400 16.290 9.500 9.430 0.00 0.00 0.5360 0.6000 15.610 16.000 16.130 16.190 16.120 8.840 8.920 0.00000 0.00 318 0.00 0.00 0.3760 344.10 1.26 0.4200 354.600 8.400 17.904 11.636 6.281 18.532 11.526 7.015
WS7MET_125 2017-09-28 21:15:00 125 30483.0 15.860 16.160 16.310 16.390 16.310 63.220 61.260 8.900 8.930 0.00 0.00 14.510 13.580 13.010 12.650 12.710 15.990 16.240 16.350 16.500 16.370 9.060 9.050 0.00 0.00 0.5030 0.5000 15.780 16.110 16.260 16.260 16.240 8.780 8.800 0.00000 0.00 318 0.00 0.00 0.3920 343.50 0.78 0.4100 353.300 6.085 18.019 11.402 6.627 18.639 11.426 7.221
WS7MET_125 2017-09-28 21:10:00 125 30483.0 15.870 16.240 16.380 16.430 16.420 63.530 61.180 8.970 8.950 0.00 0.00 14.510 13.580 13.000 12.650 12.720 15.990 16.260 16.400 16.570 16.460 9.650 9.090 0.00 0.00 0.5100 0.6000 15.780 16.240 16.350 16.330 16.370 8.760 8.830 0.00000 0.00 318 0.00 0.00 0.4510 343.70 1.46 0.4750 354.700 7.394 18.031 11.457 6.576 18.686 11.441 7.254
WS7MET_125 2017-09-28 21:05:00 125 30483.0 15.910 16.290 16.430 16.550 16.470 64.360 61.500 9.210 9.140 0.00 0.00 14.510 13.580 13.000 12.650 12.720 15.990 16.320 16.440 16.600 16.530 9.500 9.320 0.00 0.00 0.5360 0.7000 15.780 16.240 16.400 16.430 16.400 8.890 8.980 0.00000 0.00 318 0.00 0.00 0.4710 338.30 3.93 0.5450 350.100 4.932 18.077 11.644 6.443 18.830 11.589 7.249
WS7MET_125 2017-09-28 21:00:00 125 30483.0 16.020 16.330 16.470 16.560 16.480 64.770 62.310 9.410 9.350 0.00 0.00 14.510 13.570 13.010 12.650 12.720 16.120 16.370 16.510 16.600 16.540 9.670 9.650 0.00 0.00 0.5160 0.7000 15.920 16.290 16.440 16.500 16.420 9.130 9.120 0.00000 0.00 318 0.00 0.00 0.4000 338.20 0.64 0.4750 351.600 5.182 18.204 11.802 6.413 18.842 11.754 7.101
WS7MET_125 2017-09-28 20:55:00 125 30483.0 16.110 16.420 16.540 16.590 16.560 64.530 61.890 9.440 9.260 0.00 0.00 14.510 13.550 13.020 12.660 12.730 16.230 16.460 16.570 16.640 16.590 9.850 9.630 0.00 0.00 0.5620 0.6000 16.020 16.370 16.520 16.530 16.530 9.090 8.990 0.00000 0.00 318 0.00 0.00 0.4580 336.00 2.06 0.5050 350.000 4.483 18.309 11.826 6.494 18.878 11.683 7.194
WS7MET_125 2017-09-28 20:50:00 125 30483.0 16.120 16.480 16.590 16.640 16.580 62.770 60.650 9.030 9.020 0.00 0.00 14.520 13.550 13.020 12.650 12.730 16.230 16.510 16.620 16.700 16.620 9.760 9.480 0.00 0.00 0.5030 0.7000 16.060 16.460 16.570 16.530 16.550 8.600 8.780 0.00000 0.00 318 0.00 0.00 0.3940 332.10 3.48 0.5100 348.800 7.871 18.321 11.503 6.821 18.938 11.495 7.452
WS7MET_125 2017-09-28 20:45:00 125 30483.0 16.140 16.510 16.640 16.730 16.620 61.230 59.430 8.690 8.800 0.00 0.00 14.500 13.550 13.020 12.650 12.730 16.260 16.530 16.660 16.810 16.660 8.870 8.910 0.00 0.00 0.5030 0.6000 16.060 16.510 16.620 16.670 16.580 8.560 8.710 0.00000 0.00 318 0.00 0.00 0.4320 342.00 2.87 0.4900 352.100 5.408 18.344 11.242 7.112 19.046 11.326 7.727
WS7MET_125 2017-09-28 20:40:00 125 30483.0 16.170 16.560 16.700 16.760 16.730 62.460 59.730 9.010 8.900 0.00 0.00 14.490 13.550 13.010 12.660 12.740 16.260 16.570 16.730 16.840 16.800 9.280 9.130 0.00 0.00 0.5880 0.7000 16.090 16.540 16.660 16.600 16.660 8.730 8.730 0.00000 0.00 318 0.00 0.00 0.4670 346.80 2.65 0.5200 358.300 7.750 18.379 11.488 6.900 19.083 11.402 7.685
WS7MET_125 2017-09-28 20:35:00 125 30483.0 16.140 16.560 16.690 16.700 16.750 62.930 59.890 9.090 8.890 0.00 0.00 14.500 13.550 13.010 12.660 12.740 16.230 16.570 16.700 16.840 16.790 9.350 9.130 0.00 0.00 0.6470 0.6000 16.020 16.550 16.680 16.640 16.700 8.850 8.690 0.00000 0.00 318 0.00 0.00 0.5500 349.40 6.06 0.5550 3.599 7.433 18.344 11.550 6.800 19.010 11.395 7.625
WS7MET_125 2017-09-28 20:30:00 125 30483.0 16.250 16.560 16.710 16.790 16.700 62.670 60.120 9.140 9.030 0.00 0.00 14.490 13.530 13.010 12.660 12.750 16.400 16.590 16.750 16.910 16.730 9.630 9.530 0.00 0.00 0.6470 0.8000 16.120 16.540 16.680 16.670 16.680 8.790 8.800 0.00000 0.00 318 0.00 0.00 0.5120 342.70 0.97 0.5850 353.000 4.794 18.473 11.589 6.896 19.119 11.503 7.625
WS7MET_125 2017-09-28 20:25:00 125 30483.0 16.370 16.670 16.830 16.900 16.810 62.040 59.820 9.100 9.050 0.00 0.00 14.490 13.530 13.010 12.660 12.750 16.500 16.700 16.880 16.980 16.890 9.590 9.560 0.00 0.00 0.5490 0.7000 16.230 16.590 16.760 16.770 16.680 8.650 8.800 0.00000 0.00 318 0.00 0.00 0.4780 344.10 1.10 0.5450 355.400 6.946 18.615 11.558 7.066 19.253 11.519 7.736
WS7MET_125 2017-09-28 20:20:00 125 30483.0 16.440 16.760 16.910 16.990 16.900 61.060 59.090 8.930 8.960 0.00 0.00 14.490 13.530 13.010 12.660 12.750 16.600 16.810 16.960 17.110 16.900 9.110 9.090 0.00 0.00 0.5290 0.6000 16.360 16.730 16.880 16.910 16.880 8.820 8.890 0.00000 0.00 318 0.00 0.00 0.4460 343.30 1.23 0.5150 355.100 7.288 18.698 11.426 7.281 19.363 11.449 7.921
WS7MET_125 2017-09-28 20:15:00 125 30483.0 16.510 16.900 17.030 17.070 17.050 61.400 58.920 9.080 8.990 0.00 0.00 14.490 13.520 13.010 12.660 12.760 16.740 16.950 17.070 17.150 17.130 9.250 9.090 0.00 0.00 0.5550 0.7000 16.430 16.840 16.970 16.980 16.900 8.890 8.900 0.00000 0.00 318 0.00 0.00 0.4750 340.80 1.14 0.5400 351.100 4.122 18.782 11.542 7.250 19.461 11.472 7.995
WS7MET_125 2017-09-28 20:10:00 125 30483.0 16.550 16.920 17.060 17.100 17.120 61.470 58.830 9.130 9.000 0.00 0.00 14.490 13.520 13.000 12.660 12.770 16.670 16.940 17.070 17.180 17.150 9.340 9.100 0.00 0.00 0.5750 0.8000 16.470 16.880 17.060 17.050 17.100 8.880 8.900 0.00000 0.00 318 0.00 0.00 0.5430 345.90 1.28 0.6050 0.847 5.948 18.830 11.581 7.255 19.498 11.480 8.028
WS7MET_125 2017-09-28 20:05:00 125 30483.0 16.620 16.920 17.060 17.160 17.070 61.040 58.810 9.090 9.040 0.00 0.00 14.470 13.510 13.000 12.660 12.770 16.740 16.980 17.080 17.220 17.090 9.280 9.110 0.00 0.00 0.5950 0.7000 16.470 16.870 17.060 17.080 17.050 8.920 8.920 0.00000 0.00 318 0.00 0.00 0.5570 341.90 1.99 0.6200 353.600 5.308 18.914 11.550 7.369 19.573 11.511 8.062
WS7MET_125 2017-09-28 20:00:00 125 30483.0 16.660 17.040 17.140 17.210 17.130 60.130 58.350 8.910 8.980 0.00 0.00 14.470 13.510 13.000 12.670 12.770 16.740 17.080 17.200 17.280 17.240 9.070 9.080 0.00 0.00 0.6080 0.7000 16.600 16.990 17.080 17.150 17.060 8.770 8.870 0.00000 0.00 318 0.00 0.00 0.4940 344.40 1.89 0.5050 353.500 6.754 18.962 11.410 7.560 19.635 11.464 8.178
WS7MET_125 2017-09-28 19:55:00 125 30483.0 16.710 17.090 17.230 17.300 17.260 59.880 57.520 8.890 8.850 0.00 0.00 14.470 13.500 13.000 12.670 12.780 16.810 17.090 17.260 17.390 17.320 9.080 9.000 0.00 0.00 0.5880 0.7000 16.530 17.080 17.200 17.180 17.230 8.660 8.730 0.00000 0.00 318 0.00 0.00 0.4780 345.50 1.16 0.5700 0.998 4.491 19.022 11.395 7.632 19.747 11.364 8.388
WS7MET_125 2017-09-28 19:50:00 125 30483.0 16.780 17.080 17.270 17.380 17.260 59.620 56.950 8.890 8.790 0.00 0.00 14.470 13.500 13.010 12.670 12.780 16.870 17.130 17.320 17.450 17.300 9.180 8.870 0.00 0.00 0.5360 0.7000 16.700 17.060 17.250 17.350 17.240 8.740 8.720 0.00000 0.00 318 0.00 0.00 0.4620 346.10 1.37 0.5250 357.900 8.540 19.107 11.395 7.715 19.847 11.318 8.544
WS7MET_125 2017-09-28 19:45:00 125 30483.0 16.820 17.170 17.360 17.430 17.380 59.370 56.510 8.870 8.710 0.00 0.00 14.460 13.490 13.000 12.670 12.790 16.910 17.190 17.380 17.520 17.420 9.110 8.810 0.00 0.00 0.6270 0.7000 16.740 17.130 17.320 17.320 17.290 8.750 8.570 0.00000 0.00 318 0.00 0.00 0.4980 347.90 2.86 0.5350 2.053 8.090 19.155 11.379 7.783 19.910 11.257 8.659
WS7MET_125 2017-09-28 19:40:00 125 30483.0 16.900 17.280 17.400 17.440 17.420 58.930 56.050 8.840 8.600 0.00 0.00 14.450 13.490 13.000 12.670 12.790 16.980 17.370 17.440 17.490 17.470 9.040 8.900 0.00 0.00 0.6790 0.8000 16.810 17.200 17.380 17.390 17.390 8.700 8.510 0.00000 0.00 318 0.00 0.00 0.5390 346.70 3.90 0.5650 2.998 5.997 19.253 11.356 7.907 19.922 11.173 8.756
WS7MET_125 2017-09-28 19:35:00 125 30483.0 16.940 17.410 17.480 17.500 17.540 57.600 55.390 8.540 8.480 0.00 0.00 14.440 13.480 13.000 12.670 12.800 17.050 17.420 17.490 17.560 17.600 8.740 8.570 0.00 0.00 0.5230 0.7000 16.810 17.380 17.440 17.390 17.460 8.340 8.380 0.00000 0.00 318 0.00 0.00 0.4320 349.80 5.61 0.5200 6.225 9.480 19.302 11.128 8.184 19.998 11.083 8.921
WS7MET_125 2017-09-28 19:30:00 125 30483.0 16.920 17.380 17.500 17.510 17.600 57.530 54.940 8.500 8.370 0.00 0.00 14.440 13.480 13.000 12.670 12.800 16.980 17.400 17.510 17.560 17.620 8.800 8.460 0.00 0.00 0.5160 0.6000 16.870 17.360 17.470 17.420 17.550 8.240 8.220 0.00000 0.00 318 0.00 0.00 0.3820 342.80 2.05 0.4700 356.100 6.170 19.277 11.098 8.187 20.010 11.000 9.017
WS7MET_125 2017-09-28 19:25:00 125 30483.0 16.900 17.350 17.480 17.520 17.560 58.060 54.780 8.610 8.340 0.00 0.00 14.430 13.470 13.000 12.670 12.810 17.010 17.360 17.490 17.630 17.600 9.090 8.500 0.00 0.00 0.5030 0.6000 16.770 17.330 17.470 17.450 17.530 8.180 8.200 0.00000 0.00 318 0.00 0.00 0.3870 342.40 2.72 0.4850 355.300 6.305 19.253 11.181 8.075 20.023 10.978 9.054
WS7MET_125 2017-09-28 19:20:00 125 30483.0 16.920 17.320 17.500 17.590 17.530 58.520 55.040 8.750 8.470 0.00 0.00 14.430 13.470 13.000 12.660 12.810 17.050 17.350 17.530 17.690 17.570 9.050 8.700 0.00 0.00 0.5950 0.6000 16.840 17.300 17.480 17.490 17.480 8.420 8.300 0.00000 0.00 318 0.00 0.00 0.4090 346.80 5.59 0.4650 359.800 7.895 19.277 11.287 7.996 20.112 11.075 9.042
WS7MET_125 2017-09-28 19:15:00 125 30483.0 17.040 17.450 17.600 17.650 17.600 59.880 56.010 9.200 8.780 0.00 0.00 14.410 13.470 13.000 12.660 12.810 17.110 17.490 17.640 17.730 17.690 9.820 9.270 0.00 0.00 0.5420 0.6000 16.940 17.370 17.540 17.590 17.530 8.620 8.520 0.00000 0.00 318 0.00 0.00 0.4430 350.20 5.10 0.5350 3.262 6.952 19.425 11.636 7.793 20.188 11.310 8.881
WS7MET_125 2017-09-28 19:10:00 125 30483.0 17.110 17.520 17.670 17.720 17.700 58.530 55.200 8.930 8.630 0.00 0.00 14.410 13.460 13.000 12.670 12.830 17.220 17.540 17.700 17.800 17.730 9.340 8.730 0.00 0.00 0.6470 0.8000 16.980 17.490 17.640 17.630 17.650 8.660 8.520 0.00000 0.00 318 0.00 0.00 0.5220 351.30 4.55 0.6050 7.297 6.799 19.511 11.426 8.091 20.277 11.196 9.084
WS7MET_125 2017-09-28 19:05:00 125 30483.0 17.170 17.570 17.710 17.740 17.730 57.700 55.250 8.780 8.670 0.00 0.00 14.400 13.460 13.000 12.670 12.830 17.280 17.570 17.740 17.800 17.760 9.060 8.740 0.00 0.00 0.5550 0.8000 17.050 17.550 17.700 17.690 17.710 8.600 8.580 0.00000 0.00 318 0.00 0.00 0.5210 347.00 5.62 0.6150 1.885 5.638 19.585 11.310 8.284 20.303 11.226 9.086
WS7MET_125 2017-09-28 19:00:00 125 30483.0 17.200 17.600 17.770 17.840 17.760 59.080 55.990 9.150 8.960 0.00 0.00 14.390 13.450 13.000 12.670 12.840 17.280 17.660 17.820 17.930 17.820 9.380 9.250 0.00 0.00 0.6530 0.8000 17.080 17.560 17.740 17.730 17.730 8.770 8.710 0.00000 0.00 318 0.00 0.00 0.5360 343.10 1.38 0.6350 357.900 5.552 19.622 11.597 8.029 20.431 11.449 8.992
WS7MET_125 2017-09-28 18:55:00 125 30483.0 17.270 17.700 17.860 17.920 17.900 58.130 55.260 8.980 8.830 0.00 0.00 14.380 13.440 12.990 12.670 12.840 17.350 17.720 17.880 17.970 17.930 9.410 9.000 0.00 0.00 0.6080 0.7000 17.220 17.670 17.830 17.830 17.830 8.680 8.630 0.00000 0.00 318 0.00 0.00 0.5490 346.10 4.68 0.6450 0.198 4.923 19.709 11.464 8.252 20.534 11.349 9.187
WS7MET_125 2017-09-28 18:50:00 125 30483.0 17.250 17.680 17.870 17.910 17.930 58.230 54.760 8.990 8.690 0.00 0.00 14.370 13.440 12.990 12.670 12.850 17.350 17.700 17.880 17.970 17.960 9.430 8.830 0.00 0.00 0.7190 0.8000 17.180 17.650 17.840 17.830 17.890 8.810 8.570 0.00000 0.00 318 0.00 0.00 0.6130 351.10 2.88 0.5900 9.800 5.151 19.684 11.472 8.222 20.521 11.242 9.284
WS7MET_125 2017-09-28 18:45:00 125 30483.0 17.300 17.660 17.850 17.930 17.840 58.120 54.970 9.000 8.770 0.00 0.00 14.360 13.440 12.990 12.670 12.850 17.420 17.710 17.850 18.000 17.880 9.170 8.870 0.00 0.00 0.7910 0.9000 17.220 17.630 17.830 17.830 17.820 8.890 8.670 0.00000 0.00 318 0.00 0.00 0.6700 341.80 3.40 0.6950 357.500 5.981 19.747 11.480 8.270 20.547 11.303 9.252
WS7MET_125 2017-09-28 18:40:00 125 30483.0 17.320 17.750 17.900 17.920 17.910 57.670 55.040 8.910 8.780 0.00 0.00 14.350 13.440 12.990 12.670 12.860 17.420 17.760 17.920 17.970 17.980 9.160 8.970 0.00 0.00 0.6930 0.8000 17.220 17.720 17.850 17.860 17.820 8.690 8.540 0.00000 0.00 318 0.00 0.00 0.6430 341.20 0.84 0.7200 356.200 5.177 19.772 11.410 8.369 20.534 11.310 9.232
WS7MET_125 2017-09-28 18:35:00 125 30483.0 17.320 17.730 17.910 17.960 17.930 58.380 54.820 9.090 8.760 0.00 0.00 14.340 13.430 12.990 12.670 12.870 17.390 17.750 17.930 18.030 17.960 9.640 9.050 0.00 0.00 0.7580 0.7000 17.220 17.710 17.900 17.860 17.900 8.620 8.550 0.00000 0.00 318 0.00 0.00 0.6480 348.70 2.12 0.6650 1.388 4.067 19.772 11.550 8.229 20.586 11.295 9.301
WS7MET_125 2017-09-28 18:30:00 125 30483.0 17.340 17.780 17.960 18.010 17.980 57.870 54.770 8.980 8.790 0.00 0.00 14.330 13.420 12.990 12.670 12.870 17.390 17.810 18.000 18.070 18.090 9.090 8.890 0.00 0.00 0.7640 0.8000 17.280 17.740 17.930 17.930 17.900 8.820 8.730 0.00000 0.00 318 0.00 0.00 0.6260 346.50 2.82 0.6550 1.350 5.392 19.797 11.464 8.340 20.651 11.318 9.340
WS7MET_125 2017-09-28 18:25:00 125 30483.0 17.290 17.730 17.940 17.980 17.980 58.110 54.520 8.990 8.700 0.00 0.00 14.320 13.420 12.990 12.660 12.880 17.390 17.800 17.980 18.070 18.070 9.480 8.870 0.00 0.00 0.6660 0.9000 17.220 17.700 17.900 17.900 17.930 8.690 8.550 0.00000 0.00 318 0.00 0.00 0.5980 342.40 0.28 0.6850 358.100 3.485 19.734 11.472 8.267 20.612 11.249 9.374
WS7MET_125 2017-09-28 18:20:00 125 30483.0 17.270 17.730 17.890 17.920 17.910 57.410 53.860 8.800 8.460 0.00 0.00 14.310 13.410 12.990 12.670 12.890 17.420 17.750 17.900 18.000 17.960 9.090 8.600 0.00 0.00 0.6600 0.8000 17.220 17.700 17.880 17.860 17.870 8.570 8.340 0.00000 0.00 318 0.00 0.00 0.5760 343.60 1.97 0.6650 359.600 4.440 19.709 11.326 8.394 20.534 11.068 9.474
WS7MET_125 2017-09-28 18:15:00 125 30483.0 17.310 17.710 17.860 17.920 17.850 58.070 54.990 9.000 8.760 0.00 0.00 14.300 13.410 13.000 12.670 12.890 17.490 17.750 17.910 18.000 17.920 9.590 9.470 0.00 0.00 0.6660 0.8000 17.150 17.670 17.830 17.830 17.750 8.540 8.320 0.00000 0.00 318 0.00 0.00 0.5930 341.30 0.95 0.6800 356.700 4.154 19.759 11.480 8.285 20.534 11.295 9.242
WS7MET_125 2017-09-28 18:10:00 125 30483.0 17.430 17.830 17.970 18.010 17.920 55.950 53.740 8.560 8.510 0.00 0.00 14.280 13.410 13.000 12.660 12.910 17.520 17.920 18.030 18.100 17.980 8.630 8.690 0.00 0.00 0.6930 0.9000 17.280 17.760 17.920 17.900 17.890 8.390 8.240 0.00000 0.00 318 0.00 0.00 0.5900 342.20 5.02 0.7050 357.700 7.376 19.910 11.143 8.770 20.651 11.105 9.553
WS7MET_125 2017-09-28 18:05:00 125 30483.0 17.530 17.990 18.110 18.130 18.090 56.210 53.580 8.730 8.580 0.00 0.00 14.270 13.400 13.000 12.670 12.910 17.630 18.020 18.150 18.240 18.160 9.180 8.690 0.00 0.00 0.6790 0.8000 17.420 17.920 18.050 18.030 17.980 8.460 8.510 0.00000 0.00 318 0.00 0.00 0.5980 346.80 3.01 0.6500 3.201 5.084 20.036 11.272 8.774 20.807 11.158 9.659
WS7MET_125 2017-09-28 18:00:00 125 30483.0 17.630 18.020 18.170 18.210 18.140 57.020 53.910 9.030 8.750 0.00 0.00 14.250 13.390 13.000 12.670 12.920 17.690 18.030 18.200 18.340 18.160 9.390 8.950 0.00 0.00 0.8230 1.0000 17.520 18.010 18.150 18.140 18.120 8.740 8.590 0.00000 0.00 318 0.00 0.00 0.7320 343.90 1.80 0.8200 358.700 3.912 20.163 11.503 8.666 20.912 11.287 9.638
WS7MET_125 2017-09-28 17:55:00 125 30483.0 17.780 18.120 18.290 18.370 18.220 57.800 54.870 9.370 9.150 0.67 0.00 14.240 13.390 13.000 12.670 12.930 17.900 18.200 18.360 18.480 18.340 9.810 9.520 1.34 0.00 0.7450 0.8000 17.590 18.050 18.200 18.240 18.120 8.920 8.820 0.00000 0.00 318 0.00 0.00 0.6140 342.50 2.75 0.7100 357.200 3.889 20.354 11.770 8.589 21.123 11.597 9.533
WS7MET_125 2017-09-28 17:50:00 125 30483.0 17.910 18.250 18.410 18.510 18.350 58.270 55.150 9.620 9.360 1.54 0.00 14.220 13.390 12.990 12.670 12.940 18.030 18.330 18.460 18.610 18.360 10.020 9.680 2.68 0.00 0.7910 0.8000 17.830 18.190 18.360 18.440 18.330 9.250 9.070 0.00000 0.00 318 0.00 0.00 0.5670 341.80 4.27 0.6850 355.600 5.294 20.521 11.970 8.564 21.309 11.762 9.557
WS7MET_125 2017-09-28 17:45:00 125 30483.0 18.100 18.450 18.590 18.680 18.510 57.370 54.950 9.560 9.470 3.02 0.00 14.210 13.390 12.990 12.670 12.950 18.170 18.530 18.690 18.850 18.620 10.000 9.700 4.03 0.00 0.7380 0.8000 18.000 18.350 18.490 18.580 18.370 9.400 9.250 0.00000 0.00 318 0.00 0.00 0.5430 346.10 5.65 0.6500 356.900 4.999 20.768 11.921 8.853 21.537 11.849 9.702
WS7MET_125 2017-09-28 17:40:00 125 30483.0 18.250 18.620 18.790 18.890 18.730 58.450 55.110 9.980 9.700 4.36 0.00 14.200 13.390 12.990 12.670 12.960 18.340 18.690 18.860 18.960 18.800 10.610 10.130 5.37 0.00 0.7580 0.9000 18.100 18.550 18.710 18.790 18.630 9.550 9.450 0.00000 0.00 318 0.00 0.00 0.6110 341.70 2.76 0.7350 357.400 3.902 20.964 12.262 8.711 21.821 12.034 9.796
WS7MET_125 2017-09-28 17:35:00 125 30483.0 18.350 18.750 18.930 19.050 18.880 58.630 54.990 10.110 9.820 5.64 0.00 14.180 13.370 12.990 12.670 12.960 18.510 18.800 18.980 19.160 18.930 10.670 10.150 6.71 0.00 0.6660 0.8000 18.240 18.710 18.870 18.960 18.800 9.760 9.570 0.00000 0.00 318 0.00 0.00 0.5480 350.20 11.89 0.5800 2.925 13.260 21.096 12.370 8.728 22.040 12.131 9.920
WS7MET_125 2017-09-28 17:30:00 125 30483.0 18.510 18.850 19.050 19.250 18.920 60.150 55.550 10.660 10.160 7.11 0.00 14.160 13.370 12.990 12.670 12.970 18.720 18.970 19.170 19.430 18.960 11.080 10.730 8.05 0.00 0.6990 0.9000 18.410 18.800 18.980 19.130 18.880 9.990 9.640 0.00000 0.00 318 0.00 0.00 0.4790 341.50 12.37 0.5600 353.800 13.620 21.309 12.832 8.492 22.317 12.411 9.920
WS7MET_125 2017-09-28 17:25:00 125 30483.0 18.790 19.170 19.380 19.600 19.220 61.150 55.740 11.160 10.530 8.99 0.20 14.150 13.360 12.990 12.670 12.990 18.920 19.310 19.510 19.770 19.380 11.800 10.630 10.73 1.34 0.7060 0.7000 18.650 19.000 19.190 19.470 19.000 10.770 10.400 0.00000 0.00 318 0.00 0.00 0.4340 350.50 12.97 0.5200 1.010 15.050 21.685 13.266 8.425 22.808 12.722 10.095
WS7MET_125 2017-09-28 17:20:00 125 30483.0 19.010 19.410 19.640 19.920 19.480 59.500 54.620 10.960 10.530 12.08 1.34 14.130 13.360 12.990 12.670 13.000 19.260 19.550 19.760 20.120 19.620 11.380 10.860 13.42 1.34 0.7710 0.8000 18.890 19.310 19.530 19.740 19.350 10.650 10.280 0.00000 0.00 318 0.00 0.00 0.3040 354.60 18.05 0.4550 15.120 47.580 21.985 13.091 8.904 23.265 12.722 10.558
WS7MET_125 2017-09-28 17:15:00 125 30483.0 19.280 19.650 19.900 20.250 19.740 60.220 53.320 11.390 10.460 15.70 2.28 14.110 13.360 12.990 12.680 13.010 19.500 19.770 20.030 20.420 20.050 11.990 10.940 17.44 2.68 0.6660 0.9000 19.090 19.550 19.780 20.080 19.630 9.900 8.670 0.00000 0.00 318 0.00 0.00 0.4190 353.90 41.06 0.5200 10.260 44.610 22.358 13.470 8.894 23.744 12.662 11.084
WS7MET_125 2017-09-28 17:10:00 125 30483.0 19.560 19.950 20.250 20.590 20.010 58.640 50.500 11.240 9.960 18.45 2.68 14.100 13.350 12.990 12.670 13.040 19.710 20.120 20.400 20.730 20.280 12.150 10.730 20.13 2.68 0.6730 1.6000 19.370 19.800 20.060 20.420 19.800 10.190 8.770 0.00000 0.00 318 0.00 0.00 0.2180 354.10 53.07 0.4300 15.960 49.420 22.751 13.337 9.410 24.248 12.246 12.003
WS7MET_125 2017-09-28 17:05:00 125 30483.0 19.770 20.250 20.570 20.900 20.360 56.010 48.660 10.760 9.700 20.80 3.76 14.080 13.350 12.990 12.680 13.050 19.910 20.390 20.740 21.000 20.770 11.630 10.370 21.47 4.03 0.5420 0.7000 19.600 20.130 20.410 20.730 20.150 9.530 8.700 0.00000 0.00 318 0.00 0.00 0.3160 21.20 56.00 0.4200 32.460 52.940 23.049 12.918 10.139 24.715 12.034 12.689
WS7MET_125 2017-09-28 17:00:00 125 30483.0 19.980 20.410 20.730 21.070 20.620 55.430 48.010 10.790 9.640 23.08 4.03 14.060 13.350 12.990 12.670 13.080 20.150 20.480 20.810 21.210 20.940 11.750 10.680 24.15 4.03 1.3460 1.8000 19.770 20.290 20.630 20.930 20.340 9.490 8.130 0.00000 0.00 318 0.00 0.00 0.5430 35.13 75.37 0.6850 56.650 80.200 23.351 12.944 10.408 24.974 11.986 12.984
WS7MET_125 2017-09-28 16:55:00 125 30483.0 20.130 20.600 20.900 21.280 20.960 56.160 49.100 11.110 10.160 25.09 4.03 14.040 13.350 12.980 12.680 13.100 20.220 20.730 21.030 21.380 21.430 12.360 11.220 26.83 4.03 1.2540 1.3000 20.050 20.500 20.780 21.170 20.340 8.960 8.500 0.00000 0.00 318 0.00 0.00 0.3920 95.60 49.70 0.5100 115.500 53.920 23.569 13.222 10.333 25.298 12.411 12.877
WS7MET_125 2017-09-28 16:50:00 125 30483.0 20.270 20.620 20.940 21.460 20.630 57.520 51.090 11.610 10.930 27.37 4.09 14.030 13.350 12.980 12.680 13.130 20.530 20.890 21.210 21.820 21.240 12.670 11.590 28.18 5.37 1.1300 1.5000 19.950 20.470 20.800 21.240 20.340 9.310 8.890 0.00000 0.00 318 0.00 0.00 0.3770 147.80 87.00 0.5950 217.200 78.580 23.774 13.668 10.099 25.579 13.065 12.510
WS7MET_125 2017-09-28 16:45:00 125 30483.0 20.580 20.980 21.360 21.860 21.080 55.380 48.850 11.340 10.630 29.25 5.37 14.010 13.340 12.980 12.680 13.160 20.800 21.080 21.480 22.060 21.380 12.350 11.630 30.86 5.37 0.6400 1.2000 20.420 20.910 21.240 21.690 20.840 10.440 9.880 0.00000 0.00 318 0.00 0.00 0.2520 93.80 34.09 0.4300 107.500 30.350 24.233 13.426 10.813 26.211 12.807 13.407
WS7MET_125 2017-09-28 16:40:00 125 30483.0 20.920 21.210 21.580 22.190 21.210 54.910 48.340 11.530 10.780 33.27 6.44 13.990 13.340 12.980 12.680 13.180 21.210 21.380 21.790 22.400 21.450 12.400 11.950 37.57 6.71 1.4110 1.5000 20.630 21.080 21.460 22.060 20.970 10.710 10.310 0.00000 0.00 318 0.00 0.00 0.2080 92.40 16.41 0.3200 127.700 50.750 24.745 13.596 11.158 26.744 12.935 13.816
WS7MET_125 2017-09-28 16:35:00 125 30483.0 21.410 21.660 22.090 22.720 21.700 51.430 45.120 10.970 10.210 51.32 7.78 13.980 13.340 12.980 12.680 13.200 21.580 21.840 22.280 23.020 22.280 12.150 11.530 89.90 8.05 1.3790 1.1000 21.210 21.400 21.800 22.400 21.180 9.280 8.550 0.00000 0.00 318 0.00 0.00 0.2860 172.40 51.51 0.5150 196.900 56.890 25.500 13.100 12.386 27.619 12.453 15.157
WS7MET_125 2017-09-28 16:30:00 125 30483.0 21.930 21.910 22.520 23.460 21.330 51.080 44.330 11.370 10.640 41.93 9.26 13.960 13.330 12.980 12.680 13.210 22.370 22.430 23.140 23.800 21.950 12.350 11.480 57.69 10.73 0.7320 1.7000 21.380 21.610 22.160 23.020 21.010 9.920 9.470 0.00000 0.00 318 0.00 0.00 0.1040 228.50 43.42 0.4050 245.100 61.390 26.324 13.452 12.878 28.882 12.815 16.079
WS7MET_125 2017-09-28 16:25:00 125 30483.0 22.900 22.930 23.450 23.770 22.040 47.600 42.300 11.170 10.200 74.06 11.54 13.940 13.330 12.980 12.680 13.230 23.250 23.310 23.790 23.940 22.850 12.330 11.260 119.40 13.42 0.6140 0.8000 22.440 22.440 23.120 23.660 21.580 9.800 9.000 0.00000 0.00 318 0.00 0.00 0.2670 117.30 3.10 0.3800 144.600 44.740 27.922 13.275 14.631 29.426 12.444 16.979
WS7MET_125 2017-09-28 16:20:00 125 30483.0 23.700 23.490 23.930 24.060 22.870 40.310 37.680 9.420 8.750 233.90 15.23 13.920 13.330 12.980 12.680 13.230 24.110 23.590 24.070 24.210 23.150 11.440 10.090 279.10 17.44 1.2020 1.4000 23.250 23.330 23.770 23.900 21.990 8.520 8.450 0.00000 0.00 318 0.00 0.00 0.5290 102.30 45.24 0.7750 136.800 73.280 29.302 11.810 17.491 29.943 11.287 18.661
WS7MET_125 2017-09-28 16:15:00 125 30483.0 24.400 23.890 24.390 24.350 22.540 40.400 39.140 10.050 9.550 287.80 20.46 13.900 13.330 12.980 12.680 13.220 24.550 24.150 24.710 24.590 22.930 12.390 11.230 295.20 22.81 0.7840 1.0000 24.110 23.560 23.980 24.070 21.910 8.710 8.670 0.00000 0.00 318 0.00 0.00 0.3290 133.90 41.25 0.5250 149.100 41.700 30.559 12.320 18.213 30.468 11.913 18.543
WS7MET_125 2017-09-28 16:10:00 125 30483.0 24.330 23.970 24.570 24.450 22.660 40.060 37.920 9.910 9.200 304.40 25.89 13.880 13.330 12.980 12.690 13.210 24.550 24.120 24.710 24.760 22.930 10.650 9.740 311.30 28.18 0.9730 1.9000 24.180 23.800 24.380 24.350 22.330 9.170 8.600 0.00000 0.00 318 0.00 0.00 0.3940 149.20 48.37 0.6350 174.700 40.680 30.432 12.205 18.241 30.651 11.636 19.028
WS7MET_125 2017-09-28 16:05:00 125 30483.0 24.370 24.060 24.800 24.870 22.780 40.120 36.310 9.950 8.920 320.50 31.60 13.860 13.320 12.990 12.690 13.200 24.620 24.140 24.950 25.100 23.100 11.030 10.590 328.70 34.88 0.6730 1.3000 24.280 23.940 24.710 24.690 22.380 8.420 8.320 0.00000 0.00 318 0.00 0.00 0.1670 148.80 19.78 0.4200 142.300 41.100 30.504 12.238 18.266 31.429 11.418 20.017
WS7MET_125 2017-09-28 16:00:00 125 30483.0 24.660 24.450 25.240 25.180 23.010 36.110 34.180 8.660 8.310 336.30 37.43 13.840 13.320 12.990 12.680 13.170 24.760 24.690 25.390 25.470 23.440 9.410 8.690 344.80 40.25 0.5680 1.1000 24.550 24.150 24.980 24.720 22.460 8.010 8.020 0.00000 0.00 318 0.00 0.00 0.2290 130.80 25.36 0.5000 151.800 34.020 31.038 11.219 19.830 32.015 10.956 21.072
WS7MET_125 2017-09-28 15:55:00 125 30483.0 24.660 24.970 25.430 25.810 23.180 36.520 32.310 8.810 8.020 352.10 42.47 13.830 13.320 12.990 12.670 13.160 24.820 25.220 25.620 25.980 23.550 10.030 8.660 359.60 44.28 0.8230 1.4000 24.520 24.610 25.300 25.400 22.720 7.686 7.407 0.00000 0.00 318 0.00 0.00 0.1880 144.60 37.22 0.4300 179.900 44.760 31.038 11.333 19.703 33.234 10.742 22.496
WS7MET_125 2017-09-28 15:50:00 125 30483.0 24.560 25.160 25.580 25.930 23.690 36.030 31.770 8.510 7.865 367.30 46.49 13.810 13.320 12.970 12.690 13.170 24.690 25.220 25.700 26.020 24.270 9.930 9.750 374.30 48.30 0.1370 0.5000 24.450 25.060 25.410 25.810 23.280 6.734 6.656 0.00000 0.00 318 0.00 0.00 0.0190 204.70 31.68 0.2400 94.500 58.810 30.853 11.105 19.737 33.471 10.629 22.837
WS7MET_125 2017-09-28 15:45:00 125 30483.0 24.390 25.080 25.650 25.950 24.080 32.400 28.980 6.814 6.545 383.80 50.92 13.790 13.320 12.970 12.680 13.160 24.520 25.160 25.800 26.050 24.370 8.980 8.140 391.80 52.33 2.0910 2.5000 24.280 24.970 25.490 25.850 23.840 5.812 5.690 0.00000 0.00 318 0.00 0.00 0.5580 223.70 55.45 0.8250 221.200 50.450 30.541 9.891 20.646 33.511 9.709 23.799
WS7MET_125 2017-09-28 15:40:00 125 30483.0 24.350 24.980 25.390 25.860 24.350 32.340 28.460 6.752 6.216 398.90 54.00 13.770 13.330 12.980 12.680 13.150 24.480 25.080 25.490 25.950 24.660 8.510 7.192 405.20 55.01 1.4960 1.6000 24.240 24.790 25.270 25.780 24.010 5.664 5.612 0.00000 0.00 318 0.00 0.00 0.5950 210.40 46.48 0.7650 227.500 46.710 30.468 9.849 20.615 33.333 9.491 23.846
WS7MET_125 2017-09-28 15:35:00 125 30483.0 24.430 24.870 25.460 25.990 24.370 30.480 27.210 5.952 5.655 414.50 56.29 13.750 13.310 12.990 12.680 13.140 24.620 24.930 25.510 26.120 24.600 8.020 8.310 421.30 56.35 1.1890 1.5000 24.240 24.820 25.280 25.850 23.630 4.564 4.474 0.00000 0.00 318 0.00 0.00 0.4910 215.80 87.10 0.6500 213.100 82.500 30.614 9.320 21.283 33.590 9.130 24.450
WS7MET_125 2017-09-28 15:30:00 125 30483.0 24.990 25.390 25.990 26.530 24.200 33.300 29.660 7.726 7.359 408.60 57.49 13.740 13.300 12.980 12.680 13.110 25.130 25.620 26.220 26.700 24.820 9.840 9.070 432.00 57.69 0.4180 1.0000 24.690 24.910 25.510 26.120 23.570 5.602 5.598 0.00000 0.00 318 0.00 0.00 0.1320 297.20 52.37 0.4100 347.400 63.660 31.655 10.528 21.114 34.677 10.268 24.392
WS7MET_125 2017-09-28 15:25:00 125 30483.0 25.180 25.740 26.220 26.530 24.890 28.200 25.390 5.493 5.141 290.80 58.63 13.720 13.310 12.980 12.680 13.110 25.300 25.920 26.360 26.630 25.000 6.947 6.339 371.70 60.38 1.3520 1.9000 24.990 25.510 26.050 26.390 24.700 4.479 4.356 0.00000 0.00 318 0.00 0.00 0.5130 220.00 30.29 0.6800 224.500 29.740 32.015 9.027 22.987 34.677 8.809 25.873
WS7MET_125 2017-09-28 15:20:00 125 30483.0 25.490 25.880 26.250 26.350 24.540 29.180 25.390 6.203 4.964 377.50 61.79 13.690 13.310 12.980 12.680 13.110 25.780 26.120 26.450 26.500 25.000 8.250 7.028 464.20 63.06 1.1430 1.6000 25.200 25.670 26.120 26.220 24.060 4.080 3.697 0.00000 0.00 318 0.00 0.00 0.5920 225.20 54.14 0.7700 237.500 50.110 32.610 9.483 23.094 34.312 8.701 25.600
WS7MET_125 2017-09-28 15:15:00 125 30483.0 25.980 26.220 26.470 26.540 24.690 29.150 24.420 6.593 4.574 472.90 65.54 13.680 13.310 12.980 12.680 13.100 26.120 26.470 26.740 26.700 24.900 8.900 7.147 480.30 67.09 0.8820 1.1000 25.750 25.920 26.180 26.330 24.480 3.887 3.359 0.00000 0.00 318 0.00 0.00 0.4230 78.38 25.31 0.6400 98.300 25.590 33.570 9.741 23.785 34.698 8.467 26.225
WS7MET_125 2017-09-28 15:10:00 125 30483.0 26.070 26.300 26.580 26.670 24.660 27.620 24.930 5.893 4.905 486.40 69.37 13.660 13.310 12.970 12.680 13.120 26.290 26.370 26.660 26.770 25.110 8.190 8.400 492.40 71.11 0.6080 0.8000 25.980 26.200 26.520 26.560 24.140 3.419 2.987 0.00000 0.00 318 0.00 0.00 0.1490 337.20 27.02 0.3650 22.580 61.320 33.749 9.282 24.428 34.964 8.665 26.248
WS7MET_125 2017-09-28 15:05:00 125 30483.0 26.180 26.350 26.710 26.510 24.610 27.560 25.810 5.956 5.302 499.80 73.26 13.640 13.310 12.970 12.680 13.110 26.260 26.490 26.850 26.730 25.030 8.310 8.710 505.80 75.13 0.5680 1.1000 25.950 26.080 26.520 26.330 24.080 2.857 2.701 0.00000 0.00 318 0.00 0.00 0.2420 152.20 52.02 0.4700 162.200 57.890 33.969 9.322 24.607 34.637 8.908 25.697
WS7MET_125 2017-09-28 15:00:00 125 30483.0 26.500 26.420 26.820 26.800 24.730 25.160 22.990 4.930 3.938 513.30 77.68 13.630 13.310 12.970 12.680 13.120 26.800 26.600 27.060 27.040 24.990 7.847 5.137 519.20 80.50 0.8890 1.1000 26.220 26.110 26.510 26.500 24.420 1.773 1.963 0.00000 0.00 318 0.00 0.00 0.3380 112.10 64.04 0.5850 148.000 44.690 34.616 8.680 25.907 35.232 8.097 27.133
WS7MET_125 2017-09-28 14:55:00 125 30483.0 26.970 26.860 27.330 27.210 24.420 27.110 24.750 6.436 5.328 526.90 82.70 13.610 13.310 12.970 12.680 13.120 27.180 27.080 27.460 27.350 25.040 8.140 6.807 532.70 84.50 0.6140 1.1000 26.770 26.550 27.020 27.010 24.060 4.263 3.958 0.00000 0.00 318 0.00 0.00 0.1640 139.90 72.54 0.4500 167.400 83.100 35.586 9.637 25.939 36.090 8.924 27.158
WS7MET_125 2017-09-28 14:50:00 125 30483.0 26.680 26.950 27.200 27.110 25.150 24.570 23.160 4.771 4.295 540.80 88.10 13.590 13.310 12.970 12.680 13.130 26.800 27.050 27.320 27.250 25.360 6.424 5.719 547.40 91.20 1.4370 1.8000 26.560 26.850 27.100 26.970 24.900 3.381 3.149 0.00000 0.00 318 0.00 0.00 0.4920 251.70 49.36 0.7700 245.700 60.260 34.985 8.584 26.389 35.879 8.303 27.570
WS7MET_125 2017-09-28 14:45:00 125 30483.0 26.700 26.840 27.010 26.980 24.920 27.350 25.540 6.272 5.500 553.40 93.10 13.580 13.300 12.970 12.680 13.150 26.840 26.910 27.220 27.080 25.340 9.640 8.970 558.10 95.30 0.4900 0.5000 26.500 26.690 26.710 26.840 24.670 3.985 3.355 0.00000 0.00 318 0.00 0.00 0.0830 112.20 29.06 0.2700 157.700 42.220 35.026 9.528 25.446 35.607 9.032 26.513
WS7MET_125 2017-09-28 14:40:00 125 30483.0 26.640 26.730 26.850 26.970 25.230 28.350 25.150 6.757 5.331 564.70 98.20 13.560 13.300 12.970 12.680 13.130 26.730 26.910 26.990 27.040 25.530 9.730 8.090 570.20 100.60 1.4240 1.6000 26.530 26.660 26.660 26.700 24.900 4.354 3.679 0.00000 0.00 318 0.00 0.00 0.5870 198.30 86.90 0.7900 217.800 67.120 34.903 9.852 25.008 35.586 8.926 26.636
WS7MET_125 2017-09-28 14:35:00 125 30483.0 27.060 27.030 27.330 27.320 25.020 28.320 24.340 7.110 5.164 576.90 103.20 13.540 13.310 12.970 12.680 13.140 27.380 27.640 27.870 27.790 25.390 9.880 7.302 582.30 104.70 1.1760 1.7000 26.730 26.600 26.880 27.040 24.810 4.131 3.509 0.00000 0.00 318 0.00 0.00 0.5880 126.40 72.91 0.8250 152.600 30.530 35.774 10.094 25.643 36.323 8.823 27.482
WS7MET_125 2017-09-28 14:30:00 125 30483.0 27.200 27.730 27.840 27.510 25.470 25.800 23.370 5.880 4.762 587.50 107.30 13.530 13.300 12.970 12.690 13.140 27.420 27.870 28.090 27.830 25.970 8.180 7.628 593.00 108.70 0.7710 1.0000 26.910 27.490 27.390 27.210 24.850 3.644 3.459 0.00000 0.00 318 0.00 0.00 0.1020 190.20 38.89 0.3400 197.600 45.880 36.069 9.273 26.763 36.729 8.579 28.146
WS7MET_125 2017-09-28 14:25:00 125 30483.0 26.810 27.280 27.410 27.230 25.610 25.510 23.340 5.405 4.503 598.60 111.00 13.510 13.300 12.970 12.690 13.130 26.940 27.450 27.550 27.380 26.000 7.952 6.350 603.80 112.70 1.0850 1.4000 26.670 27.110 27.250 27.040 25.390 3.923 3.177 0.00000 0.00 318 0.00 0.00 0.5370 219.60 18.10 0.7150 235.600 29.300 35.253 8.972 26.260 36.132 8.425 27.699
WS7MET_125 2017-09-28 14:20:00 125 30483.0 26.610 27.180 27.360 27.030 25.180 28.760 25.840 6.886 5.759 609.00 114.30 13.500 13.300 12.970 12.690 13.140 26.730 27.310 27.530 27.110 25.880 10.500 8.330 614.50 115.40 1.3070 1.7000 26.460 27.070 27.220 26.940 24.650 3.560 3.024 0.00000 0.00 318 0.00 0.00 0.4350 230.60 31.13 0.5750 229.000 41.970 34.841 9.940 24.821 35.711 9.196 26.484
WS7MET_125 2017-09-28 14:15:00 125 30483.0 26.840 27.340 27.510 26.960 24.630 29.400 25.540 7.480 5.518 619.10 117.00 13.480 13.300 12.970 12.690 13.130 26.970 27.450 27.650 27.080 25.030 10.300 8.530 623.90 118.10 0.9870 1.2000 26.670 27.050 27.210 26.870 23.910 4.680 2.739 0.00000 0.00 318 0.00 0.00 0.4670 96.30 27.84 0.6100 102.100 21.650 35.315 10.353 24.933 35.565 9.043 26.482
WS7MET_125 2017-09-28 14:10:00 125 30483.0 26.430 26.910 27.160 26.880 24.490 28.340 25.710 6.520 5.479 628.90 119.10 13.470 13.300 12.970 12.690 13.130 26.800 27.330 27.500 27.080 24.740 10.220 8.370 632.00 119.40 0.6470 0.9000 26.150 26.500 26.770 26.730 24.150 3.680 2.403 0.00000 0.00 318 0.00 0.00 0.1570 115.90 28.87 0.3950 140.600 44.260 34.474 9.693 24.704 35.398 9.019 26.297
WS7MET_125 2017-09-28 14:05:00 125 30483.0 26.720 26.920 27.240 27.030 24.740 28.790 26.430 6.958 6.025 636.80 120.90 13.460 13.300 12.960 12.690 13.130 26.970 27.190 27.590 27.210 25.210 10.870 9.070 641.40 122.10 1.0520 1.4000 26.430 26.610 26.940 26.770 24.410 2.472 2.279 0.00000 0.00 318 0.00 0.00 0.4530 129.80 61.55 0.6600 150.800 55.270 35.067 9.989 24.971 35.711 9.367 26.273
WS7MET_125 2017-09-28 14:00:00 125 30483.0 27.000 27.030 27.510 27.110 24.570 26.940 25.560 6.383 5.702 645.20 122.10 13.440 13.300 12.960 12.690 13.160 27.210 27.220 27.680 27.210 25.170 7.414 7.943 648.10 122.10 0.4830 0.7000 26.840 26.860 27.360 26.970 24.050 5.128 3.692 0.00000 0.00 318 0.00 0.00 0.1680 137.80 35.80 0.4000 154.400 52.650 35.649 9.601 26.045 35.879 9.159 26.709
WS7MET_125 2017-09-28 13:55:00 125 30483.0 26.640 27.080 27.430 27.290 25.330 26.890 23.300 5.980 4.521 652.30 123.40 13.420 13.300 12.960 12.690 13.190 26.870 27.320 27.930 27.420 25.680 9.180 7.090 656.10 123.40 1.3460 1.2000 26.430 26.910 27.220 27.080 24.920 3.901 3.177 0.00000 0.00 318 0.00 0.00 0.5860 175.10 48.68 0.6500 178.100 39.610 34.903 9.338 25.517 36.260 8.435 27.811
WS7MET_125 2017-09-28 13:50:00 125 30483.0 26.270 27.120 27.790 27.180 24.870 30.090 27.040 7.361 6.562 659.20 123.40 13.420 13.300 12.960 12.690 13.200 26.560 27.310 27.990 27.450 25.190 10.280 9.580 662.80 123.40 0.8230 1.3000 26.020 26.830 27.420 26.870 24.490 5.904 5.175 0.00000 0.00 318 0.00 0.00 0.1190 195.90 20.59 0.3700 211.300 38.540 34.150 10.269 23.874 36.027 9.721 26.285
WS7MET_125 2017-09-28 13:45:00 125 30483.0 26.000 26.800 27.470 26.970 24.720 32.640 27.150 8.310 6.456 664.70 123.00 13.400 13.300 12.960 12.690 13.170 26.190 26.950 27.730 27.210 25.250 11.580 8.160 666.90 123.40 0.9670 1.3000 25.880 26.690 27.310 26.800 24.470 6.404 4.886 0.00000 0.00 318 0.00 0.00 0.3400 119.00 45.43 0.4850 140.200 35.350 33.610 10.956 22.640 35.586 9.650 25.924
WS7MET_125 2017-09-28 13:40:00 125 30483.0 26.080 27.020 27.860 27.050 24.620 31.630 28.060 7.937 7.018 671.40 122.50 13.390 13.300 12.960 12.690 13.170 26.190 27.080 27.960 27.210 24.850 9.210 9.270 674.90 123.40 0.4570 0.8000 25.980 26.860 27.730 26.730 24.310 6.464 6.072 0.00000 0.00 318 0.00 0.00 0.1340 131.80 70.94 0.3050 151.600 35.540 33.769 10.681 23.088 35.753 10.030 25.721
WS7MET_125 2017-09-28 13:35:00 125 30483.0 26.190 26.630 27.380 26.610 24.680 30.070 25.950 7.280 5.486 678.60 122.10 13.370 13.300 12.960 12.690 13.180 26.530 26.830 27.660 26.800 25.130 9.280 8.110 682.90 122.10 0.9280 1.0000 26.020 26.370 27.050 26.430 24.300 5.136 3.401 0.00000 0.00 318 0.00 0.00 0.3560 160.40 33.68 0.5050 178.200 43.170 33.989 10.212 23.769 34.841 9.023 25.800
WS7MET_125 2017-09-28 13:30:00 125 30483.0 26.470 26.730 27.530 26.570 24.800 27.730 24.130 6.292 4.441 684.00 121.00 13.360 13.300 12.960 12.690 13.170 26.730 27.000 27.900 26.770 25.150 9.040 5.675 687.00 122.10 1.0320 1.5000 26.120 26.440 27.110 26.430 24.470 4.086 3.610 0.00000 0.00 318 0.00 0.00 0.4370 139.00 30.94 0.7100 151.800 25.700 34.555 9.541 24.973 34.759 8.388 26.372
WS7MET_125 2017-09-28 13:25:00 125 30483.0 26.310 26.570 27.270 26.560 24.660 27.060 24.290 5.806 4.479 689.50 119.40 13.350 13.300 12.960 12.690 13.180 26.390 26.800 27.560 26.700 25.020 8.260 7.435 695.00 119.40 1.1960 1.7000 26.190 26.440 27.050 26.460 24.340 3.225 2.847 0.00000 0.00 318 0.00 0.00 0.5650 115.90 66.14 0.7450 137.400 60.610 34.231 9.226 24.968 34.739 8.410 26.301
WS7MET_125 2017-09-28 13:20:00 125 30483.0 26.120 26.680 27.410 26.680 25.100 25.830 23.080 5.009 3.895 696.10 119.40 13.340 13.310 12.960 12.690 13.190 26.290 26.830 27.560 26.800 25.490 7.164 5.217 699.10 119.40 0.9670 1.2000 25.980 26.580 27.310 26.530 24.680 3.139 2.803 0.00000 0.00 318 0.00 0.00 0.2960 150.70 27.11 0.5500 173.800 42.890 33.849 8.728 25.106 34.985 8.072 26.910
WS7MET_125 2017-09-28 13:15:00 125 30483.0 26.080 26.700 27.270 26.690 24.560 28.500 26.530 6.306 5.812 701.30 119.40 13.330 13.310 12.950 12.690 13.170 26.190 26.770 27.410 26.870 25.190 8.810 8.380 708.50 119.40 0.4050 0.7000 25.980 26.590 27.210 26.600 24.000 3.317 3.299 0.00000 0.00 318 0.00 0.00 0.1510 169.50 52.22 0.4300 180.200 34.760 33.769 9.550 24.145 35.005 9.230 25.718
WS7MET_125 2017-09-28 13:10:00 125 30483.0 25.790 26.530 27.140 26.540 24.890 24.750 22.930 4.121 3.683 704.80 120.00 13.320 13.310 12.950 12.690 13.160 26.050 26.730 27.420 26.700 25.230 6.416 5.121 707.10 120.80 1.7380 2.0000 25.640 26.390 26.860 26.460 24.340 2.598 2.389 0.00000 0.00 318 0.00 0.00 0.4380 238.30 28.69 0.6900 234.000 49.310 33.195 8.202 24.979 34.698 7.953 26.742
WS7MET_125 2017-09-28 13:05:00 125 30483.0 25.490 26.190 26.690 26.260 23.980 32.290 30.340 7.727 7.468 709.70 121.00 13.310 13.310 12.950 12.690 13.170 25.710 26.500 27.120 26.500 24.430 9.190 8.880 712.50 122.10 0.3790 0.7000 25.340 26.020 26.440 26.090 23.470 5.937 4.957 0.00000 0.00 318 0.00 0.00 0.0930 121.50 12.15 0.3300 155.800 64.940 32.610 10.529 22.080 34.130 10.344 23.775
WS7MET_125 2017-09-28 13:00:00 125 30483.0 25.500 26.330 26.690 26.320 24.590 27.240 24.840 5.098 4.511 712.50 122.20 13.310 13.320 12.950 12.690 13.190 25.640 26.570 26.940 26.390 24.780 8.660 7.775 716.50 123.40 0.9020 1.5000 25.400 26.060 26.450 26.220 24.230 2.006 1.924 0.00000 0.00 318 0.00 0.00 0.2400 77.06 83.90 0.5200 109.700 78.010 32.629 8.782 23.741 34.251 8.429 25.743
WS7MET_125 2017-09-28 12:55:00 125 30483.0 25.450 26.480 26.870 26.360 24.400 30.040 25.390 6.599 4.919 717.60 123.40 13.300 13.320 12.950 12.690 13.210 25.610 26.640 27.030 26.630 25.130 9.690 8.650 719.20 123.40 0.7450 0.9000 25.300 26.350 26.770 26.190 24.140 4.376 3.103 0.00000 0.00 318 0.00 0.00 0.4080 118.80 27.75 0.6050 133.100 26.300 32.533 9.745 22.760 34.332 8.673 25.615
WS7MET_125 2017-09-28 12:50:00 125 30483.0 25.060 25.880 26.430 26.300 25.090 27.640 24.280 5.085 4.280 720.10 123.40 13.290 13.320 12.940 12.680 13.210 25.300 26.350 26.730 26.460 25.350 6.630 5.915 721.90 123.40 1.2810 1.5000 24.860 25.650 26.220 26.190 24.820 3.492 2.797 0.00000 0.00 318 0.00 0.00 0.5600 228.10 27.48 0.7900 236.500 53.260 31.787 8.775 23.001 34.211 8.294 25.904
WS7MET_125 2017-09-28 12:45:00 125 30483.0 25.000 25.700 26.570 26.170 24.340 30.990 27.290 6.670 5.855 722.90 123.40 13.290 13.320 12.940 12.680 13.200 25.230 25.910 26.750 26.290 24.680 8.600 7.772 724.60 123.40 0.8950 1.3000 24.860 25.560 26.390 26.050 23.970 4.372 4.093 0.00000 0.00 318 0.00 0.00 0.3840 192.00 22.95 0.6200 208.200 23.000 31.674 9.793 21.858 33.949 9.257 24.684
WS7MET_125 2017-09-28 12:40:00 125 30483.0 25.240 25.930 26.610 25.930 24.400 26.290 24.680 4.536 4.219 725.90 122.80 13.280 13.320 12.940 12.690 13.220 25.440 26.070 26.900 26.190 24.620 6.525 6.456 727.20 123.40 0.9870 1.3000 25.100 25.800 26.410 25.740 24.100 3.811 3.317 0.00000 0.00 318 0.00 0.00 0.4740 112.40 61.59 0.7400 135.200 53.410 32.129 8.444 23.683 33.471 8.258 25.210
WS7MET_125 2017-09-28 12:35:00 125 30483.0 25.580 25.920 26.430 25.890 23.990 31.620 26.690 7.471 5.261 727.70 121.40 13.270 13.320 12.950 12.690 13.230 25.850 26.010 26.580 26.050 24.330 9.440 8.570 728.60 122.10 0.9280 1.1000 25.370 25.770 26.270 25.810 23.530 5.380 3.497 0.00000 0.00 318 0.00 0.00 0.4780 117.10 42.47 0.6200 139.200 41.850 32.785 10.347 22.418 33.392 8.883 24.480
WS7MET_125 2017-09-28 12:30:00 125 30483.0 25.970 26.170 26.560 26.000 23.990 29.410 27.270 6.726 5.649 728.50 118.90 13.270 13.320 12.940 12.690 13.240 26.120 26.290 26.660 26.120 24.330 9.570 9.070 731.20 119.40 1.0320 1.2000 25.880 26.040 26.410 25.880 23.610 4.619 4.010 0.00000 0.00 318 0.00 0.00 0.3610 95.00 41.24 0.5750 115.500 35.910 33.550 9.831 23.683 33.610 9.126 24.445
WS7MET_125 2017-09-28 12:25:00 125 30483.0 26.160 26.390 26.880 25.910 24.230 28.070 25.800 6.179 4.742 729.40 116.40 13.260 13.320 12.930 12.690 13.240 26.320 26.560 27.050 26.090 24.460 9.620 9.410 732.60 118.10 0.8950 1.2000 25.980 26.180 26.650 25.780 24.030 4.075 2.973 0.00000 0.00 318 0.00 0.00 0.4520 135.70 49.39 0.6800 144.200 46.900 33.929 9.467 24.405 33.432 8.567 24.806
WS7MET_125 2017-09-28 12:20:00 125 30483.0 25.750 26.280 26.690 25.840 24.000 26.650 24.730 5.149 4.166 728.80 114.30 13.260 13.320 12.930 12.690 13.260 25.950 26.400 26.830 25.980 24.450 7.639 5.683 729.90 115.40 0.7380 1.1000 25.440 26.120 26.520 25.740 23.710 3.871 2.938 0.00000 0.00 318 0.00 0.00 0.3960 140.50 37.75 0.5500 152.500 32.760 33.116 8.814 24.291 33.293 8.228 25.060
WS7MET_125 2017-09-28 12:15:00 125 30483.0 25.320 25.830 26.270 25.560 24.150 25.110 24.230 3.951 3.652 720.20 114.00 13.260 13.320 12.930 12.690 13.250 25.470 26.060 26.600 25.740 24.310 5.191 4.262 729.90 114.00 0.8490 1.1000 25.200 25.720 26.100 25.400 24.030 2.628 2.709 0.00000 0.00 318 0.00 0.00 0.3840 100.90 34.15 0.6200 111.900 51.230 32.282 8.104 24.176 32.746 7.935 24.811
WS7MET_125 2017-09-28 12:10:00 125 30483.0 25.410 25.870 26.200 25.480 24.060 29.030 25.340 6.068 4.216 729.60 114.00 13.250 13.330 12.930 12.690 13.260 25.510 26.050 26.330 25.570 24.450 7.996 6.041 731.20 114.00 0.8170 1.3000 25.270 25.670 26.080 25.370 23.830 3.117 3.331 0.00000 0.00 318 0.00 0.00 0.5510 114.00 27.73 0.6900 127.600 35.370 32.455 9.395 23.034 32.591 8.257 24.332
WS7MET_125 2017-09-28 12:05:00 125 30483.0 25.200 25.730 26.040 25.380 23.760 33.490 29.110 7.960 6.106 728.90 115.10 13.250 13.330 12.930 12.690 13.260 25.370 25.990 26.390 25.570 24.370 11.680 8.120 731.20 115.40 1.0320 1.6000 25.060 25.530 25.840 25.200 23.340 5.724 3.955 0.00000 0.00 318 0.00 0.00 0.6350 144.00 47.18 0.8500 163.700 42.030 32.053 10.698 21.318 32.398 9.419 22.967
WS7MET_125 2017-09-28 12:00:00 125 30483.0 25.210 25.740 26.200 25.720 24.040 29.560 27.330 6.158 5.508 727.60 115.70 13.250 13.330 12.940 12.690 13.290 25.570 25.890 26.360 25.920 24.430 8.470 6.382 729.90 116.70 0.9280 0.9000 24.930 25.560 26.070 25.510 23.550 3.976 4.447 0.00000 0.00 318 0.00 0.00 0.4980 186.90 39.12 0.6400 195.200 19.730 32.072 9.453 22.592 33.058 9.037 24.023
WS7MET_125 2017-09-28 11:55:00 125 30483.0 25.310 25.890 26.480 25.770 23.680 30.650 28.780 6.739 6.230 724.90 117.00 13.250 13.330 12.940 12.700 13.280 25.400 26.100 26.780 25.980 24.170 8.500 9.270 725.90 118.10 0.6340 1.0000 25.230 25.740 26.240 25.570 23.200 4.215 4.213 0.00000 0.00 318 0.00 0.00 0.2640 145.50 83.00 0.5350 165.400 50.600 32.263 9.840 22.375 33.156 9.500 23.614
WS7MET_125 2017-09-28 11:50:00 125 30483.0 24.880 25.530 26.060 25.260 23.570 32.770 30.810 7.399 6.833 722.30 118.10 13.250 13.340 12.940 12.690 13.280 25.230 25.790 26.420 25.610 23.990 10.270 9.430 725.90 118.10 0.5290 0.9000 24.550 25.220 25.540 24.930 23.090 5.915 5.804 0.00000 0.00 318 0.00 0.00 0.0840 160.00 44.40 0.3700 187.400 61.150 31.448 10.296 21.143 32.168 9.904 22.257
WS7MET_125 2017-09-28 11:45:00 125 30483.0 24.380 24.870 25.420 24.710 23.400 29.320 27.780 5.312 4.837 719.80 119.60 13.250 13.340 12.930 12.690 13.310 24.480 25.160 25.540 24.890 23.860 8.700 8.130 721.90 120.80 1.8750 2.8000 24.240 24.730 25.320 24.590 22.920 3.395 3.164 0.00000 0.00 318 0.00 0.00 1.1120 230.60 20.45 1.3250 248.600 32.130 30.523 8.914 21.573 31.131 8.624 22.483
WS7MET_125 2017-09-28 11:40:00 125 30483.0 24.510 25.050 25.570 24.910 23.320 31.290 29.660 6.339 5.940 718.20 121.40 13.260 13.340 12.930 12.690 13.310 24.620 25.220 25.680 25.060 23.920 9.390 8.470 720.60 122.10 1.7050 2.1000 24.410 24.780 25.430 24.760 22.710 4.186 3.991 0.00000 0.00 318 0.00 0.00 0.5710 192.40 40.94 0.7450 222.600 44.550 30.761 9.572 21.136 31.504 9.312 22.160
WS7MET_125 2017-09-28 11:35:00 125 30483.0 24.340 25.230 25.640 25.150 23.390 35.320 32.260 7.973 7.383 716.20 123.60 13.260 13.340 12.930 12.690 13.320 24.480 25.330 25.770 25.270 23.740 10.600 10.850 720.60 124.80 1.5160 1.5000 24.140 25.110 25.500 24.990 22.990 5.154 5.436 0.00000 0.00 318 0.00 0.00 0.5290 207.10 55.07 0.7700 219.800 34.170 30.450 10.707 19.695 31.958 10.284 21.648
WS7MET_125 2017-09-28 11:30:00 125 30483.0 24.050 25.060 25.500 25.020 23.450 35.570 32.320 7.807 7.281 713.70 124.80 13.260 13.340 12.930 12.700 13.350 24.180 25.170 25.580 25.130 23.750 10.740 9.960 716.60 124.80 1.2020 1.1000 23.770 24.890 25.310 24.790 23.010 4.385 4.211 0.00000 0.00 318 0.00 0.00 0.3060 237.10 57.47 0.4300 232.300 52.650 29.925 10.587 19.281 31.711 10.213 21.462
WS7MET_125 2017-09-28 11:25:00 125 30483.0 23.690 24.620 25.120 24.730 23.250 28.980 27.020 4.601 4.483 710.50 124.80 13.260 13.340 12.930 12.700 13.350 23.870 24.810 25.250 24.820 23.510 5.851 5.569 712.60 124.80 0.8040 1.2000 23.560 24.490 25.000 24.620 22.990 3.535 2.687 0.00000 0.00 318 0.00 0.00 0.3740 98.30 48.11 0.5850 119.200 52.350 29.285 8.483 20.798 31.168 8.413 22.746
WS7MET_125 2017-09-28 11:20:00 125 30483.0 23.450 24.470 25.220 24.720 22.560 40.760 36.040 9.290 8.570 704.40 124.20 13.270 13.340 12.930 12.700 13.380 23.630 24.590 25.450 24.860 23.030 10.960 10.330 708.60 124.80 0.7640 1.1000 23.250 24.320 24.940 24.520 22.050 4.473 3.752 0.00000 0.00 318 0.00 0.00 0.2860 229.50 60.20 0.4100 229.600 53.040 28.865 11.707 17.099 31.149 11.151 19.923
WS7MET_125 2017-09-28 11:15:00 125 30483.0 22.950 23.990 24.700 24.320 22.320 44.020 37.810 10.060 9.020 698.80 122.30 13.270 13.340 12.930 12.690 13.390 23.320 24.310 24.980 24.520 22.900 11.230 10.560 701.90 123.50 0.6660 0.9000 22.780 23.750 24.440 24.140 21.930 8.880 7.944 0.00000 0.00 318 0.00 0.00 0.1720 231.50 75.12 0.4000 230.000 80.400 28.006 12.328 15.678 30.413 11.495 18.914
WS7MET_125 2017-09-28 11:10:00 125 30483.0 22.960 23.940 24.730 24.270 22.060 41.150 36.530 9.060 8.470 694.10 120.60 13.270 13.340 12.930 12.690 13.380 23.020 24.160 25.080 24.380 22.450 10.430 9.300 696.50 120.80 0.7710 1.1000 22.880 23.740 24.440 24.070 21.810 7.224 7.118 0.00000 0.00 318 0.00 0.00 0.2700 136.70 44.75 0.4700 156.500 54.720 28.023 11.526 16.492 30.322 11.075 19.246
WS7MET_125 2017-09-28 11:05:00 125 30483.0 22.760 23.800 24.310 23.810 21.960 41.610 36.910 9.030 8.230 689.40 118.80 13.270 13.340 12.930 12.700 13.390 22.980 23.990 24.650 24.040 22.560 11.040 9.350 692.50 119.40 0.6730 1.0000 22.570 23.560 23.940 23.600 21.370 6.933 7.136 0.00000 0.00 318 0.00 0.00 0.2790 169.90 30.99 0.3950 187.100 25.800 27.686 11.503 16.166 29.497 10.896 18.610
WS7MET_125 2017-09-28 11:00:00 125 30483.0 22.250 23.540 24.040 23.580 22.280 40.940 35.950 8.340 7.633 684.40 116.40 13.280 13.340 12.930 12.690 13.400 22.670 23.780 24.230 23.660 22.510 9.550 8.890 688.50 118.10 1.2020 1.8000 21.820 23.130 23.830 23.490 22.050 7.010 6.976 0.00000 0.00 318 0.00 0.00 0.5520 206.90 28.62 0.7850 220.100 25.210 26.842 10.978 15.853 29.092 10.462 18.633
WS7MET_125 2017-09-28 10:55:00 125 30483.0 21.200 22.700 23.620 23.500 21.540 46.490 39.230 9.270 8.850 677.90 113.20 13.280 13.340 12.920 12.690 13.410 21.720 23.090 23.830 23.660 22.390 10.680 9.920 681.80 114.10 1.1300 1.5000 20.730 22.460 23.370 23.390 20.670 7.879 7.640 0.00000 0.00 318 0.00 0.00 0.5330 199.00 44.12 0.7850 201.900 48.180 25.174 11.691 13.471 28.952 11.364 17.594
WS7MET_125 2017-09-28 10:50:00 125 30483.0 20.530 21.990 23.110 23.270 20.950 48.000 40.550 9.150 9.140 672.30 110.80 13.280 13.340 12.920 12.700 13.450 20.730 22.400 23.550 23.560 21.450 10.020 10.220 675.00 111.40 0.6660 0.8000 20.320 21.630 22.650 23.020 20.480 8.530 8.520 0.00000 0.00 318 0.00 0.00 0.1170 206.30 44.61 0.3600 219.300 56.660 24.158 11.597 12.562 28.553 11.589 16.975
WS7MET_125 2017-09-28 10:45:00 125 30483.0 20.120 21.420 22.550 22.850 20.610 47.290 39.680 8.560 8.440 665.40 108.40 13.290 13.340 12.920 12.700 13.450 20.350 21.620 22.710 23.020 21.210 9.440 8.760 669.70 110.00 0.5290 1.0000 19.980 21.260 22.340 22.670 20.290 7.999 7.866 0.00000 0.00 318 0.00 0.00 0.0890 90.70 30.77 0.3000 128.700 52.170 23.554 11.143 12.416 27.837 11.053 16.791
WS7MET_125 2017-09-28 10:40:00 125 30483.0 19.830 21.210 22.350 22.650 20.510 48.070 39.150 8.530 8.060 657.80 105.10 13.290 13.340 12.920 12.690 13.450 20.150 21.390 22.510 22.810 20.980 9.880 8.760 663.00 107.40 0.7640 1.5000 19.540 21.000 22.090 22.370 20.150 7.703 7.076 0.00000 0.00 318 0.00 0.00 0.2610 116.80 35.67 0.5150 123.300 46.300 23.135 11.120 12.014 27.502 10.771 16.735
WS7MET_125 2017-09-28 10:35:00 125 30483.0 19.430 20.750 21.630 22.090 19.880 49.430 40.880 8.580 8.200 650.80 102.70 13.300 13.340 12.920 12.690 13.470 19.570 20.970 22.070 22.400 20.290 9.770 8.700 653.60 103.30 0.0590 0.5000 19.370 20.620 21.400 21.920 19.400 7.670 7.402 0.00000 0.00 318 0.00 0.00 0.0060 184.30 30.52 0.2600 177.300 83.500 22.568 11.158 11.413 26.582 10.874 15.715
WS7MET_125 2017-09-28 10:30:00 125 30483.0 19.410 20.520 21.340 21.760 19.910 49.140 42.790 8.480 8.580 643.80 99.20 13.300 13.340 12.920 12.690 13.490 19.570 20.650 21.480 21.890 20.500 9.250 9.450 648.20 100.70 1.3330 1.5000 19.260 20.320 21.140 21.620 19.370 7.959 7.860 0.00000 0.00 318 0.00 0.00 0.3100 103.60 21.89 0.5700 126.000 49.970 22.540 11.083 11.464 26.052 11.158 14.904
WS7MET_125 2017-09-28 10:25:00 125 30483.0 19.450 20.360 21.020 21.400 19.460 48.150 43.100 8.220 8.360 634.60 94.90 13.310 13.350 12.910 12.690 13.510 19.640 20.510 21.290 21.620 19.930 8.850 8.710 640.20 96.60 0.2480 0.6000 19.330 20.250 20.830 21.240 19.000 7.810 7.754 0.00000 0.00 318 0.00 0.00 0.0350 45.87 39.66 0.2850 141.700 80.300 22.596 10.889 11.716 25.485 10.993 14.501
WS7MET_125 2017-09-28 10:20:00 125 30483.0 19.610 20.400 20.950 21.470 19.200 45.960 41.450 7.679 7.834 625.10 90.30 13.310 13.360 12.910 12.690 13.550 19.880 20.710 21.250 21.860 19.440 7.989 8.520 630.80 92.60 0.9080 1.0000 19.470 20.310 20.860 21.310 18.900 7.233 6.641 0.00000 0.00 318 0.00 0.00 0.1890 86.20 21.00 0.3550 134.000 37.370 22.822 10.495 12.333 25.594 10.606 14.985
WS7MET_125 2017-09-28 10:15:00 125 30483.0 19.730 20.990 21.530 21.870 20.060 45.460 38.860 7.628 7.264 615.80 86.30 13.320 13.340 12.910 12.680 13.530 19.980 21.100 21.670 21.990 20.640 8.150 7.821 620.00 87.20 0.2220 0.6000 19.300 20.790 21.340 21.720 19.230 7.149 6.890 0.00000 0.00 318 0.00 0.00 0.0410 77.56 38.16 0.2800 76.660 82.200 22.992 10.458 12.540 26.227 10.201 16.035
WS7MET_125 2017-09-28 10:10:00 125 30483.0 19.010 20.350 21.110 21.650 19.630 49.990 43.060 8.350 8.560 606.90 82.50 13.320 13.340 12.900 12.690 14.120 19.330 20.790 21.420 21.790 20.340 9.010 9.630 610.60 84.50 1.0450 1.3000 18.820 20.140 20.920 21.510 19.020 7.305 7.024 0.00000 0.00 318 0.00 0.00 0.1640 227.10 26.20 0.3750 240.200 44.640 21.985 10.985 10.995 25.877 11.143 14.735
WS7MET_125 2017-09-28 10:05:00 125 30483.0 18.760 19.960 20.780 21.350 19.470 53.380 44.210 9.100 8.690 598.10 78.71 13.330 13.350 12.900 12.690 14.320 18.890 20.240 21.030 21.550 20.040 9.770 9.100 602.60 80.50 0.7060 0.9000 18.650 19.710 20.520 21.170 18.840 8.370 8.030 0.00000 0.00 318 0.00 0.00 0.0750 304.10 51.50 0.2800 233.200 70.330 21.645 11.558 10.091 25.407 11.242 14.174
WS7MET_125 2017-09-28 10:00:00 125 30483.0 18.790 19.940 20.590 21.130 18.960 52.140 44.710 8.780 8.660 588.30 75.22 13.320 13.350 12.900 12.690 14.280 18.890 20.000 20.690 21.310 19.190 9.180 9.130 593.20 76.50 0.5360 0.6000 18.720 19.770 20.510 20.930 18.740 8.430 8.220 0.00000 0.00 318 0.00 0.00 0.0910 62.45 31.95 0.2700 132.600 69.970 21.685 11.310 10.379 25.066 11.219 13.859
WS7MET_125 2017-09-28 09:55:00 125 30483.0 18.210 19.640 20.250 20.690 19.380 52.550 44.690 8.360 8.250 577.30 72.67 13.330 13.350 12.900 12.680 14.350 18.680 20.050 20.560 20.930 19.840 8.870 8.630 582.40 73.81 0.5230 0.9000 17.900 19.160 19.840 20.390 18.920 7.724 7.705 0.00000 0.00 318 0.00 0.00 0.1090 253.00 40.62 0.3550 245.800 66.190 20.912 10.993 9.923 24.398 10.911 13.494
WS7MET_125 2017-09-28 09:50:00 125 30483.0 17.750 19.000 19.790 20.330 18.380 53.200 46.170 8.120 8.400 567.30 71.20 13.340 13.350 12.900 12.680 14.400 17.930 19.110 19.920 20.490 18.860 8.840 8.910 571.70 72.47 0.7840 0.9000 17.420 18.850 19.660 20.120 18.000 7.593 7.730 0.00000 0.00 318 0.00 0.00 0.1770 69.91 47.97 0.3500 90.000 39.130 20.316 10.815 9.508 23.862 11.023 12.845
WS7MET_125 2017-09-28 09:45:00 125 30483.0 17.290 18.380 19.390 19.620 18.270 53.940 47.090 7.895 8.040 556.90 69.99 13.340 13.350 12.900 12.680 14.420 17.450 18.790 19.750 20.080 18.610 8.720 8.800 563.70 71.13 0.6600 0.8000 17.150 18.040 19.040 19.190 17.830 7.199 7.655 0.00000 0.00 318 0.00 0.00 0.1470 273.70 39.69 0.3300 251.900 74.480 19.734 10.651 9.090 22.836 10.756 12.082
WS7MET_125 2017-09-28 09:40:00 125 30483.0 17.020 17.860 18.750 18.830 17.900 54.660 49.870 7.839 8.160 546.70 68.78 13.350 13.350 12.900 12.680 14.380 17.250 18.010 19.010 19.160 18.330 8.420 8.680 551.60 69.79 0.5030 0.8000 16.810 17.570 18.350 18.410 17.470 7.390 7.325 0.00000 0.00 318 0.00 0.00 0.1370 216.30 59.62 0.3700 248.000 64.430 19.400 10.610 8.796 21.740 10.844 10.898
WS7MET_125 2017-09-28 09:35:00 125 30483.0 16.850 17.570 18.120 18.320 17.130 56.480 52.400 8.160 8.430 535.70 67.97 13.360 13.350 12.900 12.680 14.500 16.940 17.650 18.310 18.410 17.270 8.350 8.750 540.80 68.44 0.1700 0.5000 16.770 17.540 18.040 18.240 16.990 7.893 8.150 0.00000 0.00 318 0.00 0.00 0.0140 33.46 6.57 0.2700 37.740 78.130 19.192 10.844 8.352 21.057 11.045 10.023
WS7MET_125 2017-09-28 09:30:00 125 30483.0 16.750 17.530 17.900 18.150 17.490 57.260 53.030 8.260 8.440 523.10 66.63 13.360 13.350 12.900 12.680 14.500 16.910 17.650 18.050 18.310 18.010 8.610 9.070 530.10 67.10 0.3790 0.7000 16.600 17.350 17.720 18.030 17.040 7.802 7.728 0.00000 0.00 318 0.00 0.00 0.1420 137.70 34.76 0.3400 148.300 65.790 19.071 10.918 8.151 20.833 11.053 9.785
WS7MET_125 2017-09-28 09:25:00 125 30483.0 16.430 17.350 17.740 18.000 17.560 59.200 53.900 8.460 8.540 509.80 64.62 13.360 13.350 12.900 12.680 14.480 16.670 17.540 17.900 18.170 18.260 8.990 9.280 515.30 65.76 0.6860 0.9000 16.190 17.040 17.490 17.830 16.850 7.888 7.914 0.00000 0.00 318 0.00 0.00 0.1460 236.10 45.89 0.3400 205.600 46.020 18.686 11.068 7.624 20.638 11.128 9.514
WS7MET_125 2017-09-28 09:20:00 125 30483.0 16.220 17.080 17.520 17.780 17.180 63.790 55.670 9.370 8.810 499.40 62.07 13.380 13.350 12.890 12.680 14.550 16.360 17.110 17.580 17.860 17.610 10.010 9.250 504.60 63.08 0.1050 0.5000 16.120 17.050 17.470 17.590 16.840 9.030 8.040 0.00000 0.00 318 0.00 0.00 0.0050 9.40 0.00 0.1900 307.100 60.830 18.438 11.770 6.676 20.354 11.333 9.023
WS7MET_125 2017-09-28 09:15:00 125 30483.0 15.850 16.710 17.160 17.380 17.130 63.810 55.950 9.020 8.510 488.00 58.85 13.380 13.360 12.890 12.680 14.590 16.120 17.050 17.450 17.590 17.690 9.680 9.150 493.90 60.39 0.5230 0.7000 15.650 16.490 16.960 17.220 16.540 8.340 7.916 0.00000 0.00 318 0.00 0.00 0.0990 240.10 18.39 0.2900 272.500 44.540 18.008 11.495 6.517 19.847 11.105 8.743
WS7MET_125 2017-09-28 09:10:00 125 30483.0 15.530 16.330 16.720 17.050 16.580 64.620 57.670 8.900 8.650 472.60 53.82 13.380 13.360 12.890 12.680 14.540 15.710 16.510 16.960 17.180 17.140 9.290 9.010 480.50 56.37 0.2810 0.9000 15.370 16.210 16.600 16.980 16.140 8.530 8.320 0.00000 0.00 318 0.00 0.00 0.0440 194.50 15.60 0.2350 220.500 45.200 17.642 11.402 6.242 19.437 11.211 8.228
WS7MET_125 2017-09-28 09:05:00 125 30483.0 15.360 16.090 16.440 16.800 16.320 63.370 56.140 8.450 8.030 455.50 48.58 13.400 13.360 12.890 12.680 14.550 15.610 16.250 16.640 16.940 16.850 8.730 8.790 464.30 51.00 0.0390 0.4000 15.130 15.980 16.330 16.670 15.900 7.909 7.644 0.00000 0.00 318 0.00 0.00 0.0030 210.90 2.50 0.1650 41.960 76.480 17.451 11.060 6.392 19.131 10.749 8.391
WS7MET_125 2017-09-28 09:00:00 125 30483.0 15.260 16.040 16.370 16.720 16.090 63.640 56.440 8.420 8.030 185.30 43.55 13.400 13.370 12.880 12.680 14.580 15.410 16.120 16.440 16.840 16.490 8.940 8.630 426.80 45.63 0.2740 0.6000 15.100 15.970 16.300 16.670 15.780 7.837 7.526 0.00000 0.00 318 0.00 0.00 0.0440 81.30 31.47 0.2900 145.200 96.300 17.339 11.038 6.305 19.034 10.749 8.291
WS7MET_125 2017-09-28 08:55:00 125 30483.0 15.110 15.900 16.270 16.560 16.170 63.090 55.430 8.150 7.611 80.10 38.11 13.400 13.370 12.880 12.680 14.580 15.240 16.170 16.490 16.740 16.700 8.650 8.030 140.90 40.26 0.1830 0.7000 15.000 15.770 16.150 16.360 15.770 7.668 7.051 0.00000 0.00 318 0.00 0.00 0.0590 317.30 59.31 0.3250 348.800 78.030 17.173 10.837 6.339 18.842 10.446 8.398
WS7MET_125 2017-09-28 08:50:00 125 30483.0 15.090 15.860 16.190 16.410 15.780 62.520 56.820 8.010 7.833 48.31 32.81 13.410 13.370 12.880 12.680 14.570 15.240 15.970 16.270 16.500 16.100 8.180 8.200 51.00 34.89 0.6210 0.8000 15.000 15.790 16.120 16.290 15.560 7.847 7.525 0.00000 0.00 318 0.00 0.00 0.0540 47.85 30.13 0.2250 221.000 79.040 17.151 10.734 6.428 18.663 10.606 8.059
WS7MET_125 2017-09-28 08:45:00 125 30483.0 14.870 15.750 16.100 16.300 16.060 60.600 55.910 7.336 7.497 46.03 27.98 13.420 13.370 12.880 12.680 14.650 15.030 15.970 16.300 16.470 16.440 8.170 8.010 46.97 30.87 0.4380 0.6000 14.660 15.490 15.900 16.230 15.500 6.744 6.948 0.00000 0.00 318 0.00 0.00 0.0740 19.78 18.92 0.2700 75.230 49.120 16.910 10.251 6.662 18.532 10.365 8.171
WS7MET_125 2017-09-28 08:40:00 125 30483.0 14.730 15.520 15.970 16.270 15.680 60.140 54.860 7.095 7.179 46.50 23.55 13.430 13.370 12.880 12.680 14.480 14.830 15.590 16.030 16.400 16.220 7.410 8.240 49.66 25.50 0.2350 0.6000 14.660 15.470 15.900 16.090 15.450 6.910 6.045 0.00000 0.00 318 0.00 0.00 0.0430 10.04 3.02 0.2800 33.990 68.160 16.758 10.084 6.680 18.497 10.142 8.350
WS7MET_125 2017-09-28 08:35:00 125 30483.0 14.550 15.410 15.730 15.700 15.710 59.610 57.190 6.793 7.260 46.30 19.86 13.430 13.370 12.880 12.680 13.510 14.660 15.570 15.880 16.020 16.300 7.257 8.430 51.00 21.47 0.4770 0.7000 14.450 15.200 15.530 15.480 15.210 6.441 5.941 0.00000 0.00 318 0.00 0.00 0.1030 292.40 33.53 0.2250 291.000 56.860 16.564 9.876 6.690 17.836 10.198 7.635
WS7MET_125 2017-09-28 08:30:00 125 30483.0 14.350 15.140 15.430 15.390 15.230 59.670 56.430 6.616 6.776 49.25 16.91 13.440 13.370 12.880 12.680 13.000 14.520 15.210 15.530 15.480 15.290 7.016 7.365 69.79 18.79 0.0850 0.5000 14.180 15.020 15.220 15.270 15.170 6.453 6.007 0.00000 0.00 318 0.00 0.00 0.0090 340.00 1.30 0.1800 339.800 34.720 16.351 9.757 6.594 17.485 9.865 7.618
WS7MET_125 2017-09-28 08:25:00 125 30483.0 14.090 14.820 14.960 15.100 15.000 61.910 56.900 6.911 6.630 82.10 14.43 13.450 13.370 12.880 12.680 12.830 14.250 15.020 15.180 15.370 15.150 7.269 7.086 114.10 16.10 0.3790 0.5000 13.940 14.620 14.770 14.790 14.760 6.385 6.127 0.00000 0.00 318 0.00 0.00 0.0970 345.90 13.91 0.2850 357.200 26.120 16.078 9.957 6.124 17.162 9.766 7.397
WS7MET_125 2017-09-28 08:20:00 125 30483.0 13.930 14.500 14.640 14.680 14.660 64.140 60.920 7.273 7.233 88.40 12.75 13.450 13.370 12.880 12.680 12.720 14.010 14.600 14.750 14.930 14.760 7.729 7.661 108.70 13.42 0.6010 0.6000 13.870 14.390 14.500 14.490 14.490 6.580 6.500 0.00000 0.00 318 0.00 0.00 0.0790 49.71 3.87 0.2150 318.200 56.040 15.912 10.207 5.706 16.704 10.179 6.528
WS7MET_125 2017-09-28 08:15:00 125 30483.0 13.800 14.330 14.440 14.500 14.450 64.930 62.230 7.329 7.377 157.90 11.21 13.460 13.370 12.880 12.680 12.680 13.910 14.390 14.490 14.660 14.500 7.775 8.000 224.10 12.08 0.6080 0.8000 13.740 14.260 14.370 14.380 14.330 6.961 6.850 0.00000 0.00 318 0.00 0.00 0.1170 348.70 20.64 0.2950 345.600 49.310 15.778 10.247 5.533 16.511 10.280 6.236
WS7MET_125 2017-09-28 08:10:00 125 30483.0 13.730 14.260 14.340 14.400 14.300 64.540 61.750 7.179 7.170 153.10 9.80 13.460 13.370 12.880 12.680 12.670 13.840 14.280 14.370 14.490 14.330 7.393 7.441 212.00 10.74 0.2740 0.6000 13.600 14.240 14.320 14.280 14.250 6.724 6.698 0.00000 0.00 318 0.00 0.00 0.0590 313.80 38.19 0.2500 341.500 56.480 15.707 10.142 5.570 16.404 10.136 6.275
WS7MET_125 2017-09-28 08:05:00 125 30483.0 13.670 14.160 14.240 14.270 14.270 63.090 61.300 6.787 6.933 52.94 8.39 13.480 13.370 12.870 12.680 12.650 13.770 14.260 14.320 14.350 14.350 6.958 7.527 102.00 9.39 0.3010 0.5000 13.530 14.070 14.170 14.180 14.160 6.586 6.519 0.00000 0.00 318 0.00 0.00 0.0690 332.80 22.63 0.2250 329.000 35.430 15.646 9.872 5.775 16.267 9.972 6.295
WS7MET_125 2017-09-28 08:00:00 125 30483.0 13.540 14.040 14.140 14.150 14.090 63.240 60.200 6.703 6.563 47.37 7.45 13.480 13.370 12.870 12.680 12.630 13.630 14.070 14.170 14.210 14.180 7.196 6.992 96.60 8.05 0.4120 0.8000 13.460 14.010 14.130 14.080 14.020 6.395 6.221 0.00000 0.00 318 0.00 0.00 0.0810 297.00 29.44 0.2700 314.100 40.080 15.514 9.816 5.703 16.141 9.721 6.424
WS7MET_125 2017-09-28 07:55:00 125 30483.0 13.450 13.960 14.060 14.040 14.110 61.510 58.910 6.210 6.143 32.75 6.71 13.490 13.370 12.870 12.680 12.610 13.570 14.050 14.130 14.150 14.210 6.688 6.438 36.24 6.71 0.4970 0.6000 13.360 13.900 13.990 13.970 13.990 5.780 5.904 0.00000 0.00 318 0.00 0.00 0.1970 347.80 7.74 0.3200 4.902 28.240 15.423 9.487 5.936 16.026 9.444 6.585
WS7MET_125 2017-09-28 07:50:00 125 30483.0 13.350 13.880 13.970 13.950 14.010 62.160 59.300 6.263 6.156 31.67 5.57 13.500 13.380 12.870 12.680 12.600 13.460 13.900 13.990 14.010 14.040 6.920 6.523 37.58 6.71 0.5030 0.5000 13.260 13.820 13.930 13.870 13.980 5.904 5.953 0.00000 0.00 318 0.00 0.00 0.1440 354.40 5.87 0.2350 1.494 28.730 15.323 9.522 5.798 15.933 9.452 6.485
WS7MET_125 2017-09-28 07:45:00 125 30483.0 13.330 13.760 13.860 13.880 13.880 60.940 58.300 5.960 5.839 28.85 5.37 13.500 13.380 12.870 12.680 12.580 13.390 13.820 13.910 13.940 13.990 6.628 6.079 29.53 5.37 0.5680 0.7000 13.220 13.730 13.830 13.800 13.830 5.635 5.586 0.00000 0.00 318 0.00 0.00 0.3450 356.80 21.80 0.4600 8.310 14.620 15.303 9.325 5.977 15.861 9.247 6.614
WS7MET_125 2017-09-28 07:40:00 125 30483.0 13.300 13.710 13.820 13.870 13.820 59.140 57.390 5.505 5.604 27.04 4.09 13.500 13.380 12.870 12.680 12.570 13.390 13.750 13.830 13.940 13.870 5.821 6.012 28.18 5.37 0.4380 0.6000 13.220 13.690 13.800 13.800 13.780 5.227 5.275 0.00000 0.00 318 0.00 0.00 0.3530 358.10 12.39 0.3950 14.260 16.910 15.273 9.035 6.240 15.850 9.097 6.754
WS7MET_125 2017-09-28 07:35:00 125 30483.0 13.250 13.740 13.820 13.840 13.830 58.780 55.770 5.365 5.168 24.76 4.03 13.510 13.380 12.870 12.680 12.560 13.360 13.770 13.850 13.910 13.890 5.993 5.316 25.50 4.03 0.4770 0.6000 13.120 13.700 13.780 13.770 13.740 4.824 4.951 0.00000 0.00 318 0.00 0.00 0.1590 334.30 10.18 0.3150 333.100 35.980 15.223 8.947 6.275 15.819 8.825 6.997
WS7MET_125 2017-09-28 07:30:00 125 30483.0 13.150 13.700 13.810 13.840 13.850 57.570 54.580 4.974 4.851 22.01 4.03 13.520 13.380 12.870 12.680 12.540 13.330 13.730 13.850 13.940 13.970 5.291 5.210 22.82 4.03 0.6140 0.8000 13.020 13.650 13.760 13.770 13.700 4.850 4.495 0.00000 0.00 318 0.00 0.00 0.2080 349.90 14.10 0.3050 354.700 31.980 15.124 8.707 6.417 15.819 8.632 7.185
WS7MET_125 2017-09-28 07:25:00 125 30483.0 13.110 13.620 13.730 13.720 13.830 56.700 54.000 4.725 4.588 19.53 3.62 13.520 13.380 12.870 12.680 12.530 13.220 13.650 13.750 13.800 13.850 5.166 4.985 20.13 4.03 0.6790 0.8000 13.020 13.560 13.680 13.630 13.770 4.478 4.276 0.00000 0.00 318 0.00 0.00 0.5820 1.31 9.27 0.6350 14.410 9.090 15.085 8.557 6.532 15.697 8.475 7.220
WS7MET_125 2017-09-28 07:20:00 125 30483.0 13.050 13.490 13.640 13.680 13.730 56.450 53.290 4.597 4.362 16.84 2.68 13.540 13.380 12.870 12.680 12.520 13.120 13.550 13.670 13.770 13.780 5.043 4.685 18.79 2.68 0.7510 0.8000 12.990 13.400 13.580 13.600 13.680 4.147 4.064 0.00000 0.00 318 0.00 0.00 0.6360 346.30 7.74 0.6850 2.610 5.780 15.025 8.480 6.544 15.656 8.342 7.313
WS7MET_125 2017-09-28 07:15:00 125 30483.0 13.050 13.380 13.530 13.600 13.600 57.280 54.450 4.803 4.596 14.49 2.28 13.540 13.380 12.870 12.690 12.510 13.120 13.400 13.570 13.670 13.680 5.185 4.844 16.10 2.68 0.6790 0.8000 12.920 13.340 13.470 13.530 13.470 4.489 4.304 0.00000 0.00 318 0.00 0.00 0.5170 341.40 8.89 0.5750 353.000 6.503 15.025 8.603 6.419 15.574 8.480 7.094
WS7MET_125 2017-09-28 07:10:00 125 30483.0 13.130 13.460 13.570 13.680 13.530 57.170 54.130 4.851 4.585 12.21 1.34 13.540 13.380 12.870 12.690 12.510 13.260 13.530 13.650 13.740 13.710 5.469 5.022 13.42 1.34 0.5030 0.6000 13.050 13.350 13.480 13.600 13.290 4.440 4.282 0.00000 0.00 318 0.00 0.00 0.3800 351.20 17.08 0.4800 6.961 13.940 15.104 8.632 6.469 15.656 8.473 7.181
WS7MET_125 2017-09-28 07:05:00 125 30483.0 13.200 13.560 13.670 13.700 13.710 55.540 53.230 4.501 4.369 8.32 0.07 13.550 13.380 12.860 12.690 12.500 13.260 13.580 13.710 13.770 13.770 5.471 4.867 9.39 1.34 0.5030 0.6000 13.020 13.530 13.650 13.670 13.660 3.987 4.019 0.00000 0.00 318 0.00 0.00 0.3230 332.50 5.80 0.4550 346.700 9.610 15.173 8.423 6.746 15.676 8.346 7.332
WS7MET_125 2017-09-28 07:00:00 125 30483.0 13.230 13.570 13.720 13.820 13.720 55.090 51.940 4.415 4.132 7.05 0.00 13.560 13.380 12.860 12.690 12.500 13.330 13.630 13.750 13.940 13.830 4.856 4.358 8.05 0.00 0.6730 0.8000 13.120 13.540 13.700 13.740 13.650 3.938 4.019 0.00000 0.00 318 0.00 0.00 0.5440 338.20 7.03 0.6450 353.200 6.508 15.203 8.373 6.828 15.799 8.208 7.593
WS7MET_125 2017-09-28 06:55:00 125 30483.0 13.370 13.740 13.880 14.010 13.860 56.570 52.540 4.930 4.469 6.71 0.00 13.560 13.380 12.860 12.690 12.500 13.460 13.790 13.940 14.110 13.970 5.844 4.948 6.71 0.00 0.6660 0.7000 13.190 13.640 13.770 13.940 13.660 4.385 4.086 0.00000 0.00 318 0.00 0.00 0.3820 331.30 16.27 0.5000 340.900 12.370 15.343 8.680 6.663 15.995 8.405 7.591
WS7MET_125 2017-09-28 06:50:00 125 30483.0 13.420 13.790 13.960 14.120 13.990 56.440 51.540 4.937 4.295 6.51 0.00 13.570 13.380 12.860 12.690 12.500 13.500 13.810 13.980 14.210 14.070 5.664 4.689 6.71 0.00 0.6930 1.0000 13.330 13.770 13.940 14.040 13.930 4.354 4.041 0.00000 0.00 318 0.00 0.00 0.5650 333.30 3.64 0.6500 347.300 5.419 15.393 8.684 6.705 16.110 8.303 7.807
WS7MET_125 2017-09-28 06:45:00 125 30483.0 13.450 13.830 14.010 14.170 14.030 54.740 51.110 4.529 4.223 5.37 0.00 13.570 13.380 12.860 12.690 12.490 13.570 13.880 14.060 14.210 14.160 5.459 4.673 5.37 0.00 0.6660 0.7000 13.330 13.780 13.960 14.110 13.880 3.991 3.780 0.00000 0.00 318 0.00 0.00 0.3180 331.20 7.04 0.4850 350.000 24.250 15.423 8.440 6.980 16.162 8.261 7.902
WS7MET_125 2017-09-28 06:40:00 125 30483.0 13.510 13.930 14.080 14.170 14.200 53.730 50.130 4.318 3.949 5.37 0.00 13.580 13.380 12.860 12.690 12.490 13.570 13.960 14.110 14.250 14.300 4.743 4.691 5.37 0.00 0.7250 1.0000 13.460 13.880 14.050 14.110 14.040 3.906 3.589 0.00000 0.00 318 0.00 0.00 0.3610 333.60 3.09 0.4900 351.700 8.650 15.483 8.316 7.164 16.162 8.103 8.060
WS7MET_125 2017-09-28 06:35:00 125 30483.0 13.520 13.900 14.020 14.100 14.120 52.360 49.290 3.960 3.637 4.43 0.00 13.590 13.380 12.860 12.690 12.490 13.570 13.950 14.070 14.250 14.230 4.796 3.902 5.37 0.00 0.6400 0.7000 13.460 13.840 13.970 14.010 14.010 3.413 3.288 0.00000 0.00 318 0.00 0.00 0.4410 332.90 6.64 0.5300 346.500 9.780 15.494 8.109 7.381 16.089 7.927 8.159
WS7MET_125 2017-09-28 06:30:00 125 30483.0 13.580 13.900 14.050 14.190 14.100 50.990 48.680 3.642 3.547 4.03 0.00 13.600 13.380 12.860 12.700 12.490 13.700 13.990 14.130 14.280 14.310 3.975 3.760 4.03 0.00 0.4830 0.7000 13.390 13.840 13.970 14.080 13.970 3.338 3.393 0.00000 0.00 318 0.00 0.00 0.2940 336.70 9.87 0.4700 351.200 7.922 15.554 7.930 7.623 16.183 7.877 8.305
WS7MET_125 2017-09-28 06:25:00 125 30483.0 13.680 13.990 14.110 14.260 14.190 49.810 46.800 3.402 3.059 4.03 0.00 13.610 13.380 12.860 12.700 12.490 13.800 14.050 14.150 14.320 14.310 4.248 3.442 4.03 0.00 0.4900 0.7000 13.570 13.960 14.100 14.210 14.030 3.009 2.787 0.00000 0.00 318 0.00 0.00 0.2920 335.20 14.51 0.4100 350.900 10.160 15.656 7.796 7.858 16.256 7.609 8.648
WS7MET_125 2017-09-28 06:20:00 125 30483.0 13.800 14.140 14.240 14.360 14.330 48.910 46.450 3.254 3.039 4.03 0.00 13.610 13.380 12.860 12.700 12.490 13.870 14.190 14.280 14.450 14.420 4.148 4.219 4.03 0.00 0.5810 0.7000 13.700 14.070 14.160 14.250 14.160 2.712 2.534 0.00000 0.00 318 0.00 0.00 0.3280 348.70 35.68 0.4350 18.970 17.540 15.778 7.715 8.061 16.362 7.598 8.762
WS7MET_125 2017-09-28 06:15:00 125 30483.0 13.880 14.170 14.300 14.510 14.290 48.340 46.460 3.165 3.174 2.88 0.00 13.620 13.380 12.860 12.690 12.490 13.970 14.300 14.440 14.730 14.580 3.628 3.970 4.03 0.00 0.5230 0.7000 13.700 14.090 14.210 14.350 14.160 2.826 2.776 0.00000 0.00 318 0.00 0.00 0.3220 346.00 27.36 0.4600 1.375 16.070 15.861 7.667 8.194 16.521 7.671 8.846
WS7MET_125 2017-09-28 06:10:00 125 30483.0 14.030 14.340 14.500 14.710 14.520 49.990 46.340 3.772 3.323 2.35 0.00 13.630 13.380 12.860 12.700 12.500 14.150 14.430 14.590 14.790 14.640 4.748 3.913 2.68 0.00 0.4970 0.6000 13.910 14.300 14.440 14.590 14.420 3.043 2.906 0.00000 0.00 318 0.00 0.00 0.2150 328.00 21.26 0.4000 344.200 15.590 16.016 8.003 8.009 16.736 7.753 8.981
WS7MET_125 2017-09-28 06:05:00 125 30483.0 14.160 14.540 14.730 14.880 14.720 48.930 44.640 3.579 2.952 1.34 0.00 13.630 13.380 12.860 12.700 12.500 14.280 14.580 14.800 14.930 14.880 4.815 4.038 1.34 0.00 0.6990 0.9000 14.080 14.450 14.600 14.760 14.440 2.715 2.376 0.00000 0.00 318 0.00 0.00 0.2360 348.00 32.22 0.4250 351.700 34.300 16.151 7.894 8.248 16.921 7.552 9.367
WS7MET_125 2017-09-28 06:00:00 125 30483.0 14.260 14.610 14.800 14.920 14.770 50.660 45.530 4.173 3.261 0.34 0.00 13.640 13.380 12.860 12.700 12.510 14.450 14.680 14.840 15.030 14.840 4.865 3.907 1.34 0.00 0.7380 0.9000 14.150 14.580 14.770 14.830 14.720 3.471 2.526 0.00000 0.00 318 0.00 0.00 0.6390 340.40 6.33 0.7100 354.000 6.208 16.256 8.232 8.021 16.964 7.719 9.240
WS7MET_125 2017-09-28 05:55:00 125 30483.0 14.260 14.680 14.870 14.950 14.890 48.680 44.410 3.610 2.944 0.00 0.00 13.650 13.380 12.850 12.700 12.510 14.350 14.720 14.900 15.030 14.950 4.282 3.671 0.00 0.00 0.6470 0.8000 14.180 14.660 14.830 14.860 14.820 3.098 2.529 0.00000 0.00 318 0.00 0.00 0.5800 338.10 4.83 0.6450 349.200 5.956 16.256 7.912 8.343 16.997 7.547 9.449
WS7MET_125 2017-09-28 05:50:00 125 30483.0 14.360 14.770 14.910 15.020 14.870 48.030 44.270 3.505 2.961 0.00 0.00 13.660 13.380 12.850 12.700 12.510 14.490 14.840 14.980 15.070 15.020 4.240 3.837 0.00 0.00 0.6400 0.8000 14.180 14.680 14.830 14.900 14.760 2.755 2.515 0.00000 0.00 318 0.00 0.00 0.5560 339.20 4.05 0.6450 354.000 5.118 16.362 7.853 8.503 17.074 7.556 9.515
WS7MET_125 2017-09-28 05:45:00 125 30483.0 14.450 14.850 15.010 15.080 15.030 47.570 43.620 3.457 2.803 0.00 0.00 13.660 13.380 12.850 12.700 12.510 14.620 14.870 15.030 15.170 15.090 4.105 3.271 0.00 0.00 0.7770 0.9000 14.320 14.830 14.990 15.000 14.990 2.860 2.583 0.00000 0.00 318 0.00 0.00 0.6510 336.60 12.72 0.7100 347.700 5.202 16.457 7.827 8.629 17.140 7.472 9.663
WS7MET_125 2017-09-28 05:40:00 125 30483.0 14.510 14.920 15.040 15.120 15.030 45.780 42.790 2.965 2.581 0.00 0.00 13.670 13.380 12.850 12.700 12.510 14.690 14.960 15.070 15.270 15.090 3.901 2.781 0.00 0.00 0.7450 0.9000 14.420 14.870 15.010 15.030 14.970 2.454 2.424 0.00000 0.00 318 0.00 0.00 0.6650 336.10 8.20 0.8000 348.800 7.792 16.521 7.559 8.958 17.184 7.355 9.831
WS7MET_125 2017-09-28 05:35:00 125 30483.0 14.450 14.920 15.110 15.240 15.100 48.160 44.180 3.625 3.135 0.00 0.00 13.670 13.380 12.850 12.700 12.510 14.550 14.950 15.160 15.340 15.190 4.316 3.827 0.00 0.00 0.7190 0.8000 14.280 14.870 15.070 15.100 15.040 2.583 2.522 0.00000 0.00 318 0.00 0.00 0.5470 334.80 5.71 0.6100 350.500 7.870 16.457 7.920 8.532 17.317 7.650 9.666
WS7MET_125 2017-09-28 05:30:00 125 30483.0 14.460 15.010 15.180 15.240 15.290 48.090 42.380 3.611 2.551 0.00 0.00 13.670 13.380 12.850 12.700 12.510 14.620 15.030 15.200 15.340 15.360 4.704 3.273 0.00 0.00 0.7640 0.8000 14.350 14.950 15.160 15.170 15.200 2.860 2.239 0.00000 0.00 318 0.00 0.00 0.5500 335.80 3.67 0.5950 349.000 8.990 16.468 7.912 8.549 17.317 7.339 9.978
WS7MET_125 2017-09-28 05:25:00 125 30483.0 14.340 14.890 15.040 15.060 15.250 47.470 42.710 3.317 2.495 0.00 0.00 13.690 13.380 12.850 12.700 12.510 14.490 15.010 15.160 15.200 15.350 4.528 3.480 0.00 0.00 0.9020 1.1000 14.150 14.780 14.920 14.930 15.170 2.619 2.161 0.00000 0.00 318 0.00 0.00 0.6610 340.30 16.10 0.7150 350.900 16.650 16.341 7.749 8.584 17.118 7.310 9.807
WS7MET_125 2017-09-28 05:20:00 125 30483.0 14.060 14.510 14.670 14.720 14.900 49.140 44.770 3.552 2.846 0.00 0.00 13.690 13.380 12.850 12.700 12.510 14.180 14.760 14.900 14.930 15.170 4.184 3.318 0.00 0.00 0.8560 1.0000 13.940 14.320 14.490 14.550 14.520 2.578 2.484 0.00000 0.00 318 0.00 0.00 0.5810 337.50 4.88 0.6600 352.300 3.999 16.047 7.879 8.161 16.747 7.495 9.249
WS7MET_125 2017-09-28 05:15:00 125 30483.0 14.140 14.430 14.590 14.780 14.490 50.580 47.560 4.038 3.755 0.00 0.00 13.700 13.380 12.860 12.690 12.510 14.280 14.580 14.730 14.960 14.690 5.197 4.876 0.00 0.00 0.6400 0.9000 13.970 14.290 14.450 14.590 14.350 3.183 3.172 0.00000 0.00 318 0.00 0.00 0.4000 296.70 41.94 0.5600 314.500 37.340 16.130 8.154 7.972 16.812 7.993 8.816
WS7MET_125 2017-09-28 05:10:00 125 30483.0 14.350 14.670 14.840 15.020 14.860 48.870 45.570 3.743 3.372 0.00 0.00 13.710 13.380 12.850 12.700 12.510 14.520 14.710 14.850 15.130 14.960 4.411 4.062 0.00 0.00 0.6790 0.8000 14.250 14.600 14.750 14.960 14.640 3.223 2.960 0.00000 0.00 318 0.00 0.00 0.3840 340.30 24.45 0.4700 343.200 29.860 16.351 7.986 8.360 17.074 7.780 9.293
WS7MET_125 2017-09-28 05:05:00 125 30483.0 14.560 14.890 15.060 15.250 14.980 46.840 43.630 3.343 2.966 0.00 0.00 13.710 13.390 12.840 12.700 12.520 14.690 15.030 15.220 15.410 15.170 3.867 3.436 0.00 0.00 0.5880 1.1000 14.420 14.680 14.850 15.130 14.710 2.953 2.546 0.00000 0.00 318 0.00 0.00 0.0760 315.30 23.03 0.3050 323.200 38.110 16.575 7.764 8.811 17.328 7.559 9.768
WS7MET_125 2017-09-28 05:00:00 125 30483.0 14.690 15.130 15.300 15.390 15.370 46.580 43.200 3.378 2.943 0.00 0.00 13.710 13.390 12.850 12.700 12.520 14.830 15.200 15.350 15.440 15.500 4.647 4.365 0.00 0.00 0.6790 0.7000 14.590 15.050 15.220 15.340 15.220 2.628 2.450 0.00000 0.00 318 0.00 0.00 0.4900 343.50 9.25 0.4900 356.800 11.050 16.715 7.783 8.929 17.485 7.547 9.931
WS7MET_125 2017-09-28 04:55:00 125 30483.0 14.710 15.140 15.320 15.380 15.400 48.000 43.570 3.812 3.062 0.00 0.00 13.720 13.370 12.850 12.700 12.520 14.830 15.200 15.380 15.510 15.600 4.796 3.921 0.00 0.00 0.6010 0.8000 14.590 15.070 15.260 15.270 15.230 2.908 2.508 0.00000 0.00 318 0.00 0.00 0.2840 357.90 32.83 0.4350 14.250 42.880 16.736 8.025 8.703 17.474 7.611 9.860
WS7MET_125 2017-09-28 04:50:00 125 30483.0 14.580 15.060 15.200 15.180 15.340 46.610 43.650 3.281 2.905 0.00 0.00 13.730 13.370 12.850 12.700 12.520 14.730 15.160 15.330 15.340 15.460 4.456 4.119 0.00 0.00 0.8620 1.0000 14.420 14.900 15.040 15.070 15.120 2.583 2.623 0.00000 0.00 318 0.00 0.00 0.7180 342.30 5.25 0.7750 356.400 7.730 16.596 7.730 8.861 17.250 7.526 9.721
WS7MET_125 2017-09-28 04:45:00 125 30483.0 14.440 14.840 15.010 15.110 15.090 47.350 44.890 3.380 3.237 0.00 0.00 13.730 13.380 12.850 12.700 12.520 14.590 14.900 15.050 15.240 15.170 5.111 4.577 0.00 0.00 0.9730 1.0000 14.320 14.790 14.960 15.030 14.960 2.775 2.750 0.00000 0.00 318 0.00 0.00 0.4460 334.20 9.59 0.5650 342.800 21.850 16.447 7.784 8.659 17.173 7.706 9.464
WS7MET_125 2017-09-28 04:40:00 125 30483.0 14.530 14.900 15.040 15.150 15.110 47.780 45.280 3.596 3.402 0.00 0.00 13.730 13.380 12.850 12.700 12.520 14.690 14.920 15.060 15.240 15.240 4.238 3.619 0.00 0.00 0.5810 0.7000 14.420 14.880 15.020 15.070 15.020 3.173 3.258 0.00000 0.00 318 0.00 0.00 0.3800 331.30 7.09 0.5150 342.800 9.660 16.543 7.904 8.639 17.217 7.796 9.421
WS7MET_125 2017-09-28 04:35:00 125 30483.0 14.650 15.040 15.170 15.340 15.180 47.450 44.630 3.603 3.373 0.00 0.00 13.750 13.380 12.850 12.700 12.520 14.730 15.090 15.240 15.510 15.350 4.231 3.685 0.00 0.00 0.5880 0.7000 14.520 14.940 15.070 15.200 15.020 3.214 3.200 0.00000 0.00 318 0.00 0.00 0.4120 340.00 12.81 0.5150 353.800 13.120 16.671 7.908 8.761 17.429 7.780 9.650
WS7MET_125 2017-09-28 04:30:00 125 30483.0 14.720 15.150 15.320 15.470 15.380 47.210 42.710 3.598 2.867 0.00 0.00 13.750 13.380 12.850 12.700 12.530 14.830 15.180 15.370 15.610 15.460 4.390 3.392 0.00 0.00 0.6730 0.7000 14.620 15.070 15.240 15.370 15.170 3.025 2.596 0.00000 0.00 318 0.00 0.00 0.2820 343.90 21.22 0.4650 355.200 8.310 16.747 7.905 8.841 17.575 7.506 10.069
WS7MET_125 2017-09-28 04:25:00 125 30483.0 14.800 15.220 15.420 15.550 15.410 48.810 44.110 4.143 3.389 0.00 0.00 13.750 13.380 12.850 12.700 12.530 14.900 15.280 15.480 15.680 15.490 4.891 4.491 0.00 0.00 0.7910 0.8000 14.730 15.160 15.370 15.510 15.360 3.619 2.723 0.00000 0.00 318 0.00 0.00 0.4920 342.70 2.67 0.5050 352.700 8.600 16.834 8.214 8.617 17.665 7.789 9.873
WS7MET_125 2017-09-28 04:20:00 125 30483.0 14.810 15.310 15.490 15.530 15.520 48.950 43.850 4.190 3.285 0.00 0.00 13.760 13.380 12.840 12.700 12.520 14.930 15.350 15.500 15.610 15.580 5.168 3.992 0.00 0.00 0.8360 0.9000 14.730 15.280 15.480 15.440 15.460 3.339 2.935 0.00000 0.00 318 0.00 0.00 0.6190 341.90 3.87 0.6800 352.300 4.615 16.844 8.242 8.599 17.642 7.732 9.906
WS7MET_125 2017-09-28 04:15:00 125 30483.0 14.770 15.220 15.370 15.390 15.450 49.240 44.600 4.219 3.395 0.00 0.00 13.770 13.370 12.840 12.700 12.520 14.930 15.350 15.480 15.540 15.570 5.921 4.627 0.00 0.00 0.8750 1.0000 14.620 15.130 15.280 15.270 15.280 3.129 3.037 0.00000 0.00 318 0.00 0.00 0.6540 333.30 5.40 0.7550 348.500 7.664 16.801 8.258 8.528 17.485 7.792 9.687
WS7MET_125 2017-09-28 04:10:00 125 30483.0 14.740 15.170 15.350 15.420 15.410 47.800 44.880 3.793 3.523 0.00 0.00 13.770 13.370 12.840 12.700 12.530 14.830 15.200 15.390 15.540 15.510 4.541 3.888 0.00 0.00 0.6730 0.9000 14.660 15.130 15.280 15.310 15.310 3.266 3.223 0.00000 0.00 318 0.00 0.00 0.3900 330.60 10.56 0.5450 342.400 14.560 16.769 8.014 8.753 17.518 7.863 9.656
WS7MET_125 2017-09-28 04:05:00 125 30483.0 14.850 15.270 15.440 15.510 15.430 48.570 44.330 4.115 3.426 0.00 0.00 13.790 13.370 12.840 12.700 12.530 14.930 15.350 15.480 15.610 15.470 5.241 4.407 0.00 0.00 0.6660 0.7000 14.730 15.200 15.390 15.440 15.390 3.159 2.940 0.00000 0.00 318 0.00 0.00 0.4820 347.80 6.16 0.5000 2.711 7.258 16.888 8.198 8.685 17.620 7.809 9.809
WS7MET_125 2017-09-28 04:00:00 125 30483.0 14.830 15.390 15.540 15.580 15.570 48.040 43.990 3.944 3.379 0.00 0.00 13.790 13.360 12.840 12.700 12.530 14.900 15.410 15.570 15.650 15.720 5.168 4.634 0.00 0.00 0.5680 0.7000 14.760 15.370 15.490 15.510 15.490 3.391 3.081 0.00000 0.00 318 0.00 0.00 0.4860 325.90 9.28 0.5650 338.800 14.220 16.866 8.100 8.764 17.699 7.784 9.913
WS7MET_125 2017-09-28 03:55:00 125 30483.0 14.790 15.360 15.510 15.570 15.570 50.000 44.800 4.469 3.631 0.00 0.00 13.790 13.360 12.830 12.700 12.540 14.930 15.410 15.570 15.650 15.730 5.765 4.834 0.00 0.00 0.7770 0.9000 14.730 15.310 15.480 15.510 15.460 3.349 3.139 0.00000 0.00 318 0.00 0.00 0.5040 340.50 13.15 0.5450 357.800 14.310 16.823 8.405 8.411 17.688 7.923 9.764
WS7MET_125 2017-09-28 03:50:00 125 30483.0 14.950 15.410 15.550 15.630 15.620 49.880 44.940 4.558 3.723 0.00 0.00 13.800 13.360 12.830 12.700 12.540 15.030 15.450 15.580 15.710 15.710 6.058 4.534 0.00 0.00 0.5230 0.6000 14.830 15.390 15.520 15.540 15.550 3.411 3.298 0.00000 0.00 318 0.00 0.00 0.3850 335.20 5.82 0.4650 345.800 11.870 16.997 8.457 8.519 17.756 7.975 9.776
WS7MET_125 2017-09-28 03:45:00 125 30483.0 15.030 15.460 15.570 15.630 15.630 48.020 43.930 4.113 3.402 0.00 0.00 13.810 13.360 12.830 12.700 12.540 15.100 15.500 15.590 15.680 15.710 5.327 4.389 0.00 0.00 0.5230 0.6000 14.960 15.440 15.530 15.580 15.540 3.301 3.067 0.00000 0.00 318 0.00 0.00 0.4610 343.50 8.72 0.5050 358.100 4.460 17.085 8.197 8.881 17.756 7.796 9.956
WS7MET_125 2017-09-28 03:40:00 125 30483.0 15.140 15.500 15.600 15.700 15.560 45.400 42.710 3.427 3.071 0.00 0.00 13.810 13.360 12.830 12.700 12.540 15.240 15.570 15.670 15.850 15.670 4.126 3.431 0.00 0.00 0.6930 0.9000 15.070 15.470 15.540 15.540 15.500 3.042 2.891 0.00000 0.00 318 0.00 0.00 0.4750 325.60 3.61 0.5900 340.300 7.792 17.206 7.810 9.395 17.836 7.616 10.218
WS7MET_125 2017-09-28 03:35:00 125 30483.0 15.140 15.570 15.740 15.850 15.730 45.020 41.880 3.305 2.928 0.00 0.00 13.820 13.360 12.830 12.700 12.540 15.200 15.610 15.800 15.950 15.860 3.838 3.204 0.00 0.00 0.6860 0.8000 15.030 15.530 15.700 15.750 15.630 2.931 2.661 0.00000 0.00 318 0.00 0.00 0.5130 333.50 8.65 0.5800 347.500 12.550 17.206 7.743 9.460 18.008 7.539 10.466
WS7MET_125 2017-09-28 03:30:00 125 30483.0 15.120 15.580 15.780 15.930 15.780 47.390 42.070 4.018 3.063 0.00 0.00 13.830 13.360 12.830 12.700 12.540 15.240 15.630 15.840 15.990 15.850 4.793 3.915 0.00 0.00 0.7060 0.8000 15.000 15.540 15.750 15.850 15.710 3.225 2.527 0.00000 0.00 318 0.00 0.00 0.5970 339.60 8.79 0.6400 352.300 9.240 17.184 8.143 9.041 18.100 7.611 10.485
WS7MET_125 2017-09-28 03:25:00 125 30483.0 15.150 15.670 15.860 16.000 15.860 47.490 41.540 4.073 2.952 0.00 0.00 13.840 13.360 12.830 12.700 12.540 15.240 15.720 15.890 16.090 15.960 4.960 3.703 0.00 0.00 0.9410 1.1000 15.070 15.630 15.840 15.920 15.790 3.429 2.451 0.00000 0.00 318 0.00 0.00 0.7050 338.50 7.66 0.7800 350.400 7.381 17.217 8.174 9.041 18.181 7.552 10.629
WS7MET_125 2017-09-28 03:20:00 125 30483.0 15.220 15.740 15.910 16.040 15.900 48.130 41.340 4.329 2.909 0.00 0.00 13.840 13.360 12.830 12.700 12.540 15.340 15.830 15.980 16.090 16.000 5.006 3.990 0.00 0.00 0.8170 0.9000 15.130 15.640 15.840 15.990 15.770 3.318 2.382 0.00000 0.00 318 0.00 0.00 0.6010 343.30 6.73 0.6250 356.600 8.110 17.295 8.322 8.971 18.228 7.529 10.692
WS7MET_125 2017-09-28 03:15:00 125 30483.0 15.290 15.810 15.980 16.060 16.010 44.830 39.940 3.382 2.448 0.00 0.00 13.840 13.360 12.830 12.700 12.540 15.370 15.840 16.010 16.160 16.060 4.514 3.494 0.00 0.00 1.1300 1.3000 15.200 15.780 15.960 15.950 15.970 2.671 2.096 0.00000 0.00 318 0.00 0.00 0.6610 340.90 11.68 0.7700 354.600 13.360 17.373 7.785 9.585 18.251 7.286 10.961
WS7MET_125 2017-09-28 03:10:00 125 30483.0 15.300 15.790 16.010 16.090 16.030 44.110 39.780 3.163 2.419 0.00 0.00 13.850 13.360 12.830 12.700 12.550 15.410 15.800 16.020 16.190 16.060 4.314 3.159 0.00 0.00 0.7580 0.7000 15.170 15.780 16.000 16.020 15.980 2.531 2.163 0.00000 0.00 318 0.00 0.00 0.5500 345.40 14.23 0.6150 356.000 14.350 17.384 7.665 9.716 18.286 7.271 11.012
WS7MET_125 2017-09-28 03:05:00 125 30483.0 15.290 15.830 16.040 16.110 16.100 45.690 40.450 3.642 2.667 0.00 0.00 13.860 13.360 12.830 12.700 12.550 15.370 15.850 16.040 16.190 16.150 4.938 3.873 0.00 0.00 0.9800 1.2000 15.200 15.800 16.000 16.020 16.030 2.542 2.182 0.00000 0.00 318 0.00 0.00 0.7070 346.20 12.32 0.7750 0.490 11.260 17.373 7.930 9.435 18.309 7.400 10.903
WS7MET_125 2017-09-28 03:00:00 125 30483.0 15.200 15.760 15.910 15.970 16.000 49.630 43.180 4.739 3.469 0.00 0.00 13.860 13.350 12.830 12.700 12.550 15.310 15.850 16.000 16.060 16.200 5.728 4.462 0.00 0.00 0.8230 1.0000 15.070 15.700 15.850 15.850 15.840 3.332 2.769 0.00000 0.00 318 0.00 0.00 0.4670 349.00 21.20 0.6000 3.484 25.390 17.273 8.565 8.700 18.146 7.833 10.311
WS7MET_125 2017-09-28 02:55:00 125 30483.0 15.220 15.750 15.890 15.970 15.940 47.780 42.570 4.221 3.266 0.00 0.00 13.870 13.350 12.830 12.700 12.550 15.310 15.780 15.910 16.020 16.060 5.393 4.398 0.00 0.00 1.1110 1.4000 15.100 15.720 15.870 15.920 15.890 3.288 2.823 0.00000 0.00 318 0.00 0.00 0.6900 327.80 13.69 0.7600 343.200 16.110 17.295 8.260 9.031 18.146 7.722 10.421
WS7MET_125 2017-09-28 02:50:00 125 30483.0 15.120 15.660 15.830 15.940 15.940 48.160 42.190 4.238 3.111 0.00 0.00 13.880 13.350 12.830 12.700 12.550 15.240 15.720 15.890 16.020 16.030 5.283 3.821 0.00 0.00 0.8950 1.1000 14.960 15.580 15.750 15.890 15.800 3.049 2.706 0.00000 0.00 318 0.00 0.00 0.5510 337.40 27.31 0.6050 353.400 16.260 17.184 8.269 8.908 18.112 7.637 10.470
WS7MET_125 2017-09-28 02:45:00 125 30483.0 15.140 15.620 15.770 15.880 15.760 49.660 43.980 4.695 3.635 0.00 0.00 13.880 13.340 12.830 12.710 12.560 15.240 15.650 15.800 15.950 15.830 5.728 4.690 0.00 0.00 0.8300 0.9000 15.030 15.590 15.740 15.820 15.690 3.160 2.781 0.00000 0.00 318 0.00 0.00 0.6660 343.60 6.31 0.7300 354.900 6.488 17.206 8.539 8.662 18.042 7.926 10.107
WS7MET_125 2017-09-28 02:40:00 125 30483.0 15.140 15.620 15.770 15.850 15.800 48.810 43.380 4.447 3.428 0.00 0.00 13.880 13.340 12.830 12.710 12.560 15.240 15.650 15.790 15.890 15.840 5.738 4.113 0.00 0.00 1.0780 1.3000 15.070 15.590 15.750 15.780 15.750 3.503 3.068 0.00000 0.00 318 0.00 0.00 0.6280 333.90 17.95 0.6750 346.900 19.960 17.206 8.392 8.808 18.008 7.811 10.196
WS7MET_125 2017-09-28 02:35:00 125 30483.0 15.160 15.630 15.770 15.880 15.810 48.760 44.530 4.448 3.818 0.00 0.00 13.890 13.340 12.830 12.700 12.560 15.270 15.670 15.790 15.950 15.880 5.490 4.998 0.00 0.00 0.7770 1.1000 15.100 15.570 15.740 15.820 15.710 3.352 3.050 0.00000 0.00 318 0.00 0.00 0.5660 337.70 7.57 0.6500 349.900 8.990 17.228 8.392 8.828 18.042 8.029 10.008
WS7MET_125 2017-09-28 02:30:00 125 30483.0 15.140 15.610 15.760 15.840 15.740 47.990 43.580 4.193 3.474 0.00 0.00 13.900 13.340 12.820 12.710 12.560 15.240 15.660 15.790 15.920 15.830 5.578 4.845 0.00 0.00 0.8620 0.9000 15.070 15.590 15.730 15.750 15.660 3.158 2.812 0.00000 0.00 318 0.00 0.00 0.5140 344.20 14.22 0.5900 358.300 16.710 17.206 8.243 8.949 17.996 7.836 10.153
WS7MET_125 2017-09-28 02:25:00 125 30483.0 15.150 15.580 15.740 15.840 15.740 48.360 43.480 4.325 3.451 0.00 0.00 13.900 13.340 12.820 12.710 12.560 15.240 15.630 15.780 15.920 15.820 5.609 3.906 0.00 0.00 0.8100 1.0000 15.070 15.540 15.710 15.780 15.660 3.345 2.882 0.00000 0.00 318 0.00 0.00 0.6230 333.50 9.49 0.7200 346.100 10.260 17.217 8.320 8.891 17.996 7.823 10.171
WS7MET_125 2017-09-28 02:20:00 125 30483.0 15.200 15.640 15.800 15.870 15.780 48.270 44.280 4.350 3.739 0.00 0.00 13.900 13.340 12.820 12.710 12.560 15.270 15.710 15.830 15.990 15.820 5.197 4.028 0.00 0.00 0.8490 1.0000 15.100 15.590 15.760 15.820 15.710 3.417 3.490 0.00000 0.00 318 0.00 0.00 0.6600 342.00 6.34 0.7300 356.900 9.760 17.273 8.335 8.935 18.031 7.984 10.047
WS7MET_125 2017-09-28 02:15:00 125 30483.0 15.240 15.710 15.850 15.930 15.830 46.620 43.250 3.898 3.460 0.00 0.00 13.910 13.340 12.820 12.710 12.560 15.270 15.730 15.870 15.990 15.880 4.514 3.610 0.00 0.00 0.6530 0.9000 15.170 15.670 15.820 15.850 15.770 3.467 3.169 0.00000 0.00 318 0.00 0.00 0.5770 336.70 3.14 0.6600 350.000 6.792 17.317 8.074 9.244 18.100 7.828 10.272
WS7MET_125 2017-09-28 02:10:00 125 30483.0 15.250 15.790 15.930 16.030 15.880 47.490 43.510 4.166 3.630 0.00 0.00 13.920 13.340 12.820 12.700 12.570 15.340 15.890 16.010 16.120 16.010 5.195 4.270 0.00 0.00 0.6340 0.9000 15.170 15.720 15.880 15.920 15.770 3.447 3.415 0.00000 0.00 318 0.00 0.00 0.4650 331.30 7.02 0.5450 346.200 8.480 17.328 8.228 9.099 18.216 7.923 10.290
WS7MET_125 2017-09-28 02:05:00 125 30483.0 15.260 15.870 16.020 16.080 16.060 49.530 43.250 4.774 3.587 0.00 0.00 13.920 13.340 12.820 12.700 12.570 15.370 15.910 16.030 16.160 16.100 5.573 4.868 0.00 0.00 0.7320 0.9000 15.130 15.820 15.990 16.020 15.990 3.942 3.116 0.00000 0.00 318 0.00 0.00 0.5360 332.00 7.57 0.6250 345.700 7.158 17.339 8.586 8.751 18.274 7.899 10.371
WS7MET_125 2017-09-28 02:00:00 125 30483.0 15.240 15.820 15.990 16.030 16.040 49.930 43.240 4.864 3.542 0.00 0.00 13.920 13.340 12.820 12.710 12.570 15.340 15.870 16.030 16.090 16.180 6.014 4.470 0.00 0.00 0.9930 1.0000 15.130 15.760 15.950 15.920 15.880 3.765 3.039 0.00000 0.00 318 0.00 0.00 0.5510 349.30 22.07 0.6150 3.455 16.340 17.317 8.640 8.671 18.216 7.874 10.339
WS7MET_125 2017-09-28 01:55:00 125 30483.0 15.270 15.800 15.950 16.010 15.980 47.640 43.380 4.232 3.572 0.00 0.00 13.930 13.340 12.820 12.710 12.570 15.410 15.840 15.990 16.060 16.030 5.084 4.064 0.00 0.00 1.0060 1.1000 15.170 15.760 15.910 15.950 15.890 3.681 3.314 0.00000 0.00 318 0.00 0.00 0.6300 327.80 9.60 0.7200 341.000 10.410 17.351 8.266 9.085 18.193 7.890 10.301
WS7MET_125 2017-09-28 01:50:00 125 30483.0 15.250 15.750 15.910 15.960 15.920 48.480 44.080 4.459 3.759 0.00 0.00 13.940 13.330 12.820 12.710 12.570 15.340 15.830 15.980 16.060 16.010 5.260 4.503 0.00 0.00 1.5750 1.7000 15.170 15.660 15.840 15.850 15.790 3.890 3.245 0.00000 0.00 318 0.00 0.00 0.7250 353.00 43.99 0.7600 11.340 44.770 17.328 8.399 8.928 18.135 7.995 10.141
WS7MET_125 2017-09-28 01:45:00 125 30483.0 15.250 15.720 15.900